<?xml version="1.0" encoding="UTF-8" standalone="no" ?>
<gpx xmlns="http://www.topografix.com/GPX/1/1" xmlns:xsi="http://www.w3.org/2001/XMLSchema-instance" xsi:schemaLocation="http://www.topografix.com/GPX/1/1 http://www.topografix.com/GPX/1/1/gpx.xsd" version="1.1" creator="VisuGPX - https://www.visugpx.com">
  <metadata>
    <name>La Bresse  ballade entre amis</name>
    <desc><![CDATA[ Sortie vtt autour de La Bresse dans le massif des Vosges en passant par Gerardmer]]></desc>
  </metadata>
  <trk>
    <name><![CDATA[2017-09-23 17:36:45]]></name>
    <trkseg>
      <trkpt lat="48.00809" lon="6.8659">
        <ele>840.44</ele>
        <time>2017-09-23T06:56:59Z</time>
      </trkpt>
      <trkpt lat="48.00809" lon="6.8659">
        <ele>840.44</ele>
        <time>2017-09-23T06:57:00Z</time>
      </trkpt>
      <trkpt lat="48.00767" lon="6.86632">
        <ele>840.09</ele>
        <time>2017-09-23T06:57:35Z</time>
      </trkpt>
      <trkpt lat="48.00768" lon="6.86633">
        <ele>840.52</ele>
        <time>2017-09-23T06:58:56Z</time>
      </trkpt>
      <trkpt lat="48.00768" lon="6.86632">
        <ele>840.61</ele>
        <time>2017-09-23T06:59:34Z</time>
      </trkpt>
      <trkpt lat="48.00769" lon="6.86629">
        <ele>841.45</ele>
        <time>2017-09-23T07:00:32Z</time>
      </trkpt>
      <trkpt lat="48.00769" lon="6.86631">
        <ele>841.53</ele>
        <time>2017-09-23T07:01:33Z</time>
      </trkpt>
      <trkpt lat="48.00768" lon="6.86632">
        <ele>841.99</ele>
        <time>2017-09-23T07:02:29Z</time>
      </trkpt>
      <trkpt lat="48.00767" lon="6.86632">
        <ele>841.46</ele>
        <time>2017-09-23T07:03:26Z</time>
      </trkpt>
      <trkpt lat="48.00767" lon="6.86631">
        <ele>842.29</ele>
        <time>2017-09-23T07:04:19Z</time>
      </trkpt>
      <trkpt lat="48.00767" lon="6.86632">
        <ele>842.43</ele>
        <time>2017-09-23T07:05:12Z</time>
      </trkpt>
      <trkpt lat="48.00769" lon="6.86631">
        <ele>842.18</ele>
        <time>2017-09-23T07:06:20Z</time>
      </trkpt>
      <trkpt lat="48.0077" lon="6.86629">
        <ele>842.42</ele>
        <time>2017-09-23T07:07:13Z</time>
      </trkpt>
      <trkpt lat="48.00769" lon="6.86632">
        <ele>842.85</ele>
        <time>2017-09-23T07:08:11Z</time>
      </trkpt>
      <trkpt lat="48.00768" lon="6.86635">
        <ele>842.92</ele>
        <time>2017-09-23T07:09:16Z</time>
      </trkpt>
      <trkpt lat="48.00767" lon="6.86634">
        <ele>842.86</ele>
        <time>2017-09-23T07:09:58Z</time>
      </trkpt>
      <trkpt lat="48.00767" lon="6.86634">
        <ele>843.31</ele>
        <time>2017-09-23T07:11:02Z</time>
      </trkpt>
      <trkpt lat="48.00768" lon="6.86633">
        <ele>843.72</ele>
        <time>2017-09-23T07:11:59Z</time>
      </trkpt>
      <trkpt lat="48.00767" lon="6.86633">
        <ele>845.06</ele>
        <time>2017-09-23T07:12:21Z</time>
      </trkpt>
      <trkpt lat="48.00767" lon="6.86632">
        <ele>844.1</ele>
        <time>2017-09-23T07:12:32Z</time>
      </trkpt>
      <trkpt lat="48.00767" lon="6.86634">
        <ele>843.78</ele>
        <time>2017-09-23T07:12:57Z</time>
      </trkpt>
      <trkpt lat="48.00767" lon="6.86635">
        <ele>844.81</ele>
        <time>2017-09-23T07:13:35Z</time>
      </trkpt>
      <trkpt lat="48.0077" lon="6.86633">
        <ele>844.57</ele>
        <time>2017-09-23T07:13:58Z</time>
      </trkpt>
      <trkpt lat="48.00769" lon="6.86634">
        <ele>845.01</ele>
        <time>2017-09-23T07:14:14Z</time>
      </trkpt>
      <trkpt lat="48.0077" lon="6.86629">
        <ele>845.32</ele>
        <time>2017-09-23T07:14:47Z</time>
      </trkpt>
      <trkpt lat="48.00769" lon="6.8663">
        <ele>845.34</ele>
        <time>2017-09-23T07:15:09Z</time>
      </trkpt>
      <trkpt lat="48.00769" lon="6.86633">
        <ele>845.05</ele>
        <time>2017-09-23T07:15:33Z</time>
      </trkpt>
      <trkpt lat="48.00771" lon="6.86635">
        <ele>845.28</ele>
        <time>2017-09-23T07:15:49Z</time>
      </trkpt>
      <trkpt lat="48.00769" lon="6.86629">
        <ele>845.03</ele>
        <time>2017-09-23T07:16:25Z</time>
      </trkpt>
      <trkpt lat="48.00766" lon="6.86632">
        <ele>844.71</ele>
        <time>2017-09-23T07:16:45Z</time>
      </trkpt>
      <trkpt lat="48.00767" lon="6.86632">
        <ele>845.23</ele>
        <time>2017-09-23T07:17:07Z</time>
      </trkpt>
      <trkpt lat="48.00767" lon="6.86632">
        <ele>845.71</ele>
        <time>2017-09-23T07:17:33Z</time>
      </trkpt>
      <trkpt lat="48.00768" lon="6.86631">
        <ele>845.59</ele>
        <time>2017-09-23T07:18:00Z</time>
      </trkpt>
      <trkpt lat="48.00766" lon="6.86632">
        <ele>844.89</ele>
        <time>2017-09-23T07:18:29Z</time>
      </trkpt>
      <trkpt lat="48.00757" lon="6.86629">
        <ele>845.33</ele>
        <time>2017-09-23T07:18:35Z</time>
      </trkpt>
      <trkpt lat="48.00755" lon="6.86628">
        <ele>845.09</ele>
        <time>2017-09-23T07:18:36Z</time>
      </trkpt>
      <trkpt lat="48.00752" lon="6.86627">
        <ele>844.91</ele>
        <time>2017-09-23T07:18:37Z</time>
      </trkpt>
      <trkpt lat="48.00744" lon="6.86623">
        <ele>844.98</ele>
        <time>2017-09-23T07:18:41Z</time>
      </trkpt>
      <trkpt lat="48.00743" lon="6.86621">
        <ele>845.51</ele>
        <time>2017-09-23T07:18:42Z</time>
      </trkpt>
      <trkpt lat="48.00742" lon="6.86619">
        <ele>845.7</ele>
        <time>2017-09-23T07:18:43Z</time>
      </trkpt>
      <trkpt lat="48.00741" lon="6.86617">
        <ele>845.96</ele>
        <time>2017-09-23T07:18:44Z</time>
      </trkpt>
      <trkpt lat="48.0074" lon="6.86615">
        <ele>846.3</ele>
        <time>2017-09-23T07:18:45Z</time>
      </trkpt>
      <trkpt lat="48.00738" lon="6.86614">
        <ele>846.34</ele>
        <time>2017-09-23T07:18:46Z</time>
      </trkpt>
      <trkpt lat="48.00737" lon="6.86612">
        <ele>846.26</ele>
        <time>2017-09-23T07:18:47Z</time>
      </trkpt>
      <trkpt lat="48.00736" lon="6.8661">
        <ele>846.52</ele>
        <time>2017-09-23T07:18:48Z</time>
      </trkpt>
      <trkpt lat="48.00736" lon="6.86608">
        <ele>846.98</ele>
        <time>2017-09-23T07:18:49Z</time>
      </trkpt>
      <trkpt lat="48.00735" lon="6.86605">
        <ele>847.28</ele>
        <time>2017-09-23T07:18:50Z</time>
      </trkpt>
      <trkpt lat="48.00735" lon="6.86603">
        <ele>847.19</ele>
        <time>2017-09-23T07:18:51Z</time>
      </trkpt>
      <trkpt lat="48.00735" lon="6.866">
        <ele>847.43</ele>
        <time>2017-09-23T07:18:52Z</time>
      </trkpt>
      <trkpt lat="48.00735" lon="6.86598">
        <ele>847.56</ele>
        <time>2017-09-23T07:18:53Z</time>
      </trkpt>
      <trkpt lat="48.00735" lon="6.86595">
        <ele>847.26</ele>
        <time>2017-09-23T07:18:54Z</time>
      </trkpt>
      <trkpt lat="48.00735" lon="6.86593">
        <ele>847.52</ele>
        <time>2017-09-23T07:18:55Z</time>
      </trkpt>
      <trkpt lat="48.00734" lon="6.8659">
        <ele>847.8</ele>
        <time>2017-09-23T07:18:56Z</time>
      </trkpt>
      <trkpt lat="48.00733" lon="6.86588">
        <ele>847.73</ele>
        <time>2017-09-23T07:18:57Z</time>
      </trkpt>
      <trkpt lat="48.00733" lon="6.86586">
        <ele>847.79</ele>
        <time>2017-09-23T07:18:58Z</time>
      </trkpt>
      <trkpt lat="48.00732" lon="6.86583">
        <ele>848.23</ele>
        <time>2017-09-23T07:18:59Z</time>
      </trkpt>
      <trkpt lat="48.00732" lon="6.8658">
        <ele>848.54</ele>
        <time>2017-09-23T07:19:00Z</time>
      </trkpt>
      <trkpt lat="48.00732" lon="6.86576">
        <ele>848.33</ele>
        <time>2017-09-23T07:19:01Z</time>
      </trkpt>
      <trkpt lat="48.00731" lon="6.86573">
        <ele>848.93</ele>
        <time>2017-09-23T07:19:02Z</time>
      </trkpt>
      <trkpt lat="48.0073" lon="6.8657">
        <ele>849.13</ele>
        <time>2017-09-23T07:19:03Z</time>
      </trkpt>
      <trkpt lat="48.00721" lon="6.86532">
        <ele>852.14</ele>
        <time>2017-09-23T07:19:18Z</time>
      </trkpt>
      <trkpt lat="48.00709" lon="6.86496">
        <ele>855.47</ele>
        <time>2017-09-23T07:19:30Z</time>
      </trkpt>
      <trkpt lat="48.00696" lon="6.86459">
        <ele>859.11</ele>
        <time>2017-09-23T07:19:42Z</time>
      </trkpt>
      <trkpt lat="48.0069" lon="6.86416">
        <ele>862.38</ele>
        <time>2017-09-23T07:19:55Z</time>
      </trkpt>
      <trkpt lat="48.0069" lon="6.86382">
        <ele>865.55</ele>
        <time>2017-09-23T07:20:06Z</time>
      </trkpt>
      <trkpt lat="48.00697" lon="6.86347">
        <ele>868.77</ele>
        <time>2017-09-23T07:20:16Z</time>
      </trkpt>
      <trkpt lat="48.00699" lon="6.86337">
        <ele>869.89</ele>
        <time>2017-09-23T07:20:19Z</time>
      </trkpt>
      <trkpt lat="48.00706" lon="6.86304">
        <ele>872.85</ele>
        <time>2017-09-23T07:20:29Z</time>
      </trkpt>
      <trkpt lat="48.00711" lon="6.86261">
        <ele>876.1</ele>
        <time>2017-09-23T07:20:42Z</time>
      </trkpt>
      <trkpt lat="48.00715" lon="6.86219">
        <ele>878.09</ele>
        <time>2017-09-23T07:20:55Z</time>
      </trkpt>
      <trkpt lat="48.00715" lon="6.86193">
        <ele>878.94</ele>
        <time>2017-09-23T07:21:09Z</time>
      </trkpt>
      <trkpt lat="48.00715" lon="6.8619">
        <ele>879.44</ele>
        <time>2017-09-23T07:21:18Z</time>
      </trkpt>
      <trkpt lat="48.00716" lon="6.86184">
        <ele>879.51</ele>
        <time>2017-09-23T07:21:21Z</time>
      </trkpt>
      <trkpt lat="48.00716" lon="6.86181">
        <ele>879.48</ele>
        <time>2017-09-23T07:21:22Z</time>
      </trkpt>
      <trkpt lat="48.00715" lon="6.86178">
        <ele>879.58</ele>
        <time>2017-09-23T07:21:23Z</time>
      </trkpt>
      <trkpt lat="48.00714" lon="6.86174">
        <ele>879.5</ele>
        <time>2017-09-23T07:21:24Z</time>
      </trkpt>
      <trkpt lat="48.00714" lon="6.86171">
        <ele>879.47</ele>
        <time>2017-09-23T07:21:25Z</time>
      </trkpt>
      <trkpt lat="48.00714" lon="6.86167">
        <ele>879.93</ele>
        <time>2017-09-23T07:21:26Z</time>
      </trkpt>
      <trkpt lat="48.00705" lon="6.86085">
        <ele>881.11</ele>
        <time>2017-09-23T07:21:46Z</time>
      </trkpt>
      <trkpt lat="48.00714" lon="6.86042">
        <ele>884.28</ele>
        <time>2017-09-23T07:21:59Z</time>
      </trkpt>
      <trkpt lat="48.00716" lon="6.86044">
        <ele>884.44</ele>
        <time>2017-09-23T07:22:00Z</time>
      </trkpt>
      <trkpt lat="48.00718" lon="6.86045">
        <ele>885.09</ele>
        <time>2017-09-23T07:22:01Z</time>
      </trkpt>
      <trkpt lat="48.0072" lon="6.86048">
        <ele>884.96</ele>
        <time>2017-09-23T07:22:02Z</time>
      </trkpt>
      <trkpt lat="48.00722" lon="6.86051">
        <ele>885.74</ele>
        <time>2017-09-23T07:22:03Z</time>
      </trkpt>
      <trkpt lat="48.00731" lon="6.86077">
        <ele>888.88</ele>
        <time>2017-09-23T07:22:12Z</time>
      </trkpt>
      <trkpt lat="48.00735" lon="6.86088">
        <ele>890.53</ele>
        <time>2017-09-23T07:22:16Z</time>
      </trkpt>
      <trkpt lat="48.00743" lon="6.86103">
        <ele>892.91</ele>
        <time>2017-09-23T07:22:22Z</time>
      </trkpt>
      <trkpt lat="48.00749" lon="6.86112">
        <ele>894.39</ele>
        <time>2017-09-23T07:22:26Z</time>
      </trkpt>
      <trkpt lat="48.00766" lon="6.86137">
        <ele>897.49</ele>
        <time>2017-09-23T07:22:37Z</time>
      </trkpt>
      <trkpt lat="48.00781" lon="6.86166">
        <ele>900.5</ele>
        <time>2017-09-23T07:22:49Z</time>
      </trkpt>
      <trkpt lat="48.008" lon="6.86191">
        <ele>903.57</ele>
        <time>2017-09-23T07:23:01Z</time>
      </trkpt>
      <trkpt lat="48.0082" lon="6.86207">
        <ele>906.81</ele>
        <time>2017-09-23T07:23:12Z</time>
      </trkpt>
      <trkpt lat="48.00841" lon="6.86224">
        <ele>910.08</ele>
        <time>2017-09-23T07:23:24Z</time>
      </trkpt>
      <trkpt lat="48.00853" lon="6.86228">
        <ele>911.64</ele>
        <time>2017-09-23T07:23:31Z</time>
      </trkpt>
      <trkpt lat="48.00854" lon="6.86225">
        <ele>912.04</ele>
        <time>2017-09-23T07:23:32Z</time>
      </trkpt>
      <trkpt lat="48.00854" lon="6.86222">
        <ele>912.36</ele>
        <time>2017-09-23T07:23:33Z</time>
      </trkpt>
      <trkpt lat="48.00854" lon="6.86219">
        <ele>912.19</ele>
        <time>2017-09-23T07:23:34Z</time>
      </trkpt>
      <trkpt lat="48.00853" lon="6.86216">
        <ele>912.47</ele>
        <time>2017-09-23T07:23:35Z</time>
      </trkpt>
      <trkpt lat="48.00852" lon="6.86214">
        <ele>913.07</ele>
        <time>2017-09-23T07:23:36Z</time>
      </trkpt>
      <trkpt lat="48.00851" lon="6.86211">
        <ele>913.36</ele>
        <time>2017-09-23T07:23:37Z</time>
      </trkpt>
      <trkpt lat="48.00851" lon="6.86208">
        <ele>913.72</ele>
        <time>2017-09-23T07:23:38Z</time>
      </trkpt>
      <trkpt lat="48.00851" lon="6.86205">
        <ele>913.88</ele>
        <time>2017-09-23T07:23:39Z</time>
      </trkpt>
      <trkpt lat="48.0085" lon="6.86202">
        <ele>914.9</ele>
        <time>2017-09-23T07:23:40Z</time>
      </trkpt>
      <trkpt lat="48.00846" lon="6.86168">
        <ele>918.14</ele>
        <time>2017-09-23T07:23:51Z</time>
      </trkpt>
      <trkpt lat="48.0084" lon="6.86138">
        <ele>921.17</ele>
        <time>2017-09-23T07:24:01Z</time>
      </trkpt>
      <trkpt lat="48.00838" lon="6.86095">
        <ele>924.53</ele>
        <time>2017-09-23T07:24:15Z</time>
      </trkpt>
      <trkpt lat="48.00839" lon="6.86049">
        <ele>927.81</ele>
        <time>2017-09-23T07:24:30Z</time>
      </trkpt>
      <trkpt lat="48.0084" lon="6.8603">
        <ele>929.82</ele>
        <time>2017-09-23T07:24:36Z</time>
      </trkpt>
      <trkpt lat="48.00845" lon="6.86">
        <ele>933.22</ele>
        <time>2017-09-23T07:24:46Z</time>
      </trkpt>
      <trkpt lat="48.00845" lon="6.85957">
        <ele>936.46</ele>
        <time>2017-09-23T07:24:59Z</time>
      </trkpt>
      <trkpt lat="48.00839" lon="6.85914">
        <ele>939.46</ele>
        <time>2017-09-23T07:25:12Z</time>
      </trkpt>
      <trkpt lat="48.00836" lon="6.85874">
        <ele>942.52</ele>
        <time>2017-09-23T07:25:24Z</time>
      </trkpt>
      <trkpt lat="48.00838" lon="6.85836">
        <ele>945.53</ele>
        <time>2017-09-23T07:25:36Z</time>
      </trkpt>
      <trkpt lat="48.00841" lon="6.85803">
        <ele>948.98</ele>
        <time>2017-09-23T07:25:47Z</time>
      </trkpt>
      <trkpt lat="48.00847" lon="6.85772">
        <ele>952</ele>
        <time>2017-09-23T07:25:57Z</time>
      </trkpt>
      <trkpt lat="48.00853" lon="6.8574">
        <ele>955.11</ele>
        <time>2017-09-23T07:26:07Z</time>
      </trkpt>
      <trkpt lat="48.00859" lon="6.85721">
        <ele>957.19</ele>
        <time>2017-09-23T07:26:14Z</time>
      </trkpt>
      <trkpt lat="48.00863" lon="6.85713">
        <ele>957.66</ele>
        <time>2017-09-23T07:26:24Z</time>
      </trkpt>
      <trkpt lat="48.00864" lon="6.85712">
        <ele>956.6</ele>
        <time>2017-09-23T07:26:38Z</time>
      </trkpt>
      <trkpt lat="48.00867" lon="6.85713">
        <ele>956.57</ele>
        <time>2017-09-23T07:27:14Z</time>
      </trkpt>
      <trkpt lat="48.00867" lon="6.85713">
        <ele>956.67</ele>
        <time>2017-09-23T07:27:20Z</time>
      </trkpt>
      <trkpt lat="48.00866" lon="6.85713">
        <ele>957.71</ele>
        <time>2017-09-23T07:27:37Z</time>
      </trkpt>
      <trkpt lat="48.00867" lon="6.85712">
        <ele>957.93</ele>
        <time>2017-09-23T07:27:43Z</time>
      </trkpt>
      <trkpt lat="48.00869" lon="6.85712">
        <ele>958.12</ele>
        <time>2017-09-23T07:27:44Z</time>
      </trkpt>
      <trkpt lat="48.0087" lon="6.85712">
        <ele>958.29</ele>
        <time>2017-09-23T07:27:45Z</time>
      </trkpt>
      <trkpt lat="48.00872" lon="6.85711">
        <ele>958.56</ele>
        <time>2017-09-23T07:27:46Z</time>
      </trkpt>
      <trkpt lat="48.00874" lon="6.8571">
        <ele>959.17</ele>
        <time>2017-09-23T07:27:47Z</time>
      </trkpt>
      <trkpt lat="48.00893" lon="6.85694">
        <ele>961.27</ele>
        <time>2017-09-23T07:27:58Z</time>
      </trkpt>
      <trkpt lat="48.00894" lon="6.85692">
        <ele>961.25</ele>
        <time>2017-09-23T07:27:59Z</time>
      </trkpt>
      <trkpt lat="48.00896" lon="6.85688">
        <ele>961.53</ele>
        <time>2017-09-23T07:28:10Z</time>
      </trkpt>
      <trkpt lat="48.00897" lon="6.85687">
        <ele>961.21</ele>
        <time>2017-09-23T07:28:11Z</time>
      </trkpt>
      <trkpt lat="48.00898" lon="6.85687">
        <ele>961.44</ele>
        <time>2017-09-23T07:28:12Z</time>
      </trkpt>
      <trkpt lat="48.00899" lon="6.85686">
        <ele>961.52</ele>
        <time>2017-09-23T07:28:13Z</time>
      </trkpt>
      <trkpt lat="48.009" lon="6.85685">
        <ele>961.63</ele>
        <time>2017-09-23T07:28:14Z</time>
      </trkpt>
      <trkpt lat="48.00901" lon="6.85684">
        <ele>961.52</ele>
        <time>2017-09-23T07:28:15Z</time>
      </trkpt>
      <trkpt lat="48.00918" lon="6.8565">
        <ele>963.04</ele>
        <time>2017-09-23T07:28:33Z</time>
      </trkpt>
      <trkpt lat="48.0092" lon="6.85644">
        <ele>963.64</ele>
        <time>2017-09-23T07:28:35Z</time>
      </trkpt>
      <trkpt lat="48.00922" lon="6.85639">
        <ele>965.29</ele>
        <time>2017-09-23T07:28:45Z</time>
      </trkpt>
      <trkpt lat="48.00922" lon="6.85635">
        <ele>964.8</ele>
        <time>2017-09-23T07:28:54Z</time>
      </trkpt>
      <trkpt lat="48.00922" lon="6.85634">
        <ele>965.44</ele>
        <time>2017-09-23T07:28:55Z</time>
      </trkpt>
      <trkpt lat="48.00922" lon="6.85632">
        <ele>965.3</ele>
        <time>2017-09-23T07:28:56Z</time>
      </trkpt>
      <trkpt lat="48.00922" lon="6.85626">
        <ele>966.09</ele>
        <time>2017-09-23T07:29:04Z</time>
      </trkpt>
      <trkpt lat="48.00922" lon="6.85624">
        <ele>966.62</ele>
        <time>2017-09-23T07:29:05Z</time>
      </trkpt>
      <trkpt lat="48.00922" lon="6.85623">
        <ele>966.95</ele>
        <time>2017-09-23T07:29:06Z</time>
      </trkpt>
      <trkpt lat="48.00923" lon="6.85608">
        <ele>969.13</ele>
        <time>2017-09-23T07:29:22Z</time>
      </trkpt>
      <trkpt lat="48.00924" lon="6.8561">
        <ele>969.57</ele>
        <time>2017-09-23T07:29:24Z</time>
      </trkpt>
      <trkpt lat="48.00925" lon="6.85613">
        <ele>969.4</ele>
        <time>2017-09-23T07:29:25Z</time>
      </trkpt>
      <trkpt lat="48.00926" lon="6.85616">
        <ele>970.03</ele>
        <time>2017-09-23T07:29:26Z</time>
      </trkpt>
      <trkpt lat="48.00928" lon="6.85619">
        <ele>969.69</ele>
        <time>2017-09-23T07:29:27Z</time>
      </trkpt>
      <trkpt lat="48.00929" lon="6.85623">
        <ele>969.4</ele>
        <time>2017-09-23T07:29:28Z</time>
      </trkpt>
      <trkpt lat="48.00938" lon="6.85668">
        <ele>971.83</ele>
        <time>2017-09-23T07:29:42Z</time>
      </trkpt>
      <trkpt lat="48.00945" lon="6.85707">
        <ele>974.09</ele>
        <time>2017-09-23T07:29:57Z</time>
      </trkpt>
      <trkpt lat="48.00954" lon="6.85757">
        <ele>975.92</ele>
        <time>2017-09-23T07:30:14Z</time>
      </trkpt>
      <trkpt lat="48.00955" lon="6.85804">
        <ele>976.24</ele>
        <time>2017-09-23T07:30:27Z</time>
      </trkpt>
      <trkpt lat="48.00965" lon="6.85865">
        <ele>978.23</ele>
        <time>2017-09-23T07:30:44Z</time>
      </trkpt>
      <trkpt lat="48.00984" lon="6.85926">
        <ele>980.76</ele>
        <time>2017-09-23T07:31:03Z</time>
      </trkpt>
      <trkpt lat="48.0101" lon="6.85958">
        <ele>983</ele>
        <time>2017-09-23T07:31:19Z</time>
      </trkpt>
      <trkpt lat="48.01015" lon="6.85961">
        <ele>983.52</ele>
        <time>2017-09-23T07:31:22Z</time>
      </trkpt>
      <trkpt lat="48.01016" lon="6.8596">
        <ele>983.58</ele>
        <time>2017-09-23T07:31:23Z</time>
      </trkpt>
      <trkpt lat="48.01017" lon="6.85959">
        <ele>983.64</ele>
        <time>2017-09-23T07:31:24Z</time>
      </trkpt>
      <trkpt lat="48.01017" lon="6.85956">
        <ele>984.04</ele>
        <time>2017-09-23T07:31:25Z</time>
      </trkpt>
      <trkpt lat="48.01017" lon="6.85954">
        <ele>984.05</ele>
        <time>2017-09-23T07:31:26Z</time>
      </trkpt>
      <trkpt lat="48.01016" lon="6.85952">
        <ele>983.63</ele>
        <time>2017-09-23T07:31:27Z</time>
      </trkpt>
      <trkpt lat="48.01015" lon="6.8595">
        <ele>984.6</ele>
        <time>2017-09-23T07:31:28Z</time>
      </trkpt>
      <trkpt lat="48.01003" lon="6.85919">
        <ele>987.68</ele>
        <time>2017-09-23T07:31:40Z</time>
      </trkpt>
      <trkpt lat="48.01006" lon="6.85886">
        <ele>990.88</ele>
        <time>2017-09-23T07:31:51Z</time>
      </trkpt>
      <trkpt lat="48.01015" lon="6.85836">
        <ele>993.91</ele>
        <time>2017-09-23T07:32:07Z</time>
      </trkpt>
      <trkpt lat="48.01012" lon="6.85784">
        <ele>997.22</ele>
        <time>2017-09-23T07:32:23Z</time>
      </trkpt>
      <trkpt lat="48.01017" lon="6.85737">
        <ele>1000.06</ele>
        <time>2017-09-23T07:32:38Z</time>
      </trkpt>
      <trkpt lat="48.01016" lon="6.85716">
        <ele>1000.85</ele>
        <time>2017-09-23T07:32:45Z</time>
      </trkpt>
      <trkpt lat="48.01018" lon="6.85714">
        <ele>1001.21</ele>
        <time>2017-09-23T07:32:46Z</time>
      </trkpt>
      <trkpt lat="48.0102" lon="6.85713">
        <ele>1001.47</ele>
        <time>2017-09-23T07:32:47Z</time>
      </trkpt>
      <trkpt lat="48.01022" lon="6.85713">
        <ele>1001.65</ele>
        <time>2017-09-23T07:32:48Z</time>
      </trkpt>
      <trkpt lat="48.01024" lon="6.85714">
        <ele>1001.53</ele>
        <time>2017-09-23T07:32:49Z</time>
      </trkpt>
      <trkpt lat="48.01026" lon="6.85715">
        <ele>1002.3</ele>
        <time>2017-09-23T07:32:50Z</time>
      </trkpt>
      <trkpt lat="48.01028" lon="6.85717">
        <ele>1002.73</ele>
        <time>2017-09-23T07:32:51Z</time>
      </trkpt>
      <trkpt lat="48.01029" lon="6.85719">
        <ele>1003.01</ele>
        <time>2017-09-23T07:32:52Z</time>
      </trkpt>
      <trkpt lat="48.01048" lon="6.85751">
        <ele>1006.32</ele>
        <time>2017-09-23T07:33:06Z</time>
      </trkpt>
      <trkpt lat="48.01072" lon="6.85776">
        <ele>1009.84</ele>
        <time>2017-09-23T07:33:21Z</time>
      </trkpt>
      <trkpt lat="48.01084" lon="6.85783">
        <ele>1011.36</ele>
        <time>2017-09-23T07:33:28Z</time>
      </trkpt>
      <trkpt lat="48.01086" lon="6.85782">
        <ele>1011.61</ele>
        <time>2017-09-23T07:33:29Z</time>
      </trkpt>
      <trkpt lat="48.011" lon="6.85762">
        <ele>1014.71</ele>
        <time>2017-09-23T07:33:39Z</time>
      </trkpt>
      <trkpt lat="48.01102" lon="6.85757">
        <ele>1015.4</ele>
        <time>2017-09-23T07:33:41Z</time>
      </trkpt>
      <trkpt lat="48.011" lon="6.85713">
        <ele>1018.56</ele>
        <time>2017-09-23T07:33:56Z</time>
      </trkpt>
      <trkpt lat="48.01103" lon="6.85679">
        <ele>1021.59</ele>
        <time>2017-09-23T07:34:08Z</time>
      </trkpt>
      <trkpt lat="48.01113" lon="6.8564">
        <ele>1020.3</ele>
        <time>2017-09-23T07:34:20Z</time>
      </trkpt>
      <trkpt lat="48.01128" lon="6.85595">
        <ele>1018.86</ele>
        <time>2017-09-23T07:34:32Z</time>
      </trkpt>
      <trkpt lat="48.01141" lon="6.8555">
        <ele>1018.74</ele>
        <time>2017-09-23T07:34:45Z</time>
      </trkpt>
      <trkpt lat="48.01143" lon="6.85508">
        <ele>1016.64</ele>
        <time>2017-09-23T07:34:55Z</time>
      </trkpt>
      <trkpt lat="48.01144" lon="6.85475">
        <ele>1019.08</ele>
        <time>2017-09-23T07:35:03Z</time>
      </trkpt>
      <trkpt lat="48.01144" lon="6.8547">
        <ele>1019.55</ele>
        <time>2017-09-23T07:35:15Z</time>
      </trkpt>
      <trkpt lat="48.01144" lon="6.85466">
        <ele>1019.18</ele>
        <time>2017-09-23T07:35:20Z</time>
      </trkpt>
      <trkpt lat="48.01144" lon="6.85464">
        <ele>1019.56</ele>
        <time>2017-09-23T07:35:21Z</time>
      </trkpt>
      <trkpt lat="48.01144" lon="6.85459">
        <ele>1019.52</ele>
        <time>2017-09-23T07:35:23Z</time>
      </trkpt>
      <trkpt lat="48.01153" lon="6.85416">
        <ele>1019.16</ele>
        <time>2017-09-23T07:35:37Z</time>
      </trkpt>
      <trkpt lat="48.01154" lon="6.85375">
        <ele>1019.04</ele>
        <time>2017-09-23T07:35:47Z</time>
      </trkpt>
      <trkpt lat="48.01151" lon="6.85362">
        <ele>1020.42</ele>
        <time>2017-09-23T07:35:52Z</time>
      </trkpt>
      <trkpt lat="48.01151" lon="6.8536">
        <ele>1020.83</ele>
        <time>2017-09-23T07:35:53Z</time>
      </trkpt>
      <trkpt lat="48.01151" lon="6.85357">
        <ele>1020.7</ele>
        <time>2017-09-23T07:35:54Z</time>
      </trkpt>
      <trkpt lat="48.01151" lon="6.85354">
        <ele>1020.72</ele>
        <time>2017-09-23T07:35:55Z</time>
      </trkpt>
      <trkpt lat="48.01151" lon="6.85351">
        <ele>1020.74</ele>
        <time>2017-09-23T07:35:56Z</time>
      </trkpt>
      <trkpt lat="48.01158" lon="6.8531">
        <ele>1020.14</ele>
        <time>2017-09-23T07:36:06Z</time>
      </trkpt>
      <trkpt lat="48.0116" lon="6.85306">
        <ele>1019.02</ele>
        <time>2017-09-23T07:36:17Z</time>
      </trkpt>
      <trkpt lat="48.01161" lon="6.85299">
        <ele>1019.74</ele>
        <time>2017-09-23T07:36:43Z</time>
      </trkpt>
      <trkpt lat="48.01161" lon="6.85297">
        <ele>1020.11</ele>
        <time>2017-09-23T07:36:44Z</time>
      </trkpt>
      <trkpt lat="48.01162" lon="6.85296">
        <ele>1020.03</ele>
        <time>2017-09-23T07:36:45Z</time>
      </trkpt>
      <trkpt lat="48.01163" lon="6.85294">
        <ele>1019.67</ele>
        <time>2017-09-23T07:37:01Z</time>
      </trkpt>
      <trkpt lat="48.01163" lon="6.85287">
        <ele>1019.67</ele>
        <time>2017-09-23T07:37:07Z</time>
      </trkpt>
      <trkpt lat="48.01164" lon="6.85284">
        <ele>1019.69</ele>
        <time>2017-09-23T07:37:08Z</time>
      </trkpt>
      <trkpt lat="48.01162" lon="6.85262">
        <ele>1017.87</ele>
        <time>2017-09-23T07:37:20Z</time>
      </trkpt>
      <trkpt lat="48.01162" lon="6.85258">
        <ele>1018.08</ele>
        <time>2017-09-23T07:37:30Z</time>
      </trkpt>
      <trkpt lat="48.01162" lon="6.85255">
        <ele>1018.14</ele>
        <time>2017-09-23T07:37:31Z</time>
      </trkpt>
      <trkpt lat="48.01163" lon="6.85252">
        <ele>1017.97</ele>
        <time>2017-09-23T07:37:32Z</time>
      </trkpt>
      <trkpt lat="48.01165" lon="6.85237">
        <ele>1016.38</ele>
        <time>2017-09-23T07:37:38Z</time>
      </trkpt>
      <trkpt lat="48.01166" lon="6.85236">
        <ele>1016.07</ele>
        <time>2017-09-23T07:37:39Z</time>
      </trkpt>
      <trkpt lat="48.01167" lon="6.85235">
        <ele>1016.14</ele>
        <time>2017-09-23T07:37:40Z</time>
      </trkpt>
      <trkpt lat="48.01179" lon="6.85242">
        <ele>1017.8</ele>
        <time>2017-09-23T07:37:46Z</time>
      </trkpt>
      <trkpt lat="48.01212" lon="6.85261">
        <ele>1019.77</ele>
        <time>2017-09-23T07:38:02Z</time>
      </trkpt>
      <trkpt lat="48.01213" lon="6.85262">
        <ele>1019.28</ele>
        <time>2017-09-23T07:38:19Z</time>
      </trkpt>
      <trkpt lat="48.01216" lon="6.85259">
        <ele>1019.26</ele>
        <time>2017-09-23T07:38:32Z</time>
      </trkpt>
      <trkpt lat="48.01233" lon="6.85263">
        <ele>1017.75</ele>
        <time>2017-09-23T07:38:45Z</time>
      </trkpt>
      <trkpt lat="48.01267" lon="6.85264">
        <ele>1016.78</ele>
        <time>2017-09-23T07:38:57Z</time>
      </trkpt>
      <trkpt lat="48.01298" lon="6.8527">
        <ele>1017.14</ele>
        <time>2017-09-23T07:39:07Z</time>
      </trkpt>
      <trkpt lat="48.01339" lon="6.85273">
        <ele>1015.96</ele>
        <time>2017-09-23T07:39:20Z</time>
      </trkpt>
      <trkpt lat="48.01347" lon="6.85267">
        <ele>1015.75</ele>
        <time>2017-09-23T07:39:28Z</time>
      </trkpt>
      <trkpt lat="48.0135" lon="6.85265">
        <ele>1016.11</ele>
        <time>2017-09-23T07:39:36Z</time>
      </trkpt>
      <trkpt lat="48.01353" lon="6.85264">
        <ele>1016.11</ele>
        <time>2017-09-23T07:39:38Z</time>
      </trkpt>
      <trkpt lat="48.01389" lon="6.85262">
        <ele>1016.3</ele>
        <time>2017-09-23T07:39:52Z</time>
      </trkpt>
      <trkpt lat="48.01424" lon="6.85251">
        <ele>1014.04</ele>
        <time>2017-09-23T07:40:02Z</time>
      </trkpt>
      <trkpt lat="48.01444" lon="6.85235">
        <ele>1010.36</ele>
        <time>2017-09-23T07:40:08Z</time>
      </trkpt>
      <trkpt lat="48.01461" lon="6.85227">
        <ele>1007.99</ele>
        <time>2017-09-23T07:40:12Z</time>
      </trkpt>
      <trkpt lat="48.01466" lon="6.85202">
        <ele>1006.34</ele>
        <time>2017-09-23T07:40:17Z</time>
      </trkpt>
      <trkpt lat="48.01464" lon="6.85189">
        <ele>1003.74</ele>
        <time>2017-09-23T07:40:19Z</time>
      </trkpt>
      <trkpt lat="48.01463" lon="6.85174">
        <ele>1002.02</ele>
        <time>2017-09-23T07:40:21Z</time>
      </trkpt>
      <trkpt lat="48.01468" lon="6.85151">
        <ele>998.44</ele>
        <time>2017-09-23T07:40:24Z</time>
      </trkpt>
      <trkpt lat="48.0147" lon="6.85144">
        <ele>997.37</ele>
        <time>2017-09-23T07:40:25Z</time>
      </trkpt>
      <trkpt lat="48.01471" lon="6.85138">
        <ele>996.67</ele>
        <time>2017-09-23T07:40:26Z</time>
      </trkpt>
      <trkpt lat="48.01472" lon="6.85132">
        <ele>995.92</ele>
        <time>2017-09-23T07:40:27Z</time>
      </trkpt>
      <trkpt lat="48.01472" lon="6.85127">
        <ele>995.31</ele>
        <time>2017-09-23T07:40:28Z</time>
      </trkpt>
      <trkpt lat="48.0147" lon="6.85106">
        <ele>991.83</ele>
        <time>2017-09-23T07:40:33Z</time>
      </trkpt>
      <trkpt lat="48.0146" lon="6.85081">
        <ele>990.53</ele>
        <time>2017-09-23T07:40:45Z</time>
      </trkpt>
      <trkpt lat="48.0146" lon="6.85079">
        <ele>990.19</ele>
        <time>2017-09-23T07:40:46Z</time>
      </trkpt>
      <trkpt lat="48.01466" lon="6.85078">
        <ele>990.65</ele>
        <time>2017-09-23T07:40:50Z</time>
      </trkpt>
      <trkpt lat="48.01467" lon="6.8508">
        <ele>990.39</ele>
        <time>2017-09-23T07:40:51Z</time>
      </trkpt>
      <trkpt lat="48.01468" lon="6.85082">
        <ele>990.29</ele>
        <time>2017-09-23T07:40:52Z</time>
      </trkpt>
      <trkpt lat="48.0147" lon="6.85083">
        <ele>989.49</ele>
        <time>2017-09-23T07:40:53Z</time>
      </trkpt>
      <trkpt lat="48.01472" lon="6.85085">
        <ele>988.95</ele>
        <time>2017-09-23T07:40:54Z</time>
      </trkpt>
      <trkpt lat="48.01475" lon="6.85085">
        <ele>988.83</ele>
        <time>2017-09-23T07:40:55Z</time>
      </trkpt>
      <trkpt lat="48.01481" lon="6.85083">
        <ele>986.65</ele>
        <time>2017-09-23T07:40:57Z</time>
      </trkpt>
      <trkpt lat="48.01485" lon="6.8508">
        <ele>986.6</ele>
        <time>2017-09-23T07:40:58Z</time>
      </trkpt>
      <trkpt lat="48.01488" lon="6.85075">
        <ele>986.44</ele>
        <time>2017-09-23T07:40:59Z</time>
      </trkpt>
      <trkpt lat="48.01491" lon="6.85071">
        <ele>985.46</ele>
        <time>2017-09-23T07:41:00Z</time>
      </trkpt>
      <trkpt lat="48.01494" lon="6.85066">
        <ele>984.69</ele>
        <time>2017-09-23T07:41:01Z</time>
      </trkpt>
      <trkpt lat="48.01496" lon="6.85061">
        <ele>984.55</ele>
        <time>2017-09-23T07:41:02Z</time>
      </trkpt>
      <trkpt lat="48.01498" lon="6.85055">
        <ele>984.06</ele>
        <time>2017-09-23T07:41:03Z</time>
      </trkpt>
      <trkpt lat="48.015" lon="6.85049">
        <ele>983.38</ele>
        <time>2017-09-23T07:41:04Z</time>
      </trkpt>
      <trkpt lat="48.01506" lon="6.85029">
        <ele>980.93</ele>
        <time>2017-09-23T07:41:07Z</time>
      </trkpt>
      <trkpt lat="48.01512" lon="6.85009">
        <ele>979.08</ele>
        <time>2017-09-23T07:41:10Z</time>
      </trkpt>
      <trkpt lat="48.01517" lon="6.84999">
        <ele>977.99</ele>
        <time>2017-09-23T07:41:12Z</time>
      </trkpt>
      <trkpt lat="48.01549" lon="6.84959">
        <ele>976.46</ele>
        <time>2017-09-23T07:41:23Z</time>
      </trkpt>
      <trkpt lat="48.01566" lon="6.84944">
        <ele>976.55</ele>
        <time>2017-09-23T07:41:27Z</time>
      </trkpt>
      <trkpt lat="48.01569" lon="6.84938">
        <ele>976.78</ele>
        <time>2017-09-23T07:41:28Z</time>
      </trkpt>
      <trkpt lat="48.01573" lon="6.84932">
        <ele>976.22</ele>
        <time>2017-09-23T07:41:29Z</time>
      </trkpt>
      <trkpt lat="48.01575" lon="6.84925">
        <ele>975.74</ele>
        <time>2017-09-23T07:41:30Z</time>
      </trkpt>
      <trkpt lat="48.01577" lon="6.84917">
        <ele>975.66</ele>
        <time>2017-09-23T07:41:31Z</time>
      </trkpt>
      <trkpt lat="48.01579" lon="6.8491">
        <ele>975.75</ele>
        <time>2017-09-23T07:41:32Z</time>
      </trkpt>
      <trkpt lat="48.01584" lon="6.84862">
        <ele>975.65</ele>
        <time>2017-09-23T07:41:42Z</time>
      </trkpt>
      <trkpt lat="48.01562" lon="6.84825">
        <ele>973.52</ele>
        <time>2017-09-23T07:41:53Z</time>
      </trkpt>
      <trkpt lat="48.01557" lon="6.84823">
        <ele>973.32</ele>
        <time>2017-09-23T07:41:54Z</time>
      </trkpt>
      <trkpt lat="48.01552" lon="6.84821">
        <ele>972.58</ele>
        <time>2017-09-23T07:41:55Z</time>
      </trkpt>
      <trkpt lat="48.01546" lon="6.84819">
        <ele>972.53</ele>
        <time>2017-09-23T07:41:56Z</time>
      </trkpt>
      <trkpt lat="48.01541" lon="6.84815">
        <ele>971.92</ele>
        <time>2017-09-23T07:41:57Z</time>
      </trkpt>
      <trkpt lat="48.01537" lon="6.84811">
        <ele>971.77</ele>
        <time>2017-09-23T07:41:58Z</time>
      </trkpt>
      <trkpt lat="48.01533" lon="6.84805">
        <ele>971.57</ele>
        <time>2017-09-23T07:41:59Z</time>
      </trkpt>
      <trkpt lat="48.01528" lon="6.84799">
        <ele>971.43</ele>
        <time>2017-09-23T07:42:00Z</time>
      </trkpt>
      <trkpt lat="48.01524" lon="6.84793">
        <ele>971.18</ele>
        <time>2017-09-23T07:42:01Z</time>
      </trkpt>
      <trkpt lat="48.01519" lon="6.84787">
        <ele>971.31</ele>
        <time>2017-09-23T07:42:02Z</time>
      </trkpt>
      <trkpt lat="48.01514" lon="6.84782">
        <ele>970.85</ele>
        <time>2017-09-23T07:42:03Z</time>
      </trkpt>
      <trkpt lat="48.01508" lon="6.84778">
        <ele>970.52</ele>
        <time>2017-09-23T07:42:04Z</time>
      </trkpt>
      <trkpt lat="48.01502" lon="6.84774">
        <ele>970.37</ele>
        <time>2017-09-23T07:42:05Z</time>
      </trkpt>
      <trkpt lat="48.01496" lon="6.84772">
        <ele>969.94</ele>
        <time>2017-09-23T07:42:06Z</time>
      </trkpt>
      <trkpt lat="48.01483" lon="6.8477">
        <ele>968.93</ele>
        <time>2017-09-23T07:42:08Z</time>
      </trkpt>
      <trkpt lat="48.01477" lon="6.84771">
        <ele>968.01</ele>
        <time>2017-09-23T07:42:09Z</time>
      </trkpt>
      <trkpt lat="48.0147" lon="6.84774">
        <ele>967.34</ele>
        <time>2017-09-23T07:42:10Z</time>
      </trkpt>
      <trkpt lat="48.01464" lon="6.84778">
        <ele>966.36</ele>
        <time>2017-09-23T07:42:11Z</time>
      </trkpt>
      <trkpt lat="48.01458" lon="6.84783">
        <ele>965.7</ele>
        <time>2017-09-23T07:42:12Z</time>
      </trkpt>
      <trkpt lat="48.01452" lon="6.84788">
        <ele>964.6</ele>
        <time>2017-09-23T07:42:13Z</time>
      </trkpt>
      <trkpt lat="48.01448" lon="6.84794">
        <ele>963.8</ele>
        <time>2017-09-23T07:42:14Z</time>
      </trkpt>
      <trkpt lat="48.01443" lon="6.84799">
        <ele>963.09</ele>
        <time>2017-09-23T07:42:15Z</time>
      </trkpt>
      <trkpt lat="48.01432" lon="6.84812">
        <ele>960.68</ele>
        <time>2017-09-23T07:42:18Z</time>
      </trkpt>
      <trkpt lat="48.01427" lon="6.84814">
        <ele>960.33</ele>
        <time>2017-09-23T07:42:19Z</time>
      </trkpt>
      <trkpt lat="48.01423" lon="6.84815">
        <ele>959.16</ele>
        <time>2017-09-23T07:42:20Z</time>
      </trkpt>
      <trkpt lat="48.0142" lon="6.84815">
        <ele>958.39</ele>
        <time>2017-09-23T07:42:21Z</time>
      </trkpt>
      <trkpt lat="48.01417" lon="6.84812">
        <ele>957.79</ele>
        <time>2017-09-23T07:42:22Z</time>
      </trkpt>
      <trkpt lat="48.01412" lon="6.84806">
        <ele>957.33</ele>
        <time>2017-09-23T07:42:23Z</time>
      </trkpt>
      <trkpt lat="48.01411" lon="6.84798">
        <ele>956.34</ele>
        <time>2017-09-23T07:42:24Z</time>
      </trkpt>
      <trkpt lat="48.01411" lon="6.84789">
        <ele>955.93</ele>
        <time>2017-09-23T07:42:25Z</time>
      </trkpt>
      <trkpt lat="48.01413" lon="6.84779">
        <ele>955.45</ele>
        <time>2017-09-23T07:42:26Z</time>
      </trkpt>
      <trkpt lat="48.01416" lon="6.84768">
        <ele>955.09</ele>
        <time>2017-09-23T07:42:27Z</time>
      </trkpt>
      <trkpt lat="48.0142" lon="6.84746">
        <ele>953.91</ele>
        <time>2017-09-23T07:42:29Z</time>
      </trkpt>
      <trkpt lat="48.01426" lon="6.84724">
        <ele>952.9</ele>
        <time>2017-09-23T07:42:31Z</time>
      </trkpt>
      <trkpt lat="48.01453" lon="6.84654">
        <ele>950.14</ele>
        <time>2017-09-23T07:42:38Z</time>
      </trkpt>
      <trkpt lat="48.01459" lon="6.84648">
        <ele>949.54</ele>
        <time>2017-09-23T07:42:39Z</time>
      </trkpt>
      <trkpt lat="48.01475" lon="6.84635">
        <ele>948.37</ele>
        <time>2017-09-23T07:42:42Z</time>
      </trkpt>
      <trkpt lat="48.01487" lon="6.84627">
        <ele>947.41</ele>
        <time>2017-09-23T07:42:44Z</time>
      </trkpt>
      <trkpt lat="48.01513" lon="6.84613">
        <ele>943.89</ele>
        <time>2017-09-23T07:42:48Z</time>
      </trkpt>
      <trkpt lat="48.01521" lon="6.84608">
        <ele>943.14</ele>
        <time>2017-09-23T07:42:49Z</time>
      </trkpt>
      <trkpt lat="48.01527" lon="6.84602">
        <ele>942.26</ele>
        <time>2017-09-23T07:42:50Z</time>
      </trkpt>
      <trkpt lat="48.01535" lon="6.84596">
        <ele>941.77</ele>
        <time>2017-09-23T07:42:51Z</time>
      </trkpt>
      <trkpt lat="48.01542" lon="6.8459">
        <ele>941.03</ele>
        <time>2017-09-23T07:42:52Z</time>
      </trkpt>
      <trkpt lat="48.01556" lon="6.84578">
        <ele>939.63</ele>
        <time>2017-09-23T07:42:54Z</time>
      </trkpt>
      <trkpt lat="48.01594" lon="6.84554">
        <ele>938.67</ele>
        <time>2017-09-23T07:42:59Z</time>
      </trkpt>
      <trkpt lat="48.01601" lon="6.84552">
        <ele>938.62</ele>
        <time>2017-09-23T07:43:00Z</time>
      </trkpt>
      <trkpt lat="48.01634" lon="6.8454">
        <ele>938.17</ele>
        <time>2017-09-23T07:43:05Z</time>
      </trkpt>
      <trkpt lat="48.01654" lon="6.84535">
        <ele>939.29</ele>
        <time>2017-09-23T07:43:09Z</time>
      </trkpt>
      <trkpt lat="48.01669" lon="6.84536">
        <ele>939.41</ele>
        <time>2017-09-23T07:43:12Z</time>
      </trkpt>
      <trkpt lat="48.01689" lon="6.8454">
        <ele>939.37</ele>
        <time>2017-09-23T07:43:16Z</time>
      </trkpt>
      <trkpt lat="48.01693" lon="6.84542">
        <ele>939.7</ele>
        <time>2017-09-23T07:43:17Z</time>
      </trkpt>
      <trkpt lat="48.01696" lon="6.84544">
        <ele>939.87</ele>
        <time>2017-09-23T07:43:18Z</time>
      </trkpt>
      <trkpt lat="48.017" lon="6.84548">
        <ele>941.07</ele>
        <time>2017-09-23T07:43:19Z</time>
      </trkpt>
      <trkpt lat="48.01702" lon="6.84552">
        <ele>940.81</ele>
        <time>2017-09-23T07:43:20Z</time>
      </trkpt>
      <trkpt lat="48.01705" lon="6.84556">
        <ele>941.33</ele>
        <time>2017-09-23T07:43:21Z</time>
      </trkpt>
      <trkpt lat="48.01711" lon="6.84564">
        <ele>941.5</ele>
        <time>2017-09-23T07:43:23Z</time>
      </trkpt>
      <trkpt lat="48.01715" lon="6.84567">
        <ele>941.72</ele>
        <time>2017-09-23T07:43:24Z</time>
      </trkpt>
      <trkpt lat="48.01719" lon="6.84568">
        <ele>942.06</ele>
        <time>2017-09-23T07:43:25Z</time>
      </trkpt>
      <trkpt lat="48.01723" lon="6.84568">
        <ele>942.13</ele>
        <time>2017-09-23T07:43:26Z</time>
      </trkpt>
      <trkpt lat="48.01728" lon="6.84567">
        <ele>942.78</ele>
        <time>2017-09-23T07:43:27Z</time>
      </trkpt>
      <trkpt lat="48.01733" lon="6.84564">
        <ele>942.34</ele>
        <time>2017-09-23T07:43:28Z</time>
      </trkpt>
      <trkpt lat="48.01778" lon="6.84545">
        <ele>943.98</ele>
        <time>2017-09-23T07:43:38Z</time>
      </trkpt>
      <trkpt lat="48.01797" lon="6.84544">
        <ele>944.25</ele>
        <time>2017-09-23T07:43:42Z</time>
      </trkpt>
      <trkpt lat="48.01808" lon="6.84547">
        <ele>943.46</ele>
        <time>2017-09-23T07:43:44Z</time>
      </trkpt>
      <trkpt lat="48.0182" lon="6.84551">
        <ele>942.73</ele>
        <time>2017-09-23T07:43:46Z</time>
      </trkpt>
      <trkpt lat="48.01832" lon="6.84557">
        <ele>941.38</ele>
        <time>2017-09-23T07:43:48Z</time>
      </trkpt>
      <trkpt lat="48.01838" lon="6.84561">
        <ele>940.75</ele>
        <time>2017-09-23T07:43:49Z</time>
      </trkpt>
      <trkpt lat="48.01844" lon="6.84566">
        <ele>939.44</ele>
        <time>2017-09-23T07:43:50Z</time>
      </trkpt>
      <trkpt lat="48.01849" lon="6.84572">
        <ele>939.02</ele>
        <time>2017-09-23T07:43:51Z</time>
      </trkpt>
      <trkpt lat="48.01854" lon="6.84579">
        <ele>938.51</ele>
        <time>2017-09-23T07:43:52Z</time>
      </trkpt>
      <trkpt lat="48.01858" lon="6.84588">
        <ele>938.64</ele>
        <time>2017-09-23T07:43:53Z</time>
      </trkpt>
      <trkpt lat="48.01862" lon="6.84598">
        <ele>936.95</ele>
        <time>2017-09-23T07:43:54Z</time>
      </trkpt>
      <trkpt lat="48.01866" lon="6.84608">
        <ele>936.49</ele>
        <time>2017-09-23T07:43:55Z</time>
      </trkpt>
      <trkpt lat="48.01871" lon="6.84618">
        <ele>935.15</ele>
        <time>2017-09-23T07:43:56Z</time>
      </trkpt>
      <trkpt lat="48.01876" lon="6.84625">
        <ele>934.48</ele>
        <time>2017-09-23T07:43:57Z</time>
      </trkpt>
      <trkpt lat="48.01882" lon="6.84631">
        <ele>934.39</ele>
        <time>2017-09-23T07:43:58Z</time>
      </trkpt>
      <trkpt lat="48.01888" lon="6.84635">
        <ele>932.8</ele>
        <time>2017-09-23T07:43:59Z</time>
      </trkpt>
      <trkpt lat="48.01895" lon="6.84638">
        <ele>932.99</ele>
        <time>2017-09-23T07:44:00Z</time>
      </trkpt>
      <trkpt lat="48.01902" lon="6.84639">
        <ele>931.99</ele>
        <time>2017-09-23T07:44:01Z</time>
      </trkpt>
      <trkpt lat="48.01911" lon="6.8464">
        <ele>931.25</ele>
        <time>2017-09-23T07:44:02Z</time>
      </trkpt>
      <trkpt lat="48.01919" lon="6.84641">
        <ele>931.04</ele>
        <time>2017-09-23T07:44:03Z</time>
      </trkpt>
      <trkpt lat="48.01946" lon="6.84637">
        <ele>927.92</ele>
        <time>2017-09-23T07:44:06Z</time>
      </trkpt>
      <trkpt lat="48.01981" lon="6.84631">
        <ele>924.47</ele>
        <time>2017-09-23T07:44:10Z</time>
      </trkpt>
      <trkpt lat="48.0199" lon="6.84628">
        <ele>923.66</ele>
        <time>2017-09-23T07:44:11Z</time>
      </trkpt>
      <trkpt lat="48.02014" lon="6.84619">
        <ele>919.82</ele>
        <time>2017-09-23T07:44:14Z</time>
      </trkpt>
      <trkpt lat="48.02027" lon="6.84616">
        <ele>918.83</ele>
        <time>2017-09-23T07:44:16Z</time>
      </trkpt>
      <trkpt lat="48.02033" lon="6.84619">
        <ele>918.34</ele>
        <time>2017-09-23T07:44:17Z</time>
      </trkpt>
      <trkpt lat="48.02037" lon="6.84623">
        <ele>918.83</ele>
        <time>2017-09-23T07:44:18Z</time>
      </trkpt>
      <trkpt lat="48.02041" lon="6.84628">
        <ele>917.89</ele>
        <time>2017-09-23T07:44:19Z</time>
      </trkpt>
      <trkpt lat="48.02044" lon="6.84636">
        <ele>918</ele>
        <time>2017-09-23T07:44:20Z</time>
      </trkpt>
      <trkpt lat="48.02047" lon="6.84644">
        <ele>918.01</ele>
        <time>2017-09-23T07:44:21Z</time>
      </trkpt>
      <trkpt lat="48.02049" lon="6.84652">
        <ele>917.52</ele>
        <time>2017-09-23T07:44:22Z</time>
      </trkpt>
      <trkpt lat="48.02049" lon="6.84661">
        <ele>917.62</ele>
        <time>2017-09-23T07:44:23Z</time>
      </trkpt>
      <trkpt lat="48.02049" lon="6.84669">
        <ele>917.45</ele>
        <time>2017-09-23T07:44:24Z</time>
      </trkpt>
      <trkpt lat="48.02048" lon="6.84678">
        <ele>917.23</ele>
        <time>2017-09-23T07:44:25Z</time>
      </trkpt>
      <trkpt lat="48.02047" lon="6.84712">
        <ele>918.69</ele>
        <time>2017-09-23T07:44:29Z</time>
      </trkpt>
      <trkpt lat="48.02048" lon="6.84719">
        <ele>918.8</ele>
        <time>2017-09-23T07:44:30Z</time>
      </trkpt>
      <trkpt lat="48.02049" lon="6.84727">
        <ele>919.02</ele>
        <time>2017-09-23T07:44:31Z</time>
      </trkpt>
      <trkpt lat="48.02051" lon="6.84734">
        <ele>919.56</ele>
        <time>2017-09-23T07:44:32Z</time>
      </trkpt>
      <trkpt lat="48.02052" lon="6.84741">
        <ele>920.29</ele>
        <time>2017-09-23T07:44:33Z</time>
      </trkpt>
      <trkpt lat="48.02054" lon="6.84747">
        <ele>920.49</ele>
        <time>2017-09-23T07:44:34Z</time>
      </trkpt>
      <trkpt lat="48.02056" lon="6.84752">
        <ele>921.17</ele>
        <time>2017-09-23T07:44:35Z</time>
      </trkpt>
      <trkpt lat="48.02058" lon="6.84758">
        <ele>921.69</ele>
        <time>2017-09-23T07:44:36Z</time>
      </trkpt>
      <trkpt lat="48.02061" lon="6.84763">
        <ele>922.06</ele>
        <time>2017-09-23T07:44:37Z</time>
      </trkpt>
      <trkpt lat="48.02064" lon="6.84766">
        <ele>922.6</ele>
        <time>2017-09-23T07:44:38Z</time>
      </trkpt>
      <trkpt lat="48.02068" lon="6.84769">
        <ele>922.81</ele>
        <time>2017-09-23T07:44:39Z</time>
      </trkpt>
      <trkpt lat="48.021" lon="6.84764">
        <ele>925.33</ele>
        <time>2017-09-23T07:44:49Z</time>
      </trkpt>
      <trkpt lat="48.02126" lon="6.8474">
        <ele>928.85</ele>
        <time>2017-09-23T07:45:00Z</time>
      </trkpt>
      <trkpt lat="48.02155" lon="6.84719">
        <ele>930.81</ele>
        <time>2017-09-23T07:45:11Z</time>
      </trkpt>
      <trkpt lat="48.0218" lon="6.84696">
        <ele>930.96</ele>
        <time>2017-09-23T07:45:18Z</time>
      </trkpt>
      <trkpt lat="48.02183" lon="6.84691">
        <ele>930.84</ele>
        <time>2017-09-23T07:45:19Z</time>
      </trkpt>
      <trkpt lat="48.02187" lon="6.84686">
        <ele>930.53</ele>
        <time>2017-09-23T07:45:20Z</time>
      </trkpt>
      <trkpt lat="48.02192" lon="6.84679">
        <ele>930.09</ele>
        <time>2017-09-23T07:45:21Z</time>
      </trkpt>
      <trkpt lat="48.02196" lon="6.84672">
        <ele>929.51</ele>
        <time>2017-09-23T07:45:22Z</time>
      </trkpt>
      <trkpt lat="48.02201" lon="6.84665">
        <ele>929.23</ele>
        <time>2017-09-23T07:45:23Z</time>
      </trkpt>
      <trkpt lat="48.02216" lon="6.84643">
        <ele>927.1</ele>
        <time>2017-09-23T07:45:26Z</time>
      </trkpt>
      <trkpt lat="48.0222" lon="6.84638">
        <ele>926.75</ele>
        <time>2017-09-23T07:45:27Z</time>
      </trkpt>
      <trkpt lat="48.02223" lon="6.84635">
        <ele>926.49</ele>
        <time>2017-09-23T07:45:28Z</time>
      </trkpt>
      <trkpt lat="48.0226" lon="6.84616">
        <ele>927.22</ele>
        <time>2017-09-23T07:45:39Z</time>
      </trkpt>
      <trkpt lat="48.02281" lon="6.84599">
        <ele>926.73</ele>
        <time>2017-09-23T07:45:45Z</time>
      </trkpt>
      <trkpt lat="48.02284" lon="6.84594">
        <ele>927.01</ele>
        <time>2017-09-23T07:45:46Z</time>
      </trkpt>
      <trkpt lat="48.02287" lon="6.84589">
        <ele>927.31</ele>
        <time>2017-09-23T07:45:47Z</time>
      </trkpt>
      <trkpt lat="48.02289" lon="6.84585">
        <ele>927.1</ele>
        <time>2017-09-23T07:45:48Z</time>
      </trkpt>
      <trkpt lat="48.0229" lon="6.84581">
        <ele>928.02</ele>
        <time>2017-09-23T07:45:49Z</time>
      </trkpt>
      <trkpt lat="48.02291" lon="6.84577">
        <ele>928.5</ele>
        <time>2017-09-23T07:45:50Z</time>
      </trkpt>
      <trkpt lat="48.02289" lon="6.84541">
        <ele>929.75</ele>
        <time>2017-09-23T07:45:59Z</time>
      </trkpt>
      <trkpt lat="48.02293" lon="6.84496">
        <ele>928.71</ele>
        <time>2017-09-23T07:46:07Z</time>
      </trkpt>
      <trkpt lat="48.02295" lon="6.84489">
        <ele>928.91</ele>
        <time>2017-09-23T07:46:08Z</time>
      </trkpt>
      <trkpt lat="48.02296" lon="6.84483">
        <ele>928.36</ele>
        <time>2017-09-23T07:46:09Z</time>
      </trkpt>
      <trkpt lat="48.02297" lon="6.84475">
        <ele>927.91</ele>
        <time>2017-09-23T07:46:10Z</time>
      </trkpt>
      <trkpt lat="48.02299" lon="6.84467">
        <ele>928.03</ele>
        <time>2017-09-23T07:46:11Z</time>
      </trkpt>
      <trkpt lat="48.02301" lon="6.84459">
        <ele>927.44</ele>
        <time>2017-09-23T07:46:12Z</time>
      </trkpt>
      <trkpt lat="48.02307" lon="6.84435">
        <ele>925.3</ele>
        <time>2017-09-23T07:46:15Z</time>
      </trkpt>
      <trkpt lat="48.02319" lon="6.84396">
        <ele>921.82</ele>
        <time>2017-09-23T07:46:19Z</time>
      </trkpt>
      <trkpt lat="48.02322" lon="6.84386">
        <ele>920.68</ele>
        <time>2017-09-23T07:46:20Z</time>
      </trkpt>
      <trkpt lat="48.02333" lon="6.84351">
        <ele>917.19</ele>
        <time>2017-09-23T07:46:24Z</time>
      </trkpt>
      <trkpt lat="48.02342" lon="6.84315">
        <ele>913.99</ele>
        <time>2017-09-23T07:46:28Z</time>
      </trkpt>
      <trkpt lat="48.02344" lon="6.84305">
        <ele>912.96</ele>
        <time>2017-09-23T07:46:29Z</time>
      </trkpt>
      <trkpt lat="48.02346" lon="6.84295">
        <ele>912.78</ele>
        <time>2017-09-23T07:46:30Z</time>
      </trkpt>
      <trkpt lat="48.02353" lon="6.84276">
        <ele>912.26</ele>
        <time>2017-09-23T07:46:32Z</time>
      </trkpt>
      <trkpt lat="48.02361" lon="6.84258">
        <ele>910.53</ele>
        <time>2017-09-23T07:46:34Z</time>
      </trkpt>
      <trkpt lat="48.02365" lon="6.84249">
        <ele>910.12</ele>
        <time>2017-09-23T07:46:35Z</time>
      </trkpt>
      <trkpt lat="48.02385" lon="6.84212">
        <ele>906.9</ele>
        <time>2017-09-23T07:46:39Z</time>
      </trkpt>
      <trkpt lat="48.02408" lon="6.84177">
        <ele>903.99</ele>
        <time>2017-09-23T07:46:43Z</time>
      </trkpt>
      <trkpt lat="48.02414" lon="6.8417">
        <ele>903.51</ele>
        <time>2017-09-23T07:46:44Z</time>
      </trkpt>
      <trkpt lat="48.02422" lon="6.84163">
        <ele>903.02</ele>
        <time>2017-09-23T07:46:45Z</time>
      </trkpt>
      <trkpt lat="48.02435" lon="6.84153">
        <ele>901.37</ele>
        <time>2017-09-23T07:46:47Z</time>
      </trkpt>
      <trkpt lat="48.02442" lon="6.84148">
        <ele>900.99</ele>
        <time>2017-09-23T07:46:48Z</time>
      </trkpt>
      <trkpt lat="48.02461" lon="6.84132">
        <ele>897.58</ele>
        <time>2017-09-23T07:46:51Z</time>
      </trkpt>
      <trkpt lat="48.02467" lon="6.84125">
        <ele>896.82</ele>
        <time>2017-09-23T07:46:52Z</time>
      </trkpt>
      <trkpt lat="48.02471" lon="6.84117">
        <ele>895.27</ele>
        <time>2017-09-23T07:46:53Z</time>
      </trkpt>
      <trkpt lat="48.0249" lon="6.84089">
        <ele>891.7</ele>
        <time>2017-09-23T07:46:57Z</time>
      </trkpt>
      <trkpt lat="48.02495" lon="6.84083">
        <ele>890.94</ele>
        <time>2017-09-23T07:46:58Z</time>
      </trkpt>
      <trkpt lat="48.025" lon="6.84079">
        <ele>890.17</ele>
        <time>2017-09-23T07:46:59Z</time>
      </trkpt>
      <trkpt lat="48.02505" lon="6.84075">
        <ele>889.16</ele>
        <time>2017-09-23T07:47:00Z</time>
      </trkpt>
      <trkpt lat="48.02509" lon="6.84074">
        <ele>888.73</ele>
        <time>2017-09-23T07:47:01Z</time>
      </trkpt>
      <trkpt lat="48.02513" lon="6.84073">
        <ele>887.43</ele>
        <time>2017-09-23T07:47:02Z</time>
      </trkpt>
      <trkpt lat="48.02517" lon="6.84075">
        <ele>887.16</ele>
        <time>2017-09-23T07:47:03Z</time>
      </trkpt>
      <trkpt lat="48.0252" lon="6.84078">
        <ele>886.67</ele>
        <time>2017-09-23T07:47:04Z</time>
      </trkpt>
      <trkpt lat="48.02523" lon="6.84081">
        <ele>886.47</ele>
        <time>2017-09-23T07:47:05Z</time>
      </trkpt>
      <trkpt lat="48.02527" lon="6.84083">
        <ele>886.03</ele>
        <time>2017-09-23T07:47:06Z</time>
      </trkpt>
      <trkpt lat="48.0253" lon="6.84084">
        <ele>885.4</ele>
        <time>2017-09-23T07:47:07Z</time>
      </trkpt>
      <trkpt lat="48.02533" lon="6.84082">
        <ele>884.8</ele>
        <time>2017-09-23T07:47:08Z</time>
      </trkpt>
      <trkpt lat="48.02537" lon="6.84079">
        <ele>884.48</ele>
        <time>2017-09-23T07:47:09Z</time>
      </trkpt>
      <trkpt lat="48.0254" lon="6.84074">
        <ele>884.09</ele>
        <time>2017-09-23T07:47:10Z</time>
      </trkpt>
      <trkpt lat="48.02543" lon="6.84067">
        <ele>883.57</ele>
        <time>2017-09-23T07:47:11Z</time>
      </trkpt>
      <trkpt lat="48.02545" lon="6.84058">
        <ele>882.59</ele>
        <time>2017-09-23T07:47:12Z</time>
      </trkpt>
      <trkpt lat="48.02546" lon="6.84049">
        <ele>881.81</ele>
        <time>2017-09-23T07:47:13Z</time>
      </trkpt>
      <trkpt lat="48.02547" lon="6.84038">
        <ele>880.78</ele>
        <time>2017-09-23T07:47:14Z</time>
      </trkpt>
      <trkpt lat="48.02548" lon="6.84026">
        <ele>879.96</ele>
        <time>2017-09-23T07:47:15Z</time>
      </trkpt>
      <trkpt lat="48.02548" lon="6.84015">
        <ele>879.6</ele>
        <time>2017-09-23T07:47:16Z</time>
      </trkpt>
      <trkpt lat="48.02546" lon="6.83973">
        <ele>876.25</ele>
        <time>2017-09-23T07:47:20Z</time>
      </trkpt>
      <trkpt lat="48.02543" lon="6.83944">
        <ele>872.72</ele>
        <time>2017-09-23T07:47:23Z</time>
      </trkpt>
      <trkpt lat="48.02541" lon="6.83936">
        <ele>871.75</ele>
        <time>2017-09-23T07:47:24Z</time>
      </trkpt>
      <trkpt lat="48.02539" lon="6.83927">
        <ele>870.88</ele>
        <time>2017-09-23T07:47:25Z</time>
      </trkpt>
      <trkpt lat="48.02536" lon="6.83919">
        <ele>869.95</ele>
        <time>2017-09-23T07:47:26Z</time>
      </trkpt>
      <trkpt lat="48.02533" lon="6.83911">
        <ele>869.19</ele>
        <time>2017-09-23T07:47:27Z</time>
      </trkpt>
      <trkpt lat="48.02529" lon="6.83904">
        <ele>868.16</ele>
        <time>2017-09-23T07:47:28Z</time>
      </trkpt>
      <trkpt lat="48.02525" lon="6.83897">
        <ele>867.58</ele>
        <time>2017-09-23T07:47:29Z</time>
      </trkpt>
      <trkpt lat="48.0252" lon="6.83891">
        <ele>866.94</ele>
        <time>2017-09-23T07:47:30Z</time>
      </trkpt>
      <trkpt lat="48.02514" lon="6.83887">
        <ele>866.54</ele>
        <time>2017-09-23T07:47:31Z</time>
      </trkpt>
      <trkpt lat="48.02509" lon="6.83883">
        <ele>866.75</ele>
        <time>2017-09-23T07:47:32Z</time>
      </trkpt>
      <trkpt lat="48.02498" lon="6.83879">
        <ele>865.84</ele>
        <time>2017-09-23T07:47:34Z</time>
      </trkpt>
      <trkpt lat="48.02492" lon="6.83879">
        <ele>865.46</ele>
        <time>2017-09-23T07:47:35Z</time>
      </trkpt>
      <trkpt lat="48.02455" lon="6.83879">
        <ele>863.89</ele>
        <time>2017-09-23T07:47:41Z</time>
      </trkpt>
      <trkpt lat="48.02449" lon="6.8388">
        <ele>863.28</ele>
        <time>2017-09-23T07:47:42Z</time>
      </trkpt>
      <trkpt lat="48.02443" lon="6.83882">
        <ele>862.97</ele>
        <time>2017-09-23T07:47:43Z</time>
      </trkpt>
      <trkpt lat="48.02436" lon="6.83885">
        <ele>862.69</ele>
        <time>2017-09-23T07:47:44Z</time>
      </trkpt>
      <trkpt lat="48.02429" lon="6.83888">
        <ele>862.04</ele>
        <time>2017-09-23T07:47:45Z</time>
      </trkpt>
      <trkpt lat="48.02422" lon="6.83891">
        <ele>861.48</ele>
        <time>2017-09-23T07:47:46Z</time>
      </trkpt>
      <trkpt lat="48.02415" lon="6.83895">
        <ele>861.01</ele>
        <time>2017-09-23T07:47:47Z</time>
      </trkpt>
      <trkpt lat="48.02407" lon="6.83899">
        <ele>860.72</ele>
        <time>2017-09-23T07:47:48Z</time>
      </trkpt>
      <trkpt lat="48.02347" lon="6.83937">
        <ele>857.34</ele>
        <time>2017-09-23T07:47:56Z</time>
      </trkpt>
      <trkpt lat="48.02304" lon="6.83978">
        <ele>855.26</ele>
        <time>2017-09-23T07:48:02Z</time>
      </trkpt>
      <trkpt lat="48.0227" lon="6.84012">
        <ele>853.4</ele>
        <time>2017-09-23T07:48:07Z</time>
      </trkpt>
      <trkpt lat="48.0223" lon="6.84055">
        <ele>850.21</ele>
        <time>2017-09-23T07:48:13Z</time>
      </trkpt>
      <trkpt lat="48.02225" lon="6.84062">
        <ele>849.72</ele>
        <time>2017-09-23T07:48:14Z</time>
      </trkpt>
      <trkpt lat="48.02201" lon="6.84089">
        <ele>846.3</ele>
        <time>2017-09-23T07:48:18Z</time>
      </trkpt>
      <trkpt lat="48.02195" lon="6.84096">
        <ele>846.03</ele>
        <time>2017-09-23T07:48:19Z</time>
      </trkpt>
      <trkpt lat="48.0219" lon="6.84103">
        <ele>845.47</ele>
        <time>2017-09-23T07:48:20Z</time>
      </trkpt>
      <trkpt lat="48.02167" lon="6.84125">
        <ele>842.92</ele>
        <time>2017-09-23T07:48:24Z</time>
      </trkpt>
      <trkpt lat="48.02159" lon="6.84127">
        <ele>842.58</ele>
        <time>2017-09-23T07:48:25Z</time>
      </trkpt>
      <trkpt lat="48.02132" lon="6.8414">
        <ele>839.65</ele>
        <time>2017-09-23T07:48:29Z</time>
      </trkpt>
      <trkpt lat="48.02107" lon="6.84155">
        <ele>836.4</ele>
        <time>2017-09-23T07:48:33Z</time>
      </trkpt>
      <trkpt lat="48.02088" lon="6.84163">
        <ele>834.22</ele>
        <time>2017-09-23T07:48:36Z</time>
      </trkpt>
      <trkpt lat="48.02058" lon="6.84164">
        <ele>830.43</ele>
        <time>2017-09-23T07:48:40Z</time>
      </trkpt>
      <trkpt lat="48.02051" lon="6.84161">
        <ele>829.79</ele>
        <time>2017-09-23T07:48:41Z</time>
      </trkpt>
      <trkpt lat="48.02044" lon="6.84157">
        <ele>829.01</ele>
        <time>2017-09-23T07:48:42Z</time>
      </trkpt>
      <trkpt lat="48.02027" lon="6.84146">
        <ele>826.65</ele>
        <time>2017-09-23T07:48:45Z</time>
      </trkpt>
      <trkpt lat="48.02021" lon="6.84143">
        <ele>826.27</ele>
        <time>2017-09-23T07:48:46Z</time>
      </trkpt>
      <trkpt lat="48.02009" lon="6.84138">
        <ele>824.72</ele>
        <time>2017-09-23T07:48:48Z</time>
      </trkpt>
      <trkpt lat="48.02004" lon="6.84132">
        <ele>823.75</ele>
        <time>2017-09-23T07:48:49Z</time>
      </trkpt>
      <trkpt lat="48.01999" lon="6.84126">
        <ele>822.86</ele>
        <time>2017-09-23T07:48:50Z</time>
      </trkpt>
      <trkpt lat="48.01996" lon="6.84118">
        <ele>822.44</ele>
        <time>2017-09-23T07:48:51Z</time>
      </trkpt>
      <trkpt lat="48.01993" lon="6.8411">
        <ele>821.59</ele>
        <time>2017-09-23T07:48:52Z</time>
      </trkpt>
      <trkpt lat="48.01989" lon="6.84103">
        <ele>821.41</ele>
        <time>2017-09-23T07:48:53Z</time>
      </trkpt>
      <trkpt lat="48.01981" lon="6.84087">
        <ele>819.89</ele>
        <time>2017-09-23T07:48:55Z</time>
      </trkpt>
      <trkpt lat="48.01962" lon="6.8406">
        <ele>817.28</ele>
        <time>2017-09-23T07:48:59Z</time>
      </trkpt>
      <trkpt lat="48.01956" lon="6.84054">
        <ele>816.7</ele>
        <time>2017-09-23T07:49:00Z</time>
      </trkpt>
      <trkpt lat="48.01929" lon="6.84023">
        <ele>814.37</ele>
        <time>2017-09-23T07:49:09Z</time>
      </trkpt>
      <trkpt lat="48.01929" lon="6.8401">
        <ele>814.08</ele>
        <time>2017-09-23T07:49:13Z</time>
      </trkpt>
      <trkpt lat="48.01931" lon="6.84007">
        <ele>814</ele>
        <time>2017-09-23T07:49:14Z</time>
      </trkpt>
      <trkpt lat="48.01933" lon="6.84005">
        <ele>813.91</ele>
        <time>2017-09-23T07:49:15Z</time>
      </trkpt>
      <trkpt lat="48.01934" lon="6.84004">
        <ele>813.74</ele>
        <time>2017-09-23T07:49:16Z</time>
      </trkpt>
      <trkpt lat="48.01937" lon="6.84005">
        <ele>813.54</ele>
        <time>2017-09-23T07:49:17Z</time>
      </trkpt>
      <trkpt lat="48.0194" lon="6.84006">
        <ele>813.13</ele>
        <time>2017-09-23T07:49:18Z</time>
      </trkpt>
      <trkpt lat="48.01944" lon="6.84007">
        <ele>812.88</ele>
        <time>2017-09-23T07:49:19Z</time>
      </trkpt>
      <trkpt lat="48.01948" lon="6.84009">
        <ele>812.9</ele>
        <time>2017-09-23T07:49:20Z</time>
      </trkpt>
      <trkpt lat="48.01951" lon="6.8401">
        <ele>812.27</ele>
        <time>2017-09-23T07:49:21Z</time>
      </trkpt>
      <trkpt lat="48.01993" lon="6.84021">
        <ele>809.05</ele>
        <time>2017-09-23T07:49:28Z</time>
      </trkpt>
      <trkpt lat="48.02032" lon="6.84031">
        <ele>805.68</ele>
        <time>2017-09-23T07:49:33Z</time>
      </trkpt>
      <trkpt lat="48.0204" lon="6.84032">
        <ele>805.11</ele>
        <time>2017-09-23T07:49:34Z</time>
      </trkpt>
      <trkpt lat="48.02048" lon="6.84031">
        <ele>804.03</ele>
        <time>2017-09-23T07:49:35Z</time>
      </trkpt>
      <trkpt lat="48.02056" lon="6.84027">
        <ele>803.03</ele>
        <time>2017-09-23T07:49:36Z</time>
      </trkpt>
      <trkpt lat="48.02063" lon="6.84022">
        <ele>802.5</ele>
        <time>2017-09-23T07:49:37Z</time>
      </trkpt>
      <trkpt lat="48.02078" lon="6.84014">
        <ele>800.95</ele>
        <time>2017-09-23T07:49:39Z</time>
      </trkpt>
      <trkpt lat="48.02085" lon="6.84012">
        <ele>800.39</ele>
        <time>2017-09-23T07:49:40Z</time>
      </trkpt>
      <trkpt lat="48.02108" lon="6.84005">
        <ele>798.04</ele>
        <time>2017-09-23T07:49:43Z</time>
      </trkpt>
      <trkpt lat="48.02114" lon="6.84">
        <ele>797.44</ele>
        <time>2017-09-23T07:49:44Z</time>
      </trkpt>
      <trkpt lat="48.02121" lon="6.83994">
        <ele>796.74</ele>
        <time>2017-09-23T07:49:45Z</time>
      </trkpt>
      <trkpt lat="48.02149" lon="6.83958">
        <ele>794.01</ele>
        <time>2017-09-23T07:49:50Z</time>
      </trkpt>
      <trkpt lat="48.02164" lon="6.83934">
        <ele>792.1</ele>
        <time>2017-09-23T07:49:53Z</time>
      </trkpt>
      <trkpt lat="48.02181" lon="6.83899">
        <ele>788.69</ele>
        <time>2017-09-23T07:49:57Z</time>
      </trkpt>
      <trkpt lat="48.02196" lon="6.8386">
        <ele>786.29</ele>
        <time>2017-09-23T07:50:01Z</time>
      </trkpt>
      <trkpt lat="48.022" lon="6.83852">
        <ele>785.38</ele>
        <time>2017-09-23T07:50:02Z</time>
      </trkpt>
      <trkpt lat="48.0222" lon="6.8382">
        <ele>781.66</ele>
        <time>2017-09-23T07:50:06Z</time>
      </trkpt>
      <trkpt lat="48.02241" lon="6.83785">
        <ele>778.31</ele>
        <time>2017-09-23T07:50:10Z</time>
      </trkpt>
      <trkpt lat="48.02254" lon="6.83756">
        <ele>775.12</ele>
        <time>2017-09-23T07:50:13Z</time>
      </trkpt>
      <trkpt lat="48.02264" lon="6.83737">
        <ele>774.02</ele>
        <time>2017-09-23T07:50:15Z</time>
      </trkpt>
      <trkpt lat="48.02269" lon="6.83728">
        <ele>772.62</ele>
        <time>2017-09-23T07:50:16Z</time>
      </trkpt>
      <trkpt lat="48.02274" lon="6.83718">
        <ele>771.72</ele>
        <time>2017-09-23T07:50:17Z</time>
      </trkpt>
      <trkpt lat="48.02288" lon="6.83674">
        <ele>767.65</ele>
        <time>2017-09-23T07:50:21Z</time>
      </trkpt>
      <trkpt lat="48.02297" lon="6.83625">
        <ele>763.88</ele>
        <time>2017-09-23T07:50:25Z</time>
      </trkpt>
      <trkpt lat="48.02306" lon="6.83595">
        <ele>761.61</ele>
        <time>2017-09-23T07:50:28Z</time>
      </trkpt>
      <trkpt lat="48.0232" lon="6.8356">
        <ele>758.48</ele>
        <time>2017-09-23T07:50:32Z</time>
      </trkpt>
      <trkpt lat="48.02337" lon="6.83525">
        <ele>756.14</ele>
        <time>2017-09-23T07:50:36Z</time>
      </trkpt>
      <trkpt lat="48.02342" lon="6.83519">
        <ele>755.54</ele>
        <time>2017-09-23T07:50:37Z</time>
      </trkpt>
      <trkpt lat="48.02347" lon="6.83513">
        <ele>754.98</ele>
        <time>2017-09-23T07:50:38Z</time>
      </trkpt>
      <trkpt lat="48.02353" lon="6.83508">
        <ele>754.7</ele>
        <time>2017-09-23T07:50:39Z</time>
      </trkpt>
      <trkpt lat="48.02359" lon="6.83505">
        <ele>753.77</ele>
        <time>2017-09-23T07:50:40Z</time>
      </trkpt>
      <trkpt lat="48.02365" lon="6.83502">
        <ele>752.81</ele>
        <time>2017-09-23T07:50:41Z</time>
      </trkpt>
      <trkpt lat="48.02371" lon="6.83499">
        <ele>752.12</ele>
        <time>2017-09-23T07:50:42Z</time>
      </trkpt>
      <trkpt lat="48.0239" lon="6.83488">
        <ele>750.46</ele>
        <time>2017-09-23T07:50:45Z</time>
      </trkpt>
      <trkpt lat="48.02403" lon="6.83481">
        <ele>748.71</ele>
        <time>2017-09-23T07:50:47Z</time>
      </trkpt>
      <trkpt lat="48.02429" lon="6.83467">
        <ele>746.09</ele>
        <time>2017-09-23T07:50:51Z</time>
      </trkpt>
      <trkpt lat="48.02433" lon="6.83463">
        <ele>745.69</ele>
        <time>2017-09-23T07:50:52Z</time>
      </trkpt>
      <trkpt lat="48.02436" lon="6.83458">
        <ele>745.15</ele>
        <time>2017-09-23T07:50:53Z</time>
      </trkpt>
      <trkpt lat="48.02438" lon="6.8345">
        <ele>745.3</ele>
        <time>2017-09-23T07:50:54Z</time>
      </trkpt>
      <trkpt lat="48.02439" lon="6.83443">
        <ele>744.81</ele>
        <time>2017-09-23T07:50:55Z</time>
      </trkpt>
      <trkpt lat="48.0244" lon="6.83435">
        <ele>743.76</ele>
        <time>2017-09-23T07:50:56Z</time>
      </trkpt>
      <trkpt lat="48.02441" lon="6.83425">
        <ele>743.86</ele>
        <time>2017-09-23T07:50:57Z</time>
      </trkpt>
      <trkpt lat="48.02441" lon="6.83415">
        <ele>742.26</ele>
        <time>2017-09-23T07:50:58Z</time>
      </trkpt>
      <trkpt lat="48.02443" lon="6.83392">
        <ele>741.26</ele>
        <time>2017-09-23T07:51:00Z</time>
      </trkpt>
      <trkpt lat="48.02446" lon="6.83381">
        <ele>741.21</ele>
        <time>2017-09-23T07:51:01Z</time>
      </trkpt>
      <trkpt lat="48.0245" lon="6.83372">
        <ele>740.93</ele>
        <time>2017-09-23T07:51:02Z</time>
      </trkpt>
      <trkpt lat="48.02455" lon="6.83365">
        <ele>740.04</ele>
        <time>2017-09-23T07:51:03Z</time>
      </trkpt>
      <trkpt lat="48.0246" lon="6.83358">
        <ele>739.77</ele>
        <time>2017-09-23T07:51:04Z</time>
      </trkpt>
      <trkpt lat="48.02465" lon="6.83351">
        <ele>738.22</ele>
        <time>2017-09-23T07:51:05Z</time>
      </trkpt>
      <trkpt lat="48.02471" lon="6.83344">
        <ele>738.33</ele>
        <time>2017-09-23T07:51:06Z</time>
      </trkpt>
      <trkpt lat="48.02487" lon="6.83321">
        <ele>734.79</ele>
        <time>2017-09-23T07:51:09Z</time>
      </trkpt>
      <trkpt lat="48.02499" lon="6.83303">
        <ele>732.69</ele>
        <time>2017-09-23T07:51:11Z</time>
      </trkpt>
      <trkpt lat="48.02504" lon="6.83293">
        <ele>731.69</ele>
        <time>2017-09-23T07:51:12Z</time>
      </trkpt>
      <trkpt lat="48.02509" lon="6.83283">
        <ele>730.59</ele>
        <time>2017-09-23T07:51:13Z</time>
      </trkpt>
      <trkpt lat="48.02514" lon="6.83273">
        <ele>730.09</ele>
        <time>2017-09-23T07:51:14Z</time>
      </trkpt>
      <trkpt lat="48.02519" lon="6.83264">
        <ele>728.86</ele>
        <time>2017-09-23T07:51:15Z</time>
      </trkpt>
      <trkpt lat="48.02541" lon="6.83229">
        <ele>724.73</ele>
        <time>2017-09-23T07:51:19Z</time>
      </trkpt>
      <trkpt lat="48.02555" lon="6.83203">
        <ele>721.71</ele>
        <time>2017-09-23T07:51:22Z</time>
      </trkpt>
      <trkpt lat="48.02558" lon="6.83194">
        <ele>720.88</ele>
        <time>2017-09-23T07:51:23Z</time>
      </trkpt>
      <trkpt lat="48.0256" lon="6.83184">
        <ele>720.49</ele>
        <time>2017-09-23T07:51:24Z</time>
      </trkpt>
      <trkpt lat="48.02562" lon="6.83175">
        <ele>719.73</ele>
        <time>2017-09-23T07:51:25Z</time>
      </trkpt>
      <trkpt lat="48.02562" lon="6.83166">
        <ele>718.64</ele>
        <time>2017-09-23T07:51:26Z</time>
      </trkpt>
      <trkpt lat="48.02562" lon="6.83156">
        <ele>718.12</ele>
        <time>2017-09-23T07:51:27Z</time>
      </trkpt>
      <trkpt lat="48.02561" lon="6.83147">
        <ele>717.45</ele>
        <time>2017-09-23T07:51:28Z</time>
      </trkpt>
      <trkpt lat="48.02561" lon="6.83138">
        <ele>715.87</ele>
        <time>2017-09-23T07:51:29Z</time>
      </trkpt>
      <trkpt lat="48.02561" lon="6.83129">
        <ele>715.47</ele>
        <time>2017-09-23T07:51:30Z</time>
      </trkpt>
      <trkpt lat="48.02562" lon="6.83121">
        <ele>714.34</ele>
        <time>2017-09-23T07:51:31Z</time>
      </trkpt>
      <trkpt lat="48.02565" lon="6.83113">
        <ele>713.55</ele>
        <time>2017-09-23T07:51:32Z</time>
      </trkpt>
      <trkpt lat="48.02567" lon="6.83107">
        <ele>712.65</ele>
        <time>2017-09-23T07:51:33Z</time>
      </trkpt>
      <trkpt lat="48.0257" lon="6.831">
        <ele>712.03</ele>
        <time>2017-09-23T07:51:34Z</time>
      </trkpt>
      <trkpt lat="48.02571" lon="6.83093">
        <ele>711.1</ele>
        <time>2017-09-23T07:51:35Z</time>
      </trkpt>
      <trkpt lat="48.02572" lon="6.83084">
        <ele>710.86</ele>
        <time>2017-09-23T07:51:36Z</time>
      </trkpt>
      <trkpt lat="48.02573" lon="6.83076">
        <ele>710</ele>
        <time>2017-09-23T07:51:37Z</time>
      </trkpt>
      <trkpt lat="48.02573" lon="6.83067">
        <ele>710.02</ele>
        <time>2017-09-23T07:51:38Z</time>
      </trkpt>
      <trkpt lat="48.02573" lon="6.83028">
        <ele>706.84</ele>
        <time>2017-09-23T07:51:42Z</time>
      </trkpt>
      <trkpt lat="48.02572" lon="6.82997">
        <ele>703.3</ele>
        <time>2017-09-23T07:51:46Z</time>
      </trkpt>
      <trkpt lat="48.02571" lon="6.82991">
        <ele>702.8</ele>
        <time>2017-09-23T07:51:47Z</time>
      </trkpt>
      <trkpt lat="48.02569" lon="6.82979">
        <ele>701.76</ele>
        <time>2017-09-23T07:51:49Z</time>
      </trkpt>
      <trkpt lat="48.02569" lon="6.82972">
        <ele>701.3</ele>
        <time>2017-09-23T07:51:50Z</time>
      </trkpt>
      <trkpt lat="48.02569" lon="6.82958">
        <ele>700.27</ele>
        <time>2017-09-23T07:51:52Z</time>
      </trkpt>
      <trkpt lat="48.0257" lon="6.82939">
        <ele>699.12</ele>
        <time>2017-09-23T07:51:55Z</time>
      </trkpt>
      <trkpt lat="48.02569" lon="6.82933">
        <ele>698.72</ele>
        <time>2017-09-23T07:51:56Z</time>
      </trkpt>
      <trkpt lat="48.02568" lon="6.82926">
        <ele>698.3</ele>
        <time>2017-09-23T07:51:57Z</time>
      </trkpt>
      <trkpt lat="48.02565" lon="6.82909">
        <ele>696.78</ele>
        <time>2017-09-23T07:51:59Z</time>
      </trkpt>
      <trkpt lat="48.02557" lon="6.82873">
        <ele>693.37</ele>
        <time>2017-09-23T07:52:03Z</time>
      </trkpt>
      <trkpt lat="48.02556" lon="6.82863">
        <ele>692.71</ele>
        <time>2017-09-23T07:52:04Z</time>
      </trkpt>
      <trkpt lat="48.02555" lon="6.82854">
        <ele>691.89</ele>
        <time>2017-09-23T07:52:05Z</time>
      </trkpt>
      <trkpt lat="48.02552" lon="6.82823">
        <ele>688.98</ele>
        <time>2017-09-23T07:52:09Z</time>
      </trkpt>
      <trkpt lat="48.02551" lon="6.82798">
        <ele>686.97</ele>
        <time>2017-09-23T07:52:12Z</time>
      </trkpt>
      <trkpt lat="48.02551" lon="6.82789">
        <ele>685.89</ele>
        <time>2017-09-23T07:52:13Z</time>
      </trkpt>
      <trkpt lat="48.02551" lon="6.82771">
        <ele>685.4</ele>
        <time>2017-09-23T07:52:15Z</time>
      </trkpt>
      <trkpt lat="48.02553" lon="6.82762">
        <ele>684.53</ele>
        <time>2017-09-23T07:52:16Z</time>
      </trkpt>
      <trkpt lat="48.02554" lon="6.82752">
        <ele>683.94</ele>
        <time>2017-09-23T07:52:17Z</time>
      </trkpt>
      <trkpt lat="48.02554" lon="6.82724">
        <ele>681.76</ele>
        <time>2017-09-23T07:52:20Z</time>
      </trkpt>
      <trkpt lat="48.02554" lon="6.82716">
        <ele>680.85</ele>
        <time>2017-09-23T07:52:21Z</time>
      </trkpt>
      <trkpt lat="48.02552" lon="6.82708">
        <ele>680.36</ele>
        <time>2017-09-23T07:52:22Z</time>
      </trkpt>
      <trkpt lat="48.02549" lon="6.82701">
        <ele>679.79</ele>
        <time>2017-09-23T07:52:23Z</time>
      </trkpt>
      <trkpt lat="48.02546" lon="6.82694">
        <ele>679.38</ele>
        <time>2017-09-23T07:52:24Z</time>
      </trkpt>
      <trkpt lat="48.02541" lon="6.82689">
        <ele>679.03</ele>
        <time>2017-09-23T07:52:25Z</time>
      </trkpt>
      <trkpt lat="48.02537" lon="6.82683">
        <ele>678.11</ele>
        <time>2017-09-23T07:52:26Z</time>
      </trkpt>
      <trkpt lat="48.02533" lon="6.82676">
        <ele>677.51</ele>
        <time>2017-09-23T07:52:27Z</time>
      </trkpt>
      <trkpt lat="48.02529" lon="6.82668">
        <ele>677.03</ele>
        <time>2017-09-23T07:52:28Z</time>
      </trkpt>
      <trkpt lat="48.02526" lon="6.82659">
        <ele>676.68</ele>
        <time>2017-09-23T07:52:29Z</time>
      </trkpt>
      <trkpt lat="48.02522" lon="6.82638">
        <ele>675.15</ele>
        <time>2017-09-23T07:52:31Z</time>
      </trkpt>
      <trkpt lat="48.02522" lon="6.82627">
        <ele>674.25</ele>
        <time>2017-09-23T07:52:32Z</time>
      </trkpt>
      <trkpt lat="48.02522" lon="6.82605">
        <ele>672.78</ele>
        <time>2017-09-23T07:52:34Z</time>
      </trkpt>
      <trkpt lat="48.02521" lon="6.82595">
        <ele>671.49</ele>
        <time>2017-09-23T07:52:35Z</time>
      </trkpt>
      <trkpt lat="48.02519" lon="6.82586">
        <ele>671.17</ele>
        <time>2017-09-23T07:52:36Z</time>
      </trkpt>
      <trkpt lat="48.02515" lon="6.82576">
        <ele>670.62</ele>
        <time>2017-09-23T07:52:37Z</time>
      </trkpt>
      <trkpt lat="48.02511" lon="6.82567">
        <ele>669.86</ele>
        <time>2017-09-23T07:52:38Z</time>
      </trkpt>
      <trkpt lat="48.02507" lon="6.82558">
        <ele>668.77</ele>
        <time>2017-09-23T07:52:39Z</time>
      </trkpt>
      <trkpt lat="48.02502" lon="6.8255">
        <ele>667.97</ele>
        <time>2017-09-23T07:52:40Z</time>
      </trkpt>
      <trkpt lat="48.02497" lon="6.82544">
        <ele>666.93</ele>
        <time>2017-09-23T07:52:41Z</time>
      </trkpt>
      <trkpt lat="48.02489" lon="6.82532">
        <ele>665.6</ele>
        <time>2017-09-23T07:52:43Z</time>
      </trkpt>
      <trkpt lat="48.02486" lon="6.82526">
        <ele>664.75</ele>
        <time>2017-09-23T07:52:44Z</time>
      </trkpt>
      <trkpt lat="48.02484" lon="6.8252">
        <ele>663.94</ele>
        <time>2017-09-23T07:52:45Z</time>
      </trkpt>
      <trkpt lat="48.02484" lon="6.82514">
        <ele>663.93</ele>
        <time>2017-09-23T07:52:46Z</time>
      </trkpt>
      <trkpt lat="48.02484" lon="6.82508">
        <ele>662.89</ele>
        <time>2017-09-23T07:52:47Z</time>
      </trkpt>
      <trkpt lat="48.02485" lon="6.82502">
        <ele>662.4</ele>
        <time>2017-09-23T07:52:48Z</time>
      </trkpt>
      <trkpt lat="48.02487" lon="6.82497">
        <ele>661.6</ele>
        <time>2017-09-23T07:52:49Z</time>
      </trkpt>
      <trkpt lat="48.0249" lon="6.82494">
        <ele>661.64</ele>
        <time>2017-09-23T07:52:50Z</time>
      </trkpt>
      <trkpt lat="48.02494" lon="6.82491">
        <ele>661.21</ele>
        <time>2017-09-23T07:52:51Z</time>
      </trkpt>
      <trkpt lat="48.02499" lon="6.8249">
        <ele>661.17</ele>
        <time>2017-09-23T07:52:52Z</time>
      </trkpt>
      <trkpt lat="48.02504" lon="6.82491">
        <ele>660.6</ele>
        <time>2017-09-23T07:52:53Z</time>
      </trkpt>
      <trkpt lat="48.0251" lon="6.82493">
        <ele>659.72</ele>
        <time>2017-09-23T07:52:54Z</time>
      </trkpt>
      <trkpt lat="48.02515" lon="6.82496">
        <ele>659.78</ele>
        <time>2017-09-23T07:52:55Z</time>
      </trkpt>
      <trkpt lat="48.02534" lon="6.82505">
        <ele>657.47</ele>
        <time>2017-09-23T07:52:58Z</time>
      </trkpt>
      <trkpt lat="48.02544" lon="6.82511">
        <ele>655.93</ele>
        <time>2017-09-23T07:53:00Z</time>
      </trkpt>
      <trkpt lat="48.0256" lon="6.82524">
        <ele>654.07</ele>
        <time>2017-09-23T07:53:03Z</time>
      </trkpt>
      <trkpt lat="48.02564" lon="6.82529">
        <ele>653.5</ele>
        <time>2017-09-23T07:53:04Z</time>
      </trkpt>
      <trkpt lat="48.02569" lon="6.82535">
        <ele>652.91</ele>
        <time>2017-09-23T07:53:05Z</time>
      </trkpt>
      <trkpt lat="48.02575" lon="6.82539">
        <ele>652</ele>
        <time>2017-09-23T07:53:06Z</time>
      </trkpt>
      <trkpt lat="48.0258" lon="6.82541">
        <ele>651.12</ele>
        <time>2017-09-23T07:53:07Z</time>
      </trkpt>
      <trkpt lat="48.02586" lon="6.82542">
        <ele>650.74</ele>
        <time>2017-09-23T07:53:08Z</time>
      </trkpt>
      <trkpt lat="48.02592" lon="6.8254">
        <ele>649.21</ele>
        <time>2017-09-23T07:53:09Z</time>
      </trkpt>
      <trkpt lat="48.02597" lon="6.82537">
        <ele>648.89</ele>
        <time>2017-09-23T07:53:10Z</time>
      </trkpt>
      <trkpt lat="48.02603" lon="6.82535">
        <ele>648.05</ele>
        <time>2017-09-23T07:53:11Z</time>
      </trkpt>
      <trkpt lat="48.02608" lon="6.82535">
        <ele>647.04</ele>
        <time>2017-09-23T07:53:12Z</time>
      </trkpt>
      <trkpt lat="48.02614" lon="6.82537">
        <ele>646.88</ele>
        <time>2017-09-23T07:53:13Z</time>
      </trkpt>
      <trkpt lat="48.02619" lon="6.82542">
        <ele>646.44</ele>
        <time>2017-09-23T07:53:14Z</time>
      </trkpt>
      <trkpt lat="48.02623" lon="6.82549">
        <ele>645.92</ele>
        <time>2017-09-23T07:53:15Z</time>
      </trkpt>
      <trkpt lat="48.02628" lon="6.82557">
        <ele>645.04</ele>
        <time>2017-09-23T07:53:16Z</time>
      </trkpt>
      <trkpt lat="48.02655" lon="6.82599">
        <ele>641.35</ele>
        <time>2017-09-23T07:53:21Z</time>
      </trkpt>
      <trkpt lat="48.02672" lon="6.82623">
        <ele>638.67</ele>
        <time>2017-09-23T07:53:24Z</time>
      </trkpt>
      <trkpt lat="48.02678" lon="6.82629">
        <ele>637.7</ele>
        <time>2017-09-23T07:53:25Z</time>
      </trkpt>
      <trkpt lat="48.0269" lon="6.8264">
        <ele>636.04</ele>
        <time>2017-09-23T07:53:27Z</time>
      </trkpt>
      <trkpt lat="48.02695" lon="6.82645">
        <ele>635.2</ele>
        <time>2017-09-23T07:53:28Z</time>
      </trkpt>
      <trkpt lat="48.02699" lon="6.8265">
        <ele>634.5</ele>
        <time>2017-09-23T07:53:29Z</time>
      </trkpt>
      <trkpt lat="48.02703" lon="6.82655">
        <ele>634.25</ele>
        <time>2017-09-23T07:53:30Z</time>
      </trkpt>
      <trkpt lat="48.02712" lon="6.82662">
        <ele>632.45</ele>
        <time>2017-09-23T07:53:32Z</time>
      </trkpt>
      <trkpt lat="48.02716" lon="6.82663">
        <ele>631.72</ele>
        <time>2017-09-23T07:53:33Z</time>
      </trkpt>
      <trkpt lat="48.0272" lon="6.82661">
        <ele>631.43</ele>
        <time>2017-09-23T07:53:34Z</time>
      </trkpt>
      <trkpt lat="48.02723" lon="6.82657">
        <ele>631.31</ele>
        <time>2017-09-23T07:53:35Z</time>
      </trkpt>
      <trkpt lat="48.02725" lon="6.82651">
        <ele>630.85</ele>
        <time>2017-09-23T07:53:36Z</time>
      </trkpt>
      <trkpt lat="48.02725" lon="6.82643">
        <ele>630.16</ele>
        <time>2017-09-23T07:53:37Z</time>
      </trkpt>
      <trkpt lat="48.02723" lon="6.82634">
        <ele>629.74</ele>
        <time>2017-09-23T07:53:38Z</time>
      </trkpt>
      <trkpt lat="48.0272" lon="6.82625">
        <ele>628.32</ele>
        <time>2017-09-23T07:53:39Z</time>
      </trkpt>
      <trkpt lat="48.02717" lon="6.82616">
        <ele>627.51</ele>
        <time>2017-09-23T07:53:40Z</time>
      </trkpt>
      <trkpt lat="48.02714" lon="6.82606">
        <ele>626.76</ele>
        <time>2017-09-23T07:53:41Z</time>
      </trkpt>
      <trkpt lat="48.02712" lon="6.82596">
        <ele>626</ele>
        <time>2017-09-23T07:53:42Z</time>
      </trkpt>
      <trkpt lat="48.0271" lon="6.82586">
        <ele>625.14</ele>
        <time>2017-09-23T07:53:43Z</time>
      </trkpt>
      <trkpt lat="48.02705" lon="6.82557">
        <ele>621.96</ele>
        <time>2017-09-23T07:53:46Z</time>
      </trkpt>
      <trkpt lat="48.02701" lon="6.82537">
        <ele>621.28</ele>
        <time>2017-09-23T07:53:48Z</time>
      </trkpt>
      <trkpt lat="48.02699" lon="6.82527">
        <ele>619.98</ele>
        <time>2017-09-23T07:53:49Z</time>
      </trkpt>
      <trkpt lat="48.0269" lon="6.82488">
        <ele>616.51</ele>
        <time>2017-09-23T07:53:53Z</time>
      </trkpt>
      <trkpt lat="48.02677" lon="6.82442">
        <ele>612.57</ele>
        <time>2017-09-23T07:53:58Z</time>
      </trkpt>
      <trkpt lat="48.02667" lon="6.82409">
        <ele>609.35</ele>
        <time>2017-09-23T07:54:02Z</time>
      </trkpt>
      <trkpt lat="48.02661" lon="6.82394">
        <ele>608.17</ele>
        <time>2017-09-23T07:54:04Z</time>
      </trkpt>
      <trkpt lat="48.02645" lon="6.82354">
        <ele>606.58</ele>
        <time>2017-09-23T07:54:09Z</time>
      </trkpt>
      <trkpt lat="48.02643" lon="6.82344">
        <ele>606.06</ele>
        <time>2017-09-23T07:54:10Z</time>
      </trkpt>
      <trkpt lat="48.02643" lon="6.82335">
        <ele>606.15</ele>
        <time>2017-09-23T07:54:11Z</time>
      </trkpt>
      <trkpt lat="48.02643" lon="6.82325">
        <ele>606.37</ele>
        <time>2017-09-23T07:54:12Z</time>
      </trkpt>
      <trkpt lat="48.02644" lon="6.82316">
        <ele>605.79</ele>
        <time>2017-09-23T07:54:13Z</time>
      </trkpt>
      <trkpt lat="48.02645" lon="6.82307">
        <ele>606</ele>
        <time>2017-09-23T07:54:14Z</time>
      </trkpt>
      <trkpt lat="48.02646" lon="6.82289">
        <ele>605.77</ele>
        <time>2017-09-23T07:54:16Z</time>
      </trkpt>
      <trkpt lat="48.0265" lon="6.82252">
        <ele>605.06</ele>
        <time>2017-09-23T07:54:20Z</time>
      </trkpt>
      <trkpt lat="48.02652" lon="6.82244">
        <ele>603.78</ele>
        <time>2017-09-23T07:54:21Z</time>
      </trkpt>
      <trkpt lat="48.02656" lon="6.8223">
        <ele>602.53</ele>
        <time>2017-09-23T07:54:23Z</time>
      </trkpt>
      <trkpt lat="48.02657" lon="6.82225">
        <ele>602.13</ele>
        <time>2017-09-23T07:54:24Z</time>
      </trkpt>
      <trkpt lat="48.02657" lon="6.82221">
        <ele>601.89</ele>
        <time>2017-09-23T07:54:25Z</time>
      </trkpt>
      <trkpt lat="48.02657" lon="6.82215">
        <ele>601.54</ele>
        <time>2017-09-23T07:54:35Z</time>
      </trkpt>
      <trkpt lat="48.02658" lon="6.82215">
        <ele>601.38</ele>
        <time>2017-09-23T07:54:59Z</time>
      </trkpt>
      <trkpt lat="48.02659" lon="6.82216">
        <ele>601.75</ele>
        <time>2017-09-23T07:55:36Z</time>
      </trkpt>
      <trkpt lat="48.02662" lon="6.82214">
        <ele>601.2</ele>
        <time>2017-09-23T07:55:53Z</time>
      </trkpt>
      <trkpt lat="48.02664" lon="6.82213">
        <ele>601.2</ele>
        <time>2017-09-23T07:56:08Z</time>
      </trkpt>
      <trkpt lat="48.02665" lon="6.82212">
        <ele>601.4</ele>
        <time>2017-09-23T07:56:09Z</time>
      </trkpt>
      <trkpt lat="48.02667" lon="6.8221">
        <ele>601.02</ele>
        <time>2017-09-23T07:56:10Z</time>
      </trkpt>
      <trkpt lat="48.02668" lon="6.82207">
        <ele>601.11</ele>
        <time>2017-09-23T07:56:11Z</time>
      </trkpt>
      <trkpt lat="48.02669" lon="6.82203">
        <ele>600.9</ele>
        <time>2017-09-23T07:56:12Z</time>
      </trkpt>
      <trkpt lat="48.02671" lon="6.82199">
        <ele>600.99</ele>
        <time>2017-09-23T07:56:13Z</time>
      </trkpt>
      <trkpt lat="48.02679" lon="6.8218">
        <ele>600.2</ele>
        <time>2017-09-23T07:56:17Z</time>
      </trkpt>
      <trkpt lat="48.02682" lon="6.82174">
        <ele>600.02</ele>
        <time>2017-09-23T07:56:18Z</time>
      </trkpt>
      <trkpt lat="48.0271" lon="6.82097">
        <ele>598.2</ele>
        <time>2017-09-23T07:56:31Z</time>
      </trkpt>
      <trkpt lat="48.02715" lon="6.82064">
        <ele>598.03</ele>
        <time>2017-09-23T07:56:36Z</time>
      </trkpt>
      <trkpt lat="48.02718" lon="6.82057">
        <ele>597.8</ele>
        <time>2017-09-23T07:56:37Z</time>
      </trkpt>
      <trkpt lat="48.02768" lon="6.81972">
        <ele>594.83</ele>
        <time>2017-09-23T07:56:49Z</time>
      </trkpt>
      <trkpt lat="48.02841" lon="6.81919">
        <ele>593.04</ele>
        <time>2017-09-23T07:57:01Z</time>
      </trkpt>
      <trkpt lat="48.02853" lon="6.81913">
        <ele>592.68</ele>
        <time>2017-09-23T07:57:03Z</time>
      </trkpt>
      <trkpt lat="48.02858" lon="6.81908">
        <ele>593.25</ele>
        <time>2017-09-23T07:57:04Z</time>
      </trkpt>
      <trkpt lat="48.02862" lon="6.81903">
        <ele>593.04</ele>
        <time>2017-09-23T07:57:05Z</time>
      </trkpt>
      <trkpt lat="48.02873" lon="6.81895">
        <ele>592.41</ele>
        <time>2017-09-23T07:57:08Z</time>
      </trkpt>
      <trkpt lat="48.02876" lon="6.81896">
        <ele>592.54</ele>
        <time>2017-09-23T07:57:09Z</time>
      </trkpt>
      <trkpt lat="48.02879" lon="6.81899">
        <ele>592.53</ele>
        <time>2017-09-23T07:57:10Z</time>
      </trkpt>
      <trkpt lat="48.02882" lon="6.81903">
        <ele>592.88</ele>
        <time>2017-09-23T07:57:11Z</time>
      </trkpt>
      <trkpt lat="48.02883" lon="6.81909">
        <ele>593.15</ele>
        <time>2017-09-23T07:57:12Z</time>
      </trkpt>
      <trkpt lat="48.02885" lon="6.81915">
        <ele>593.14</ele>
        <time>2017-09-23T07:57:13Z</time>
      </trkpt>
      <trkpt lat="48.02885" lon="6.81922">
        <ele>593.09</ele>
        <time>2017-09-23T07:57:14Z</time>
      </trkpt>
      <trkpt lat="48.02885" lon="6.81929">
        <ele>593.15</ele>
        <time>2017-09-23T07:57:15Z</time>
      </trkpt>
      <trkpt lat="48.02884" lon="6.81936">
        <ele>593.54</ele>
        <time>2017-09-23T07:57:16Z</time>
      </trkpt>
      <trkpt lat="48.02884" lon="6.81944">
        <ele>593.09</ele>
        <time>2017-09-23T07:57:17Z</time>
      </trkpt>
      <trkpt lat="48.02884" lon="6.8196">
        <ele>592.69</ele>
        <time>2017-09-23T07:57:19Z</time>
      </trkpt>
      <trkpt lat="48.02885" lon="6.81968">
        <ele>593.1</ele>
        <time>2017-09-23T07:57:20Z</time>
      </trkpt>
      <trkpt lat="48.02888" lon="6.81975">
        <ele>592.48</ele>
        <time>2017-09-23T07:57:21Z</time>
      </trkpt>
      <trkpt lat="48.02891" lon="6.8198">
        <ele>592.2</ele>
        <time>2017-09-23T07:57:22Z</time>
      </trkpt>
      <trkpt lat="48.02896" lon="6.81983">
        <ele>592.5</ele>
        <time>2017-09-23T07:57:23Z</time>
      </trkpt>
      <trkpt lat="48.029" lon="6.81985">
        <ele>592.39</ele>
        <time>2017-09-23T07:57:24Z</time>
      </trkpt>
      <trkpt lat="48.02905" lon="6.81985">
        <ele>592.56</ele>
        <time>2017-09-23T07:57:25Z</time>
      </trkpt>
      <trkpt lat="48.0291" lon="6.81983">
        <ele>592.69</ele>
        <time>2017-09-23T07:57:26Z</time>
      </trkpt>
      <trkpt lat="48.02914" lon="6.81981">
        <ele>593.3</ele>
        <time>2017-09-23T07:57:27Z</time>
      </trkpt>
      <trkpt lat="48.02918" lon="6.81978">
        <ele>592.79</ele>
        <time>2017-09-23T07:57:28Z</time>
      </trkpt>
      <trkpt lat="48.02922" lon="6.81974">
        <ele>592.54</ele>
        <time>2017-09-23T07:57:29Z</time>
      </trkpt>
      <trkpt lat="48.02925" lon="6.8197">
        <ele>592.67</ele>
        <time>2017-09-23T07:57:30Z</time>
      </trkpt>
      <trkpt lat="48.02929" lon="6.81966">
        <ele>592.78</ele>
        <time>2017-09-23T07:57:31Z</time>
      </trkpt>
      <trkpt lat="48.02944" lon="6.81933">
        <ele>593.94</ele>
        <time>2017-09-23T07:57:42Z</time>
      </trkpt>
      <trkpt lat="48.0295" lon="6.81919">
        <ele>594.48</ele>
        <time>2017-09-23T07:57:47Z</time>
      </trkpt>
      <trkpt lat="48.02948" lon="6.81852">
        <ele>597.84</ele>
        <time>2017-09-23T07:58:04Z</time>
      </trkpt>
      <trkpt lat="48.02952" lon="6.81807">
        <ele>601.12</ele>
        <time>2017-09-23T07:58:17Z</time>
      </trkpt>
      <trkpt lat="48.02946" lon="6.81765">
        <ele>604.31</ele>
        <time>2017-09-23T07:58:28Z</time>
      </trkpt>
      <trkpt lat="48.02938" lon="6.81728">
        <ele>607.5</ele>
        <time>2017-09-23T07:58:39Z</time>
      </trkpt>
      <trkpt lat="48.02928" lon="6.81688">
        <ele>610.76</ele>
        <time>2017-09-23T07:58:51Z</time>
      </trkpt>
      <trkpt lat="48.02925" lon="6.8165">
        <ele>613.89</ele>
        <time>2017-09-23T07:59:03Z</time>
      </trkpt>
      <trkpt lat="48.0292" lon="6.81612">
        <ele>616.99</ele>
        <time>2017-09-23T07:59:15Z</time>
      </trkpt>
      <trkpt lat="48.02922" lon="6.81596">
        <ele>617.27</ele>
        <time>2017-09-23T07:59:29Z</time>
      </trkpt>
      <trkpt lat="48.02923" lon="6.81591">
        <ele>617.34</ele>
        <time>2017-09-23T07:59:55Z</time>
      </trkpt>
      <trkpt lat="48.02923" lon="6.81588">
        <ele>618.1</ele>
        <time>2017-09-23T07:59:56Z</time>
      </trkpt>
      <trkpt lat="48.02923" lon="6.81585">
        <ele>618.03</ele>
        <time>2017-09-23T07:59:57Z</time>
      </trkpt>
      <trkpt lat="48.02923" lon="6.81581">
        <ele>617.94</ele>
        <time>2017-09-23T07:59:58Z</time>
      </trkpt>
      <trkpt lat="48.02923" lon="6.81577">
        <ele>618.48</ele>
        <time>2017-09-23T07:59:59Z</time>
      </trkpt>
      <trkpt lat="48.02921" lon="6.81535">
        <ele>621.99</ele>
        <time>2017-09-23T08:00:10Z</time>
      </trkpt>
      <trkpt lat="48.02914" lon="6.8149">
        <ele>624.9</ele>
        <time>2017-09-23T08:00:25Z</time>
      </trkpt>
      <trkpt lat="48.02913" lon="6.81454">
        <ele>627.93</ele>
        <time>2017-09-23T08:00:36Z</time>
      </trkpt>
      <trkpt lat="48.0291" lon="6.81414">
        <ele>631.01</ele>
        <time>2017-09-23T08:00:48Z</time>
      </trkpt>
      <trkpt lat="48.02901" lon="6.81367">
        <ele>633.87</ele>
        <time>2017-09-23T08:01:02Z</time>
      </trkpt>
      <trkpt lat="48.02899" lon="6.81333">
        <ele>637.17</ele>
        <time>2017-09-23T08:01:13Z</time>
      </trkpt>
      <trkpt lat="48.02897" lon="6.81327">
        <ele>638.07</ele>
        <time>2017-09-23T08:01:15Z</time>
      </trkpt>
      <trkpt lat="48.02889" lon="6.81295">
        <ele>641.37</ele>
        <time>2017-09-23T08:01:27Z</time>
      </trkpt>
      <trkpt lat="48.02888" lon="6.81282">
        <ele>642.02</ele>
        <time>2017-09-23T08:01:31Z</time>
      </trkpt>
      <trkpt lat="48.02888" lon="6.81278">
        <ele>642.47</ele>
        <time>2017-09-23T08:01:32Z</time>
      </trkpt>
      <trkpt lat="48.02888" lon="6.81274">
        <ele>642.84</ele>
        <time>2017-09-23T08:01:33Z</time>
      </trkpt>
      <trkpt lat="48.02888" lon="6.81269">
        <ele>643.4</ele>
        <time>2017-09-23T08:01:34Z</time>
      </trkpt>
      <trkpt lat="48.02888" lon="6.81265">
        <ele>643.51</ele>
        <time>2017-09-23T08:01:35Z</time>
      </trkpt>
      <trkpt lat="48.02878" lon="6.81214">
        <ele>646.75</ele>
        <time>2017-09-23T08:01:48Z</time>
      </trkpt>
      <trkpt lat="48.02875" lon="6.81171">
        <ele>650.17</ele>
        <time>2017-09-23T08:01:59Z</time>
      </trkpt>
      <trkpt lat="48.02869" lon="6.81136">
        <ele>653.17</ele>
        <time>2017-09-23T08:02:10Z</time>
      </trkpt>
      <trkpt lat="48.02862" lon="6.81101">
        <ele>656.29</ele>
        <time>2017-09-23T08:02:20Z</time>
      </trkpt>
      <trkpt lat="48.02859" lon="6.8108">
        <ele>658.37</ele>
        <time>2017-09-23T08:02:27Z</time>
      </trkpt>
      <trkpt lat="48.02861" lon="6.81076">
        <ele>658.01</ele>
        <time>2017-09-23T08:02:36Z</time>
      </trkpt>
      <trkpt lat="48.02862" lon="6.81077">
        <ele>658.44</ele>
        <time>2017-09-23T08:02:37Z</time>
      </trkpt>
      <trkpt lat="48.02863" lon="6.81079">
        <ele>658.72</ele>
        <time>2017-09-23T08:02:38Z</time>
      </trkpt>
      <trkpt lat="48.02865" lon="6.81081">
        <ele>658.82</ele>
        <time>2017-09-23T08:02:39Z</time>
      </trkpt>
      <trkpt lat="48.02866" lon="6.81083">
        <ele>659.04</ele>
        <time>2017-09-23T08:02:40Z</time>
      </trkpt>
      <trkpt lat="48.02867" lon="6.81084">
        <ele>658.9</ele>
        <time>2017-09-23T08:02:41Z</time>
      </trkpt>
      <trkpt lat="48.02868" lon="6.81086">
        <ele>659.18</ele>
        <time>2017-09-23T08:02:42Z</time>
      </trkpt>
      <trkpt lat="48.0287" lon="6.81088">
        <ele>659.18</ele>
        <time>2017-09-23T08:02:43Z</time>
      </trkpt>
      <trkpt lat="48.02883" lon="6.81105">
        <ele>660.64</ele>
        <time>2017-09-23T08:02:55Z</time>
      </trkpt>
      <trkpt lat="48.029" lon="6.81134">
        <ele>662.99</ele>
        <time>2017-09-23T08:03:08Z</time>
      </trkpt>
      <trkpt lat="48.02925" lon="6.81171">
        <ele>666.08</ele>
        <time>2017-09-23T08:03:23Z</time>
      </trkpt>
      <trkpt lat="48.02943" lon="6.81205">
        <ele>669.34</ele>
        <time>2017-09-23T08:03:34Z</time>
      </trkpt>
      <trkpt lat="48.02945" lon="6.81209">
        <ele>669.48</ele>
        <time>2017-09-23T08:03:35Z</time>
      </trkpt>
      <trkpt lat="48.02962" lon="6.81249">
        <ele>672.12</ele>
        <time>2017-09-23T08:03:47Z</time>
      </trkpt>
      <trkpt lat="48.02975" lon="6.81277">
        <ele>674.1</ele>
        <time>2017-09-23T08:03:56Z</time>
      </trkpt>
      <trkpt lat="48.02977" lon="6.8128">
        <ele>674.4</ele>
        <time>2017-09-23T08:03:57Z</time>
      </trkpt>
      <trkpt lat="48.02978" lon="6.81283">
        <ele>674.53</ele>
        <time>2017-09-23T08:03:58Z</time>
      </trkpt>
      <trkpt lat="48.02979" lon="6.81286">
        <ele>674.79</ele>
        <time>2017-09-23T08:03:59Z</time>
      </trkpt>
      <trkpt lat="48.02979" lon="6.8129">
        <ele>674.75</ele>
        <time>2017-09-23T08:04:00Z</time>
      </trkpt>
      <trkpt lat="48.02993" lon="6.81321">
        <ele>678.04</ele>
        <time>2017-09-23T08:04:11Z</time>
      </trkpt>
      <trkpt lat="48.03011" lon="6.81361">
        <ele>681.38</ele>
        <time>2017-09-23T08:04:23Z</time>
      </trkpt>
      <trkpt lat="48.03026" lon="6.814">
        <ele>684.57</ele>
        <time>2017-09-23T08:04:35Z</time>
      </trkpt>
      <trkpt lat="48.03036" lon="6.81423">
        <ele>686.8</ele>
        <time>2017-09-23T08:04:42Z</time>
      </trkpt>
      <trkpt lat="48.0305" lon="6.81457">
        <ele>690.04</ele>
        <time>2017-09-23T08:04:52Z</time>
      </trkpt>
      <trkpt lat="48.03063" lon="6.81482">
        <ele>691.99</ele>
        <time>2017-09-23T08:05:00Z</time>
      </trkpt>
      <trkpt lat="48.03064" lon="6.81486">
        <ele>692.18</ele>
        <time>2017-09-23T08:05:01Z</time>
      </trkpt>
      <trkpt lat="48.03074" lon="6.81522">
        <ele>695.23</ele>
        <time>2017-09-23T08:05:11Z</time>
      </trkpt>
      <trkpt lat="48.0309" lon="6.81567">
        <ele>697.31</ele>
        <time>2017-09-23T08:05:23Z</time>
      </trkpt>
      <trkpt lat="48.0311" lon="6.81605">
        <ele>700.33</ele>
        <time>2017-09-23T08:05:34Z</time>
      </trkpt>
      <trkpt lat="48.03125" lon="6.81648">
        <ele>703.4</ele>
        <time>2017-09-23T08:05:45Z</time>
      </trkpt>
      <trkpt lat="48.03143" lon="6.81691">
        <ele>706.72</ele>
        <time>2017-09-23T08:05:57Z</time>
      </trkpt>
      <trkpt lat="48.03159" lon="6.81723">
        <ele>709.89</ele>
        <time>2017-09-23T08:06:06Z</time>
      </trkpt>
      <trkpt lat="48.0318" lon="6.81757">
        <ele>712.68</ele>
        <time>2017-09-23T08:06:18Z</time>
      </trkpt>
      <trkpt lat="48.03197" lon="6.81768">
        <ele>715.68</ele>
        <time>2017-09-23T08:06:27Z</time>
      </trkpt>
      <trkpt lat="48.0322" lon="6.818">
        <ele>718.22</ele>
        <time>2017-09-23T08:06:39Z</time>
      </trkpt>
      <trkpt lat="48.03233" lon="6.81843">
        <ele>721.28</ele>
        <time>2017-09-23T08:06:50Z</time>
      </trkpt>
      <trkpt lat="48.03246" lon="6.81885">
        <ele>724.48</ele>
        <time>2017-09-23T08:07:02Z</time>
      </trkpt>
      <trkpt lat="48.03263" lon="6.81931">
        <ele>727.51</ele>
        <time>2017-09-23T08:07:15Z</time>
      </trkpt>
      <trkpt lat="48.03281" lon="6.81975">
        <ele>730.87</ele>
        <time>2017-09-23T08:07:28Z</time>
      </trkpt>
      <trkpt lat="48.03299" lon="6.82022">
        <ele>733.97</ele>
        <time>2017-09-23T08:07:41Z</time>
      </trkpt>
      <trkpt lat="48.03317" lon="6.82071">
        <ele>736.85</ele>
        <time>2017-09-23T08:07:55Z</time>
      </trkpt>
      <trkpt lat="48.03332" lon="6.82106">
        <ele>740.15</ele>
        <time>2017-09-23T08:08:06Z</time>
      </trkpt>
      <trkpt lat="48.03335" lon="6.82112">
        <ele>740.81</ele>
        <time>2017-09-23T08:08:08Z</time>
      </trkpt>
      <trkpt lat="48.03354" lon="6.82155">
        <ele>744.06</ele>
        <time>2017-09-23T08:08:21Z</time>
      </trkpt>
      <trkpt lat="48.03366" lon="6.82198">
        <ele>747.12</ele>
        <time>2017-09-23T08:08:33Z</time>
      </trkpt>
      <trkpt lat="48.03377" lon="6.82233">
        <ele>750.37</ele>
        <time>2017-09-23T08:08:44Z</time>
      </trkpt>
      <trkpt lat="48.03378" lon="6.82236">
        <ele>750.65</ele>
        <time>2017-09-23T08:08:45Z</time>
      </trkpt>
      <trkpt lat="48.0339" lon="6.82271">
        <ele>753.95</ele>
        <time>2017-09-23T08:08:58Z</time>
      </trkpt>
      <trkpt lat="48.03399" lon="6.82313">
        <ele>756.04</ele>
        <time>2017-09-23T08:09:10Z</time>
      </trkpt>
      <trkpt lat="48.03401" lon="6.82325">
        <ele>757.17</ele>
        <time>2017-09-23T08:09:14Z</time>
      </trkpt>
      <trkpt lat="48.03401" lon="6.82329">
        <ele>757.43</ele>
        <time>2017-09-23T08:09:15Z</time>
      </trkpt>
      <trkpt lat="48.03401" lon="6.82331">
        <ele>757.34</ele>
        <time>2017-09-23T08:09:16Z</time>
      </trkpt>
      <trkpt lat="48.03402" lon="6.82334">
        <ele>757.55</ele>
        <time>2017-09-23T08:09:17Z</time>
      </trkpt>
      <trkpt lat="48.03402" lon="6.82337">
        <ele>758.18</ele>
        <time>2017-09-23T08:09:18Z</time>
      </trkpt>
      <trkpt lat="48.03402" lon="6.82341">
        <ele>758.04</ele>
        <time>2017-09-23T08:09:19Z</time>
      </trkpt>
      <trkpt lat="48.03402" lon="6.82345">
        <ele>758.5</ele>
        <time>2017-09-23T08:09:20Z</time>
      </trkpt>
      <trkpt lat="48.03403" lon="6.82349">
        <ele>758.74</ele>
        <time>2017-09-23T08:09:21Z</time>
      </trkpt>
      <trkpt lat="48.03404" lon="6.82353">
        <ele>758.64</ele>
        <time>2017-09-23T08:09:22Z</time>
      </trkpt>
      <trkpt lat="48.03415" lon="6.82389">
        <ele>761.85</ele>
        <time>2017-09-23T08:09:32Z</time>
      </trkpt>
      <trkpt lat="48.03434" lon="6.82436">
        <ele>764.89</ele>
        <time>2017-09-23T08:09:47Z</time>
      </trkpt>
      <trkpt lat="48.03451" lon="6.82481">
        <ele>767.93</ele>
        <time>2017-09-23T08:10:01Z</time>
      </trkpt>
      <trkpt lat="48.03467" lon="6.82518">
        <ele>769.88</ele>
        <time>2017-09-23T08:10:14Z</time>
      </trkpt>
      <trkpt lat="48.03489" lon="6.82542">
        <ele>772.45</ele>
        <time>2017-09-23T08:10:28Z</time>
      </trkpt>
      <trkpt lat="48.03509" lon="6.82554">
        <ele>775.49</ele>
        <time>2017-09-23T08:10:39Z</time>
      </trkpt>
      <trkpt lat="48.03526" lon="6.82565">
        <ele>778.08</ele>
        <time>2017-09-23T08:10:48Z</time>
      </trkpt>
      <trkpt lat="48.03544" lon="6.82607">
        <ele>781.23</ele>
        <time>2017-09-23T08:11:02Z</time>
      </trkpt>
      <trkpt lat="48.0356" lon="6.82652">
        <ele>784.26</ele>
        <time>2017-09-23T08:11:14Z</time>
      </trkpt>
      <trkpt lat="48.03573" lon="6.82684">
        <ele>786.75</ele>
        <time>2017-09-23T08:11:24Z</time>
      </trkpt>
      <trkpt lat="48.03578" lon="6.82696">
        <ele>787.59</ele>
        <time>2017-09-23T08:11:28Z</time>
      </trkpt>
      <trkpt lat="48.03594" lon="6.82733">
        <ele>791.02</ele>
        <time>2017-09-23T08:11:40Z</time>
      </trkpt>
      <trkpt lat="48.03609" lon="6.82773">
        <ele>794.35</ele>
        <time>2017-09-23T08:11:53Z</time>
      </trkpt>
      <trkpt lat="48.0362" lon="6.82801">
        <ele>796.2</ele>
        <time>2017-09-23T08:12:02Z</time>
      </trkpt>
      <trkpt lat="48.03634" lon="6.82849">
        <ele>799.61</ele>
        <time>2017-09-23T08:12:17Z</time>
      </trkpt>
      <trkpt lat="48.03637" lon="6.82864">
        <ele>800.57</ele>
        <time>2017-09-23T08:12:22Z</time>
      </trkpt>
      <trkpt lat="48.03641" lon="6.82861">
        <ele>801</ele>
        <time>2017-09-23T08:12:25Z</time>
      </trkpt>
      <trkpt lat="48.03642" lon="6.82858">
        <ele>801.12</ele>
        <time>2017-09-23T08:12:26Z</time>
      </trkpt>
      <trkpt lat="48.03642" lon="6.82855">
        <ele>801.57</ele>
        <time>2017-09-23T08:12:27Z</time>
      </trkpt>
      <trkpt lat="48.03641" lon="6.82852">
        <ele>801.92</ele>
        <time>2017-09-23T08:12:28Z</time>
      </trkpt>
      <trkpt lat="48.0364" lon="6.82848">
        <ele>802.08</ele>
        <time>2017-09-23T08:12:29Z</time>
      </trkpt>
      <trkpt lat="48.0364" lon="6.82845">
        <ele>801.91</ele>
        <time>2017-09-23T08:12:30Z</time>
      </trkpt>
      <trkpt lat="48.03639" lon="6.82842">
        <ele>802.32</ele>
        <time>2017-09-23T08:12:31Z</time>
      </trkpt>
      <trkpt lat="48.03639" lon="6.82838">
        <ele>802.03</ele>
        <time>2017-09-23T08:12:32Z</time>
      </trkpt>
      <trkpt lat="48.03629" lon="6.8278">
        <ele>800.71</ele>
        <time>2017-09-23T08:12:44Z</time>
      </trkpt>
      <trkpt lat="48.0361" lon="6.82733">
        <ele>803.13</ele>
        <time>2017-09-23T08:12:55Z</time>
      </trkpt>
      <trkpt lat="48.03598" lon="6.82667">
        <ele>804.37</ele>
        <time>2017-09-23T08:13:07Z</time>
      </trkpt>
      <trkpt lat="48.03597" lon="6.82662">
        <ele>804.67</ele>
        <time>2017-09-23T08:13:08Z</time>
      </trkpt>
      <trkpt lat="48.03589" lon="6.82606">
        <ele>807.12</ele>
        <time>2017-09-23T08:13:19Z</time>
      </trkpt>
      <trkpt lat="48.03585" lon="6.82561">
        <ele>810.27</ele>
        <time>2017-09-23T08:13:29Z</time>
      </trkpt>
      <trkpt lat="48.03587" lon="6.82541">
        <ele>811.95</ele>
        <time>2017-09-23T08:13:34Z</time>
      </trkpt>
      <trkpt lat="48.03592" lon="6.82525">
        <ele>812.59</ele>
        <time>2017-09-23T08:13:40Z</time>
      </trkpt>
      <trkpt lat="48.03595" lon="6.82523">
        <ele>813</ele>
        <time>2017-09-23T08:13:51Z</time>
      </trkpt>
      <trkpt lat="48.03597" lon="6.8252">
        <ele>812.56</ele>
        <time>2017-09-23T08:14:22Z</time>
      </trkpt>
      <trkpt lat="48.03598" lon="6.82524">
        <ele>812.69</ele>
        <time>2017-09-23T08:14:57Z</time>
      </trkpt>
      <trkpt lat="48.03596" lon="6.82523">
        <ele>812.2</ele>
        <time>2017-09-23T08:15:17Z</time>
      </trkpt>
      <trkpt lat="48.03597" lon="6.82521">
        <ele>812.22</ele>
        <time>2017-09-23T08:15:24Z</time>
      </trkpt>
      <trkpt lat="48.03609" lon="6.82503">
        <ele>810.23</ele>
        <time>2017-09-23T08:15:33Z</time>
      </trkpt>
      <trkpt lat="48.03624" lon="6.82484">
        <ele>806.01</ele>
        <time>2017-09-23T08:15:39Z</time>
      </trkpt>
      <trkpt lat="48.03632" lon="6.82477">
        <ele>804.6</ele>
        <time>2017-09-23T08:15:42Z</time>
      </trkpt>
      <trkpt lat="48.03638" lon="6.82466">
        <ele>803.62</ele>
        <time>2017-09-23T08:15:44Z</time>
      </trkpt>
      <trkpt lat="48.03647" lon="6.82451">
        <ele>801.07</ele>
        <time>2017-09-23T08:15:47Z</time>
      </trkpt>
      <trkpt lat="48.03659" lon="6.82417">
        <ele>798.41</ele>
        <time>2017-09-23T08:15:53Z</time>
      </trkpt>
      <trkpt lat="48.03661" lon="6.82403">
        <ele>797.72</ele>
        <time>2017-09-23T08:15:55Z</time>
      </trkpt>
      <trkpt lat="48.03663" lon="6.82389">
        <ele>796.88</ele>
        <time>2017-09-23T08:15:57Z</time>
      </trkpt>
      <trkpt lat="48.03668" lon="6.82369">
        <ele>794.42</ele>
        <time>2017-09-23T08:16:00Z</time>
      </trkpt>
      <trkpt lat="48.03673" lon="6.82351">
        <ele>792.56</ele>
        <time>2017-09-23T08:16:03Z</time>
      </trkpt>
      <trkpt lat="48.03678" lon="6.82335">
        <ele>790.43</ele>
        <time>2017-09-23T08:16:06Z</time>
      </trkpt>
      <trkpt lat="48.03685" lon="6.82305">
        <ele>786.33</ele>
        <time>2017-09-23T08:16:11Z</time>
      </trkpt>
      <trkpt lat="48.03684" lon="6.82284">
        <ele>782.92</ele>
        <time>2017-09-23T08:16:15Z</time>
      </trkpt>
      <trkpt lat="48.03682" lon="6.82264">
        <ele>780.47</ele>
        <time>2017-09-23T08:16:18Z</time>
      </trkpt>
      <trkpt lat="48.03683" lon="6.82249">
        <ele>779.3</ele>
        <time>2017-09-23T08:16:20Z</time>
      </trkpt>
      <trkpt lat="48.03683" lon="6.82242">
        <ele>779.02</ele>
        <time>2017-09-23T08:16:21Z</time>
      </trkpt>
      <trkpt lat="48.03682" lon="6.8221">
        <ele>776.14</ele>
        <time>2017-09-23T08:16:25Z</time>
      </trkpt>
      <trkpt lat="48.03681" lon="6.82203">
        <ele>775.48</ele>
        <time>2017-09-23T08:16:26Z</time>
      </trkpt>
      <trkpt lat="48.0368" lon="6.82197">
        <ele>774.52</ele>
        <time>2017-09-23T08:16:27Z</time>
      </trkpt>
      <trkpt lat="48.03678" lon="6.82192">
        <ele>774.22</ele>
        <time>2017-09-23T08:16:28Z</time>
      </trkpt>
      <trkpt lat="48.03677" lon="6.82187">
        <ele>773.99</ele>
        <time>2017-09-23T08:16:29Z</time>
      </trkpt>
      <trkpt lat="48.03674" lon="6.82177">
        <ele>772.63</ele>
        <time>2017-09-23T08:16:31Z</time>
      </trkpt>
      <trkpt lat="48.03671" lon="6.82172">
        <ele>772.46</ele>
        <time>2017-09-23T08:16:32Z</time>
      </trkpt>
      <trkpt lat="48.03668" lon="6.82167">
        <ele>771.36</ele>
        <time>2017-09-23T08:16:33Z</time>
      </trkpt>
      <trkpt lat="48.03662" lon="6.82157">
        <ele>770.63</ele>
        <time>2017-09-23T08:16:35Z</time>
      </trkpt>
      <trkpt lat="48.0366" lon="6.82151">
        <ele>770.51</ele>
        <time>2017-09-23T08:16:36Z</time>
      </trkpt>
      <trkpt lat="48.03652" lon="6.82088">
        <ele>770.52</ele>
        <time>2017-09-23T08:16:46Z</time>
      </trkpt>
      <trkpt lat="48.03648" lon="6.82066">
        <ele>769.92</ele>
        <time>2017-09-23T08:16:49Z</time>
      </trkpt>
      <trkpt lat="48.03647" lon="6.8205">
        <ele>769.75</ele>
        <time>2017-09-23T08:16:51Z</time>
      </trkpt>
      <trkpt lat="48.03637" lon="6.81999">
        <ele>766.82</ele>
        <time>2017-09-23T08:16:56Z</time>
      </trkpt>
      <trkpt lat="48.03618" lon="6.81954">
        <ele>766.02</ele>
        <time>2017-09-23T08:17:01Z</time>
      </trkpt>
      <trkpt lat="48.03615" lon="6.81945">
        <ele>765.73</ele>
        <time>2017-09-23T08:17:02Z</time>
      </trkpt>
      <trkpt lat="48.03612" lon="6.81935">
        <ele>765.12</ele>
        <time>2017-09-23T08:17:03Z</time>
      </trkpt>
      <trkpt lat="48.03609" lon="6.81924">
        <ele>764.71</ele>
        <time>2017-09-23T08:17:04Z</time>
      </trkpt>
      <trkpt lat="48.03607" lon="6.81913">
        <ele>764.14</ele>
        <time>2017-09-23T08:17:05Z</time>
      </trkpt>
      <trkpt lat="48.03604" lon="6.81902">
        <ele>763.9</ele>
        <time>2017-09-23T08:17:06Z</time>
      </trkpt>
      <trkpt lat="48.03595" lon="6.8186">
        <ele>762.58</ele>
        <time>2017-09-23T08:17:10Z</time>
      </trkpt>
      <trkpt lat="48.03583" lon="6.81809">
        <ele>758.71</ele>
        <time>2017-09-23T08:17:15Z</time>
      </trkpt>
      <trkpt lat="48.03573" lon="6.81772">
        <ele>755.57</ele>
        <time>2017-09-23T08:17:19Z</time>
      </trkpt>
      <trkpt lat="48.03571" lon="6.81763">
        <ele>755.23</ele>
        <time>2017-09-23T08:17:20Z</time>
      </trkpt>
      <trkpt lat="48.0357" lon="6.81755">
        <ele>754.67</ele>
        <time>2017-09-23T08:17:21Z</time>
      </trkpt>
      <trkpt lat="48.0357" lon="6.81747">
        <ele>754.2</ele>
        <time>2017-09-23T08:17:22Z</time>
      </trkpt>
      <trkpt lat="48.03571" lon="6.8174">
        <ele>753.59</ele>
        <time>2017-09-23T08:17:23Z</time>
      </trkpt>
      <trkpt lat="48.03572" lon="6.81733">
        <ele>752.96</ele>
        <time>2017-09-23T08:17:24Z</time>
      </trkpt>
      <trkpt lat="48.03572" lon="6.81711">
        <ele>752.07</ele>
        <time>2017-09-23T08:17:27Z</time>
      </trkpt>
      <trkpt lat="48.03571" lon="6.81704">
        <ele>751.63</ele>
        <time>2017-09-23T08:17:28Z</time>
      </trkpt>
      <trkpt lat="48.03569" lon="6.81691">
        <ele>750.76</ele>
        <time>2017-09-23T08:17:30Z</time>
      </trkpt>
      <trkpt lat="48.03569" lon="6.81685">
        <ele>750.41</ele>
        <time>2017-09-23T08:17:31Z</time>
      </trkpt>
      <trkpt lat="48.03566" lon="6.81673">
        <ele>749.98</ele>
        <time>2017-09-23T08:17:33Z</time>
      </trkpt>
      <trkpt lat="48.03565" lon="6.81668">
        <ele>749.88</ele>
        <time>2017-09-23T08:17:34Z</time>
      </trkpt>
      <trkpt lat="48.03564" lon="6.81661">
        <ele>749.55</ele>
        <time>2017-09-23T08:17:35Z</time>
      </trkpt>
      <trkpt lat="48.03564" lon="6.81654">
        <ele>749.14</ele>
        <time>2017-09-23T08:17:36Z</time>
      </trkpt>
      <trkpt lat="48.03564" lon="6.81647">
        <ele>748.92</ele>
        <time>2017-09-23T08:17:37Z</time>
      </trkpt>
      <trkpt lat="48.03564" lon="6.8164">
        <ele>748.76</ele>
        <time>2017-09-23T08:17:38Z</time>
      </trkpt>
      <trkpt lat="48.03565" lon="6.81623">
        <ele>748.14</ele>
        <time>2017-09-23T08:17:40Z</time>
      </trkpt>
      <trkpt lat="48.03565" lon="6.81614">
        <ele>748.31</ele>
        <time>2017-09-23T08:17:41Z</time>
      </trkpt>
      <trkpt lat="48.03566" lon="6.81605">
        <ele>747.16</ele>
        <time>2017-09-23T08:17:42Z</time>
      </trkpt>
      <trkpt lat="48.03569" lon="6.81576">
        <ele>745.46</ele>
        <time>2017-09-23T08:17:45Z</time>
      </trkpt>
      <trkpt lat="48.03569" lon="6.81534">
        <ele>742.46</ele>
        <time>2017-09-23T08:17:49Z</time>
      </trkpt>
      <trkpt lat="48.03566" lon="6.81503">
        <ele>741.33</ele>
        <time>2017-09-23T08:17:52Z</time>
      </trkpt>
      <trkpt lat="48.03564" lon="6.81493">
        <ele>740.86</ele>
        <time>2017-09-23T08:17:53Z</time>
      </trkpt>
      <trkpt lat="48.03557" lon="6.81446">
        <ele>737.24</ele>
        <time>2017-09-23T08:17:58Z</time>
      </trkpt>
      <trkpt lat="48.03552" lon="6.81412">
        <ele>734.01</ele>
        <time>2017-09-23T08:18:02Z</time>
      </trkpt>
      <trkpt lat="48.03547" lon="6.81391">
        <ele>731.92</ele>
        <time>2017-09-23T08:18:05Z</time>
      </trkpt>
      <trkpt lat="48.03547" lon="6.81385">
        <ele>731.08</ele>
        <time>2017-09-23T08:18:06Z</time>
      </trkpt>
      <trkpt lat="48.03547" lon="6.81379">
        <ele>730.36</ele>
        <time>2017-09-23T08:18:07Z</time>
      </trkpt>
      <trkpt lat="48.03549" lon="6.81372">
        <ele>730.09</ele>
        <time>2017-09-23T08:18:08Z</time>
      </trkpt>
      <trkpt lat="48.03551" lon="6.81365">
        <ele>729.45</ele>
        <time>2017-09-23T08:18:09Z</time>
      </trkpt>
      <trkpt lat="48.03552" lon="6.81357">
        <ele>729</ele>
        <time>2017-09-23T08:18:10Z</time>
      </trkpt>
      <trkpt lat="48.03553" lon="6.81349">
        <ele>728.49</ele>
        <time>2017-09-23T08:18:11Z</time>
      </trkpt>
      <trkpt lat="48.03553" lon="6.81341">
        <ele>728.27</ele>
        <time>2017-09-23T08:18:12Z</time>
      </trkpt>
      <trkpt lat="48.03551" lon="6.81305">
        <ele>725.23</ele>
        <time>2017-09-23T08:18:17Z</time>
      </trkpt>
      <trkpt lat="48.03551" lon="6.81284">
        <ele>723.74</ele>
        <time>2017-09-23T08:18:20Z</time>
      </trkpt>
      <trkpt lat="48.0355" lon="6.8127">
        <ele>722.23</ele>
        <time>2017-09-23T08:18:22Z</time>
      </trkpt>
      <trkpt lat="48.0355" lon="6.81264">
        <ele>722.02</ele>
        <time>2017-09-23T08:18:23Z</time>
      </trkpt>
      <trkpt lat="48.03547" lon="6.81242">
        <ele>720.69</ele>
        <time>2017-09-23T08:18:26Z</time>
      </trkpt>
      <trkpt lat="48.03547" lon="6.81233">
        <ele>719.75</ele>
        <time>2017-09-23T08:18:27Z</time>
      </trkpt>
      <trkpt lat="48.03548" lon="6.81203">
        <ele>716.7</ele>
        <time>2017-09-23T08:18:31Z</time>
      </trkpt>
      <trkpt lat="48.03549" lon="6.81184">
        <ele>715.7</ele>
        <time>2017-09-23T08:18:34Z</time>
      </trkpt>
      <trkpt lat="48.03549" lon="6.81177">
        <ele>714.21</ele>
        <time>2017-09-23T08:18:35Z</time>
      </trkpt>
      <trkpt lat="48.03549" lon="6.8117">
        <ele>714.35</ele>
        <time>2017-09-23T08:18:36Z</time>
      </trkpt>
      <trkpt lat="48.0355" lon="6.81163">
        <ele>713.85</ele>
        <time>2017-09-23T08:18:37Z</time>
      </trkpt>
      <trkpt lat="48.03551" lon="6.81157">
        <ele>713.3</ele>
        <time>2017-09-23T08:18:38Z</time>
      </trkpt>
      <trkpt lat="48.03551" lon="6.81151">
        <ele>712.41</ele>
        <time>2017-09-23T08:18:39Z</time>
      </trkpt>
      <trkpt lat="48.03554" lon="6.81117">
        <ele>709.79</ele>
        <time>2017-09-23T08:18:44Z</time>
      </trkpt>
      <trkpt lat="48.03554" lon="6.81093">
        <ele>707.96</ele>
        <time>2017-09-23T08:18:47Z</time>
      </trkpt>
      <trkpt lat="48.03554" lon="6.81055">
        <ele>704.79</ele>
        <time>2017-09-23T08:18:52Z</time>
      </trkpt>
      <trkpt lat="48.03553" lon="6.81047">
        <ele>704.17</ele>
        <time>2017-09-23T08:18:53Z</time>
      </trkpt>
      <trkpt lat="48.03552" lon="6.81039">
        <ele>703.58</ele>
        <time>2017-09-23T08:18:54Z</time>
      </trkpt>
      <trkpt lat="48.0355" lon="6.81031">
        <ele>703.17</ele>
        <time>2017-09-23T08:18:55Z</time>
      </trkpt>
      <trkpt lat="48.03548" lon="6.81023">
        <ele>702.61</ele>
        <time>2017-09-23T08:18:56Z</time>
      </trkpt>
      <trkpt lat="48.03546" lon="6.81015">
        <ele>701.6</ele>
        <time>2017-09-23T08:18:57Z</time>
      </trkpt>
      <trkpt lat="48.03543" lon="6.81008">
        <ele>701.56</ele>
        <time>2017-09-23T08:18:58Z</time>
      </trkpt>
      <trkpt lat="48.0354" lon="6.81001">
        <ele>700.45</ele>
        <time>2017-09-23T08:18:59Z</time>
      </trkpt>
      <trkpt lat="48.03526" lon="6.80967">
        <ele>696.44</ele>
        <time>2017-09-23T08:19:04Z</time>
      </trkpt>
      <trkpt lat="48.03524" lon="6.80958">
        <ele>696.55</ele>
        <time>2017-09-23T08:19:05Z</time>
      </trkpt>
      <trkpt lat="48.03524" lon="6.8095">
        <ele>695.52</ele>
        <time>2017-09-23T08:19:06Z</time>
      </trkpt>
      <trkpt lat="48.03522" lon="6.80919">
        <ele>692.44</ele>
        <time>2017-09-23T08:19:10Z</time>
      </trkpt>
      <trkpt lat="48.03521" lon="6.80912">
        <ele>691.96</ele>
        <time>2017-09-23T08:19:11Z</time>
      </trkpt>
      <trkpt lat="48.03519" lon="6.80906">
        <ele>691.5</ele>
        <time>2017-09-23T08:19:12Z</time>
      </trkpt>
      <trkpt lat="48.03512" lon="6.80875">
        <ele>689.33</ele>
        <time>2017-09-23T08:19:16Z</time>
      </trkpt>
      <trkpt lat="48.03506" lon="6.80834">
        <ele>685.74</ele>
        <time>2017-09-23T08:19:21Z</time>
      </trkpt>
      <trkpt lat="48.03501" lon="6.80814">
        <ele>683.47</ele>
        <time>2017-09-23T08:19:24Z</time>
      </trkpt>
      <trkpt lat="48.03494" lon="6.80781">
        <ele>680.37</ele>
        <time>2017-09-23T08:19:29Z</time>
      </trkpt>
      <trkpt lat="48.03493" lon="6.80775">
        <ele>679.1</ele>
        <time>2017-09-23T08:19:30Z</time>
      </trkpt>
      <trkpt lat="48.03491" lon="6.80762">
        <ele>678.02</ele>
        <time>2017-09-23T08:19:32Z</time>
      </trkpt>
      <trkpt lat="48.03485" lon="6.80734">
        <ele>675.54</ele>
        <time>2017-09-23T08:19:37Z</time>
      </trkpt>
      <trkpt lat="48.03484" lon="6.80728">
        <ele>674.87</ele>
        <time>2017-09-23T08:19:38Z</time>
      </trkpt>
      <trkpt lat="48.03483" lon="6.80721">
        <ele>674.23</ele>
        <time>2017-09-23T08:19:39Z</time>
      </trkpt>
      <trkpt lat="48.03483" lon="6.80714">
        <ele>673.75</ele>
        <time>2017-09-23T08:19:40Z</time>
      </trkpt>
      <trkpt lat="48.03482" lon="6.80694">
        <ele>672.12</ele>
        <time>2017-09-23T08:19:43Z</time>
      </trkpt>
      <trkpt lat="48.03479" lon="6.80662">
        <ele>670.33</ele>
        <time>2017-09-23T08:19:47Z</time>
      </trkpt>
      <trkpt lat="48.03478" lon="6.80647">
        <ele>668.69</ele>
        <time>2017-09-23T08:19:49Z</time>
      </trkpt>
      <trkpt lat="48.03477" lon="6.80607">
        <ele>666.87</ele>
        <time>2017-09-23T08:19:54Z</time>
      </trkpt>
      <trkpt lat="48.03475" lon="6.80599">
        <ele>666.24</ele>
        <time>2017-09-23T08:19:55Z</time>
      </trkpt>
      <trkpt lat="48.03474" lon="6.80591">
        <ele>665.59</ele>
        <time>2017-09-23T08:19:56Z</time>
      </trkpt>
      <trkpt lat="48.03473" lon="6.80584">
        <ele>665.06</ele>
        <time>2017-09-23T08:19:57Z</time>
      </trkpt>
      <trkpt lat="48.03471" lon="6.80576">
        <ele>665.62</ele>
        <time>2017-09-23T08:19:58Z</time>
      </trkpt>
      <trkpt lat="48.03462" lon="6.80544">
        <ele>663</ele>
        <time>2017-09-23T08:20:02Z</time>
      </trkpt>
      <trkpt lat="48.0346" lon="6.80536">
        <ele>662.31</ele>
        <time>2017-09-23T08:20:03Z</time>
      </trkpt>
      <trkpt lat="48.03459" lon="6.80529">
        <ele>661.79</ele>
        <time>2017-09-23T08:20:04Z</time>
      </trkpt>
      <trkpt lat="48.03453" lon="6.80488">
        <ele>658.28</ele>
        <time>2017-09-23T08:20:09Z</time>
      </trkpt>
      <trkpt lat="48.03452" lon="6.80479">
        <ele>658.06</ele>
        <time>2017-09-23T08:20:10Z</time>
      </trkpt>
      <trkpt lat="48.03451" lon="6.80446">
        <ele>655.49</ele>
        <time>2017-09-23T08:20:14Z</time>
      </trkpt>
      <trkpt lat="48.03451" lon="6.80422">
        <ele>654.04</ele>
        <time>2017-09-23T08:20:17Z</time>
      </trkpt>
      <trkpt lat="48.03453" lon="6.80377">
        <ele>652.07</ele>
        <time>2017-09-23T08:20:22Z</time>
      </trkpt>
      <trkpt lat="48.03451" lon="6.8036">
        <ele>651.61</ele>
        <time>2017-09-23T08:20:24Z</time>
      </trkpt>
      <trkpt lat="48.03449" lon="6.80352">
        <ele>651.27</ele>
        <time>2017-09-23T08:20:25Z</time>
      </trkpt>
      <trkpt lat="48.03432" lon="6.80294">
        <ele>649.18</ele>
        <time>2017-09-23T08:20:32Z</time>
      </trkpt>
      <trkpt lat="48.03431" lon="6.80286">
        <ele>649.17</ele>
        <time>2017-09-23T08:20:33Z</time>
      </trkpt>
      <trkpt lat="48.03429" lon="6.80278">
        <ele>648.91</ele>
        <time>2017-09-23T08:20:34Z</time>
      </trkpt>
      <trkpt lat="48.03425" lon="6.80263">
        <ele>649.05</ele>
        <time>2017-09-23T08:20:36Z</time>
      </trkpt>
      <trkpt lat="48.03423" lon="6.80256">
        <ele>648.7</ele>
        <time>2017-09-23T08:20:37Z</time>
      </trkpt>
      <trkpt lat="48.0342" lon="6.8025">
        <ele>648.65</ele>
        <time>2017-09-23T08:20:38Z</time>
      </trkpt>
      <trkpt lat="48.03417" lon="6.80244">
        <ele>648.29</ele>
        <time>2017-09-23T08:20:39Z</time>
      </trkpt>
      <trkpt lat="48.03415" lon="6.80237">
        <ele>648.78</ele>
        <time>2017-09-23T08:20:40Z</time>
      </trkpt>
      <trkpt lat="48.03404" lon="6.80218">
        <ele>648.11</ele>
        <time>2017-09-23T08:20:43Z</time>
      </trkpt>
      <trkpt lat="48.03402" lon="6.80212">
        <ele>648.22</ele>
        <time>2017-09-23T08:20:44Z</time>
      </trkpt>
      <trkpt lat="48.034" lon="6.80205">
        <ele>648.14</ele>
        <time>2017-09-23T08:20:45Z</time>
      </trkpt>
      <trkpt lat="48.03397" lon="6.80192">
        <ele>647.62</ele>
        <time>2017-09-23T08:20:47Z</time>
      </trkpt>
      <trkpt lat="48.03393" lon="6.80179">
        <ele>647.93</ele>
        <time>2017-09-23T08:20:49Z</time>
      </trkpt>
      <trkpt lat="48.03391" lon="6.80165">
        <ele>648.27</ele>
        <time>2017-09-23T08:20:51Z</time>
      </trkpt>
      <trkpt lat="48.03387" lon="6.8015">
        <ele>648.38</ele>
        <time>2017-09-23T08:20:53Z</time>
      </trkpt>
      <trkpt lat="48.03384" lon="6.80143">
        <ele>648.06</ele>
        <time>2017-09-23T08:20:54Z</time>
      </trkpt>
      <trkpt lat="48.03381" lon="6.80136">
        <ele>647.99</ele>
        <time>2017-09-23T08:20:55Z</time>
      </trkpt>
      <trkpt lat="48.03378" lon="6.8013">
        <ele>648.3</ele>
        <time>2017-09-23T08:20:56Z</time>
      </trkpt>
      <trkpt lat="48.03375" lon="6.80123">
        <ele>648.33</ele>
        <time>2017-09-23T08:20:57Z</time>
      </trkpt>
      <trkpt lat="48.03357" lon="6.80079">
        <ele>648.08</ele>
        <time>2017-09-23T08:21:03Z</time>
      </trkpt>
      <trkpt lat="48.03354" lon="6.80072">
        <ele>647.77</ele>
        <time>2017-09-23T08:21:04Z</time>
      </trkpt>
      <trkpt lat="48.03351" lon="6.80065">
        <ele>648.42</ele>
        <time>2017-09-23T08:21:05Z</time>
      </trkpt>
      <trkpt lat="48.03349" lon="6.80058">
        <ele>648.47</ele>
        <time>2017-09-23T08:21:06Z</time>
      </trkpt>
      <trkpt lat="48.03347" lon="6.8005">
        <ele>647.29</ele>
        <time>2017-09-23T08:21:07Z</time>
      </trkpt>
      <trkpt lat="48.03344" lon="6.80034">
        <ele>647.85</ele>
        <time>2017-09-23T08:21:09Z</time>
      </trkpt>
      <trkpt lat="48.03343" lon="6.80026">
        <ele>647.88</ele>
        <time>2017-09-23T08:21:10Z</time>
      </trkpt>
      <trkpt lat="48.03338" lon="6.79976">
        <ele>647.68</ele>
        <time>2017-09-23T08:21:16Z</time>
      </trkpt>
      <trkpt lat="48.03337" lon="6.79969">
        <ele>647.84</ele>
        <time>2017-09-23T08:21:17Z</time>
      </trkpt>
      <trkpt lat="48.03335" lon="6.79954">
        <ele>647.58</ele>
        <time>2017-09-23T08:21:19Z</time>
      </trkpt>
      <trkpt lat="48.0333" lon="6.79933">
        <ele>647.22</ele>
        <time>2017-09-23T08:21:22Z</time>
      </trkpt>
      <trkpt lat="48.03329" lon="6.79926">
        <ele>647.24</ele>
        <time>2017-09-23T08:21:23Z</time>
      </trkpt>
      <trkpt lat="48.03326" lon="6.79905">
        <ele>647.42</ele>
        <time>2017-09-23T08:21:26Z</time>
      </trkpt>
      <trkpt lat="48.03312" lon="6.79826">
        <ele>646.03</ele>
        <time>2017-09-23T08:21:37Z</time>
      </trkpt>
      <trkpt lat="48.03303" lon="6.79758">
        <ele>645.42</ele>
        <time>2017-09-23T08:21:49Z</time>
      </trkpt>
      <trkpt lat="48.03299" lon="6.79731">
        <ele>644.12</ele>
        <time>2017-09-23T08:21:59Z</time>
      </trkpt>
      <trkpt lat="48.03301" lon="6.79731">
        <ele>644.29</ele>
        <time>2017-09-23T08:22:15Z</time>
      </trkpt>
      <trkpt lat="48.03302" lon="6.79733">
        <ele>643.97</ele>
        <time>2017-09-23T08:22:17Z</time>
      </trkpt>
      <trkpt lat="48.03302" lon="6.79735">
        <ele>644.38</ele>
        <time>2017-09-23T08:22:19Z</time>
      </trkpt>
      <trkpt lat="48.03303" lon="6.79737">
        <ele>644.72</ele>
        <time>2017-09-23T08:22:20Z</time>
      </trkpt>
      <trkpt lat="48.03303" lon="6.79739">
        <ele>644</ele>
        <time>2017-09-23T08:22:21Z</time>
      </trkpt>
      <trkpt lat="48.03304" lon="6.79741">
        <ele>644.42</ele>
        <time>2017-09-23T08:22:22Z</time>
      </trkpt>
      <trkpt lat="48.03305" lon="6.79743">
        <ele>644.62</ele>
        <time>2017-09-23T08:22:23Z</time>
      </trkpt>
      <trkpt lat="48.03321" lon="6.79801">
        <ele>642.65</ele>
        <time>2017-09-23T08:22:34Z</time>
      </trkpt>
      <trkpt lat="48.03336" lon="6.79849">
        <ele>641.21</ele>
        <time>2017-09-23T08:22:43Z</time>
      </trkpt>
      <trkpt lat="48.03349" lon="6.79875">
        <ele>638.07</ele>
        <time>2017-09-23T08:22:53Z</time>
      </trkpt>
      <trkpt lat="48.03349" lon="6.79873">
        <ele>638.86</ele>
        <time>2017-09-23T08:22:59Z</time>
      </trkpt>
      <trkpt lat="48.03348" lon="6.79871">
        <ele>637.93</ele>
        <time>2017-09-23T08:23:00Z</time>
      </trkpt>
      <trkpt lat="48.03348" lon="6.79868">
        <ele>638.65</ele>
        <time>2017-09-23T08:23:01Z</time>
      </trkpt>
      <trkpt lat="48.03347" lon="6.79865">
        <ele>637.85</ele>
        <time>2017-09-23T08:23:02Z</time>
      </trkpt>
      <trkpt lat="48.03347" lon="6.7986">
        <ele>638.24</ele>
        <time>2017-09-23T08:23:03Z</time>
      </trkpt>
      <trkpt lat="48.03345" lon="6.79792">
        <ele>635.46</ele>
        <time>2017-09-23T08:23:15Z</time>
      </trkpt>
      <trkpt lat="48.03343" lon="6.79715">
        <ele>634.47</ele>
        <time>2017-09-23T08:23:26Z</time>
      </trkpt>
      <trkpt lat="48.03353" lon="6.79696">
        <ele>633.52</ele>
        <time>2017-09-23T08:23:31Z</time>
      </trkpt>
      <trkpt lat="48.03383" lon="6.79681">
        <ele>630.27</ele>
        <time>2017-09-23T08:23:39Z</time>
      </trkpt>
      <trkpt lat="48.03386" lon="6.79684">
        <ele>629.53</ele>
        <time>2017-09-23T08:23:40Z</time>
      </trkpt>
      <trkpt lat="48.0339" lon="6.79688">
        <ele>628.68</ele>
        <time>2017-09-23T08:23:41Z</time>
      </trkpt>
      <trkpt lat="48.03392" lon="6.79692">
        <ele>627.8</ele>
        <time>2017-09-23T08:23:42Z</time>
      </trkpt>
      <trkpt lat="48.03395" lon="6.79696">
        <ele>627.26</ele>
        <time>2017-09-23T08:23:43Z</time>
      </trkpt>
      <trkpt lat="48.03396" lon="6.79701">
        <ele>626.69</ele>
        <time>2017-09-23T08:23:44Z</time>
      </trkpt>
      <trkpt lat="48.03396" lon="6.79706">
        <ele>626.25</ele>
        <time>2017-09-23T08:23:45Z</time>
      </trkpt>
      <trkpt lat="48.03395" lon="6.79712">
        <ele>625.87</ele>
        <time>2017-09-23T08:23:46Z</time>
      </trkpt>
      <trkpt lat="48.03394" lon="6.79717">
        <ele>625.53</ele>
        <time>2017-09-23T08:23:47Z</time>
      </trkpt>
      <trkpt lat="48.0339" lon="6.7974">
        <ele>622.54</ele>
        <time>2017-09-23T08:23:51Z</time>
      </trkpt>
      <trkpt lat="48.03392" lon="6.79745">
        <ele>622.1</ele>
        <time>2017-09-23T08:23:52Z</time>
      </trkpt>
      <trkpt lat="48.03395" lon="6.7975">
        <ele>621.74</ele>
        <time>2017-09-23T08:23:53Z</time>
      </trkpt>
      <trkpt lat="48.034" lon="6.79755">
        <ele>621.02</ele>
        <time>2017-09-23T08:23:54Z</time>
      </trkpt>
      <trkpt lat="48.03404" lon="6.79761">
        <ele>620.48</ele>
        <time>2017-09-23T08:23:55Z</time>
      </trkpt>
      <trkpt lat="48.03407" lon="6.79766">
        <ele>620.11</ele>
        <time>2017-09-23T08:23:56Z</time>
      </trkpt>
      <trkpt lat="48.03417" lon="6.79782">
        <ele>618.09</ele>
        <time>2017-09-23T08:23:59Z</time>
      </trkpt>
      <trkpt lat="48.0342" lon="6.79785">
        <ele>617.96</ele>
        <time>2017-09-23T08:24:00Z</time>
      </trkpt>
      <trkpt lat="48.03424" lon="6.79787">
        <ele>617.45</ele>
        <time>2017-09-23T08:24:01Z</time>
      </trkpt>
      <trkpt lat="48.03428" lon="6.79788">
        <ele>617.49</ele>
        <time>2017-09-23T08:24:02Z</time>
      </trkpt>
      <trkpt lat="48.03431" lon="6.79787">
        <ele>617.54</ele>
        <time>2017-09-23T08:24:03Z</time>
      </trkpt>
      <trkpt lat="48.03434" lon="6.79785">
        <ele>617.38</ele>
        <time>2017-09-23T08:24:04Z</time>
      </trkpt>
      <trkpt lat="48.03436" lon="6.79782">
        <ele>617.42</ele>
        <time>2017-09-23T08:24:05Z</time>
      </trkpt>
      <trkpt lat="48.03438" lon="6.79778">
        <ele>616.71</ele>
        <time>2017-09-23T08:24:06Z</time>
      </trkpt>
      <trkpt lat="48.03452" lon="6.79762">
        <ele>620.11</ele>
        <time>2017-09-23T08:24:18Z</time>
      </trkpt>
      <trkpt lat="48.03467" lon="6.7976">
        <ele>623.15</ele>
        <time>2017-09-23T08:24:25Z</time>
      </trkpt>
      <trkpt lat="48.03472" lon="6.79759">
        <ele>623.94</ele>
        <time>2017-09-23T08:24:27Z</time>
      </trkpt>
      <trkpt lat="48.03483" lon="6.79753">
        <ele>627.33</ele>
        <time>2017-09-23T08:24:32Z</time>
      </trkpt>
      <trkpt lat="48.03484" lon="6.7975">
        <ele>627.48</ele>
        <time>2017-09-23T08:24:33Z</time>
      </trkpt>
      <trkpt lat="48.03485" lon="6.79747">
        <ele>627.58</ele>
        <time>2017-09-23T08:24:34Z</time>
      </trkpt>
      <trkpt lat="48.03485" lon="6.79743">
        <ele>627.79</ele>
        <time>2017-09-23T08:24:35Z</time>
      </trkpt>
      <trkpt lat="48.03485" lon="6.79739">
        <ele>627.74</ele>
        <time>2017-09-23T08:24:36Z</time>
      </trkpt>
      <trkpt lat="48.03484" lon="6.79735">
        <ele>627.63</ele>
        <time>2017-09-23T08:24:37Z</time>
      </trkpt>
      <trkpt lat="48.03482" lon="6.79731">
        <ele>627.86</ele>
        <time>2017-09-23T08:24:38Z</time>
      </trkpt>
      <trkpt lat="48.03481" lon="6.79727">
        <ele>627.65</ele>
        <time>2017-09-23T08:24:39Z</time>
      </trkpt>
      <trkpt lat="48.03481" lon="6.79722">
        <ele>627.67</ele>
        <time>2017-09-23T08:24:40Z</time>
      </trkpt>
      <trkpt lat="48.03475" lon="6.79659">
        <ele>627.11</ele>
        <time>2017-09-23T08:24:52Z</time>
      </trkpt>
      <trkpt lat="48.03473" lon="6.79652">
        <ele>626.47</ele>
        <time>2017-09-23T08:24:53Z</time>
      </trkpt>
      <trkpt lat="48.03471" lon="6.79646">
        <ele>626.54</ele>
        <time>2017-09-23T08:24:54Z</time>
      </trkpt>
      <trkpt lat="48.03468" lon="6.79639">
        <ele>626.41</ele>
        <time>2017-09-23T08:24:55Z</time>
      </trkpt>
      <trkpt lat="48.03465" lon="6.79632">
        <ele>625.86</ele>
        <time>2017-09-23T08:24:56Z</time>
      </trkpt>
      <trkpt lat="48.03462" lon="6.79624">
        <ele>626.05</ele>
        <time>2017-09-23T08:24:57Z</time>
      </trkpt>
      <trkpt lat="48.03451" lon="6.79598">
        <ele>624.32</ele>
        <time>2017-09-23T08:25:00Z</time>
      </trkpt>
      <trkpt lat="48.03449" lon="6.79586">
        <ele>623.64</ele>
        <time>2017-09-23T08:25:01Z</time>
      </trkpt>
      <trkpt lat="48.03447" lon="6.79573">
        <ele>622.32</ele>
        <time>2017-09-23T08:25:02Z</time>
      </trkpt>
      <trkpt lat="48.03441" lon="6.79526">
        <ele>618.87</ele>
        <time>2017-09-23T08:25:05Z</time>
      </trkpt>
      <trkpt lat="48.03437" lon="6.79489">
        <ele>615.74</ele>
        <time>2017-09-23T08:25:07Z</time>
      </trkpt>
      <trkpt lat="48.03432" lon="6.79429">
        <ele>612.97</ele>
        <time>2017-09-23T08:25:10Z</time>
      </trkpt>
      <trkpt lat="48.03433" lon="6.79409">
        <ele>612.41</ele>
        <time>2017-09-23T08:25:11Z</time>
      </trkpt>
      <trkpt lat="48.03435" lon="6.7939">
        <ele>611.58</ele>
        <time>2017-09-23T08:25:12Z</time>
      </trkpt>
      <trkpt lat="48.03437" lon="6.79372">
        <ele>611.39</ele>
        <time>2017-09-23T08:25:13Z</time>
      </trkpt>
      <trkpt lat="48.03439" lon="6.79354">
        <ele>611.55</ele>
        <time>2017-09-23T08:25:14Z</time>
      </trkpt>
      <trkpt lat="48.03438" lon="6.79337">
        <ele>611.47</ele>
        <time>2017-09-23T08:25:15Z</time>
      </trkpt>
      <trkpt lat="48.03436" lon="6.7932">
        <ele>611</ele>
        <time>2017-09-23T08:25:16Z</time>
      </trkpt>
      <trkpt lat="48.03432" lon="6.79305">
        <ele>609.37</ele>
        <time>2017-09-23T08:25:17Z</time>
      </trkpt>
      <trkpt lat="48.03428" lon="6.7929">
        <ele>608.54</ele>
        <time>2017-09-23T08:25:18Z</time>
      </trkpt>
      <trkpt lat="48.03422" lon="6.79277">
        <ele>607.38</ele>
        <time>2017-09-23T08:25:19Z</time>
      </trkpt>
      <trkpt lat="48.03415" lon="6.79264">
        <ele>607.03</ele>
        <time>2017-09-23T08:25:20Z</time>
      </trkpt>
      <trkpt lat="48.03408" lon="6.79251">
        <ele>605.81</ele>
        <time>2017-09-23T08:25:21Z</time>
      </trkpt>
      <trkpt lat="48.03402" lon="6.79237">
        <ele>604.14</ele>
        <time>2017-09-23T08:25:22Z</time>
      </trkpt>
      <trkpt lat="48.03398" lon="6.79221">
        <ele>604.68</ele>
        <time>2017-09-23T08:25:23Z</time>
      </trkpt>
      <trkpt lat="48.03394" lon="6.79206">
        <ele>604.78</ele>
        <time>2017-09-23T08:25:24Z</time>
      </trkpt>
      <trkpt lat="48.03384" lon="6.79178">
        <ele>603.5</ele>
        <time>2017-09-23T08:25:26Z</time>
      </trkpt>
      <trkpt lat="48.03379" lon="6.79165">
        <ele>603.35</ele>
        <time>2017-09-23T08:25:27Z</time>
      </trkpt>
      <trkpt lat="48.03346" lon="6.79102">
        <ele>602.86</ele>
        <time>2017-09-23T08:25:35Z</time>
      </trkpt>
      <trkpt lat="48.03338" lon="6.79084">
        <ele>602.8</ele>
        <time>2017-09-23T08:25:38Z</time>
      </trkpt>
      <trkpt lat="48.03331" lon="6.7907">
        <ele>602.53</ele>
        <time>2017-09-23T08:25:40Z</time>
      </trkpt>
      <trkpt lat="48.03311" lon="6.78992">
        <ele>599.18</ele>
        <time>2017-09-23T08:25:48Z</time>
      </trkpt>
      <trkpt lat="48.0331" lon="6.78979">
        <ele>598.55</ele>
        <time>2017-09-23T08:25:49Z</time>
      </trkpt>
      <trkpt lat="48.03311" lon="6.78967">
        <ele>598.73</ele>
        <time>2017-09-23T08:25:50Z</time>
      </trkpt>
      <trkpt lat="48.03313" lon="6.78955">
        <ele>598.49</ele>
        <time>2017-09-23T08:25:51Z</time>
      </trkpt>
      <trkpt lat="48.03314" lon="6.78944">
        <ele>599.33</ele>
        <time>2017-09-23T08:25:52Z</time>
      </trkpt>
      <trkpt lat="48.03314" lon="6.78934">
        <ele>599.59</ele>
        <time>2017-09-23T08:25:53Z</time>
      </trkpt>
      <trkpt lat="48.03312" lon="6.78924">
        <ele>599.69</ele>
        <time>2017-09-23T08:25:54Z</time>
      </trkpt>
      <trkpt lat="48.03311" lon="6.78915">
        <ele>599.53</ele>
        <time>2017-09-23T08:25:55Z</time>
      </trkpt>
      <trkpt lat="48.03286" lon="6.7881">
        <ele>601.62</ele>
        <time>2017-09-23T08:26:09Z</time>
      </trkpt>
      <trkpt lat="48.03284" lon="6.78804">
        <ele>601.93</ele>
        <time>2017-09-23T08:26:10Z</time>
      </trkpt>
      <trkpt lat="48.03275" lon="6.78772">
        <ele>603.5</ele>
        <time>2017-09-23T08:26:15Z</time>
      </trkpt>
      <trkpt lat="48.03258" lon="6.78711">
        <ele>606.77</ele>
        <time>2017-09-23T08:26:26Z</time>
      </trkpt>
      <trkpt lat="48.03247" lon="6.78674">
        <ele>608.56</ele>
        <time>2017-09-23T08:26:37Z</time>
      </trkpt>
      <trkpt lat="48.03247" lon="6.78669">
        <ele>608.44</ele>
        <time>2017-09-23T08:26:39Z</time>
      </trkpt>
      <trkpt lat="48.03249" lon="6.78667">
        <ele>608.91</ele>
        <time>2017-09-23T08:26:40Z</time>
      </trkpt>
      <trkpt lat="48.03251" lon="6.78666">
        <ele>608.97</ele>
        <time>2017-09-23T08:26:41Z</time>
      </trkpt>
      <trkpt lat="48.03252" lon="6.78667">
        <ele>609.26</ele>
        <time>2017-09-23T08:26:42Z</time>
      </trkpt>
      <trkpt lat="48.03254" lon="6.78668">
        <ele>609.46</ele>
        <time>2017-09-23T08:26:43Z</time>
      </trkpt>
      <trkpt lat="48.03255" lon="6.78671">
        <ele>609.72</ele>
        <time>2017-09-23T08:26:44Z</time>
      </trkpt>
      <trkpt lat="48.03257" lon="6.78674">
        <ele>609.91</ele>
        <time>2017-09-23T08:26:45Z</time>
      </trkpt>
      <trkpt lat="48.03276" lon="6.78709">
        <ele>612.65</ele>
        <time>2017-09-23T08:26:59Z</time>
      </trkpt>
      <trkpt lat="48.03279" lon="6.78715">
        <ele>614.55</ele>
        <time>2017-09-23T08:27:02Z</time>
      </trkpt>
      <trkpt lat="48.03291" lon="6.78733">
        <ele>617.67</ele>
        <time>2017-09-23T08:27:13Z</time>
      </trkpt>
      <trkpt lat="48.03296" lon="6.78739">
        <ele>620.05</ele>
        <time>2017-09-23T08:27:19Z</time>
      </trkpt>
      <trkpt lat="48.03298" lon="6.7874">
        <ele>620.33</ele>
        <time>2017-09-23T08:27:20Z</time>
      </trkpt>
      <trkpt lat="48.03299" lon="6.78741">
        <ele>620.64</ele>
        <time>2017-09-23T08:27:21Z</time>
      </trkpt>
      <trkpt lat="48.03304" lon="6.78752">
        <ele>622.54</ele>
        <time>2017-09-23T08:27:27Z</time>
      </trkpt>
      <trkpt lat="48.03305" lon="6.78753">
        <ele>623.02</ele>
        <time>2017-09-23T08:27:28Z</time>
      </trkpt>
      <trkpt lat="48.03307" lon="6.78754">
        <ele>623.28</ele>
        <time>2017-09-23T08:27:29Z</time>
      </trkpt>
      <trkpt lat="48.03313" lon="6.78759">
        <ele>625.52</ele>
        <time>2017-09-23T08:27:34Z</time>
      </trkpt>
      <trkpt lat="48.03315" lon="6.78763">
        <ele>625.98</ele>
        <time>2017-09-23T08:27:37Z</time>
      </trkpt>
      <trkpt lat="48.03321" lon="6.78771">
        <ele>626.66</ele>
        <time>2017-09-23T08:27:48Z</time>
      </trkpt>
      <trkpt lat="48.03326" lon="6.78777">
        <ele>627.02</ele>
        <time>2017-09-23T08:28:07Z</time>
      </trkpt>
      <trkpt lat="48.03335" lon="6.78783">
        <ele>629.76</ele>
        <time>2017-09-23T08:28:29Z</time>
      </trkpt>
      <trkpt lat="48.0334" lon="6.78789">
        <ele>630.67</ele>
        <time>2017-09-23T08:28:47Z</time>
      </trkpt>
      <trkpt lat="48.03339" lon="6.78787">
        <ele>630.84</ele>
        <time>2017-09-23T08:28:54Z</time>
      </trkpt>
      <trkpt lat="48.03338" lon="6.78783">
        <ele>631.37</ele>
        <time>2017-09-23T08:28:56Z</time>
      </trkpt>
      <trkpt lat="48.03335" lon="6.78775">
        <ele>632.67</ele>
        <time>2017-09-23T08:29:00Z</time>
      </trkpt>
      <trkpt lat="48.03334" lon="6.7877">
        <ele>633.44</ele>
        <time>2017-09-23T08:29:02Z</time>
      </trkpt>
      <trkpt lat="48.03328" lon="6.78747">
        <ele>636.58</ele>
        <time>2017-09-23T08:29:11Z</time>
      </trkpt>
      <trkpt lat="48.0332" lon="6.78717">
        <ele>639.47</ele>
        <time>2017-09-23T08:29:22Z</time>
      </trkpt>
      <trkpt lat="48.03321" lon="6.78708">
        <ele>639.89</ele>
        <time>2017-09-23T08:29:35Z</time>
      </trkpt>
      <trkpt lat="48.03322" lon="6.78705">
        <ele>640.33</ele>
        <time>2017-09-23T08:29:58Z</time>
      </trkpt>
      <trkpt lat="48.03313" lon="6.78675">
        <ele>642.52</ele>
        <time>2017-09-23T08:30:11Z</time>
      </trkpt>
      <trkpt lat="48.03309" lon="6.7865">
        <ele>645.66</ele>
        <time>2017-09-23T08:30:20Z</time>
      </trkpt>
      <trkpt lat="48.03305" lon="6.78618">
        <ele>649.41</ele>
        <time>2017-09-23T08:30:30Z</time>
      </trkpt>
      <trkpt lat="48.03302" lon="6.78601">
        <ele>651.34</ele>
        <time>2017-09-23T08:30:36Z</time>
      </trkpt>
      <trkpt lat="48.03301" lon="6.78572">
        <ele>654.41</ele>
        <time>2017-09-23T08:30:44Z</time>
      </trkpt>
      <trkpt lat="48.033" lon="6.78552">
        <ele>657.43</ele>
        <time>2017-09-23T08:30:50Z</time>
      </trkpt>
      <trkpt lat="48.03307" lon="6.78549">
        <ele>657.49</ele>
        <time>2017-09-23T08:30:56Z</time>
      </trkpt>
      <trkpt lat="48.03307" lon="6.78553">
        <ele>658.19</ele>
        <time>2017-09-23T08:30:57Z</time>
      </trkpt>
      <trkpt lat="48.03327" lon="6.78594">
        <ele>661.04</ele>
        <time>2017-09-23T08:31:11Z</time>
      </trkpt>
      <trkpt lat="48.03346" lon="6.78628">
        <ele>664.09</ele>
        <time>2017-09-23T08:31:24Z</time>
      </trkpt>
      <trkpt lat="48.03359" lon="6.7865">
        <ele>665.97</ele>
        <time>2017-09-23T08:31:31Z</time>
      </trkpt>
      <trkpt lat="48.03385" lon="6.78696">
        <ele>669.05</ele>
        <time>2017-09-23T08:31:46Z</time>
      </trkpt>
      <trkpt lat="48.03402" lon="6.78726">
        <ele>671.75</ele>
        <time>2017-09-23T08:31:58Z</time>
      </trkpt>
      <trkpt lat="48.03425" lon="6.78754">
        <ele>674.78</ele>
        <time>2017-09-23T08:32:09Z</time>
      </trkpt>
      <trkpt lat="48.03454" lon="6.78788">
        <ele>677.69</ele>
        <time>2017-09-23T08:32:23Z</time>
      </trkpt>
      <trkpt lat="48.03479" lon="6.78799">
        <ele>680.04</ele>
        <time>2017-09-23T08:32:37Z</time>
      </trkpt>
      <trkpt lat="48.03503" lon="6.788">
        <ele>682.17</ele>
        <time>2017-09-23T08:32:47Z</time>
      </trkpt>
      <trkpt lat="48.03504" lon="6.78797">
        <ele>682.48</ele>
        <time>2017-09-23T08:32:48Z</time>
      </trkpt>
      <trkpt lat="48.03504" lon="6.78795">
        <ele>682.61</ele>
        <time>2017-09-23T08:32:49Z</time>
      </trkpt>
      <trkpt lat="48.03503" lon="6.78791">
        <ele>683.32</ele>
        <time>2017-09-23T08:32:50Z</time>
      </trkpt>
      <trkpt lat="48.03501" lon="6.78789">
        <ele>683.95</ele>
        <time>2017-09-23T08:32:51Z</time>
      </trkpt>
      <trkpt lat="48.03498" lon="6.78787">
        <ele>684.5</ele>
        <time>2017-09-23T08:32:52Z</time>
      </trkpt>
      <trkpt lat="48.03495" lon="6.78785">
        <ele>684.69</ele>
        <time>2017-09-23T08:32:53Z</time>
      </trkpt>
      <trkpt lat="48.03471" lon="6.78774">
        <ele>687.74</ele>
        <time>2017-09-23T08:33:03Z</time>
      </trkpt>
      <trkpt lat="48.03452" lon="6.78748">
        <ele>690.78</ele>
        <time>2017-09-23T08:33:13Z</time>
      </trkpt>
      <trkpt lat="48.03451" lon="6.78745">
        <ele>690.96</ele>
        <time>2017-09-23T08:33:14Z</time>
      </trkpt>
      <trkpt lat="48.03445" lon="6.78725">
        <ele>692.49</ele>
        <time>2017-09-23T08:33:19Z</time>
      </trkpt>
      <trkpt lat="48.03435" lon="6.78689">
        <ele>695.79</ele>
        <time>2017-09-23T08:33:29Z</time>
      </trkpt>
      <trkpt lat="48.03424" lon="6.78656">
        <ele>698.82</ele>
        <time>2017-09-23T08:33:39Z</time>
      </trkpt>
      <trkpt lat="48.03413" lon="6.78622">
        <ele>702</ele>
        <time>2017-09-23T08:33:49Z</time>
      </trkpt>
      <trkpt lat="48.03402" lon="6.78585">
        <ele>705.38</ele>
        <time>2017-09-23T08:34:00Z</time>
      </trkpt>
      <trkpt lat="48.03393" lon="6.78541">
        <ele>708.62</ele>
        <time>2017-09-23T08:34:12Z</time>
      </trkpt>
      <trkpt lat="48.0339" lon="6.78507">
        <ele>711.98</ele>
        <time>2017-09-23T08:34:22Z</time>
      </trkpt>
      <trkpt lat="48.03399" lon="6.78483">
        <ele>715.31</ele>
        <time>2017-09-23T08:34:30Z</time>
      </trkpt>
      <trkpt lat="48.03404" lon="6.78475">
        <ele>716.63</ele>
        <time>2017-09-23T08:34:34Z</time>
      </trkpt>
      <trkpt lat="48.03417" lon="6.78457">
        <ele>719.79</ele>
        <time>2017-09-23T08:34:42Z</time>
      </trkpt>
      <trkpt lat="48.03431" lon="6.78435">
        <ele>722.84</ele>
        <time>2017-09-23T08:34:51Z</time>
      </trkpt>
      <trkpt lat="48.03436" lon="6.78407">
        <ele>726.19</ele>
        <time>2017-09-23T08:35:00Z</time>
      </trkpt>
      <trkpt lat="48.03445" lon="6.7838">
        <ele>729.45</ele>
        <time>2017-09-23T08:35:10Z</time>
      </trkpt>
      <trkpt lat="48.03453" lon="6.78353">
        <ele>732.83</ele>
        <time>2017-09-23T08:35:20Z</time>
      </trkpt>
      <trkpt lat="48.0346" lon="6.78328">
        <ele>735.95</ele>
        <time>2017-09-23T08:35:30Z</time>
      </trkpt>
      <trkpt lat="48.03463" lon="6.78315">
        <ele>737.54</ele>
        <time>2017-09-23T08:35:35Z</time>
      </trkpt>
      <trkpt lat="48.03464" lon="6.78312">
        <ele>738.12</ele>
        <time>2017-09-23T08:35:36Z</time>
      </trkpt>
      <trkpt lat="48.03464" lon="6.78309">
        <ele>738.61</ele>
        <time>2017-09-23T08:35:37Z</time>
      </trkpt>
      <trkpt lat="48.03465" lon="6.78307">
        <ele>738.82</ele>
        <time>2017-09-23T08:35:38Z</time>
      </trkpt>
      <trkpt lat="48.03473" lon="6.78276">
        <ele>741.85</ele>
        <time>2017-09-23T08:35:49Z</time>
      </trkpt>
      <trkpt lat="48.03473" lon="6.7827">
        <ele>742.31</ele>
        <time>2017-09-23T08:36:05Z</time>
      </trkpt>
      <trkpt lat="48.03473" lon="6.78267">
        <ele>742.82</ele>
        <time>2017-09-23T08:36:06Z</time>
      </trkpt>
      <trkpt lat="48.03474" lon="6.78264">
        <ele>743.59</ele>
        <time>2017-09-23T08:36:07Z</time>
      </trkpt>
      <trkpt lat="48.03485" lon="6.78249">
        <ele>745.41</ele>
        <time>2017-09-23T08:36:15Z</time>
      </trkpt>
      <trkpt lat="48.03502" lon="6.78222">
        <ele>748.34</ele>
        <time>2017-09-23T08:36:29Z</time>
      </trkpt>
      <trkpt lat="48.03509" lon="6.78204">
        <ele>748.68</ele>
        <time>2017-09-23T08:36:36Z</time>
      </trkpt>
      <trkpt lat="48.0351" lon="6.78201">
        <ele>749.18</ele>
        <time>2017-09-23T08:36:37Z</time>
      </trkpt>
      <trkpt lat="48.0351" lon="6.78199">
        <ele>749.56</ele>
        <time>2017-09-23T08:36:38Z</time>
      </trkpt>
      <trkpt lat="48.03518" lon="6.78185">
        <ele>751</ele>
        <time>2017-09-23T08:36:47Z</time>
      </trkpt>
      <trkpt lat="48.03521" lon="6.78177">
        <ele>751.85</ele>
        <time>2017-09-23T08:36:59Z</time>
      </trkpt>
      <trkpt lat="48.03524" lon="6.78166">
        <ele>752.86</ele>
        <time>2017-09-23T08:37:18Z</time>
      </trkpt>
      <trkpt lat="48.03525" lon="6.78161">
        <ele>753.26</ele>
        <time>2017-09-23T08:37:23Z</time>
      </trkpt>
      <trkpt lat="48.03526" lon="6.78159">
        <ele>753.3</ele>
        <time>2017-09-23T08:37:24Z</time>
      </trkpt>
      <trkpt lat="48.03527" lon="6.78157">
        <ele>753.53</ele>
        <time>2017-09-23T08:37:25Z</time>
      </trkpt>
      <trkpt lat="48.03524" lon="6.78118">
        <ele>754.26</ele>
        <time>2017-09-23T08:37:39Z</time>
      </trkpt>
      <trkpt lat="48.03508" lon="6.78101">
        <ele>753.57</ele>
        <time>2017-09-23T08:37:50Z</time>
      </trkpt>
      <trkpt lat="48.03504" lon="6.78094">
        <ele>754.53</ele>
        <time>2017-09-23T08:37:53Z</time>
      </trkpt>
      <trkpt lat="48.03503" lon="6.78092">
        <ele>755.39</ele>
        <time>2017-09-23T08:37:54Z</time>
      </trkpt>
      <trkpt lat="48.03502" lon="6.7809">
        <ele>755.89</ele>
        <time>2017-09-23T08:37:55Z</time>
      </trkpt>
      <trkpt lat="48.03501" lon="6.78088">
        <ele>756.1</ele>
        <time>2017-09-23T08:37:56Z</time>
      </trkpt>
      <trkpt lat="48.03501" lon="6.78086">
        <ele>756.05</ele>
        <time>2017-09-23T08:37:57Z</time>
      </trkpt>
      <trkpt lat="48.03499" lon="6.78079">
        <ele>757.67</ele>
        <time>2017-09-23T08:38:00Z</time>
      </trkpt>
      <trkpt lat="48.03499" lon="6.78076">
        <ele>758.49</ele>
        <time>2017-09-23T08:38:01Z</time>
      </trkpt>
      <trkpt lat="48.03498" lon="6.78072">
        <ele>758.44</ele>
        <time>2017-09-23T08:38:02Z</time>
      </trkpt>
      <trkpt lat="48.03498" lon="6.78069">
        <ele>759.16</ele>
        <time>2017-09-23T08:38:03Z</time>
      </trkpt>
      <trkpt lat="48.03497" lon="6.78066">
        <ele>759.61</ele>
        <time>2017-09-23T08:38:04Z</time>
      </trkpt>
      <trkpt lat="48.03497" lon="6.78063">
        <ele>759.77</ele>
        <time>2017-09-23T08:38:05Z</time>
      </trkpt>
      <trkpt lat="48.03486" lon="6.78041">
        <ele>763.46</ele>
        <time>2017-09-23T08:38:14Z</time>
      </trkpt>
      <trkpt lat="48.03477" lon="6.78013">
        <ele>765.26</ele>
        <time>2017-09-23T08:38:28Z</time>
      </trkpt>
      <trkpt lat="48.03476" lon="6.77992">
        <ele>768.22</ele>
        <time>2017-09-23T08:38:47Z</time>
      </trkpt>
      <trkpt lat="48.03474" lon="6.77983">
        <ele>768.37</ele>
        <time>2017-09-23T08:39:00Z</time>
      </trkpt>
      <trkpt lat="48.03473" lon="6.77982">
        <ele>768.5</ele>
        <time>2017-09-23T08:39:01Z</time>
      </trkpt>
      <trkpt lat="48.03472" lon="6.7798">
        <ele>768.35</ele>
        <time>2017-09-23T08:39:02Z</time>
      </trkpt>
      <trkpt lat="48.03472" lon="6.77977">
        <ele>767.91</ele>
        <time>2017-09-23T08:39:03Z</time>
      </trkpt>
      <trkpt lat="48.03471" lon="6.77974">
        <ele>768.6</ele>
        <time>2017-09-23T08:39:04Z</time>
      </trkpt>
      <trkpt lat="48.0347" lon="6.77966">
        <ele>769.18</ele>
        <time>2017-09-23T08:39:07Z</time>
      </trkpt>
      <trkpt lat="48.03469" lon="6.77963">
        <ele>769.4</ele>
        <time>2017-09-23T08:39:08Z</time>
      </trkpt>
      <trkpt lat="48.03468" lon="6.77931">
        <ele>772.61</ele>
        <time>2017-09-23T08:39:21Z</time>
      </trkpt>
      <trkpt lat="48.03468" lon="6.77898">
        <ele>776.08</ele>
        <time>2017-09-23T08:39:31Z</time>
      </trkpt>
      <trkpt lat="48.03468" lon="6.77895">
        <ele>776.22</ele>
        <time>2017-09-23T08:39:32Z</time>
      </trkpt>
      <trkpt lat="48.03473" lon="6.77858">
        <ele>778.29</ele>
        <time>2017-09-23T08:39:43Z</time>
      </trkpt>
      <trkpt lat="48.03474" lon="6.77855">
        <ele>778.6</ele>
        <time>2017-09-23T08:39:44Z</time>
      </trkpt>
      <trkpt lat="48.03477" lon="6.77852">
        <ele>779.15</ele>
        <time>2017-09-23T08:39:46Z</time>
      </trkpt>
      <trkpt lat="48.03485" lon="6.77827">
        <ele>780.8</ele>
        <time>2017-09-23T08:40:03Z</time>
      </trkpt>
      <trkpt lat="48.03492" lon="6.77816">
        <ele>782.53</ele>
        <time>2017-09-23T08:40:20Z</time>
      </trkpt>
      <trkpt lat="48.03494" lon="6.77807">
        <ele>783.58</ele>
        <time>2017-09-23T08:40:26Z</time>
      </trkpt>
      <trkpt lat="48.03497" lon="6.77798">
        <ele>784.05</ele>
        <time>2017-09-23T08:40:30Z</time>
      </trkpt>
      <trkpt lat="48.035" lon="6.77785">
        <ele>785.54</ele>
        <time>2017-09-23T08:40:42Z</time>
      </trkpt>
      <trkpt lat="48.03505" lon="6.77766">
        <ele>788.55</ele>
        <time>2017-09-23T08:41:01Z</time>
      </trkpt>
      <trkpt lat="48.03508" lon="6.7774">
        <ele>790.96</ele>
        <time>2017-09-23T08:41:23Z</time>
      </trkpt>
      <trkpt lat="48.03509" lon="6.77726">
        <ele>792.92</ele>
        <time>2017-09-23T08:41:47Z</time>
      </trkpt>
      <trkpt lat="48.03512" lon="6.77715">
        <ele>794.85</ele>
        <time>2017-09-23T08:42:18Z</time>
      </trkpt>
      <trkpt lat="48.03517" lon="6.77694">
        <ele>798.02</ele>
        <time>2017-09-23T08:42:37Z</time>
      </trkpt>
      <trkpt lat="48.03519" lon="6.77671">
        <ele>801.24</ele>
        <time>2017-09-23T08:42:58Z</time>
      </trkpt>
      <trkpt lat="48.03521" lon="6.77654">
        <ele>803.63</ele>
        <time>2017-09-23T08:43:18Z</time>
      </trkpt>
      <trkpt lat="48.03525" lon="6.77629">
        <ele>807.05</ele>
        <time>2017-09-23T08:43:42Z</time>
      </trkpt>
      <trkpt lat="48.0353" lon="6.77606">
        <ele>810.08</ele>
        <time>2017-09-23T08:44:04Z</time>
      </trkpt>
      <trkpt lat="48.03532" lon="6.77604">
        <ele>810.45</ele>
        <time>2017-09-23T08:44:23Z</time>
      </trkpt>
      <trkpt lat="48.03533" lon="6.77601">
        <ele>810.88</ele>
        <time>2017-09-23T08:44:31Z</time>
      </trkpt>
      <trkpt lat="48.03536" lon="6.7759">
        <ele>812.38</ele>
        <time>2017-09-23T08:44:36Z</time>
      </trkpt>
      <trkpt lat="48.03536" lon="6.77587">
        <ele>812.68</ele>
        <time>2017-09-23T08:44:37Z</time>
      </trkpt>
      <trkpt lat="48.03539" lon="6.77577">
        <ele>813.92</ele>
        <time>2017-09-23T08:44:47Z</time>
      </trkpt>
      <trkpt lat="48.03541" lon="6.77567">
        <ele>815.06</ele>
        <time>2017-09-23T08:44:57Z</time>
      </trkpt>
      <trkpt lat="48.03541" lon="6.77565">
        <ele>815.36</ele>
        <time>2017-09-23T08:44:58Z</time>
      </trkpt>
      <trkpt lat="48.03541" lon="6.77562">
        <ele>815.73</ele>
        <time>2017-09-23T08:44:59Z</time>
      </trkpt>
      <trkpt lat="48.03541" lon="6.77558">
        <ele>815.86</ele>
        <time>2017-09-23T08:45:00Z</time>
      </trkpt>
      <trkpt lat="48.03542" lon="6.77555">
        <ele>816.83</ele>
        <time>2017-09-23T08:45:01Z</time>
      </trkpt>
      <trkpt lat="48.03542" lon="6.77551">
        <ele>816.53</ele>
        <time>2017-09-23T08:45:02Z</time>
      </trkpt>
      <trkpt lat="48.03541" lon="6.77503">
        <ele>819.66</ele>
        <time>2017-09-23T08:45:17Z</time>
      </trkpt>
      <trkpt lat="48.03538" lon="6.77473">
        <ele>822.78</ele>
        <time>2017-09-23T08:45:26Z</time>
      </trkpt>
      <trkpt lat="48.03535" lon="6.77443">
        <ele>825.85</ele>
        <time>2017-09-23T08:45:35Z</time>
      </trkpt>
      <trkpt lat="48.03532" lon="6.77418">
        <ele>829.22</ele>
        <time>2017-09-23T08:45:43Z</time>
      </trkpt>
      <trkpt lat="48.03531" lon="6.77412">
        <ele>829.94</ele>
        <time>2017-09-23T08:45:45Z</time>
      </trkpt>
      <trkpt lat="48.03531" lon="6.77393">
        <ele>832.33</ele>
        <time>2017-09-23T08:45:51Z</time>
      </trkpt>
      <trkpt lat="48.0353" lon="6.77353">
        <ele>835.78</ele>
        <time>2017-09-23T08:46:04Z</time>
      </trkpt>
      <trkpt lat="48.03527" lon="6.77321">
        <ele>839.09</ele>
        <time>2017-09-23T08:46:14Z</time>
      </trkpt>
      <trkpt lat="48.03526" lon="6.7731">
        <ele>840.45</ele>
        <time>2017-09-23T08:46:18Z</time>
      </trkpt>
      <trkpt lat="48.03527" lon="6.77307">
        <ele>840.63</ele>
        <time>2017-09-23T08:46:19Z</time>
      </trkpt>
      <trkpt lat="48.03529" lon="6.77307">
        <ele>841.1</ele>
        <time>2017-09-23T08:46:20Z</time>
      </trkpt>
      <trkpt lat="48.03531" lon="6.77307">
        <ele>840.91</ele>
        <time>2017-09-23T08:46:21Z</time>
      </trkpt>
      <trkpt lat="48.03532" lon="6.7731">
        <ele>841.34</ele>
        <time>2017-09-23T08:46:22Z</time>
      </trkpt>
      <trkpt lat="48.03533" lon="6.77313">
        <ele>841.37</ele>
        <time>2017-09-23T08:46:23Z</time>
      </trkpt>
      <trkpt lat="48.03533" lon="6.77315">
        <ele>841.89</ele>
        <time>2017-09-23T08:46:24Z</time>
      </trkpt>
      <trkpt lat="48.03533" lon="6.77318">
        <ele>841.7</ele>
        <time>2017-09-23T08:46:25Z</time>
      </trkpt>
      <trkpt lat="48.03535" lon="6.77322">
        <ele>841.68</ele>
        <time>2017-09-23T08:46:38Z</time>
      </trkpt>
      <trkpt lat="48.03535" lon="6.7732">
        <ele>841.63</ele>
        <time>2017-09-23T08:46:58Z</time>
      </trkpt>
      <trkpt lat="48.03535" lon="6.7732">
        <ele>841.41</ele>
        <time>2017-09-23T08:47:41Z</time>
      </trkpt>
      <trkpt lat="48.03536" lon="6.7732">
        <ele>840.7</ele>
        <time>2017-09-23T08:48:05Z</time>
      </trkpt>
      <trkpt lat="48.03536" lon="6.7732">
        <ele>841.22</ele>
        <time>2017-09-23T08:48:29Z</time>
      </trkpt>
      <trkpt lat="48.03535" lon="6.7732">
        <ele>841.22</ele>
        <time>2017-09-23T08:48:45Z</time>
      </trkpt>
      <trkpt lat="48.03535" lon="6.77319">
        <ele>842</ele>
        <time>2017-09-23T08:49:02Z</time>
      </trkpt>
      <trkpt lat="48.03535" lon="6.77319">
        <ele>842.38</ele>
        <time>2017-09-23T08:49:23Z</time>
      </trkpt>
      <trkpt lat="48.03535" lon="6.77318">
        <ele>842.17</ele>
        <time>2017-09-23T08:49:43Z</time>
      </trkpt>
      <trkpt lat="48.03535" lon="6.77314">
        <ele>842.2</ele>
        <time>2017-09-23T08:49:50Z</time>
      </trkpt>
      <trkpt lat="48.03534" lon="6.77312">
        <ele>841.85</ele>
        <time>2017-09-23T08:49:51Z</time>
      </trkpt>
      <trkpt lat="48.03534" lon="6.77308">
        <ele>842.07</ele>
        <time>2017-09-23T08:49:52Z</time>
      </trkpt>
      <trkpt lat="48.03533" lon="6.77305">
        <ele>842.11</ele>
        <time>2017-09-23T08:49:53Z</time>
      </trkpt>
      <trkpt lat="48.03533" lon="6.773">
        <ele>841.76</ele>
        <time>2017-09-23T08:49:54Z</time>
      </trkpt>
      <trkpt lat="48.03521" lon="6.77254">
        <ele>844.08</ele>
        <time>2017-09-23T08:50:06Z</time>
      </trkpt>
      <trkpt lat="48.03535" lon="6.77202">
        <ele>845.59</ele>
        <time>2017-09-23T08:50:19Z</time>
      </trkpt>
      <trkpt lat="48.03533" lon="6.77161">
        <ele>847.15</ele>
        <time>2017-09-23T08:50:29Z</time>
      </trkpt>
      <trkpt lat="48.03507" lon="6.77123">
        <ele>850.45</ele>
        <time>2017-09-23T08:50:44Z</time>
      </trkpt>
      <trkpt lat="48.03494" lon="6.77076">
        <ele>852.3</ele>
        <time>2017-09-23T08:50:59Z</time>
      </trkpt>
      <trkpt lat="48.03486" lon="6.77029">
        <ele>854.29</ele>
        <time>2017-09-23T08:51:12Z</time>
      </trkpt>
      <trkpt lat="48.03475" lon="6.76965">
        <ele>853.03</ele>
        <time>2017-09-23T08:51:24Z</time>
      </trkpt>
      <trkpt lat="48.03451" lon="6.76904">
        <ele>854.46</ele>
        <time>2017-09-23T08:51:38Z</time>
      </trkpt>
      <trkpt lat="48.03432" lon="6.76851">
        <ele>854.23</ele>
        <time>2017-09-23T08:51:50Z</time>
      </trkpt>
      <trkpt lat="48.03432" lon="6.76844">
        <ele>854.07</ele>
        <time>2017-09-23T08:51:51Z</time>
      </trkpt>
      <trkpt lat="48.03434" lon="6.76837">
        <ele>853.7</ele>
        <time>2017-09-23T08:51:52Z</time>
      </trkpt>
      <trkpt lat="48.03441" lon="6.76816">
        <ele>852.26</ele>
        <time>2017-09-23T08:51:55Z</time>
      </trkpt>
      <trkpt lat="48.03443" lon="6.76811">
        <ele>852.5</ele>
        <time>2017-09-23T08:51:56Z</time>
      </trkpt>
      <trkpt lat="48.03447" lon="6.76806">
        <ele>852.68</ele>
        <time>2017-09-23T08:51:57Z</time>
      </trkpt>
      <trkpt lat="48.03463" lon="6.76786">
        <ele>852.77</ele>
        <time>2017-09-23T08:52:07Z</time>
      </trkpt>
      <trkpt lat="48.03462" lon="6.76784">
        <ele>852.55</ele>
        <time>2017-09-23T08:52:26Z</time>
      </trkpt>
      <trkpt lat="48.03465" lon="6.76778">
        <ele>853.75</ele>
        <time>2017-09-23T08:52:42Z</time>
      </trkpt>
      <trkpt lat="48.03466" lon="6.76776">
        <ele>853.48</ele>
        <time>2017-09-23T08:52:43Z</time>
      </trkpt>
      <trkpt lat="48.03474" lon="6.76726">
        <ele>855.59</ele>
        <time>2017-09-23T08:52:55Z</time>
      </trkpt>
      <trkpt lat="48.03495" lon="6.76683">
        <ele>858.57</ele>
        <time>2017-09-23T08:53:08Z</time>
      </trkpt>
      <trkpt lat="48.03515" lon="6.76649">
        <ele>860.55</ele>
        <time>2017-09-23T08:53:20Z</time>
      </trkpt>
      <trkpt lat="48.03527" lon="6.76603">
        <ele>863.7</ele>
        <time>2017-09-23T08:53:32Z</time>
      </trkpt>
      <trkpt lat="48.03529" lon="6.76562">
        <ele>865.45</ele>
        <time>2017-09-23T08:53:42Z</time>
      </trkpt>
      <trkpt lat="48.03527" lon="6.76559">
        <ele>865.9</ele>
        <time>2017-09-23T08:53:43Z</time>
      </trkpt>
      <trkpt lat="48.03502" lon="6.765">
        <ele>865.36</ele>
        <time>2017-09-23T08:53:57Z</time>
      </trkpt>
      <trkpt lat="48.03496" lon="6.76484">
        <ele>864.13</ele>
        <time>2017-09-23T08:54:00Z</time>
      </trkpt>
      <trkpt lat="48.03495" lon="6.76478">
        <ele>864.37</ele>
        <time>2017-09-23T08:54:01Z</time>
      </trkpt>
      <trkpt lat="48.03494" lon="6.76472">
        <ele>864.25</ele>
        <time>2017-09-23T08:54:02Z</time>
      </trkpt>
      <trkpt lat="48.03493" lon="6.7644">
        <ele>863.13</ele>
        <time>2017-09-23T08:54:07Z</time>
      </trkpt>
      <trkpt lat="48.03493" lon="6.76433">
        <ele>862.64</ele>
        <time>2017-09-23T08:54:08Z</time>
      </trkpt>
      <trkpt lat="48.03492" lon="6.76424">
        <ele>862.55</ele>
        <time>2017-09-23T08:54:09Z</time>
      </trkpt>
      <trkpt lat="48.03485" lon="6.7639">
        <ele>862.83</ele>
        <time>2017-09-23T08:54:14Z</time>
      </trkpt>
      <trkpt lat="48.03484" lon="6.76384">
        <ele>862.8</ele>
        <time>2017-09-23T08:54:15Z</time>
      </trkpt>
      <trkpt lat="48.03483" lon="6.76289">
        <ele>861.09</ele>
        <time>2017-09-23T08:54:28Z</time>
      </trkpt>
      <trkpt lat="48.03483" lon="6.76273">
        <ele>860.32</ele>
        <time>2017-09-23T08:54:30Z</time>
      </trkpt>
      <trkpt lat="48.03484" lon="6.76248">
        <ele>859.85</ele>
        <time>2017-09-23T08:54:33Z</time>
      </trkpt>
      <trkpt lat="48.03485" lon="6.76239">
        <ele>859.58</ele>
        <time>2017-09-23T08:54:34Z</time>
      </trkpt>
      <trkpt lat="48.03488" lon="6.76211">
        <ele>858.27</ele>
        <time>2017-09-23T08:54:37Z</time>
      </trkpt>
      <trkpt lat="48.03503" lon="6.76143">
        <ele>855.07</ele>
        <time>2017-09-23T08:54:43Z</time>
      </trkpt>
      <trkpt lat="48.03513" lon="6.76106">
        <ele>853.8</ele>
        <time>2017-09-23T08:54:46Z</time>
      </trkpt>
      <trkpt lat="48.03541" lon="6.76006">
        <ele>851.61</ele>
        <time>2017-09-23T08:54:56Z</time>
      </trkpt>
      <trkpt lat="48.03544" lon="6.75991">
        <ele>851.62</ele>
        <time>2017-09-23T08:54:58Z</time>
      </trkpt>
      <trkpt lat="48.03544" lon="6.75984">
        <ele>851.23</ele>
        <time>2017-09-23T08:54:59Z</time>
      </trkpt>
      <trkpt lat="48.03543" lon="6.75978">
        <ele>850.75</ele>
        <time>2017-09-23T08:55:00Z</time>
      </trkpt>
      <trkpt lat="48.03538" lon="6.7597">
        <ele>851.12</ele>
        <time>2017-09-23T08:55:02Z</time>
      </trkpt>
      <trkpt lat="48.03535" lon="6.75967">
        <ele>850.57</ele>
        <time>2017-09-23T08:55:03Z</time>
      </trkpt>
      <trkpt lat="48.03497" lon="6.75964">
        <ele>850.4</ele>
        <time>2017-09-23T08:55:13Z</time>
      </trkpt>
      <trkpt lat="48.03488" lon="6.75967">
        <ele>850.36</ele>
        <time>2017-09-23T08:55:22Z</time>
      </trkpt>
      <trkpt lat="48.03488" lon="6.75967">
        <ele>850.42</ele>
        <time>2017-09-23T08:55:50Z</time>
      </trkpt>
      <trkpt lat="48.03487" lon="6.75967">
        <ele>850.81</ele>
        <time>2017-09-23T08:56:17Z</time>
      </trkpt>
      <trkpt lat="48.03486" lon="6.75968">
        <ele>850.33</ele>
        <time>2017-09-23T08:56:31Z</time>
      </trkpt>
      <trkpt lat="48.03482" lon="6.75971">
        <ele>850.61</ele>
        <time>2017-09-23T08:56:54Z</time>
      </trkpt>
      <trkpt lat="48.03453" lon="6.75961">
        <ele>850.69</ele>
        <time>2017-09-23T08:57:06Z</time>
      </trkpt>
      <trkpt lat="48.0341" lon="6.75939">
        <ele>847.2</ele>
        <time>2017-09-23T08:57:20Z</time>
      </trkpt>
      <trkpt lat="48.03407" lon="6.75935">
        <ele>846.65</ele>
        <time>2017-09-23T08:57:21Z</time>
      </trkpt>
      <trkpt lat="48.03404" lon="6.75929">
        <ele>846.34</ele>
        <time>2017-09-23T08:57:22Z</time>
      </trkpt>
      <trkpt lat="48.03394" lon="6.75912">
        <ele>844.46</ele>
        <time>2017-09-23T08:57:25Z</time>
      </trkpt>
      <trkpt lat="48.03375" lon="6.75882">
        <ele>841.36</ele>
        <time>2017-09-23T08:57:31Z</time>
      </trkpt>
      <trkpt lat="48.0337" lon="6.75873">
        <ele>840.69</ele>
        <time>2017-09-23T08:57:33Z</time>
      </trkpt>
      <trkpt lat="48.03357" lon="6.75843">
        <ele>837.66</ele>
        <time>2017-09-23T08:57:39Z</time>
      </trkpt>
      <trkpt lat="48.03346" lon="6.75812">
        <ele>833.98</ele>
        <time>2017-09-23T08:57:45Z</time>
      </trkpt>
      <trkpt lat="48.03343" lon="6.75801">
        <ele>832.85</ele>
        <time>2017-09-23T08:57:47Z</time>
      </trkpt>
      <trkpt lat="48.03335" lon="6.75774">
        <ele>830.87</ele>
        <time>2017-09-23T08:57:51Z</time>
      </trkpt>
      <trkpt lat="48.03322" lon="6.75725">
        <ele>826.96</ele>
        <time>2017-09-23T08:57:58Z</time>
      </trkpt>
      <trkpt lat="48.0332" lon="6.75718">
        <ele>826.72</ele>
        <time>2017-09-23T08:57:59Z</time>
      </trkpt>
      <trkpt lat="48.03315" lon="6.75691">
        <ele>824.81</ele>
        <time>2017-09-23T08:58:03Z</time>
      </trkpt>
      <trkpt lat="48.03314" lon="6.75684">
        <ele>824.56</ele>
        <time>2017-09-23T08:58:04Z</time>
      </trkpt>
      <trkpt lat="48.03314" lon="6.75678">
        <ele>824.37</ele>
        <time>2017-09-23T08:58:05Z</time>
      </trkpt>
      <trkpt lat="48.03312" lon="6.75659">
        <ele>823.49</ele>
        <time>2017-09-23T08:58:08Z</time>
      </trkpt>
      <trkpt lat="48.03324" lon="6.75625">
        <ele>824.7</ele>
        <time>2017-09-23T08:58:16Z</time>
      </trkpt>
      <trkpt lat="48.0334" lon="6.75597">
        <ele>827.78</ele>
        <time>2017-09-23T08:58:24Z</time>
      </trkpt>
      <trkpt lat="48.03369" lon="6.75542">
        <ele>830.78</ele>
        <time>2017-09-23T08:58:38Z</time>
      </trkpt>
      <trkpt lat="48.03408" lon="6.7551">
        <ele>834</ele>
        <time>2017-09-23T08:58:54Z</time>
      </trkpt>
      <trkpt lat="48.0344" lon="6.75471">
        <ele>833.25</ele>
        <time>2017-09-23T08:59:07Z</time>
      </trkpt>
      <trkpt lat="48.03469" lon="6.75426">
        <ele>833.23</ele>
        <time>2017-09-23T08:59:15Z</time>
      </trkpt>
      <trkpt lat="48.03481" lon="6.75394">
        <ele>832.16</ele>
        <time>2017-09-23T08:59:20Z</time>
      </trkpt>
      <trkpt lat="48.03505" lon="6.75329">
        <ele>833.88</ele>
        <time>2017-09-23T08:59:35Z</time>
      </trkpt>
      <trkpt lat="48.03522" lon="6.75301">
        <ele>836.22</ele>
        <time>2017-09-23T08:59:50Z</time>
      </trkpt>
      <trkpt lat="48.0355" lon="6.75269">
        <ele>839.28</ele>
        <time>2017-09-23T09:00:03Z</time>
      </trkpt>
      <trkpt lat="48.03579" lon="6.75229">
        <ele>842.37</ele>
        <time>2017-09-23T09:00:17Z</time>
      </trkpt>
      <trkpt lat="48.0362" lon="6.75172">
        <ele>842.27</ele>
        <time>2017-09-23T09:00:33Z</time>
      </trkpt>
      <trkpt lat="48.0363" lon="6.75169">
        <ele>842.05</ele>
        <time>2017-09-23T09:00:36Z</time>
      </trkpt>
      <trkpt lat="48.03632" lon="6.75171">
        <ele>842.79</ele>
        <time>2017-09-23T09:00:37Z</time>
      </trkpt>
      <trkpt lat="48.03634" lon="6.75174">
        <ele>842.91</ele>
        <time>2017-09-23T09:00:38Z</time>
      </trkpt>
      <trkpt lat="48.03635" lon="6.75178">
        <ele>843.16</ele>
        <time>2017-09-23T09:00:39Z</time>
      </trkpt>
      <trkpt lat="48.03637" lon="6.75181">
        <ele>843.69</ele>
        <time>2017-09-23T09:00:40Z</time>
      </trkpt>
      <trkpt lat="48.03638" lon="6.75184">
        <ele>844.09</ele>
        <time>2017-09-23T09:00:41Z</time>
      </trkpt>
      <trkpt lat="48.03653" lon="6.7521">
        <ele>847.49</ele>
        <time>2017-09-23T09:00:50Z</time>
      </trkpt>
      <trkpt lat="48.03655" lon="6.75213">
        <ele>847.5</ele>
        <time>2017-09-23T09:00:51Z</time>
      </trkpt>
      <trkpt lat="48.03665" lon="6.75229">
        <ele>849.39</ele>
        <time>2017-09-23T09:00:57Z</time>
      </trkpt>
      <trkpt lat="48.03681" lon="6.75259">
        <ele>852.99</ele>
        <time>2017-09-23T09:01:08Z</time>
      </trkpt>
      <trkpt lat="48.03686" lon="6.75301">
        <ele>854.85</ele>
        <time>2017-09-23T09:01:22Z</time>
      </trkpt>
      <trkpt lat="48.03674" lon="6.75346">
        <ele>858</ele>
        <time>2017-09-23T09:01:36Z</time>
      </trkpt>
      <trkpt lat="48.0367" lon="6.75387">
        <ele>861.27</ele>
        <time>2017-09-23T09:01:47Z</time>
      </trkpt>
      <trkpt lat="48.03661" lon="6.75437">
        <ele>864.28</ele>
        <time>2017-09-23T09:02:01Z</time>
      </trkpt>
      <trkpt lat="48.03656" lon="6.75443">
        <ele>864.42</ele>
        <time>2017-09-23T09:02:04Z</time>
      </trkpt>
      <trkpt lat="48.03631" lon="6.75437">
        <ele>867.51</ele>
        <time>2017-09-23T09:02:14Z</time>
      </trkpt>
      <trkpt lat="48.03614" lon="6.75429">
        <ele>871.07</ele>
        <time>2017-09-23T09:02:22Z</time>
      </trkpt>
      <trkpt lat="48.03612" lon="6.75427">
        <ele>871.14</ele>
        <time>2017-09-23T09:02:23Z</time>
      </trkpt>
      <trkpt lat="48.03609" lon="6.75427">
        <ele>871.12</ele>
        <time>2017-09-23T09:02:32Z</time>
      </trkpt>
      <trkpt lat="48.03607" lon="6.75426">
        <ele>870.24</ele>
        <time>2017-09-23T09:02:45Z</time>
      </trkpt>
      <trkpt lat="48.03606" lon="6.75426">
        <ele>870.06</ele>
        <time>2017-09-23T09:03:24Z</time>
      </trkpt>
      <trkpt lat="48.03605" lon="6.75426">
        <ele>869.5</ele>
        <time>2017-09-23T09:04:24Z</time>
      </trkpt>
      <trkpt lat="48.03605" lon="6.75427">
        <ele>870.13</ele>
        <time>2017-09-23T09:05:11Z</time>
      </trkpt>
      <trkpt lat="48.03606" lon="6.75427">
        <ele>870.29</ele>
        <time>2017-09-23T09:05:30Z</time>
      </trkpt>
      <trkpt lat="48.03607" lon="6.75431">
        <ele>870.57</ele>
        <time>2017-09-23T09:05:42Z</time>
      </trkpt>
      <trkpt lat="48.03607" lon="6.75437">
        <ele>870.24</ele>
        <time>2017-09-23T09:05:51Z</time>
      </trkpt>
      <trkpt lat="48.03607" lon="6.75443">
        <ele>870.85</ele>
        <time>2017-09-23T09:05:53Z</time>
      </trkpt>
      <trkpt lat="48.03606" lon="6.75483">
        <ele>868.58</ele>
        <time>2017-09-23T09:06:04Z</time>
      </trkpt>
      <trkpt lat="48.03607" lon="6.75493">
        <ele>866.92</ele>
        <time>2017-09-23T09:06:06Z</time>
      </trkpt>
      <trkpt lat="48.03609" lon="6.75495">
        <ele>866.57</ele>
        <time>2017-09-23T09:06:07Z</time>
      </trkpt>
      <trkpt lat="48.03612" lon="6.75496">
        <ele>867.14</ele>
        <time>2017-09-23T09:06:08Z</time>
      </trkpt>
      <trkpt lat="48.03615" lon="6.75495">
        <ele>867.03</ele>
        <time>2017-09-23T09:06:09Z</time>
      </trkpt>
      <trkpt lat="48.03619" lon="6.75492">
        <ele>866.88</ele>
        <time>2017-09-23T09:06:10Z</time>
      </trkpt>
      <trkpt lat="48.03623" lon="6.75489">
        <ele>866.19</ele>
        <time>2017-09-23T09:06:11Z</time>
      </trkpt>
      <trkpt lat="48.03627" lon="6.75484">
        <ele>865.79</ele>
        <time>2017-09-23T09:06:12Z</time>
      </trkpt>
      <trkpt lat="48.03648" lon="6.75462">
        <ele>864.71</ele>
        <time>2017-09-23T09:06:17Z</time>
      </trkpt>
      <trkpt lat="48.03653" lon="6.75453">
        <ele>864.03</ele>
        <time>2017-09-23T09:06:19Z</time>
      </trkpt>
      <trkpt lat="48.03658" lon="6.75443">
        <ele>863.32</ele>
        <time>2017-09-23T09:06:21Z</time>
      </trkpt>
      <trkpt lat="48.03661" lon="6.75437">
        <ele>863.08</ele>
        <time>2017-09-23T09:06:22Z</time>
      </trkpt>
      <trkpt lat="48.03663" lon="6.75431">
        <ele>862.95</ele>
        <time>2017-09-23T09:06:23Z</time>
      </trkpt>
      <trkpt lat="48.03664" lon="6.75423">
        <ele>863.11</ele>
        <time>2017-09-23T09:06:24Z</time>
      </trkpt>
      <trkpt lat="48.03666" lon="6.75416">
        <ele>862.93</ele>
        <time>2017-09-23T09:06:25Z</time>
      </trkpt>
      <trkpt lat="48.03673" lon="6.75368">
        <ele>859.62</ele>
        <time>2017-09-23T09:06:31Z</time>
      </trkpt>
      <trkpt lat="48.03674" lon="6.75351">
        <ele>858.5</ele>
        <time>2017-09-23T09:06:33Z</time>
      </trkpt>
      <trkpt lat="48.03678" lon="6.7532">
        <ele>856.07</ele>
        <time>2017-09-23T09:06:37Z</time>
      </trkpt>
      <trkpt lat="48.0368" lon="6.75314">
        <ele>855.52</ele>
        <time>2017-09-23T09:06:38Z</time>
      </trkpt>
      <trkpt lat="48.03682" lon="6.75308">
        <ele>854.93</ele>
        <time>2017-09-23T09:06:39Z</time>
      </trkpt>
      <trkpt lat="48.03685" lon="6.75302">
        <ele>855.09</ele>
        <time>2017-09-23T09:06:40Z</time>
      </trkpt>
      <trkpt lat="48.03688" lon="6.75297">
        <ele>854.59</ele>
        <time>2017-09-23T09:06:41Z</time>
      </trkpt>
      <trkpt lat="48.03691" lon="6.75293">
        <ele>854.13</ele>
        <time>2017-09-23T09:06:42Z</time>
      </trkpt>
      <trkpt lat="48.03695" lon="6.7529">
        <ele>853.97</ele>
        <time>2017-09-23T09:06:43Z</time>
      </trkpt>
      <trkpt lat="48.03699" lon="6.75288">
        <ele>853.95</ele>
        <time>2017-09-23T09:06:44Z</time>
      </trkpt>
      <trkpt lat="48.03702" lon="6.75287">
        <ele>853.17</ele>
        <time>2017-09-23T09:06:45Z</time>
      </trkpt>
      <trkpt lat="48.03705" lon="6.75288">
        <ele>853.95</ele>
        <time>2017-09-23T09:06:46Z</time>
      </trkpt>
      <trkpt lat="48.03708" lon="6.7529">
        <ele>854.1</ele>
        <time>2017-09-23T09:06:47Z</time>
      </trkpt>
      <trkpt lat="48.03711" lon="6.75292">
        <ele>853.57</ele>
        <time>2017-09-23T09:06:48Z</time>
      </trkpt>
      <trkpt lat="48.03742" lon="6.75335">
        <ele>855.77</ele>
        <time>2017-09-23T09:07:02Z</time>
      </trkpt>
      <trkpt lat="48.03765" lon="6.75378">
        <ele>856.37</ele>
        <time>2017-09-23T09:07:14Z</time>
      </trkpt>
      <trkpt lat="48.03779" lon="6.75453">
        <ele>855.9</ele>
        <time>2017-09-23T09:07:28Z</time>
      </trkpt>
      <trkpt lat="48.03757" lon="6.75507">
        <ele>855.07</ele>
        <time>2017-09-23T09:07:40Z</time>
      </trkpt>
      <trkpt lat="48.03723" lon="6.75567">
        <ele>855.27</ele>
        <time>2017-09-23T09:07:53Z</time>
      </trkpt>
      <trkpt lat="48.03704" lon="6.75601">
        <ele>855.24</ele>
        <time>2017-09-23T09:08:00Z</time>
      </trkpt>
      <trkpt lat="48.03701" lon="6.75608">
        <ele>855.21</ele>
        <time>2017-09-23T09:08:01Z</time>
      </trkpt>
      <trkpt lat="48.03657" lon="6.75695">
        <ele>853.94</ele>
        <time>2017-09-23T09:08:15Z</time>
      </trkpt>
      <trkpt lat="48.03621" lon="6.75774">
        <ele>852.03</ele>
        <time>2017-09-23T09:08:28Z</time>
      </trkpt>
      <trkpt lat="48.03622" lon="6.75778">
        <ele>851.76</ele>
        <time>2017-09-23T09:08:29Z</time>
      </trkpt>
      <trkpt lat="48.03636" lon="6.75792">
        <ele>850.27</ele>
        <time>2017-09-23T09:08:35Z</time>
      </trkpt>
      <trkpt lat="48.03658" lon="6.75789">
        <ele>848.45</ele>
        <time>2017-09-23T09:08:46Z</time>
      </trkpt>
      <trkpt lat="48.03668" lon="6.75807">
        <ele>845.84</ele>
        <time>2017-09-23T09:08:57Z</time>
      </trkpt>
      <trkpt lat="48.03664" lon="6.75846">
        <ele>843.69</ele>
        <time>2017-09-23T09:09:11Z</time>
      </trkpt>
      <trkpt lat="48.03662" lon="6.75887">
        <ele>841.74</ele>
        <time>2017-09-23T09:09:25Z</time>
      </trkpt>
      <trkpt lat="48.03669" lon="6.75902">
        <ele>839.69</ele>
        <time>2017-09-23T09:09:31Z</time>
      </trkpt>
      <trkpt lat="48.03669" lon="6.75935">
        <ele>836.77</ele>
        <time>2017-09-23T09:09:40Z</time>
      </trkpt>
      <trkpt lat="48.03671" lon="6.75951">
        <ele>835.49</ele>
        <time>2017-09-23T09:09:43Z</time>
      </trkpt>
      <trkpt lat="48.0367" lon="6.7596">
        <ele>834.98</ele>
        <time>2017-09-23T09:09:45Z</time>
      </trkpt>
      <trkpt lat="48.03669" lon="6.75972">
        <ele>833.49</ele>
        <time>2017-09-23T09:09:48Z</time>
      </trkpt>
      <trkpt lat="48.03672" lon="6.75979">
        <ele>832.9</ele>
        <time>2017-09-23T09:09:51Z</time>
      </trkpt>
      <trkpt lat="48.03675" lon="6.75978">
        <ele>832.66</ele>
        <time>2017-09-23T09:09:52Z</time>
      </trkpt>
      <trkpt lat="48.03677" lon="6.75975">
        <ele>832.82</ele>
        <time>2017-09-23T09:09:53Z</time>
      </trkpt>
      <trkpt lat="48.03679" lon="6.75972">
        <ele>832.43</ele>
        <time>2017-09-23T09:09:54Z</time>
      </trkpt>
      <trkpt lat="48.03681" lon="6.75969">
        <ele>832.65</ele>
        <time>2017-09-23T09:09:55Z</time>
      </trkpt>
      <trkpt lat="48.03683" lon="6.75967">
        <ele>832.62</ele>
        <time>2017-09-23T09:09:56Z</time>
      </trkpt>
      <trkpt lat="48.03685" lon="6.75965">
        <ele>832.93</ele>
        <time>2017-09-23T09:09:57Z</time>
      </trkpt>
      <trkpt lat="48.03701" lon="6.75946">
        <ele>831.56</ele>
        <time>2017-09-23T09:10:06Z</time>
      </trkpt>
      <trkpt lat="48.03702" lon="6.75954">
        <ele>831.05</ele>
        <time>2017-09-23T09:10:10Z</time>
      </trkpt>
      <trkpt lat="48.03701" lon="6.75957">
        <ele>830.48</ele>
        <time>2017-09-23T09:10:11Z</time>
      </trkpt>
      <trkpt lat="48.03698" lon="6.7596">
        <ele>830.4</ele>
        <time>2017-09-23T09:10:12Z</time>
      </trkpt>
      <trkpt lat="48.0367" lon="6.76018">
        <ele>828.53</ele>
        <time>2017-09-23T09:10:24Z</time>
      </trkpt>
      <trkpt lat="48.03651" lon="6.76051">
        <ele>829.21</ele>
        <time>2017-09-23T09:10:30Z</time>
      </trkpt>
      <trkpt lat="48.03649" lon="6.76055">
        <ele>829.44</ele>
        <time>2017-09-23T09:10:31Z</time>
      </trkpt>
      <trkpt lat="48.03641" lon="6.76088">
        <ele>831.29</ele>
        <time>2017-09-23T09:10:37Z</time>
      </trkpt>
      <trkpt lat="48.03641" lon="6.76094">
        <ele>831.69</ele>
        <time>2017-09-23T09:10:38Z</time>
      </trkpt>
      <trkpt lat="48.0364" lon="6.76099">
        <ele>832.05</ele>
        <time>2017-09-23T09:10:39Z</time>
      </trkpt>
      <trkpt lat="48.03639" lon="6.76104">
        <ele>832.22</ele>
        <time>2017-09-23T09:10:40Z</time>
      </trkpt>
      <trkpt lat="48.03638" lon="6.76109">
        <ele>832.49</ele>
        <time>2017-09-23T09:10:41Z</time>
      </trkpt>
      <trkpt lat="48.03637" lon="6.76114">
        <ele>832.95</ele>
        <time>2017-09-23T09:10:42Z</time>
      </trkpt>
      <trkpt lat="48.03628" lon="6.76165">
        <ele>833.33</ele>
        <time>2017-09-23T09:10:53Z</time>
      </trkpt>
      <trkpt lat="48.0363" lon="6.76183">
        <ele>832.68</ele>
        <time>2017-09-23T09:10:56Z</time>
      </trkpt>
      <trkpt lat="48.03632" lon="6.7619">
        <ele>831.76</ele>
        <time>2017-09-23T09:10:57Z</time>
      </trkpt>
      <trkpt lat="48.03635" lon="6.76196">
        <ele>831.7</ele>
        <time>2017-09-23T09:10:58Z</time>
      </trkpt>
      <trkpt lat="48.03638" lon="6.76202">
        <ele>831.57</ele>
        <time>2017-09-23T09:10:59Z</time>
      </trkpt>
      <trkpt lat="48.03641" lon="6.76207">
        <ele>830.69</ele>
        <time>2017-09-23T09:11:00Z</time>
      </trkpt>
      <trkpt lat="48.03645" lon="6.76212">
        <ele>830.57</ele>
        <time>2017-09-23T09:11:01Z</time>
      </trkpt>
      <trkpt lat="48.03649" lon="6.76216">
        <ele>830.1</ele>
        <time>2017-09-23T09:11:02Z</time>
      </trkpt>
      <trkpt lat="48.03653" lon="6.7622">
        <ele>830.37</ele>
        <time>2017-09-23T09:11:03Z</time>
      </trkpt>
      <trkpt lat="48.03664" lon="6.76228">
        <ele>829.72</ele>
        <time>2017-09-23T09:11:06Z</time>
      </trkpt>
      <trkpt lat="48.03668" lon="6.7623">
        <ele>829.47</ele>
        <time>2017-09-23T09:11:07Z</time>
      </trkpt>
      <trkpt lat="48.03676" lon="6.76234">
        <ele>827.8</ele>
        <time>2017-09-23T09:11:09Z</time>
      </trkpt>
      <trkpt lat="48.0368" lon="6.76234">
        <ele>827.21</ele>
        <time>2017-09-23T09:11:10Z</time>
      </trkpt>
      <trkpt lat="48.03684" lon="6.76234">
        <ele>826.99</ele>
        <time>2017-09-23T09:11:11Z</time>
      </trkpt>
      <trkpt lat="48.03697" lon="6.7624">
        <ele>824.95</ele>
        <time>2017-09-23T09:11:15Z</time>
      </trkpt>
      <trkpt lat="48.03699" lon="6.76245">
        <ele>824.43</ele>
        <time>2017-09-23T09:11:16Z</time>
      </trkpt>
      <trkpt lat="48.03701" lon="6.76251">
        <ele>823.69</ele>
        <time>2017-09-23T09:11:17Z</time>
      </trkpt>
      <trkpt lat="48.03702" lon="6.76257">
        <ele>823.2</ele>
        <time>2017-09-23T09:11:18Z</time>
      </trkpt>
      <trkpt lat="48.03703" lon="6.76263">
        <ele>821.83</ele>
        <time>2017-09-23T09:11:19Z</time>
      </trkpt>
      <trkpt lat="48.03705" lon="6.76269">
        <ele>821.3</ele>
        <time>2017-09-23T09:11:20Z</time>
      </trkpt>
      <trkpt lat="48.03707" lon="6.76273">
        <ele>821.13</ele>
        <time>2017-09-23T09:11:21Z</time>
      </trkpt>
      <trkpt lat="48.0371" lon="6.76275">
        <ele>820.75</ele>
        <time>2017-09-23T09:11:22Z</time>
      </trkpt>
      <trkpt lat="48.03714" lon="6.76276">
        <ele>820.61</ele>
        <time>2017-09-23T09:11:23Z</time>
      </trkpt>
      <trkpt lat="48.03718" lon="6.76276">
        <ele>819.24</ele>
        <time>2017-09-23T09:11:24Z</time>
      </trkpt>
      <trkpt lat="48.03722" lon="6.76277">
        <ele>819.05</ele>
        <time>2017-09-23T09:11:25Z</time>
      </trkpt>
      <trkpt lat="48.03734" lon="6.7628">
        <ele>817.42</ele>
        <time>2017-09-23T09:11:28Z</time>
      </trkpt>
      <trkpt lat="48.03739" lon="6.76282">
        <ele>816.71</ele>
        <time>2017-09-23T09:11:29Z</time>
      </trkpt>
      <trkpt lat="48.03743" lon="6.76285">
        <ele>816.13</ele>
        <time>2017-09-23T09:11:30Z</time>
      </trkpt>
      <trkpt lat="48.03746" lon="6.7629">
        <ele>815.66</ele>
        <time>2017-09-23T09:11:31Z</time>
      </trkpt>
      <trkpt lat="48.03748" lon="6.76296">
        <ele>815.24</ele>
        <time>2017-09-23T09:11:32Z</time>
      </trkpt>
      <trkpt lat="48.0375" lon="6.76303">
        <ele>814.68</ele>
        <time>2017-09-23T09:11:33Z</time>
      </trkpt>
      <trkpt lat="48.03751" lon="6.7631">
        <ele>814.26</ele>
        <time>2017-09-23T09:11:34Z</time>
      </trkpt>
      <trkpt lat="48.03753" lon="6.76317">
        <ele>813.84</ele>
        <time>2017-09-23T09:11:35Z</time>
      </trkpt>
      <trkpt lat="48.03755" lon="6.76324">
        <ele>813.47</ele>
        <time>2017-09-23T09:11:36Z</time>
      </trkpt>
      <trkpt lat="48.03781" lon="6.76382">
        <ele>813.13</ele>
        <time>2017-09-23T09:11:48Z</time>
      </trkpt>
      <trkpt lat="48.03786" lon="6.7639">
        <ele>812.96</ele>
        <time>2017-09-23T09:11:50Z</time>
      </trkpt>
      <trkpt lat="48.03788" lon="6.76396">
        <ele>812.69</ele>
        <time>2017-09-23T09:11:51Z</time>
      </trkpt>
      <trkpt lat="48.03789" lon="6.76402">
        <ele>812.88</ele>
        <time>2017-09-23T09:11:52Z</time>
      </trkpt>
      <trkpt lat="48.03789" lon="6.76409">
        <ele>812.69</ele>
        <time>2017-09-23T09:11:53Z</time>
      </trkpt>
      <trkpt lat="48.03789" lon="6.76416">
        <ele>812.65</ele>
        <time>2017-09-23T09:11:54Z</time>
      </trkpt>
      <trkpt lat="48.03789" lon="6.76423">
        <ele>812.42</ele>
        <time>2017-09-23T09:11:55Z</time>
      </trkpt>
      <trkpt lat="48.03789" lon="6.7643">
        <ele>812.07</ele>
        <time>2017-09-23T09:11:56Z</time>
      </trkpt>
      <trkpt lat="48.03789" lon="6.76437">
        <ele>812.12</ele>
        <time>2017-09-23T09:11:57Z</time>
      </trkpt>
      <trkpt lat="48.03802" lon="6.7649">
        <ele>810.8</ele>
        <time>2017-09-23T09:12:08Z</time>
      </trkpt>
      <trkpt lat="48.03816" lon="6.76513">
        <ele>811.31</ele>
        <time>2017-09-23T09:12:18Z</time>
      </trkpt>
      <trkpt lat="48.03839" lon="6.76533">
        <ele>813.23</ele>
        <time>2017-09-23T09:12:29Z</time>
      </trkpt>
      <trkpt lat="48.03859" lon="6.7657">
        <ele>816.26</ele>
        <time>2017-09-23T09:12:41Z</time>
      </trkpt>
      <trkpt lat="48.03882" lon="6.76606">
        <ele>818.67</ele>
        <time>2017-09-23T09:12:53Z</time>
      </trkpt>
      <trkpt lat="48.03901" lon="6.76629">
        <ele>821.77</ele>
        <time>2017-09-23T09:13:03Z</time>
      </trkpt>
      <trkpt lat="48.03924" lon="6.76647">
        <ele>825.05</ele>
        <time>2017-09-23T09:13:15Z</time>
      </trkpt>
      <trkpt lat="48.03948" lon="6.7666">
        <ele>827.79</ele>
        <time>2017-09-23T09:13:26Z</time>
      </trkpt>
      <trkpt lat="48.03962" lon="6.7668">
        <ele>831.43</ele>
        <time>2017-09-23T09:13:34Z</time>
      </trkpt>
      <trkpt lat="48.03964" lon="6.76681">
        <ele>831.64</ele>
        <time>2017-09-23T09:13:35Z</time>
      </trkpt>
      <trkpt lat="48.03971" lon="6.76689">
        <ele>833.04</ele>
        <time>2017-09-23T09:13:38Z</time>
      </trkpt>
      <trkpt lat="48.03976" lon="6.76699">
        <ele>834.23</ele>
        <time>2017-09-23T09:13:41Z</time>
      </trkpt>
      <trkpt lat="48.03977" lon="6.76702">
        <ele>834.73</ele>
        <time>2017-09-23T09:13:42Z</time>
      </trkpt>
      <trkpt lat="48.03978" lon="6.76705">
        <ele>835.23</ele>
        <time>2017-09-23T09:13:43Z</time>
      </trkpt>
      <trkpt lat="48.03981" lon="6.76719">
        <ele>836.87</ele>
        <time>2017-09-23T09:13:48Z</time>
      </trkpt>
      <trkpt lat="48.03982" lon="6.76722">
        <ele>836.84</ele>
        <time>2017-09-23T09:13:49Z</time>
      </trkpt>
      <trkpt lat="48.03983" lon="6.76725">
        <ele>837.53</ele>
        <time>2017-09-23T09:13:50Z</time>
      </trkpt>
      <trkpt lat="48.03984" lon="6.76728">
        <ele>837.6</ele>
        <time>2017-09-23T09:13:51Z</time>
      </trkpt>
      <trkpt lat="48.03985" lon="6.76731">
        <ele>837.88</ele>
        <time>2017-09-23T09:13:52Z</time>
      </trkpt>
      <trkpt lat="48.03985" lon="6.76734">
        <ele>838.12</ele>
        <time>2017-09-23T09:13:53Z</time>
      </trkpt>
      <trkpt lat="48.03985" lon="6.76737">
        <ele>838.38</ele>
        <time>2017-09-23T09:13:54Z</time>
      </trkpt>
      <trkpt lat="48.03986" lon="6.76739">
        <ele>838.84</ele>
        <time>2017-09-23T09:13:55Z</time>
      </trkpt>
      <trkpt lat="48.03988" lon="6.76742">
        <ele>839.3</ele>
        <time>2017-09-23T09:13:56Z</time>
      </trkpt>
      <trkpt lat="48.03989" lon="6.76744">
        <ele>840.12</ele>
        <time>2017-09-23T09:13:57Z</time>
      </trkpt>
      <trkpt lat="48.03991" lon="6.76746">
        <ele>840.02</ele>
        <time>2017-09-23T09:13:58Z</time>
      </trkpt>
      <trkpt lat="48.03993" lon="6.76747">
        <ele>840.2</ele>
        <time>2017-09-23T09:13:59Z</time>
      </trkpt>
      <trkpt lat="48.03994" lon="6.76747">
        <ele>840.42</ele>
        <time>2017-09-23T09:14:00Z</time>
      </trkpt>
      <trkpt lat="48.03996" lon="6.76747">
        <ele>841.13</ele>
        <time>2017-09-23T09:14:01Z</time>
      </trkpt>
      <trkpt lat="48.03998" lon="6.76747">
        <ele>841.18</ele>
        <time>2017-09-23T09:14:02Z</time>
      </trkpt>
      <trkpt lat="48.04" lon="6.76747">
        <ele>841.41</ele>
        <time>2017-09-23T09:14:03Z</time>
      </trkpt>
      <trkpt lat="48.04001" lon="6.76747">
        <ele>842.27</ele>
        <time>2017-09-23T09:14:04Z</time>
      </trkpt>
      <trkpt lat="48.04003" lon="6.76747">
        <ele>842.49</ele>
        <time>2017-09-23T09:14:05Z</time>
      </trkpt>
      <trkpt lat="48.04024" lon="6.76761">
        <ele>845.7</ele>
        <time>2017-09-23T09:14:16Z</time>
      </trkpt>
      <trkpt lat="48.04049" lon="6.76772">
        <ele>848.12</ele>
        <time>2017-09-23T09:14:28Z</time>
      </trkpt>
      <trkpt lat="48.0408" lon="6.76788">
        <ele>849.82</ele>
        <time>2017-09-23T09:14:40Z</time>
      </trkpt>
      <trkpt lat="48.04109" lon="6.76797">
        <ele>852.84</ele>
        <time>2017-09-23T09:14:50Z</time>
      </trkpt>
      <trkpt lat="48.04146" lon="6.76774">
        <ele>855.87</ele>
        <time>2017-09-23T09:15:03Z</time>
      </trkpt>
      <trkpt lat="48.04172" lon="6.76716">
        <ele>855.45</ele>
        <time>2017-09-23T09:15:17Z</time>
      </trkpt>
      <trkpt lat="48.04178" lon="6.76605">
        <ele>852.46</ele>
        <time>2017-09-23T09:15:29Z</time>
      </trkpt>
      <trkpt lat="48.04179" lon="6.76508">
        <ele>848.75</ele>
        <time>2017-09-23T09:15:36Z</time>
      </trkpt>
      <trkpt lat="48.0418" lon="6.76492">
        <ele>848.69</ele>
        <time>2017-09-23T09:15:37Z</time>
      </trkpt>
      <trkpt lat="48.04179" lon="6.76446">
        <ele>844.86</ele>
        <time>2017-09-23T09:15:40Z</time>
      </trkpt>
      <trkpt lat="48.04177" lon="6.76414">
        <ele>842.12</ele>
        <time>2017-09-23T09:15:43Z</time>
      </trkpt>
      <trkpt lat="48.04178" lon="6.76406">
        <ele>842.31</ele>
        <time>2017-09-23T09:15:44Z</time>
      </trkpt>
      <trkpt lat="48.0418" lon="6.76397">
        <ele>841.93</ele>
        <time>2017-09-23T09:15:45Z</time>
      </trkpt>
      <trkpt lat="48.04183" lon="6.7639">
        <ele>841.81</ele>
        <time>2017-09-23T09:15:46Z</time>
      </trkpt>
      <trkpt lat="48.04187" lon="6.76385">
        <ele>841.57</ele>
        <time>2017-09-23T09:15:47Z</time>
      </trkpt>
      <trkpt lat="48.04191" lon="6.7638">
        <ele>841.97</ele>
        <time>2017-09-23T09:15:48Z</time>
      </trkpt>
      <trkpt lat="48.04195" lon="6.76377">
        <ele>842.2</ele>
        <time>2017-09-23T09:15:49Z</time>
      </trkpt>
      <trkpt lat="48.04198" lon="6.76373">
        <ele>841.98</ele>
        <time>2017-09-23T09:15:50Z</time>
      </trkpt>
      <trkpt lat="48.042" lon="6.76368">
        <ele>842.25</ele>
        <time>2017-09-23T09:15:51Z</time>
      </trkpt>
      <trkpt lat="48.04202" lon="6.76363">
        <ele>842.43</ele>
        <time>2017-09-23T09:15:52Z</time>
      </trkpt>
      <trkpt lat="48.04203" lon="6.76358">
        <ele>842.29</ele>
        <time>2017-09-23T09:15:53Z</time>
      </trkpt>
      <trkpt lat="48.04203" lon="6.76353">
        <ele>842.15</ele>
        <time>2017-09-23T09:15:54Z</time>
      </trkpt>
      <trkpt lat="48.04203" lon="6.76349">
        <ele>842.27</ele>
        <time>2017-09-23T09:15:55Z</time>
      </trkpt>
      <trkpt lat="48.04202" lon="6.76345">
        <ele>842.42</ele>
        <time>2017-09-23T09:15:56Z</time>
      </trkpt>
      <trkpt lat="48.04202" lon="6.76342">
        <ele>842.79</ele>
        <time>2017-09-23T09:15:57Z</time>
      </trkpt>
      <trkpt lat="48.04201" lon="6.76338">
        <ele>842.32</ele>
        <time>2017-09-23T09:15:58Z</time>
      </trkpt>
      <trkpt lat="48.04202" lon="6.76335">
        <ele>842.77</ele>
        <time>2017-09-23T09:15:59Z</time>
      </trkpt>
      <trkpt lat="48.04202" lon="6.76332">
        <ele>842.81</ele>
        <time>2017-09-23T09:16:00Z</time>
      </trkpt>
      <trkpt lat="48.04202" lon="6.76329">
        <ele>842.69</ele>
        <time>2017-09-23T09:16:01Z</time>
      </trkpt>
      <trkpt lat="48.04202" lon="6.76326">
        <ele>842.78</ele>
        <time>2017-09-23T09:16:02Z</time>
      </trkpt>
      <trkpt lat="48.04202" lon="6.76322">
        <ele>842.44</ele>
        <time>2017-09-23T09:16:03Z</time>
      </trkpt>
      <trkpt lat="48.04204" lon="6.76319">
        <ele>842.49</ele>
        <time>2017-09-23T09:16:04Z</time>
      </trkpt>
      <trkpt lat="48.04206" lon="6.76317">
        <ele>842.56</ele>
        <time>2017-09-23T09:16:05Z</time>
      </trkpt>
      <trkpt lat="48.04209" lon="6.76317">
        <ele>843.01</ele>
        <time>2017-09-23T09:16:06Z</time>
      </trkpt>
      <trkpt lat="48.04212" lon="6.76316">
        <ele>843.02</ele>
        <time>2017-09-23T09:16:07Z</time>
      </trkpt>
      <trkpt lat="48.04215" lon="6.76316">
        <ele>843.59</ele>
        <time>2017-09-23T09:16:08Z</time>
      </trkpt>
      <trkpt lat="48.04228" lon="6.76318">
        <ele>845.3</ele>
        <time>2017-09-23T09:16:12Z</time>
      </trkpt>
      <trkpt lat="48.04246" lon="6.76322">
        <ele>846.83</ele>
        <time>2017-09-23T09:16:18Z</time>
      </trkpt>
      <trkpt lat="48.04275" lon="6.76349">
        <ele>845.69</ele>
        <time>2017-09-23T09:16:31Z</time>
      </trkpt>
      <trkpt lat="48.04279" lon="6.76399">
        <ele>847.94</ele>
        <time>2017-09-23T09:16:44Z</time>
      </trkpt>
      <trkpt lat="48.04263" lon="6.76446">
        <ele>850.95</ele>
        <time>2017-09-23T09:16:57Z</time>
      </trkpt>
      <trkpt lat="48.04237" lon="6.76509">
        <ele>854.07</ele>
        <time>2017-09-23T09:17:15Z</time>
      </trkpt>
      <trkpt lat="48.0421" lon="6.76578">
        <ele>855.05</ele>
        <time>2017-09-23T09:17:32Z</time>
      </trkpt>
      <trkpt lat="48.04201" lon="6.76654">
        <ele>856.62</ele>
        <time>2017-09-23T09:17:47Z</time>
      </trkpt>
      <trkpt lat="48.04183" lon="6.76732">
        <ele>857.64</ele>
        <time>2017-09-23T09:18:02Z</time>
      </trkpt>
      <trkpt lat="48.04168" lon="6.76768">
        <ele>856.99</ele>
        <time>2017-09-23T09:18:08Z</time>
      </trkpt>
      <trkpt lat="48.04166" lon="6.76774">
        <ele>856.77</ele>
        <time>2017-09-23T09:18:09Z</time>
      </trkpt>
      <trkpt lat="48.04163" lon="6.76781">
        <ele>857.31</ele>
        <time>2017-09-23T09:18:10Z</time>
      </trkpt>
      <trkpt lat="48.04162" lon="6.76788">
        <ele>857.37</ele>
        <time>2017-09-23T09:18:11Z</time>
      </trkpt>
      <trkpt lat="48.0416" lon="6.76794">
        <ele>857.83</ele>
        <time>2017-09-23T09:18:12Z</time>
      </trkpt>
      <trkpt lat="48.04145" lon="6.76862">
        <ele>861.22</ele>
        <time>2017-09-23T09:18:23Z</time>
      </trkpt>
      <trkpt lat="48.04123" lon="6.76941">
        <ele>864.42</ele>
        <time>2017-09-23T09:18:37Z</time>
      </trkpt>
      <trkpt lat="48.041" lon="6.77026">
        <ele>867.41</ele>
        <time>2017-09-23T09:18:53Z</time>
      </trkpt>
      <trkpt lat="48.04086" lon="6.77111">
        <ele>870.41</ele>
        <time>2017-09-23T09:19:10Z</time>
      </trkpt>
      <trkpt lat="48.04099" lon="6.77203">
        <ele>873.47</ele>
        <time>2017-09-23T09:19:29Z</time>
      </trkpt>
      <trkpt lat="48.04129" lon="6.77265">
        <ele>874.49</ele>
        <time>2017-09-23T09:19:43Z</time>
      </trkpt>
      <trkpt lat="48.04138" lon="6.77278">
        <ele>874.5</ele>
        <time>2017-09-23T09:19:46Z</time>
      </trkpt>
      <trkpt lat="48.04142" lon="6.77281">
        <ele>874.43</ele>
        <time>2017-09-23T09:19:47Z</time>
      </trkpt>
      <trkpt lat="48.04146" lon="6.77284">
        <ele>874.69</ele>
        <time>2017-09-23T09:19:48Z</time>
      </trkpt>
      <trkpt lat="48.0415" lon="6.77286">
        <ele>874.43</ele>
        <time>2017-09-23T09:19:49Z</time>
      </trkpt>
      <trkpt lat="48.04155" lon="6.77287">
        <ele>874.44</ele>
        <time>2017-09-23T09:19:50Z</time>
      </trkpt>
      <trkpt lat="48.04233" lon="6.77306">
        <ele>874.4</ele>
        <time>2017-09-23T09:20:07Z</time>
      </trkpt>
      <trkpt lat="48.0431" lon="6.77333">
        <ele>875.14</ele>
        <time>2017-09-23T09:20:23Z</time>
      </trkpt>
      <trkpt lat="48.04365" lon="6.77359">
        <ele>875.7</ele>
        <time>2017-09-23T09:20:34Z</time>
      </trkpt>
      <trkpt lat="48.04385" lon="6.7738">
        <ele>875.8</ele>
        <time>2017-09-23T09:20:39Z</time>
      </trkpt>
      <trkpt lat="48.04388" lon="6.77385">
        <ele>876.35</ele>
        <time>2017-09-23T09:20:40Z</time>
      </trkpt>
      <trkpt lat="48.04391" lon="6.77392">
        <ele>876.19</ele>
        <time>2017-09-23T09:20:41Z</time>
      </trkpt>
      <trkpt lat="48.04393" lon="6.77398">
        <ele>876.31</ele>
        <time>2017-09-23T09:20:42Z</time>
      </trkpt>
      <trkpt lat="48.04395" lon="6.77405">
        <ele>876.76</ele>
        <time>2017-09-23T09:20:43Z</time>
      </trkpt>
      <trkpt lat="48.044" lon="6.77433">
        <ele>877.15</ele>
        <time>2017-09-23T09:20:47Z</time>
      </trkpt>
      <trkpt lat="48.044" lon="6.7744">
        <ele>877.25</ele>
        <time>2017-09-23T09:20:48Z</time>
      </trkpt>
      <trkpt lat="48.044" lon="6.77448">
        <ele>877.32</ele>
        <time>2017-09-23T09:20:49Z</time>
      </trkpt>
      <trkpt lat="48.04399" lon="6.77455">
        <ele>877.23</ele>
        <time>2017-09-23T09:20:50Z</time>
      </trkpt>
      <trkpt lat="48.04398" lon="6.77463">
        <ele>877.13</ele>
        <time>2017-09-23T09:20:51Z</time>
      </trkpt>
      <trkpt lat="48.04395" lon="6.77502">
        <ele>877.01</ele>
        <time>2017-09-23T09:20:56Z</time>
      </trkpt>
      <trkpt lat="48.04395" lon="6.77509">
        <ele>877.32</ele>
        <time>2017-09-23T09:20:57Z</time>
      </trkpt>
      <trkpt lat="48.04398" lon="6.77525">
        <ele>877.8</ele>
        <time>2017-09-23T09:20:59Z</time>
      </trkpt>
      <trkpt lat="48.044" lon="6.77531">
        <ele>877.64</ele>
        <time>2017-09-23T09:21:00Z</time>
      </trkpt>
      <trkpt lat="48.04403" lon="6.77538">
        <ele>877.88</ele>
        <time>2017-09-23T09:21:01Z</time>
      </trkpt>
      <trkpt lat="48.04406" lon="6.77544">
        <ele>877.93</ele>
        <time>2017-09-23T09:21:02Z</time>
      </trkpt>
      <trkpt lat="48.04409" lon="6.77549">
        <ele>878.04</ele>
        <time>2017-09-23T09:21:03Z</time>
      </trkpt>
      <trkpt lat="48.04413" lon="6.77555">
        <ele>877.71</ele>
        <time>2017-09-23T09:21:04Z</time>
      </trkpt>
      <trkpt lat="48.04457" lon="6.77625">
        <ele>879.2</ele>
        <time>2017-09-23T09:21:17Z</time>
      </trkpt>
      <trkpt lat="48.04497" lon="6.77702">
        <ele>881.2</ele>
        <time>2017-09-23T09:21:30Z</time>
      </trkpt>
      <trkpt lat="48.0454" lon="6.77783">
        <ele>882.82</ele>
        <time>2017-09-23T09:21:44Z</time>
      </trkpt>
      <trkpt lat="48.04581" lon="6.77846">
        <ele>884.44</ele>
        <time>2017-09-23T09:21:57Z</time>
      </trkpt>
      <trkpt lat="48.04626" lon="6.77916">
        <ele>882.06</ele>
        <time>2017-09-23T09:22:13Z</time>
      </trkpt>
      <trkpt lat="48.04646" lon="6.77947">
        <ele>878.49</ele>
        <time>2017-09-23T09:22:18Z</time>
      </trkpt>
      <trkpt lat="48.04669" lon="6.77979">
        <ele>874.56</ele>
        <time>2017-09-23T09:22:23Z</time>
      </trkpt>
      <trkpt lat="48.04674" lon="6.77984">
        <ele>873.74</ele>
        <time>2017-09-23T09:22:24Z</time>
      </trkpt>
      <trkpt lat="48.0468" lon="6.77987">
        <ele>872.99</ele>
        <time>2017-09-23T09:22:25Z</time>
      </trkpt>
      <trkpt lat="48.04685" lon="6.7799">
        <ele>872.47</ele>
        <time>2017-09-23T09:22:26Z</time>
      </trkpt>
      <trkpt lat="48.0469" lon="6.77991">
        <ele>872.1</ele>
        <time>2017-09-23T09:22:27Z</time>
      </trkpt>
      <trkpt lat="48.04696" lon="6.77991">
        <ele>871.37</ele>
        <time>2017-09-23T09:22:28Z</time>
      </trkpt>
      <trkpt lat="48.04701" lon="6.77989">
        <ele>870.29</ele>
        <time>2017-09-23T09:22:29Z</time>
      </trkpt>
      <trkpt lat="48.04706" lon="6.77986">
        <ele>869.76</ele>
        <time>2017-09-23T09:22:30Z</time>
      </trkpt>
      <trkpt lat="48.04712" lon="6.77982">
        <ele>869.15</ele>
        <time>2017-09-23T09:22:31Z</time>
      </trkpt>
      <trkpt lat="48.04717" lon="6.77977">
        <ele>868.38</ele>
        <time>2017-09-23T09:22:32Z</time>
      </trkpt>
      <trkpt lat="48.04726" lon="6.77968">
        <ele>867.19</ele>
        <time>2017-09-23T09:22:34Z</time>
      </trkpt>
      <trkpt lat="48.0473" lon="6.77963">
        <ele>866.8</ele>
        <time>2017-09-23T09:22:35Z</time>
      </trkpt>
      <trkpt lat="48.04747" lon="6.77948">
        <ele>864.36</ele>
        <time>2017-09-23T09:22:39Z</time>
      </trkpt>
      <trkpt lat="48.04752" lon="6.77945">
        <ele>864.31</ele>
        <time>2017-09-23T09:22:40Z</time>
      </trkpt>
      <trkpt lat="48.04757" lon="6.77943">
        <ele>863.39</ele>
        <time>2017-09-23T09:22:41Z</time>
      </trkpt>
      <trkpt lat="48.04763" lon="6.77942">
        <ele>862.69</ele>
        <time>2017-09-23T09:22:42Z</time>
      </trkpt>
      <trkpt lat="48.04768" lon="6.77941">
        <ele>862.03</ele>
        <time>2017-09-23T09:22:43Z</time>
      </trkpt>
      <trkpt lat="48.04773" lon="6.77941">
        <ele>861.66</ele>
        <time>2017-09-23T09:22:44Z</time>
      </trkpt>
      <trkpt lat="48.04778" lon="6.77941">
        <ele>860.51</ele>
        <time>2017-09-23T09:22:45Z</time>
      </trkpt>
      <trkpt lat="48.04801" lon="6.77943">
        <ele>857.28</ele>
        <time>2017-09-23T09:22:50Z</time>
      </trkpt>
      <trkpt lat="48.04814" lon="6.77945">
        <ele>855.94</ele>
        <time>2017-09-23T09:22:53Z</time>
      </trkpt>
      <trkpt lat="48.04819" lon="6.77946">
        <ele>856.08</ele>
        <time>2017-09-23T09:22:54Z</time>
      </trkpt>
      <trkpt lat="48.04823" lon="6.77949">
        <ele>855.36</ele>
        <time>2017-09-23T09:22:55Z</time>
      </trkpt>
      <trkpt lat="48.04828" lon="6.77952">
        <ele>854.81</ele>
        <time>2017-09-23T09:22:56Z</time>
      </trkpt>
      <trkpt lat="48.04833" lon="6.77955">
        <ele>854.34</ele>
        <time>2017-09-23T09:22:57Z</time>
      </trkpt>
      <trkpt lat="48.0484" lon="6.77959">
        <ele>853.44</ele>
        <time>2017-09-23T09:22:58Z</time>
      </trkpt>
      <trkpt lat="48.04847" lon="6.77962">
        <ele>852.45</ele>
        <time>2017-09-23T09:22:59Z</time>
      </trkpt>
      <trkpt lat="48.04881" lon="6.77979">
        <ele>848.52</ele>
        <time>2017-09-23T09:23:03Z</time>
      </trkpt>
      <trkpt lat="48.04909" lon="6.77993">
        <ele>845.02</ele>
        <time>2017-09-23T09:23:06Z</time>
      </trkpt>
      <trkpt lat="48.04926" lon="6.78">
        <ele>841.82</ele>
        <time>2017-09-23T09:23:08Z</time>
      </trkpt>
      <trkpt lat="48.04948" lon="6.78006">
        <ele>838.14</ele>
        <time>2017-09-23T09:23:12Z</time>
      </trkpt>
      <trkpt lat="48.04952" lon="6.78008">
        <ele>837.61</ele>
        <time>2017-09-23T09:23:13Z</time>
      </trkpt>
      <trkpt lat="48.04956" lon="6.78012">
        <ele>836.56</ele>
        <time>2017-09-23T09:23:14Z</time>
      </trkpt>
      <trkpt lat="48.04958" lon="6.78017">
        <ele>835.83</ele>
        <time>2017-09-23T09:23:15Z</time>
      </trkpt>
      <trkpt lat="48.04958" lon="6.78024">
        <ele>835.28</ele>
        <time>2017-09-23T09:23:16Z</time>
      </trkpt>
      <trkpt lat="48.04956" lon="6.7803">
        <ele>834.79</ele>
        <time>2017-09-23T09:23:17Z</time>
      </trkpt>
      <trkpt lat="48.04952" lon="6.78036">
        <ele>834.79</ele>
        <time>2017-09-23T09:23:18Z</time>
      </trkpt>
      <trkpt lat="48.04946" lon="6.78039">
        <ele>834.33</ele>
        <time>2017-09-23T09:23:19Z</time>
      </trkpt>
      <trkpt lat="48.0494" lon="6.78041">
        <ele>833.04</ele>
        <time>2017-09-23T09:23:20Z</time>
      </trkpt>
      <trkpt lat="48.04934" lon="6.78042">
        <ele>832.69</ele>
        <time>2017-09-23T09:23:21Z</time>
      </trkpt>
      <trkpt lat="48.0493" lon="6.78045">
        <ele>831.85</ele>
        <time>2017-09-23T09:23:22Z</time>
      </trkpt>
      <trkpt lat="48.04926" lon="6.7805">
        <ele>831.02</ele>
        <time>2017-09-23T09:23:23Z</time>
      </trkpt>
      <trkpt lat="48.04925" lon="6.78056">
        <ele>829.92</ele>
        <time>2017-09-23T09:23:24Z</time>
      </trkpt>
      <trkpt lat="48.04925" lon="6.78063">
        <ele>829.53</ele>
        <time>2017-09-23T09:23:25Z</time>
      </trkpt>
      <trkpt lat="48.04929" lon="6.7807">
        <ele>828.62</ele>
        <time>2017-09-23T09:23:26Z</time>
      </trkpt>
      <trkpt lat="48.04935" lon="6.78074">
        <ele>828.34</ele>
        <time>2017-09-23T09:23:27Z</time>
      </trkpt>
      <trkpt lat="48.04942" lon="6.78077">
        <ele>828.26</ele>
        <time>2017-09-23T09:23:28Z</time>
      </trkpt>
      <trkpt lat="48.0495" lon="6.78078">
        <ele>826.76</ele>
        <time>2017-09-23T09:23:29Z</time>
      </trkpt>
      <trkpt lat="48.04958" lon="6.78079">
        <ele>826.23</ele>
        <time>2017-09-23T09:23:30Z</time>
      </trkpt>
      <trkpt lat="48.04968" lon="6.78079">
        <ele>825.81</ele>
        <time>2017-09-23T09:23:31Z</time>
      </trkpt>
      <trkpt lat="48.05009" lon="6.78082">
        <ele>821.12</ele>
        <time>2017-09-23T09:23:35Z</time>
      </trkpt>
      <trkpt lat="48.05041" lon="6.78078">
        <ele>817.35</ele>
        <time>2017-09-23T09:23:38Z</time>
      </trkpt>
      <trkpt lat="48.05074" lon="6.78079">
        <ele>814.03</ele>
        <time>2017-09-23T09:23:41Z</time>
      </trkpt>
      <trkpt lat="48.05108" lon="6.78081">
        <ele>809.67</ele>
        <time>2017-09-23T09:23:44Z</time>
      </trkpt>
      <trkpt lat="48.05137" lon="6.78081">
        <ele>805.88</ele>
        <time>2017-09-23T09:23:47Z</time>
      </trkpt>
      <trkpt lat="48.05147" lon="6.78078">
        <ele>804.68</ele>
        <time>2017-09-23T09:23:48Z</time>
      </trkpt>
      <trkpt lat="48.05189" lon="6.78063">
        <ele>801.07</ele>
        <time>2017-09-23T09:23:52Z</time>
      </trkpt>
      <trkpt lat="48.05214" lon="6.78056">
        <ele>798.63</ele>
        <time>2017-09-23T09:23:54Z</time>
      </trkpt>
      <trkpt lat="48.05238" lon="6.78054">
        <ele>794.78</ele>
        <time>2017-09-23T09:23:56Z</time>
      </trkpt>
      <trkpt lat="48.05261" lon="6.78053">
        <ele>791.42</ele>
        <time>2017-09-23T09:23:58Z</time>
      </trkpt>
      <trkpt lat="48.05271" lon="6.78054">
        <ele>789.65</ele>
        <time>2017-09-23T09:23:59Z</time>
      </trkpt>
      <trkpt lat="48.05279" lon="6.78056">
        <ele>788.58</ele>
        <time>2017-09-23T09:24:00Z</time>
      </trkpt>
      <trkpt lat="48.05287" lon="6.7806">
        <ele>787.08</ele>
        <time>2017-09-23T09:24:01Z</time>
      </trkpt>
      <trkpt lat="48.05293" lon="6.78066">
        <ele>786.6</ele>
        <time>2017-09-23T09:24:02Z</time>
      </trkpt>
      <trkpt lat="48.053" lon="6.78075">
        <ele>786.92</ele>
        <time>2017-09-23T09:24:03Z</time>
      </trkpt>
      <trkpt lat="48.05306" lon="6.78084">
        <ele>786.34</ele>
        <time>2017-09-23T09:24:04Z</time>
      </trkpt>
      <trkpt lat="48.05313" lon="6.78093">
        <ele>784.91</ele>
        <time>2017-09-23T09:24:05Z</time>
      </trkpt>
      <trkpt lat="48.0532" lon="6.78101">
        <ele>784.22</ele>
        <time>2017-09-23T09:24:06Z</time>
      </trkpt>
      <trkpt lat="48.05329" lon="6.78107">
        <ele>783.11</ele>
        <time>2017-09-23T09:24:07Z</time>
      </trkpt>
      <trkpt lat="48.05359" lon="6.78127">
        <ele>779.58</ele>
        <time>2017-09-23T09:24:10Z</time>
      </trkpt>
      <trkpt lat="48.05392" lon="6.78145">
        <ele>775.95</ele>
        <time>2017-09-23T09:24:13Z</time>
      </trkpt>
      <trkpt lat="48.05428" lon="6.78163">
        <ele>772.79</ele>
        <time>2017-09-23T09:24:16Z</time>
      </trkpt>
      <trkpt lat="48.05462" lon="6.78185">
        <ele>768.33</ele>
        <time>2017-09-23T09:24:19Z</time>
      </trkpt>
      <trkpt lat="48.05483" lon="6.78196">
        <ele>764.78</ele>
        <time>2017-09-23T09:24:21Z</time>
      </trkpt>
      <trkpt lat="48.05516" lon="6.78203">
        <ele>760.36</ele>
        <time>2017-09-23T09:24:24Z</time>
      </trkpt>
      <trkpt lat="48.05553" lon="6.78204">
        <ele>755.9</ele>
        <time>2017-09-23T09:24:27Z</time>
      </trkpt>
      <trkpt lat="48.05578" lon="6.78202">
        <ele>752.69</ele>
        <time>2017-09-23T09:24:29Z</time>
      </trkpt>
      <trkpt lat="48.0559" lon="6.78199">
        <ele>750.72</ele>
        <time>2017-09-23T09:24:30Z</time>
      </trkpt>
      <trkpt lat="48.05601" lon="6.78194">
        <ele>749.03</ele>
        <time>2017-09-23T09:24:31Z</time>
      </trkpt>
      <trkpt lat="48.05612" lon="6.78188">
        <ele>748.29</ele>
        <time>2017-09-23T09:24:32Z</time>
      </trkpt>
      <trkpt lat="48.05622" lon="6.78181">
        <ele>747.27</ele>
        <time>2017-09-23T09:24:33Z</time>
      </trkpt>
      <trkpt lat="48.05631" lon="6.78174">
        <ele>746.14</ele>
        <time>2017-09-23T09:24:34Z</time>
      </trkpt>
      <trkpt lat="48.05649" lon="6.78162">
        <ele>742.96</ele>
        <time>2017-09-23T09:24:36Z</time>
      </trkpt>
      <trkpt lat="48.05657" lon="6.78158">
        <ele>741.89</ele>
        <time>2017-09-23T09:24:37Z</time>
      </trkpt>
      <trkpt lat="48.05665" lon="6.78156">
        <ele>740.3</ele>
        <time>2017-09-23T09:24:38Z</time>
      </trkpt>
      <trkpt lat="48.05674" lon="6.78157">
        <ele>739.85</ele>
        <time>2017-09-23T09:24:39Z</time>
      </trkpt>
      <trkpt lat="48.05683" lon="6.78161">
        <ele>739.74</ele>
        <time>2017-09-23T09:24:40Z</time>
      </trkpt>
      <trkpt lat="48.05692" lon="6.78166">
        <ele>738.82</ele>
        <time>2017-09-23T09:24:41Z</time>
      </trkpt>
      <trkpt lat="48.05713" lon="6.78174">
        <ele>735.6</ele>
        <time>2017-09-23T09:24:43Z</time>
      </trkpt>
      <trkpt lat="48.05736" lon="6.78184">
        <ele>733.76</ele>
        <time>2017-09-23T09:24:45Z</time>
      </trkpt>
      <trkpt lat="48.05747" lon="6.78192">
        <ele>731.96</ele>
        <time>2017-09-23T09:24:46Z</time>
      </trkpt>
      <trkpt lat="48.05757" lon="6.78202">
        <ele>730.73</ele>
        <time>2017-09-23T09:24:47Z</time>
      </trkpt>
      <trkpt lat="48.05776" lon="6.78222">
        <ele>726.77</ele>
        <time>2017-09-23T09:24:49Z</time>
      </trkpt>
      <trkpt lat="48.0579" lon="6.78238">
        <ele>722.97</ele>
        <time>2017-09-23T09:24:51Z</time>
      </trkpt>
      <trkpt lat="48.058" lon="6.78251">
        <ele>720.94</ele>
        <time>2017-09-23T09:24:53Z</time>
      </trkpt>
      <trkpt lat="48.05803" lon="6.78258">
        <ele>719.97</ele>
        <time>2017-09-23T09:24:54Z</time>
      </trkpt>
      <trkpt lat="48.05804" lon="6.78265">
        <ele>718.77</ele>
        <time>2017-09-23T09:24:55Z</time>
      </trkpt>
      <trkpt lat="48.05803" lon="6.78273">
        <ele>717.77</ele>
        <time>2017-09-23T09:24:56Z</time>
      </trkpt>
      <trkpt lat="48.05801" lon="6.78279">
        <ele>717.02</ele>
        <time>2017-09-23T09:24:57Z</time>
      </trkpt>
      <trkpt lat="48.05797" lon="6.78284">
        <ele>716.37</ele>
        <time>2017-09-23T09:24:58Z</time>
      </trkpt>
      <trkpt lat="48.0579" lon="6.78285">
        <ele>715.44</ele>
        <time>2017-09-23T09:24:59Z</time>
      </trkpt>
      <trkpt lat="48.05782" lon="6.78284">
        <ele>715.17</ele>
        <time>2017-09-23T09:25:00Z</time>
      </trkpt>
      <trkpt lat="48.05774" lon="6.78282">
        <ele>713.86</ele>
        <time>2017-09-23T09:25:01Z</time>
      </trkpt>
      <trkpt lat="48.05759" lon="6.78278">
        <ele>711.71</ele>
        <time>2017-09-23T09:25:03Z</time>
      </trkpt>
      <trkpt lat="48.05753" lon="6.78277">
        <ele>710.87</ele>
        <time>2017-09-23T09:25:04Z</time>
      </trkpt>
      <trkpt lat="48.05741" lon="6.78277">
        <ele>709.68</ele>
        <time>2017-09-23T09:25:06Z</time>
      </trkpt>
      <trkpt lat="48.05736" lon="6.78279">
        <ele>709.03</ele>
        <time>2017-09-23T09:25:07Z</time>
      </trkpt>
      <trkpt lat="48.05732" lon="6.78283">
        <ele>708.64</ele>
        <time>2017-09-23T09:25:08Z</time>
      </trkpt>
      <trkpt lat="48.05729" lon="6.78288">
        <ele>708.11</ele>
        <time>2017-09-23T09:25:09Z</time>
      </trkpt>
      <trkpt lat="48.05728" lon="6.78295">
        <ele>707.96</ele>
        <time>2017-09-23T09:25:10Z</time>
      </trkpt>
      <trkpt lat="48.05729" lon="6.78303">
        <ele>707.36</ele>
        <time>2017-09-23T09:25:11Z</time>
      </trkpt>
      <trkpt lat="48.05733" lon="6.7831">
        <ele>706.78</ele>
        <time>2017-09-23T09:25:12Z</time>
      </trkpt>
      <trkpt lat="48.05739" lon="6.78315">
        <ele>705.72</ele>
        <time>2017-09-23T09:25:13Z</time>
      </trkpt>
      <trkpt lat="48.05746" lon="6.78319">
        <ele>705.54</ele>
        <time>2017-09-23T09:25:14Z</time>
      </trkpt>
      <trkpt lat="48.05753" lon="6.78325">
        <ele>705.35</ele>
        <time>2017-09-23T09:25:15Z</time>
      </trkpt>
      <trkpt lat="48.05759" lon="6.78333">
        <ele>704.54</ele>
        <time>2017-09-23T09:25:16Z</time>
      </trkpt>
      <trkpt lat="48.05765" lon="6.78343">
        <ele>704.18</ele>
        <time>2017-09-23T09:25:17Z</time>
      </trkpt>
      <trkpt lat="48.0577" lon="6.78354">
        <ele>702.75</ele>
        <time>2017-09-23T09:25:18Z</time>
      </trkpt>
      <trkpt lat="48.05775" lon="6.78366">
        <ele>701.11</ele>
        <time>2017-09-23T09:25:19Z</time>
      </trkpt>
      <trkpt lat="48.05782" lon="6.78377">
        <ele>700.2</ele>
        <time>2017-09-23T09:25:20Z</time>
      </trkpt>
      <trkpt lat="48.05791" lon="6.78385">
        <ele>699.09</ele>
        <time>2017-09-23T09:25:21Z</time>
      </trkpt>
      <trkpt lat="48.058" lon="6.78392">
        <ele>697.97</ele>
        <time>2017-09-23T09:25:22Z</time>
      </trkpt>
      <trkpt lat="48.0584" lon="6.7842">
        <ele>694.84</ele>
        <time>2017-09-23T09:25:26Z</time>
      </trkpt>
      <trkpt lat="48.05856" lon="6.7843">
        <ele>693.3</ele>
        <time>2017-09-23T09:25:28Z</time>
      </trkpt>
      <trkpt lat="48.05862" lon="6.78432">
        <ele>692.58</ele>
        <time>2017-09-23T09:25:29Z</time>
      </trkpt>
      <trkpt lat="48.05866" lon="6.78433">
        <ele>691.98</ele>
        <time>2017-09-23T09:25:30Z</time>
      </trkpt>
      <trkpt lat="48.05869" lon="6.78433">
        <ele>691.75</ele>
        <time>2017-09-23T09:25:31Z</time>
      </trkpt>
      <trkpt lat="48.05889" lon="6.78441">
        <ele>690.68</ele>
        <time>2017-09-23T09:25:42Z</time>
      </trkpt>
      <trkpt lat="48.05889" lon="6.78438">
        <ele>690.51</ele>
        <time>2017-09-23T09:26:08Z</time>
      </trkpt>
      <trkpt lat="48.05889" lon="6.78442">
        <ele>690.58</ele>
        <time>2017-09-23T09:26:20Z</time>
      </trkpt>
      <trkpt lat="48.05888" lon="6.78444">
        <ele>690.63</ele>
        <time>2017-09-23T09:26:21Z</time>
      </trkpt>
      <trkpt lat="48.05887" lon="6.78446">
        <ele>690.71</ele>
        <time>2017-09-23T09:26:22Z</time>
      </trkpt>
      <trkpt lat="48.05886" lon="6.78449">
        <ele>690.32</ele>
        <time>2017-09-23T09:26:23Z</time>
      </trkpt>
      <trkpt lat="48.05886" lon="6.78451">
        <ele>690.46</ele>
        <time>2017-09-23T09:26:24Z</time>
      </trkpt>
      <trkpt lat="48.05886" lon="6.78455">
        <ele>690.55</ele>
        <time>2017-09-23T09:26:25Z</time>
      </trkpt>
      <trkpt lat="48.05886" lon="6.78458">
        <ele>690.64</ele>
        <time>2017-09-23T09:26:26Z</time>
      </trkpt>
      <trkpt lat="48.05886" lon="6.78462">
        <ele>690.5</ele>
        <time>2017-09-23T09:26:27Z</time>
      </trkpt>
      <trkpt lat="48.05886" lon="6.78465">
        <ele>690.53</ele>
        <time>2017-09-23T09:26:28Z</time>
      </trkpt>
      <trkpt lat="48.05886" lon="6.78469">
        <ele>690.39</ele>
        <time>2017-09-23T09:26:29Z</time>
      </trkpt>
      <trkpt lat="48.05886" lon="6.78472">
        <ele>690.43</ele>
        <time>2017-09-23T09:26:30Z</time>
      </trkpt>
      <trkpt lat="48.05887" lon="6.78475">
        <ele>690.39</ele>
        <time>2017-09-23T09:26:31Z</time>
      </trkpt>
      <trkpt lat="48.05904" lon="6.78527">
        <ele>691.22</ele>
        <time>2017-09-23T09:26:43Z</time>
      </trkpt>
      <trkpt lat="48.05909" lon="6.78565">
        <ele>691.35</ele>
        <time>2017-09-23T09:26:55Z</time>
      </trkpt>
      <trkpt lat="48.05908" lon="6.78567">
        <ele>691.1</ele>
        <time>2017-09-23T09:27:14Z</time>
      </trkpt>
      <trkpt lat="48.0591" lon="6.78563">
        <ele>691.17</ele>
        <time>2017-09-23T09:27:32Z</time>
      </trkpt>
      <trkpt lat="48.0591" lon="6.78557">
        <ele>691.47</ele>
        <time>2017-09-23T09:27:35Z</time>
      </trkpt>
      <trkpt lat="48.05894" lon="6.78502">
        <ele>690.49</ele>
        <time>2017-09-23T09:27:48Z</time>
      </trkpt>
      <trkpt lat="48.05884" lon="6.78449">
        <ele>690.25</ele>
        <time>2017-09-23T09:27:58Z</time>
      </trkpt>
      <trkpt lat="48.0586" lon="6.78428">
        <ele>692.44</ele>
        <time>2017-09-23T09:28:07Z</time>
      </trkpt>
      <trkpt lat="48.0582" lon="6.78402">
        <ele>693.92</ele>
        <time>2017-09-23T09:28:20Z</time>
      </trkpt>
      <trkpt lat="48.05785" lon="6.78377">
        <ele>697.39</ele>
        <time>2017-09-23T09:28:32Z</time>
      </trkpt>
      <trkpt lat="48.05773" lon="6.78357">
        <ele>700.57</ele>
        <time>2017-09-23T09:28:39Z</time>
      </trkpt>
      <trkpt lat="48.05759" lon="6.78327">
        <ele>703.64</ele>
        <time>2017-09-23T09:28:48Z</time>
      </trkpt>
      <trkpt lat="48.05728" lon="6.78312">
        <ele>706.83</ele>
        <time>2017-09-23T09:29:01Z</time>
      </trkpt>
      <trkpt lat="48.05698" lon="6.78344">
        <ele>707.59</ele>
        <time>2017-09-23T09:29:13Z</time>
      </trkpt>
      <trkpt lat="48.05661" lon="6.78387">
        <ele>707.46</ele>
        <time>2017-09-23T09:29:27Z</time>
      </trkpt>
      <trkpt lat="48.05653" lon="6.78431">
        <ele>708.64</ele>
        <time>2017-09-23T09:29:40Z</time>
      </trkpt>
      <trkpt lat="48.05656" lon="6.78436">
        <ele>708.91</ele>
        <time>2017-09-23T09:29:54Z</time>
      </trkpt>
      <trkpt lat="48.05657" lon="6.78435">
        <ele>709.09</ele>
        <time>2017-09-23T09:30:40Z</time>
      </trkpt>
      <trkpt lat="48.05655" lon="6.78435">
        <ele>708.89</ele>
        <time>2017-09-23T09:30:58Z</time>
      </trkpt>
      <trkpt lat="48.05654" lon="6.78433">
        <ele>708.29</ele>
        <time>2017-09-23T09:31:30Z</time>
      </trkpt>
      <trkpt lat="48.05653" lon="6.78432">
        <ele>708.58</ele>
        <time>2017-09-23T09:31:54Z</time>
      </trkpt>
      <trkpt lat="48.05655" lon="6.78432">
        <ele>708.54</ele>
        <time>2017-09-23T09:32:25Z</time>
      </trkpt>
      <trkpt lat="48.05657" lon="6.78431">
        <ele>708.27</ele>
        <time>2017-09-23T09:32:55Z</time>
      </trkpt>
      <trkpt lat="48.05657" lon="6.78431">
        <ele>708.52</ele>
        <time>2017-09-23T09:33:15Z</time>
      </trkpt>
      <trkpt lat="48.05655" lon="6.78424">
        <ele>708.06</ele>
        <time>2017-09-23T09:33:38Z</time>
      </trkpt>
      <trkpt lat="48.05656" lon="6.78425">
        <ele>707.71</ele>
        <time>2017-09-23T09:34:05Z</time>
      </trkpt>
      <trkpt lat="48.05655" lon="6.78423">
        <ele>707.92</ele>
        <time>2017-09-23T09:34:32Z</time>
      </trkpt>
      <trkpt lat="48.05655" lon="6.7842">
        <ele>708.46</ele>
        <time>2017-09-23T09:34:55Z</time>
      </trkpt>
      <trkpt lat="48.05655" lon="6.78415">
        <ele>708.21</ele>
        <time>2017-09-23T09:34:57Z</time>
      </trkpt>
      <trkpt lat="48.05667" lon="6.78372">
        <ele>707.14</ele>
        <time>2017-09-23T09:35:07Z</time>
      </trkpt>
      <trkpt lat="48.05709" lon="6.78317">
        <ele>706.05</ele>
        <time>2017-09-23T09:35:21Z</time>
      </trkpt>
      <trkpt lat="48.05712" lon="6.78313">
        <ele>705.91</ele>
        <time>2017-09-23T09:35:22Z</time>
      </trkpt>
      <trkpt lat="48.05716" lon="6.7831">
        <ele>706.09</ele>
        <time>2017-09-23T09:35:23Z</time>
      </trkpt>
      <trkpt lat="48.05719" lon="6.78308">
        <ele>705.99</ele>
        <time>2017-09-23T09:35:24Z</time>
      </trkpt>
      <trkpt lat="48.05723" lon="6.78306">
        <ele>706</ele>
        <time>2017-09-23T09:35:25Z</time>
      </trkpt>
      <trkpt lat="48.05726" lon="6.78305">
        <ele>705.83</ele>
        <time>2017-09-23T09:35:26Z</time>
      </trkpt>
      <trkpt lat="48.0573" lon="6.78304">
        <ele>705.65</ele>
        <time>2017-09-23T09:35:27Z</time>
      </trkpt>
      <trkpt lat="48.05735" lon="6.78304">
        <ele>705.86</ele>
        <time>2017-09-23T09:35:28Z</time>
      </trkpt>
      <trkpt lat="48.05739" lon="6.78305">
        <ele>705.17</ele>
        <time>2017-09-23T09:35:29Z</time>
      </trkpt>
      <trkpt lat="48.05744" lon="6.78308">
        <ele>704.86</ele>
        <time>2017-09-23T09:35:30Z</time>
      </trkpt>
      <trkpt lat="48.05749" lon="6.78312">
        <ele>704.66</ele>
        <time>2017-09-23T09:35:31Z</time>
      </trkpt>
      <trkpt lat="48.05754" lon="6.78319">
        <ele>703.82</ele>
        <time>2017-09-23T09:35:32Z</time>
      </trkpt>
      <trkpt lat="48.05759" lon="6.78328">
        <ele>702.95</ele>
        <time>2017-09-23T09:35:33Z</time>
      </trkpt>
      <trkpt lat="48.05764" lon="6.78338">
        <ele>702.18</ele>
        <time>2017-09-23T09:35:34Z</time>
      </trkpt>
      <trkpt lat="48.05775" lon="6.78359">
        <ele>700.77</ele>
        <time>2017-09-23T09:35:36Z</time>
      </trkpt>
      <trkpt lat="48.05781" lon="6.78368">
        <ele>698.55</ele>
        <time>2017-09-23T09:35:37Z</time>
      </trkpt>
      <trkpt lat="48.05788" lon="6.78376">
        <ele>697.73</ele>
        <time>2017-09-23T09:35:38Z</time>
      </trkpt>
      <trkpt lat="48.05796" lon="6.78383">
        <ele>696.48</ele>
        <time>2017-09-23T09:35:39Z</time>
      </trkpt>
      <trkpt lat="48.05805" lon="6.78388">
        <ele>695.35</ele>
        <time>2017-09-23T09:35:40Z</time>
      </trkpt>
      <trkpt lat="48.0583" lon="6.78405">
        <ele>694</ele>
        <time>2017-09-23T09:35:43Z</time>
      </trkpt>
      <trkpt lat="48.05905" lon="6.78436">
        <ele>690.78</ele>
        <time>2017-09-23T09:35:53Z</time>
      </trkpt>
      <trkpt lat="48.05996" lon="6.78464">
        <ele>689.27</ele>
        <time>2017-09-23T09:36:07Z</time>
      </trkpt>
      <trkpt lat="48.06029" lon="6.78469">
        <ele>688.58</ele>
        <time>2017-09-23T09:36:12Z</time>
      </trkpt>
      <trkpt lat="48.06047" lon="6.78467">
        <ele>687.98</ele>
        <time>2017-09-23T09:36:15Z</time>
      </trkpt>
      <trkpt lat="48.06074" lon="6.78461">
        <ele>687.6</ele>
        <time>2017-09-23T09:36:20Z</time>
      </trkpt>
      <trkpt lat="48.06099" lon="6.78458">
        <ele>686.87</ele>
        <time>2017-09-23T09:36:24Z</time>
      </trkpt>
      <trkpt lat="48.06105" lon="6.78457">
        <ele>686.3</ele>
        <time>2017-09-23T09:36:25Z</time>
      </trkpt>
      <trkpt lat="48.0613" lon="6.78447">
        <ele>686.06</ele>
        <time>2017-09-23T09:36:29Z</time>
      </trkpt>
      <trkpt lat="48.06192" lon="6.78409">
        <ele>685.5</ele>
        <time>2017-09-23T09:36:40Z</time>
      </trkpt>
      <trkpt lat="48.06203" lon="6.78407">
        <ele>685.47</ele>
        <time>2017-09-23T09:36:42Z</time>
      </trkpt>
      <trkpt lat="48.06215" lon="6.78408">
        <ele>685.29</ele>
        <time>2017-09-23T09:36:44Z</time>
      </trkpt>
      <trkpt lat="48.06221" lon="6.78409">
        <ele>685.48</ele>
        <time>2017-09-23T09:36:45Z</time>
      </trkpt>
      <trkpt lat="48.06232" lon="6.78412">
        <ele>685.46</ele>
        <time>2017-09-23T09:36:47Z</time>
      </trkpt>
      <trkpt lat="48.06237" lon="6.78414">
        <ele>685.48</ele>
        <time>2017-09-23T09:36:48Z</time>
      </trkpt>
      <trkpt lat="48.06254" lon="6.78419">
        <ele>685.11</ele>
        <time>2017-09-23T09:36:51Z</time>
      </trkpt>
      <trkpt lat="48.0626" lon="6.7842">
        <ele>684.7</ele>
        <time>2017-09-23T09:36:52Z</time>
      </trkpt>
      <trkpt lat="48.06266" lon="6.78419">
        <ele>684.52</ele>
        <time>2017-09-23T09:36:53Z</time>
      </trkpt>
      <trkpt lat="48.06279" lon="6.78417">
        <ele>684.07</ele>
        <time>2017-09-23T09:36:55Z</time>
      </trkpt>
      <trkpt lat="48.06286" lon="6.78414">
        <ele>683.23</ele>
        <time>2017-09-23T09:36:56Z</time>
      </trkpt>
      <trkpt lat="48.06301" lon="6.78407">
        <ele>682.32</ele>
        <time>2017-09-23T09:36:58Z</time>
      </trkpt>
      <trkpt lat="48.06353" lon="6.78386">
        <ele>679.31</ele>
        <time>2017-09-23T09:37:04Z</time>
      </trkpt>
      <trkpt lat="48.06383" lon="6.78382">
        <ele>676.15</ele>
        <time>2017-09-23T09:37:07Z</time>
      </trkpt>
      <trkpt lat="48.06394" lon="6.7838">
        <ele>676.06</ele>
        <time>2017-09-23T09:37:08Z</time>
      </trkpt>
      <trkpt lat="48.06414" lon="6.78376">
        <ele>674.45</ele>
        <time>2017-09-23T09:37:10Z</time>
      </trkpt>
      <trkpt lat="48.06496" lon="6.78351">
        <ele>674.03</ele>
        <time>2017-09-23T09:37:20Z</time>
      </trkpt>
      <trkpt lat="48.06535" lon="6.78347">
        <ele>673.63</ele>
        <time>2017-09-23T09:37:26Z</time>
      </trkpt>
      <trkpt lat="48.06615" lon="6.78369">
        <ele>670</ele>
        <time>2017-09-23T09:37:38Z</time>
      </trkpt>
      <trkpt lat="48.06637" lon="6.78385">
        <ele>667.82</ele>
        <time>2017-09-23T09:37:41Z</time>
      </trkpt>
      <trkpt lat="48.06651" lon="6.78399">
        <ele>666.71</ele>
        <time>2017-09-23T09:37:43Z</time>
      </trkpt>
      <trkpt lat="48.06658" lon="6.78407">
        <ele>665.97</ele>
        <time>2017-09-23T09:37:44Z</time>
      </trkpt>
      <trkpt lat="48.06664" lon="6.78415">
        <ele>664.85</ele>
        <time>2017-09-23T09:37:45Z</time>
      </trkpt>
      <trkpt lat="48.06676" lon="6.78434">
        <ele>664.27</ele>
        <time>2017-09-23T09:37:47Z</time>
      </trkpt>
      <trkpt lat="48.06713" lon="6.78518">
        <ele>662.92</ele>
        <time>2017-09-23T09:37:55Z</time>
      </trkpt>
      <trkpt lat="48.0672" lon="6.78526">
        <ele>662.6</ele>
        <time>2017-09-23T09:37:56Z</time>
      </trkpt>
      <trkpt lat="48.06739" lon="6.78547">
        <ele>661.79</ele>
        <time>2017-09-23T09:37:59Z</time>
      </trkpt>
      <trkpt lat="48.06759" lon="6.78564">
        <ele>659.48</ele>
        <time>2017-09-23T09:38:02Z</time>
      </trkpt>
      <trkpt lat="48.06766" lon="6.78568">
        <ele>659.39</ele>
        <time>2017-09-23T09:38:03Z</time>
      </trkpt>
      <trkpt lat="48.06773" lon="6.78572">
        <ele>658.05</ele>
        <time>2017-09-23T09:38:04Z</time>
      </trkpt>
      <trkpt lat="48.06781" lon="6.78574">
        <ele>657.32</ele>
        <time>2017-09-23T09:38:05Z</time>
      </trkpt>
      <trkpt lat="48.06788" lon="6.78575">
        <ele>656.5</ele>
        <time>2017-09-23T09:38:06Z</time>
      </trkpt>
      <trkpt lat="48.06795" lon="6.78575">
        <ele>655.65</ele>
        <time>2017-09-23T09:38:07Z</time>
      </trkpt>
      <trkpt lat="48.06802" lon="6.78574">
        <ele>654.47</ele>
        <time>2017-09-23T09:38:08Z</time>
      </trkpt>
      <trkpt lat="48.06807" lon="6.78572">
        <ele>654.27</ele>
        <time>2017-09-23T09:38:09Z</time>
      </trkpt>
      <trkpt lat="48.06814" lon="6.78571">
        <ele>652.73</ele>
        <time>2017-09-23T09:38:11Z</time>
      </trkpt>
      <trkpt lat="48.06815" lon="6.78571">
        <ele>652.95</ele>
        <time>2017-09-23T09:38:12Z</time>
      </trkpt>
      <trkpt lat="48.06817" lon="6.78572">
        <ele>652.69</ele>
        <time>2017-09-23T09:38:13Z</time>
      </trkpt>
      <trkpt lat="48.06818" lon="6.78574">
        <ele>652.07</ele>
        <time>2017-09-23T09:38:14Z</time>
      </trkpt>
      <trkpt lat="48.06827" lon="6.78596">
        <ele>651.37</ele>
        <time>2017-09-23T09:38:19Z</time>
      </trkpt>
      <trkpt lat="48.06839" lon="6.78605">
        <ele>651.84</ele>
        <time>2017-09-23T09:38:22Z</time>
      </trkpt>
      <trkpt lat="48.06875" lon="6.78624">
        <ele>650.82</ele>
        <time>2017-09-23T09:38:29Z</time>
      </trkpt>
      <trkpt lat="48.0689" lon="6.78627">
        <ele>651.02</ele>
        <time>2017-09-23T09:38:32Z</time>
      </trkpt>
      <trkpt lat="48.06909" lon="6.78625">
        <ele>650.67</ele>
        <time>2017-09-23T09:38:36Z</time>
      </trkpt>
      <trkpt lat="48.06924" lon="6.78619">
        <ele>649.36</ele>
        <time>2017-09-23T09:38:39Z</time>
      </trkpt>
      <trkpt lat="48.06935" lon="6.78615">
        <ele>649.14</ele>
        <time>2017-09-23T09:38:41Z</time>
      </trkpt>
      <trkpt lat="48.0695" lon="6.78606">
        <ele>649.21</ele>
        <time>2017-09-23T09:38:44Z</time>
      </trkpt>
      <trkpt lat="48.0696" lon="6.78601">
        <ele>649.67</ele>
        <time>2017-09-23T09:38:46Z</time>
      </trkpt>
      <trkpt lat="48.06998" lon="6.78581">
        <ele>651.23</ele>
        <time>2017-09-23T09:38:54Z</time>
      </trkpt>
      <trkpt lat="48.07017" lon="6.78573">
        <ele>651.5</ele>
        <time>2017-09-23T09:38:58Z</time>
      </trkpt>
      <trkpt lat="48.07067" lon="6.78597">
        <ele>652.66</ele>
        <time>2017-09-23T09:39:08Z</time>
      </trkpt>
      <trkpt lat="48.07119" lon="6.7863">
        <ele>654.69</ele>
        <time>2017-09-23T09:39:20Z</time>
      </trkpt>
      <trkpt lat="48.07122" lon="6.78634">
        <ele>655.03</ele>
        <time>2017-09-23T09:39:21Z</time>
      </trkpt>
      <trkpt lat="48.07124" lon="6.78639">
        <ele>655.31</ele>
        <time>2017-09-23T09:39:22Z</time>
      </trkpt>
      <trkpt lat="48.07133" lon="6.7866">
        <ele>655.5</ele>
        <time>2017-09-23T09:39:26Z</time>
      </trkpt>
      <trkpt lat="48.07136" lon="6.78665">
        <ele>655.44</ele>
        <time>2017-09-23T09:39:27Z</time>
      </trkpt>
      <trkpt lat="48.0714" lon="6.7867">
        <ele>655.8</ele>
        <time>2017-09-23T09:39:28Z</time>
      </trkpt>
      <trkpt lat="48.07143" lon="6.78674">
        <ele>655.95</ele>
        <time>2017-09-23T09:39:29Z</time>
      </trkpt>
      <trkpt lat="48.07146" lon="6.78677">
        <ele>655.9</ele>
        <time>2017-09-23T09:39:30Z</time>
      </trkpt>
      <trkpt lat="48.0715" lon="6.78679">
        <ele>656.06</ele>
        <time>2017-09-23T09:39:31Z</time>
      </trkpt>
      <trkpt lat="48.07153" lon="6.78681">
        <ele>656.25</ele>
        <time>2017-09-23T09:39:32Z</time>
      </trkpt>
      <trkpt lat="48.07157" lon="6.78683">
        <ele>656.68</ele>
        <time>2017-09-23T09:39:33Z</time>
      </trkpt>
      <trkpt lat="48.07161" lon="6.78684">
        <ele>656.67</ele>
        <time>2017-09-23T09:39:34Z</time>
      </trkpt>
      <trkpt lat="48.07165" lon="6.78685">
        <ele>656.64</ele>
        <time>2017-09-23T09:39:35Z</time>
      </trkpt>
      <trkpt lat="48.07177" lon="6.78685">
        <ele>656.82</ele>
        <time>2017-09-23T09:39:38Z</time>
      </trkpt>
      <trkpt lat="48.07181" lon="6.78685">
        <ele>656.4</ele>
        <time>2017-09-23T09:39:39Z</time>
      </trkpt>
      <trkpt lat="48.07185" lon="6.78684">
        <ele>656.34</ele>
        <time>2017-09-23T09:39:40Z</time>
      </trkpt>
      <trkpt lat="48.07188" lon="6.78682">
        <ele>657.2</ele>
        <time>2017-09-23T09:39:41Z</time>
      </trkpt>
      <trkpt lat="48.07191" lon="6.78679">
        <ele>656.95</ele>
        <time>2017-09-23T09:39:42Z</time>
      </trkpt>
      <trkpt lat="48.07194" lon="6.78676">
        <ele>657.13</ele>
        <time>2017-09-23T09:39:43Z</time>
      </trkpt>
      <trkpt lat="48.07197" lon="6.78672">
        <ele>657.66</ele>
        <time>2017-09-23T09:39:44Z</time>
      </trkpt>
      <trkpt lat="48.07199" lon="6.78668">
        <ele>657.35</ele>
        <time>2017-09-23T09:39:45Z</time>
      </trkpt>
      <trkpt lat="48.07229" lon="6.78643">
        <ele>660.7</ele>
        <time>2017-09-23T09:39:55Z</time>
      </trkpt>
      <trkpt lat="48.07263" lon="6.7867">
        <ele>660.74</ele>
        <time>2017-09-23T09:40:07Z</time>
      </trkpt>
      <trkpt lat="48.07291" lon="6.78694">
        <ele>663.15</ele>
        <time>2017-09-23T09:40:17Z</time>
      </trkpt>
      <trkpt lat="48.07325" lon="6.78711">
        <ele>665.73</ele>
        <time>2017-09-23T09:40:32Z</time>
      </trkpt>
      <trkpt lat="48.07328" lon="6.7871">
        <ele>665.6</ele>
        <time>2017-09-23T09:40:48Z</time>
      </trkpt>
      <trkpt lat="48.07334" lon="6.78712">
        <ele>665.6</ele>
        <time>2017-09-23T09:40:57Z</time>
      </trkpt>
      <trkpt lat="48.07336" lon="6.78713">
        <ele>666.35</ele>
        <time>2017-09-23T09:40:58Z</time>
      </trkpt>
      <trkpt lat="48.07338" lon="6.78714">
        <ele>666</ele>
        <time>2017-09-23T09:40:59Z</time>
      </trkpt>
      <trkpt lat="48.07345" lon="6.78718">
        <ele>667.53</ele>
        <time>2017-09-23T09:41:02Z</time>
      </trkpt>
      <trkpt lat="48.07368" lon="6.78734">
        <ele>670.61</ele>
        <time>2017-09-23T09:41:12Z</time>
      </trkpt>
      <trkpt lat="48.07389" lon="6.78774">
        <ele>673.41</ele>
        <time>2017-09-23T09:41:25Z</time>
      </trkpt>
      <trkpt lat="48.07395" lon="6.78805">
        <ele>674.3</ele>
        <time>2017-09-23T09:41:36Z</time>
      </trkpt>
      <trkpt lat="48.07397" lon="6.78806">
        <ele>673.93</ele>
        <time>2017-09-23T09:41:47Z</time>
      </trkpt>
      <trkpt lat="48.07397" lon="6.78804">
        <ele>674.19</ele>
        <time>2017-09-23T09:41:48Z</time>
      </trkpt>
      <trkpt lat="48.07397" lon="6.78803">
        <ele>674.2</ele>
        <time>2017-09-23T09:41:49Z</time>
      </trkpt>
      <trkpt lat="48.07396" lon="6.78801">
        <ele>673.92</ele>
        <time>2017-09-23T09:41:50Z</time>
      </trkpt>
      <trkpt lat="48.07395" lon="6.78799">
        <ele>674.17</ele>
        <time>2017-09-23T09:41:51Z</time>
      </trkpt>
      <trkpt lat="48.07394" lon="6.78797">
        <ele>674.35</ele>
        <time>2017-09-23T09:41:52Z</time>
      </trkpt>
      <trkpt lat="48.07371" lon="6.78777">
        <ele>675.37</ele>
        <time>2017-09-23T09:42:05Z</time>
      </trkpt>
      <trkpt lat="48.07366" lon="6.78773">
        <ele>675.22</ele>
        <time>2017-09-23T09:42:15Z</time>
      </trkpt>
      <trkpt lat="48.07366" lon="6.78772">
        <ele>675.83</ele>
        <time>2017-09-23T09:42:33Z</time>
      </trkpt>
      <trkpt lat="48.07367" lon="6.78773">
        <ele>675.52</ele>
        <time>2017-09-23T09:42:35Z</time>
      </trkpt>
      <trkpt lat="48.07368" lon="6.78774">
        <ele>675.36</ele>
        <time>2017-09-23T09:42:36Z</time>
      </trkpt>
      <trkpt lat="48.07369" lon="6.78775">
        <ele>675.19</ele>
        <time>2017-09-23T09:42:37Z</time>
      </trkpt>
      <trkpt lat="48.0737" lon="6.78775">
        <ele>675.31</ele>
        <time>2017-09-23T09:42:38Z</time>
      </trkpt>
      <trkpt lat="48.07371" lon="6.78775">
        <ele>675</ele>
        <time>2017-09-23T09:42:39Z</time>
      </trkpt>
      <trkpt lat="48.07384" lon="6.78785">
        <ele>674.27</ele>
        <time>2017-09-23T09:42:53Z</time>
      </trkpt>
      <trkpt lat="48.07385" lon="6.78786">
        <ele>673.97</ele>
        <time>2017-09-23T09:42:54Z</time>
      </trkpt>
      <trkpt lat="48.07386" lon="6.78787">
        <ele>673.68</ele>
        <time>2017-09-23T09:42:55Z</time>
      </trkpt>
      <trkpt lat="48.07396" lon="6.78798">
        <ele>672.68</ele>
        <time>2017-09-23T09:43:13Z</time>
      </trkpt>
      <trkpt lat="48.07396" lon="6.78796">
        <ele>672.65</ele>
        <time>2017-09-23T09:43:16Z</time>
      </trkpt>
      <trkpt lat="48.07396" lon="6.78794">
        <ele>672.65</ele>
        <time>2017-09-23T09:43:17Z</time>
      </trkpt>
      <trkpt lat="48.07395" lon="6.78791">
        <ele>672.49</ele>
        <time>2017-09-23T09:43:18Z</time>
      </trkpt>
      <trkpt lat="48.07395" lon="6.78789">
        <ele>672.37</ele>
        <time>2017-09-23T09:43:19Z</time>
      </trkpt>
      <trkpt lat="48.07394" lon="6.78786">
        <ele>672.34</ele>
        <time>2017-09-23T09:43:20Z</time>
      </trkpt>
      <trkpt lat="48.07374" lon="6.78742">
        <ele>670.08</ele>
        <time>2017-09-23T09:43:38Z</time>
      </trkpt>
      <trkpt lat="48.07368" lon="6.78734">
        <ele>668.72</ele>
        <time>2017-09-23T09:43:43Z</time>
      </trkpt>
      <trkpt lat="48.07368" lon="6.78733">
        <ele>668.79</ele>
        <time>2017-09-23T09:44:02Z</time>
      </trkpt>
      <trkpt lat="48.0737" lon="6.78738">
        <ele>669.23</ele>
        <time>2017-09-23T09:44:15Z</time>
      </trkpt>
      <trkpt lat="48.07371" lon="6.78738">
        <ele>669.31</ele>
        <time>2017-09-23T09:44:16Z</time>
      </trkpt>
      <trkpt lat="48.07372" lon="6.7874">
        <ele>669.39</ele>
        <time>2017-09-23T09:44:17Z</time>
      </trkpt>
      <trkpt lat="48.07374" lon="6.78742">
        <ele>669.95</ele>
        <time>2017-09-23T09:44:18Z</time>
      </trkpt>
      <trkpt lat="48.07376" lon="6.78745">
        <ele>670.21</ele>
        <time>2017-09-23T09:44:19Z</time>
      </trkpt>
      <trkpt lat="48.07377" lon="6.78747">
        <ele>669.88</ele>
        <time>2017-09-23T09:44:20Z</time>
      </trkpt>
      <trkpt lat="48.07379" lon="6.7875">
        <ele>670.43</ele>
        <time>2017-09-23T09:44:21Z</time>
      </trkpt>
      <trkpt lat="48.0738" lon="6.78753">
        <ele>670.33</ele>
        <time>2017-09-23T09:44:22Z</time>
      </trkpt>
      <trkpt lat="48.07382" lon="6.78756">
        <ele>670.85</ele>
        <time>2017-09-23T09:44:23Z</time>
      </trkpt>
      <trkpt lat="48.07397" lon="6.78798">
        <ele>672.4</ele>
        <time>2017-09-23T09:44:36Z</time>
      </trkpt>
      <trkpt lat="48.07397" lon="6.78801">
        <ele>672.55</ele>
        <time>2017-09-23T09:44:48Z</time>
      </trkpt>
      <trkpt lat="48.07397" lon="6.78805">
        <ele>672.67</ele>
        <time>2017-09-23T09:44:57Z</time>
      </trkpt>
      <trkpt lat="48.07398" lon="6.78812">
        <ele>672.81</ele>
        <time>2017-09-23T09:44:59Z</time>
      </trkpt>
      <trkpt lat="48.07398" lon="6.78817">
        <ele>672.91</ele>
        <time>2017-09-23T09:45:00Z</time>
      </trkpt>
      <trkpt lat="48.07399" lon="6.78821">
        <ele>672.67</ele>
        <time>2017-09-23T09:45:01Z</time>
      </trkpt>
      <trkpt lat="48.074" lon="6.78825">
        <ele>672.26</ele>
        <time>2017-09-23T09:45:02Z</time>
      </trkpt>
      <trkpt lat="48.07401" lon="6.78829">
        <ele>672.72</ele>
        <time>2017-09-23T09:45:03Z</time>
      </trkpt>
      <trkpt lat="48.07402" lon="6.78834">
        <ele>672.77</ele>
        <time>2017-09-23T09:45:04Z</time>
      </trkpt>
      <trkpt lat="48.07402" lon="6.78839">
        <ele>672.99</ele>
        <time>2017-09-23T09:45:05Z</time>
      </trkpt>
      <trkpt lat="48.07409" lon="6.78895">
        <ele>672.54</ele>
        <time>2017-09-23T09:45:16Z</time>
      </trkpt>
      <trkpt lat="48.07423" lon="6.78947">
        <ele>672.71</ele>
        <time>2017-09-23T09:45:29Z</time>
      </trkpt>
      <trkpt lat="48.07426" lon="6.78952">
        <ele>673.03</ele>
        <time>2017-09-23T09:45:33Z</time>
      </trkpt>
      <trkpt lat="48.07426" lon="6.78952">
        <ele>672.44</ele>
        <time>2017-09-23T09:45:34Z</time>
      </trkpt>
      <trkpt lat="48.07428" lon="6.78952">
        <ele>672.35</ele>
        <time>2017-09-23T09:45:35Z</time>
      </trkpt>
      <trkpt lat="48.07457" lon="6.78962">
        <ele>672.32</ele>
        <time>2017-09-23T09:45:52Z</time>
      </trkpt>
      <trkpt lat="48.07494" lon="6.79008">
        <ele>669.51</ele>
        <time>2017-09-23T09:46:03Z</time>
      </trkpt>
      <trkpt lat="48.075" lon="6.79012">
        <ele>668.72</ele>
        <time>2017-09-23T09:46:04Z</time>
      </trkpt>
      <trkpt lat="48.07506" lon="6.79015">
        <ele>668.24</ele>
        <time>2017-09-23T09:46:05Z</time>
      </trkpt>
      <trkpt lat="48.07512" lon="6.79017">
        <ele>667.82</ele>
        <time>2017-09-23T09:46:06Z</time>
      </trkpt>
      <trkpt lat="48.07518" lon="6.79017">
        <ele>666.79</ele>
        <time>2017-09-23T09:46:07Z</time>
      </trkpt>
      <trkpt lat="48.07522" lon="6.79016">
        <ele>666.23</ele>
        <time>2017-09-23T09:46:08Z</time>
      </trkpt>
      <trkpt lat="48.07527" lon="6.79015">
        <ele>666.1</ele>
        <time>2017-09-23T09:46:09Z</time>
      </trkpt>
      <trkpt lat="48.07532" lon="6.79011">
        <ele>665.71</ele>
        <time>2017-09-23T09:46:10Z</time>
      </trkpt>
      <trkpt lat="48.07537" lon="6.79007">
        <ele>665.82</ele>
        <time>2017-09-23T09:46:11Z</time>
      </trkpt>
      <trkpt lat="48.07542" lon="6.79002">
        <ele>665.38</ele>
        <time>2017-09-23T09:46:12Z</time>
      </trkpt>
      <trkpt lat="48.07547" lon="6.78995">
        <ele>664.73</ele>
        <time>2017-09-23T09:46:13Z</time>
      </trkpt>
      <trkpt lat="48.07552" lon="6.78988">
        <ele>664.74</ele>
        <time>2017-09-23T09:46:14Z</time>
      </trkpt>
      <trkpt lat="48.07557" lon="6.7898">
        <ele>664.41</ele>
        <time>2017-09-23T09:46:15Z</time>
      </trkpt>
      <trkpt lat="48.07561" lon="6.78971">
        <ele>664.14</ele>
        <time>2017-09-23T09:46:16Z</time>
      </trkpt>
      <trkpt lat="48.07592" lon="6.78906">
        <ele>660.66</ele>
        <time>2017-09-23T09:46:24Z</time>
      </trkpt>
      <trkpt lat="48.07595" lon="6.78901">
        <ele>659.96</ele>
        <time>2017-09-23T09:46:25Z</time>
      </trkpt>
      <trkpt lat="48.07598" lon="6.78896">
        <ele>659.73</ele>
        <time>2017-09-23T09:46:26Z</time>
      </trkpt>
      <trkpt lat="48.0761" lon="6.78878">
        <ele>658.82</ele>
        <time>2017-09-23T09:46:30Z</time>
      </trkpt>
      <trkpt lat="48.07612" lon="6.78872">
        <ele>658.15</ele>
        <time>2017-09-23T09:46:31Z</time>
      </trkpt>
      <trkpt lat="48.07615" lon="6.78866">
        <ele>657.79</ele>
        <time>2017-09-23T09:46:32Z</time>
      </trkpt>
      <trkpt lat="48.07617" lon="6.78859">
        <ele>656.97</ele>
        <time>2017-09-23T09:46:33Z</time>
      </trkpt>
      <trkpt lat="48.07618" lon="6.78853">
        <ele>656.4</ele>
        <time>2017-09-23T09:46:34Z</time>
      </trkpt>
      <trkpt lat="48.07618" lon="6.78848">
        <ele>655.57</ele>
        <time>2017-09-23T09:46:35Z</time>
      </trkpt>
      <trkpt lat="48.07617" lon="6.78845">
        <ele>655.38</ele>
        <time>2017-09-23T09:46:36Z</time>
      </trkpt>
      <trkpt lat="48.07616" lon="6.78843">
        <ele>655.22</ele>
        <time>2017-09-23T09:46:37Z</time>
      </trkpt>
      <trkpt lat="48.07616" lon="6.78842">
        <ele>654.64</ele>
        <time>2017-09-23T09:46:51Z</time>
      </trkpt>
      <trkpt lat="48.07615" lon="6.78842">
        <ele>654.9</ele>
        <time>2017-09-23T09:47:07Z</time>
      </trkpt>
      <trkpt lat="48.07614" lon="6.78842">
        <ele>654.88</ele>
        <time>2017-09-23T09:47:52Z</time>
      </trkpt>
      <trkpt lat="48.07615" lon="6.78845">
        <ele>654.2</ele>
        <time>2017-09-23T09:48:23Z</time>
      </trkpt>
      <trkpt lat="48.07615" lon="6.78846">
        <ele>654.41</ele>
        <time>2017-09-23T09:48:54Z</time>
      </trkpt>
      <trkpt lat="48.07616" lon="6.78845">
        <ele>654.06</ele>
        <time>2017-09-23T09:49:24Z</time>
      </trkpt>
      <trkpt lat="48.07614" lon="6.78845">
        <ele>654.28</ele>
        <time>2017-09-23T09:49:52Z</time>
      </trkpt>
      <trkpt lat="48.07614" lon="6.78849">
        <ele>654.9</ele>
        <time>2017-09-23T09:50:01Z</time>
      </trkpt>
      <trkpt lat="48.07615" lon="6.78852">
        <ele>654.92</ele>
        <time>2017-09-23T09:50:02Z</time>
      </trkpt>
      <trkpt lat="48.07615" lon="6.78854">
        <ele>655.4</ele>
        <time>2017-09-23T09:50:03Z</time>
      </trkpt>
      <trkpt lat="48.07615" lon="6.78859">
        <ele>655.41</ele>
        <time>2017-09-23T09:50:05Z</time>
      </trkpt>
      <trkpt lat="48.07614" lon="6.78861">
        <ele>655.48</ele>
        <time>2017-09-23T09:50:06Z</time>
      </trkpt>
      <trkpt lat="48.07613" lon="6.78864">
        <ele>655.83</ele>
        <time>2017-09-23T09:50:07Z</time>
      </trkpt>
      <trkpt lat="48.07612" lon="6.78868">
        <ele>656.3</ele>
        <time>2017-09-23T09:50:08Z</time>
      </trkpt>
      <trkpt lat="48.07611" lon="6.78871">
        <ele>656.21</ele>
        <time>2017-09-23T09:50:09Z</time>
      </trkpt>
      <trkpt lat="48.07591" lon="6.78912">
        <ele>659.46</ele>
        <time>2017-09-23T09:50:22Z</time>
      </trkpt>
      <trkpt lat="48.07563" lon="6.78967">
        <ele>661.49</ele>
        <time>2017-09-23T09:50:38Z</time>
      </trkpt>
      <trkpt lat="48.07536" lon="6.79007">
        <ele>663.95</ele>
        <time>2017-09-23T09:50:52Z</time>
      </trkpt>
      <trkpt lat="48.07495" lon="6.79008">
        <ele>667.03</ele>
        <time>2017-09-23T09:51:07Z</time>
      </trkpt>
      <trkpt lat="48.07467" lon="6.78977">
        <ele>670.14</ele>
        <time>2017-09-23T09:51:20Z</time>
      </trkpt>
      <trkpt lat="48.07427" lon="6.78948">
        <ele>671.21</ele>
        <time>2017-09-23T09:51:36Z</time>
      </trkpt>
      <trkpt lat="48.07392" lon="6.78949">
        <ele>672.07</ele>
        <time>2017-09-23T09:51:49Z</time>
      </trkpt>
      <trkpt lat="48.07357" lon="6.78985">
        <ele>674.07</ele>
        <time>2017-09-23T09:52:02Z</time>
      </trkpt>
      <trkpt lat="48.07298" lon="6.7902">
        <ele>675.91</ele>
        <time>2017-09-23T09:52:18Z</time>
      </trkpt>
      <trkpt lat="48.07278" lon="6.79035">
        <ele>676.69</ele>
        <time>2017-09-23T09:52:23Z</time>
      </trkpt>
      <trkpt lat="48.07249" lon="6.79068">
        <ele>676.83</ele>
        <time>2017-09-23T09:52:31Z</time>
      </trkpt>
      <trkpt lat="48.07247" lon="6.79073">
        <ele>676.86</ele>
        <time>2017-09-23T09:52:32Z</time>
      </trkpt>
      <trkpt lat="48.07244" lon="6.79079">
        <ele>676.82</ele>
        <time>2017-09-23T09:52:33Z</time>
      </trkpt>
      <trkpt lat="48.07239" lon="6.7909">
        <ele>676.94</ele>
        <time>2017-09-23T09:52:35Z</time>
      </trkpt>
      <trkpt lat="48.07237" lon="6.79096">
        <ele>676.65</ele>
        <time>2017-09-23T09:52:36Z</time>
      </trkpt>
      <trkpt lat="48.07224" lon="6.7915">
        <ele>677.63</ele>
        <time>2017-09-23T09:52:45Z</time>
      </trkpt>
      <trkpt lat="48.07218" lon="6.79166">
        <ele>677.9</ele>
        <time>2017-09-23T09:52:48Z</time>
      </trkpt>
      <trkpt lat="48.07215" lon="6.79171">
        <ele>677.85</ele>
        <time>2017-09-23T09:52:49Z</time>
      </trkpt>
      <trkpt lat="48.07213" lon="6.79176">
        <ele>678.08</ele>
        <time>2017-09-23T09:52:50Z</time>
      </trkpt>
      <trkpt lat="48.07168" lon="6.79272">
        <ele>676.88</ele>
        <time>2017-09-23T09:53:06Z</time>
      </trkpt>
      <trkpt lat="48.07146" lon="6.79363">
        <ele>676.1</ele>
        <time>2017-09-23T09:53:17Z</time>
      </trkpt>
      <trkpt lat="48.07122" lon="6.79481">
        <ele>675.48</ele>
        <time>2017-09-23T09:53:30Z</time>
      </trkpt>
      <trkpt lat="48.07105" lon="6.79551">
        <ele>674.92</ele>
        <time>2017-09-23T09:53:38Z</time>
      </trkpt>
      <trkpt lat="48.07103" lon="6.7956">
        <ele>674.9</ele>
        <time>2017-09-23T09:53:39Z</time>
      </trkpt>
      <trkpt lat="48.07102" lon="6.79569">
        <ele>675.32</ele>
        <time>2017-09-23T09:53:40Z</time>
      </trkpt>
      <trkpt lat="48.07087" lon="6.79636">
        <ele>675.84</ele>
        <time>2017-09-23T09:53:48Z</time>
      </trkpt>
      <trkpt lat="48.07086" lon="6.79644">
        <ele>675.5</ele>
        <time>2017-09-23T09:53:49Z</time>
      </trkpt>
      <trkpt lat="48.07073" lon="6.79739">
        <ele>674.17</ele>
        <time>2017-09-23T09:53:59Z</time>
      </trkpt>
      <trkpt lat="48.07072" lon="6.79769">
        <ele>674.27</ele>
        <time>2017-09-23T09:54:02Z</time>
      </trkpt>
      <trkpt lat="48.07069" lon="6.79839">
        <ele>675.55</ele>
        <time>2017-09-23T09:54:10Z</time>
      </trkpt>
      <trkpt lat="48.07066" lon="6.79875">
        <ele>676.03</ele>
        <time>2017-09-23T09:54:15Z</time>
      </trkpt>
      <trkpt lat="48.07065" lon="6.79908">
        <ele>677.06</ele>
        <time>2017-09-23T09:54:20Z</time>
      </trkpt>
      <trkpt lat="48.07064" lon="6.79915">
        <ele>677.46</ele>
        <time>2017-09-23T09:54:21Z</time>
      </trkpt>
      <trkpt lat="48.07063" lon="6.79921">
        <ele>677.9</ele>
        <time>2017-09-23T09:54:22Z</time>
      </trkpt>
      <trkpt lat="48.07059" lon="6.79973">
        <ele>679.13</ele>
        <time>2017-09-23T09:54:29Z</time>
      </trkpt>
      <trkpt lat="48.07053" lon="6.80012">
        <ele>679.67</ele>
        <time>2017-09-23T09:54:34Z</time>
      </trkpt>
      <trkpt lat="48.0704" lon="6.80085">
        <ele>679.06</ele>
        <time>2017-09-23T09:54:43Z</time>
      </trkpt>
      <trkpt lat="48.07015" lon="6.80168">
        <ele>675.84</ele>
        <time>2017-09-23T09:54:52Z</time>
      </trkpt>
      <trkpt lat="48.07011" lon="6.8018">
        <ele>675.98</ele>
        <time>2017-09-23T09:54:53Z</time>
      </trkpt>
      <trkpt lat="48.06999" lon="6.80219">
        <ele>673.84</ele>
        <time>2017-09-23T09:54:56Z</time>
      </trkpt>
      <trkpt lat="48.06986" lon="6.80262">
        <ele>670.46</ele>
        <time>2017-09-23T09:54:59Z</time>
      </trkpt>
      <trkpt lat="48.06968" lon="6.80344">
        <ele>667.68</ele>
        <time>2017-09-23T09:55:04Z</time>
      </trkpt>
      <trkpt lat="48.06959" lon="6.80378">
        <ele>663.74</ele>
        <time>2017-09-23T09:55:06Z</time>
      </trkpt>
      <trkpt lat="48.06946" lon="6.80433">
        <ele>661.21</ele>
        <time>2017-09-23T09:55:09Z</time>
      </trkpt>
      <trkpt lat="48.06937" lon="6.80472">
        <ele>658.09</ele>
        <time>2017-09-23T09:55:11Z</time>
      </trkpt>
      <trkpt lat="48.06933" lon="6.80491">
        <ele>657.98</ele>
        <time>2017-09-23T09:55:12Z</time>
      </trkpt>
      <trkpt lat="48.06925" lon="6.80548">
        <ele>654.03</ele>
        <time>2017-09-23T09:55:15Z</time>
      </trkpt>
      <trkpt lat="48.06917" lon="6.80622">
        <ele>650.78</ele>
        <time>2017-09-23T09:55:19Z</time>
      </trkpt>
      <trkpt lat="48.06918" lon="6.80639">
        <ele>649.92</ele>
        <time>2017-09-23T09:55:20Z</time>
      </trkpt>
      <trkpt lat="48.06917" lon="6.80657">
        <ele>649.92</ele>
        <time>2017-09-23T09:55:21Z</time>
      </trkpt>
      <trkpt lat="48.06898" lon="6.80784">
        <ele>648.13</ele>
        <time>2017-09-23T09:55:30Z</time>
      </trkpt>
      <trkpt lat="48.06896" lon="6.80796">
        <ele>647.55</ele>
        <time>2017-09-23T09:55:31Z</time>
      </trkpt>
      <trkpt lat="48.06892" lon="6.80819">
        <ele>646.93</ele>
        <time>2017-09-23T09:55:33Z</time>
      </trkpt>
      <trkpt lat="48.0689" lon="6.80888">
        <ele>646.08</ele>
        <time>2017-09-23T09:55:40Z</time>
      </trkpt>
      <trkpt lat="48.06889" lon="6.80895">
        <ele>646.27</ele>
        <time>2017-09-23T09:55:41Z</time>
      </trkpt>
      <trkpt lat="48.06885" lon="6.80929">
        <ele>645.79</ele>
        <time>2017-09-23T09:55:46Z</time>
      </trkpt>
      <trkpt lat="48.06886" lon="6.80935">
        <ele>645.08</ele>
        <time>2017-09-23T09:55:47Z</time>
      </trkpt>
      <trkpt lat="48.06887" lon="6.80941">
        <ele>645.11</ele>
        <time>2017-09-23T09:55:48Z</time>
      </trkpt>
      <trkpt lat="48.06889" lon="6.80947">
        <ele>645.3</ele>
        <time>2017-09-23T09:55:49Z</time>
      </trkpt>
      <trkpt lat="48.06891" lon="6.80953">
        <ele>645.28</ele>
        <time>2017-09-23T09:55:50Z</time>
      </trkpt>
      <trkpt lat="48.06893" lon="6.8096">
        <ele>645.71</ele>
        <time>2017-09-23T09:55:51Z</time>
      </trkpt>
      <trkpt lat="48.06897" lon="6.80966">
        <ele>645.38</ele>
        <time>2017-09-23T09:55:52Z</time>
      </trkpt>
      <trkpt lat="48.069" lon="6.80972">
        <ele>645.37</ele>
        <time>2017-09-23T09:55:53Z</time>
      </trkpt>
      <trkpt lat="48.06904" lon="6.80977">
        <ele>645.38</ele>
        <time>2017-09-23T09:55:54Z</time>
      </trkpt>
      <trkpt lat="48.06908" lon="6.80981">
        <ele>644.62</ele>
        <time>2017-09-23T09:55:55Z</time>
      </trkpt>
      <trkpt lat="48.06913" lon="6.80985">
        <ele>645.07</ele>
        <time>2017-09-23T09:55:56Z</time>
      </trkpt>
      <trkpt lat="48.06917" lon="6.80988">
        <ele>645.12</ele>
        <time>2017-09-23T09:55:57Z</time>
      </trkpt>
      <trkpt lat="48.06974" lon="6.81039">
        <ele>646.01</ele>
        <time>2017-09-23T09:56:14Z</time>
      </trkpt>
      <trkpt lat="48.07002" lon="6.81089">
        <ele>645.72</ele>
        <time>2017-09-23T09:56:29Z</time>
      </trkpt>
      <trkpt lat="48.0702" lon="6.81142">
        <ele>646.67</ele>
        <time>2017-09-23T09:56:43Z</time>
      </trkpt>
      <trkpt lat="48.07034" lon="6.812">
        <ele>646.54</ele>
        <time>2017-09-23T09:56:54Z</time>
      </trkpt>
      <trkpt lat="48.07034" lon="6.81207">
        <ele>646.45</ele>
        <time>2017-09-23T09:56:55Z</time>
      </trkpt>
      <trkpt lat="48.07035" lon="6.81242">
        <ele>648.9</ele>
        <time>2017-09-23T09:57:01Z</time>
      </trkpt>
      <trkpt lat="48.07033" lon="6.81283">
        <ele>650.52</ele>
        <time>2017-09-23T09:57:08Z</time>
      </trkpt>
      <trkpt lat="48.07033" lon="6.81289">
        <ele>650.62</ele>
        <time>2017-09-23T09:57:09Z</time>
      </trkpt>
      <trkpt lat="48.07038" lon="6.81374">
        <ele>652.87</ele>
        <time>2017-09-23T09:57:24Z</time>
      </trkpt>
      <trkpt lat="48.07039" lon="6.81405">
        <ele>651.56</ele>
        <time>2017-09-23T09:57:29Z</time>
      </trkpt>
      <trkpt lat="48.0704" lon="6.81412">
        <ele>652.02</ele>
        <time>2017-09-23T09:57:30Z</time>
      </trkpt>
      <trkpt lat="48.07041" lon="6.81419">
        <ele>651.83</ele>
        <time>2017-09-23T09:57:31Z</time>
      </trkpt>
      <trkpt lat="48.07043" lon="6.81425">
        <ele>651.78</ele>
        <time>2017-09-23T09:57:32Z</time>
      </trkpt>
      <trkpt lat="48.07045" lon="6.81431">
        <ele>651.98</ele>
        <time>2017-09-23T09:57:33Z</time>
      </trkpt>
      <trkpt lat="48.07047" lon="6.81437">
        <ele>651.84</ele>
        <time>2017-09-23T09:57:34Z</time>
      </trkpt>
      <trkpt lat="48.0705" lon="6.81442">
        <ele>650.71</ele>
        <time>2017-09-23T09:57:35Z</time>
      </trkpt>
      <trkpt lat="48.07053" lon="6.81447">
        <ele>651.53</ele>
        <time>2017-09-23T09:57:36Z</time>
      </trkpt>
      <trkpt lat="48.07057" lon="6.81452">
        <ele>650.44</ele>
        <time>2017-09-23T09:57:37Z</time>
      </trkpt>
      <trkpt lat="48.07061" lon="6.81457">
        <ele>650.85</ele>
        <time>2017-09-23T09:57:38Z</time>
      </trkpt>
      <trkpt lat="48.07073" lon="6.81481">
        <ele>648.93</ele>
        <time>2017-09-23T09:57:42Z</time>
      </trkpt>
      <trkpt lat="48.07074" lon="6.81488">
        <ele>649.31</ele>
        <time>2017-09-23T09:57:43Z</time>
      </trkpt>
      <trkpt lat="48.07074" lon="6.81496">
        <ele>649.71</ele>
        <time>2017-09-23T09:57:44Z</time>
      </trkpt>
      <trkpt lat="48.07074" lon="6.81504">
        <ele>649.69</ele>
        <time>2017-09-23T09:57:45Z</time>
      </trkpt>
      <trkpt lat="48.07074" lon="6.81511">
        <ele>649.78</ele>
        <time>2017-09-23T09:57:46Z</time>
      </trkpt>
      <trkpt lat="48.07073" lon="6.81519">
        <ele>648.89</ele>
        <time>2017-09-23T09:57:47Z</time>
      </trkpt>
      <trkpt lat="48.07072" lon="6.81526">
        <ele>649.88</ele>
        <time>2017-09-23T09:57:48Z</time>
      </trkpt>
      <trkpt lat="48.0707" lon="6.81534">
        <ele>649.9</ele>
        <time>2017-09-23T09:57:49Z</time>
      </trkpt>
      <trkpt lat="48.07067" lon="6.81541">
        <ele>650.07</ele>
        <time>2017-09-23T09:57:50Z</time>
      </trkpt>
      <trkpt lat="48.07065" lon="6.81547">
        <ele>649.62</ele>
        <time>2017-09-23T09:57:51Z</time>
      </trkpt>
      <trkpt lat="48.07062" lon="6.81552">
        <ele>649.45</ele>
        <time>2017-09-23T09:57:52Z</time>
      </trkpt>
      <trkpt lat="48.07059" lon="6.81557">
        <ele>650.12</ele>
        <time>2017-09-23T09:57:53Z</time>
      </trkpt>
      <trkpt lat="48.07052" lon="6.81568">
        <ele>650.63</ele>
        <time>2017-09-23T09:57:55Z</time>
      </trkpt>
      <trkpt lat="48.07037" lon="6.81586">
        <ele>651.8</ele>
        <time>2017-09-23T09:57:59Z</time>
      </trkpt>
      <trkpt lat="48.07008" lon="6.81623">
        <ele>654.9</ele>
        <time>2017-09-23T09:58:08Z</time>
      </trkpt>
      <trkpt lat="48.07003" lon="6.81632">
        <ele>655.55</ele>
        <time>2017-09-23T09:58:10Z</time>
      </trkpt>
      <trkpt lat="48.07" lon="6.81637">
        <ele>656.14</ele>
        <time>2017-09-23T09:58:11Z</time>
      </trkpt>
      <trkpt lat="48.06997" lon="6.81642">
        <ele>656.29</ele>
        <time>2017-09-23T09:58:12Z</time>
      </trkpt>
      <trkpt lat="48.06992" lon="6.81658">
        <ele>656.96</ele>
        <time>2017-09-23T09:58:15Z</time>
      </trkpt>
      <trkpt lat="48.06991" lon="6.81664">
        <ele>657.53</ele>
        <time>2017-09-23T09:58:16Z</time>
      </trkpt>
      <trkpt lat="48.06988" lon="6.81675">
        <ele>658.09</ele>
        <time>2017-09-23T09:58:18Z</time>
      </trkpt>
      <trkpt lat="48.06986" lon="6.81681">
        <ele>658.31</ele>
        <time>2017-09-23T09:58:19Z</time>
      </trkpt>
      <trkpt lat="48.0697" lon="6.81739">
        <ele>661.37</ele>
        <time>2017-09-23T09:58:30Z</time>
      </trkpt>
      <trkpt lat="48.06953" lon="6.81803">
        <ele>664.5</ele>
        <time>2017-09-23T09:58:43Z</time>
      </trkpt>
      <trkpt lat="48.06937" lon="6.81851">
        <ele>667.59</ele>
        <time>2017-09-23T09:58:54Z</time>
      </trkpt>
      <trkpt lat="48.06931" lon="6.81907">
        <ele>670.69</ele>
        <time>2017-09-23T09:59:06Z</time>
      </trkpt>
      <trkpt lat="48.06928" lon="6.81964">
        <ele>673.78</ele>
        <time>2017-09-23T09:59:18Z</time>
      </trkpt>
      <trkpt lat="48.06929" lon="6.82022">
        <ele>676.15</ele>
        <time>2017-09-23T09:59:30Z</time>
      </trkpt>
      <trkpt lat="48.06931" lon="6.82077">
        <ele>678.58</ele>
        <time>2017-09-23T09:59:42Z</time>
      </trkpt>
      <trkpt lat="48.06933" lon="6.8213">
        <ele>682.01</ele>
        <time>2017-09-23T09:59:53Z</time>
      </trkpt>
      <trkpt lat="48.0693" lon="6.82185">
        <ele>684.69</ele>
        <time>2017-09-23T10:00:05Z</time>
      </trkpt>
      <trkpt lat="48.06929" lon="6.82239">
        <ele>687.16</ele>
        <time>2017-09-23T10:00:15Z</time>
      </trkpt>
      <trkpt lat="48.06936" lon="6.82292">
        <ele>690.25</ele>
        <time>2017-09-23T10:00:25Z</time>
      </trkpt>
      <trkpt lat="48.06938" lon="6.82301">
        <ele>691.18</ele>
        <time>2017-09-23T10:00:27Z</time>
      </trkpt>
      <trkpt lat="48.06946" lon="6.82367">
        <ele>693.79</ele>
        <time>2017-09-23T10:00:41Z</time>
      </trkpt>
      <trkpt lat="48.06951" lon="6.82419">
        <ele>696.99</ele>
        <time>2017-09-23T10:00:51Z</time>
      </trkpt>
      <trkpt lat="48.06953" lon="6.82479">
        <ele>699.87</ele>
        <time>2017-09-23T10:01:04Z</time>
      </trkpt>
      <trkpt lat="48.06955" lon="6.82529">
        <ele>702.93</ele>
        <time>2017-09-23T10:01:16Z</time>
      </trkpt>
      <trkpt lat="48.06951" lon="6.82601">
        <ele>705.81</ele>
        <time>2017-09-23T10:01:31Z</time>
      </trkpt>
      <trkpt lat="48.06947" lon="6.82666">
        <ele>707.4</ele>
        <time>2017-09-23T10:01:44Z</time>
      </trkpt>
      <trkpt lat="48.0694" lon="6.82724">
        <ele>708.61</ele>
        <time>2017-09-23T10:01:55Z</time>
      </trkpt>
      <trkpt lat="48.06937" lon="6.82791">
        <ele>710.02</ele>
        <time>2017-09-23T10:02:06Z</time>
      </trkpt>
      <trkpt lat="48.06932" lon="6.82855">
        <ele>710.71</ele>
        <time>2017-09-23T10:02:19Z</time>
      </trkpt>
      <trkpt lat="48.0693" lon="6.82861">
        <ele>711.18</ele>
        <time>2017-09-23T10:02:21Z</time>
      </trkpt>
      <trkpt lat="48.06925" lon="6.8285">
        <ele>712.14</ele>
        <time>2017-09-23T10:02:26Z</time>
      </trkpt>
      <trkpt lat="48.06926" lon="6.82784">
        <ele>713.07</ele>
        <time>2017-09-23T10:02:39Z</time>
      </trkpt>
      <trkpt lat="48.06924" lon="6.8274">
        <ele>713.78</ele>
        <time>2017-09-23T10:02:51Z</time>
      </trkpt>
      <trkpt lat="48.06923" lon="6.8269">
        <ele>715.26</ele>
        <time>2017-09-23T10:03:02Z</time>
      </trkpt>
      <trkpt lat="48.06926" lon="6.82635">
        <ele>716.65</ele>
        <time>2017-09-23T10:03:13Z</time>
      </trkpt>
      <trkpt lat="48.06926" lon="6.82583">
        <ele>716.98</ele>
        <time>2017-09-23T10:03:23Z</time>
      </trkpt>
      <trkpt lat="48.0692" lon="6.82524">
        <ele>719.09</ele>
        <time>2017-09-23T10:03:35Z</time>
      </trkpt>
      <trkpt lat="48.06906" lon="6.8246">
        <ele>720.6</ele>
        <time>2017-09-23T10:03:47Z</time>
      </trkpt>
      <trkpt lat="48.06903" lon="6.8243">
        <ele>721.55</ele>
        <time>2017-09-23T10:03:52Z</time>
      </trkpt>
      <trkpt lat="48.06902" lon="6.82425">
        <ele>720.79</ele>
        <time>2017-09-23T10:03:53Z</time>
      </trkpt>
      <trkpt lat="48.0688" lon="6.82344">
        <ele>723.54</ele>
        <time>2017-09-23T10:04:09Z</time>
      </trkpt>
      <trkpt lat="48.0686" lon="6.82292">
        <ele>725.38</ele>
        <time>2017-09-23T10:04:21Z</time>
      </trkpt>
      <trkpt lat="48.06841" lon="6.82227">
        <ele>727.44</ele>
        <time>2017-09-23T10:04:33Z</time>
      </trkpt>
      <trkpt lat="48.06818" lon="6.82144">
        <ele>730.23</ele>
        <time>2017-09-23T10:04:49Z</time>
      </trkpt>
      <trkpt lat="48.06786" lon="6.82095">
        <ele>732.75</ele>
        <time>2017-09-23T10:05:01Z</time>
      </trkpt>
      <trkpt lat="48.06765" lon="6.82046">
        <ele>734.84</ele>
        <time>2017-09-23T10:05:11Z</time>
      </trkpt>
      <trkpt lat="48.06757" lon="6.81981">
        <ele>737.16</ele>
        <time>2017-09-23T10:05:23Z</time>
      </trkpt>
      <trkpt lat="48.06746" lon="6.81943">
        <ele>739.09</ele>
        <time>2017-09-23T10:05:31Z</time>
      </trkpt>
      <trkpt lat="48.06743" lon="6.81942">
        <ele>739.31</ele>
        <time>2017-09-23T10:05:32Z</time>
      </trkpt>
      <trkpt lat="48.0674" lon="6.81942">
        <ele>739.92</ele>
        <time>2017-09-23T10:05:33Z</time>
      </trkpt>
      <trkpt lat="48.06738" lon="6.81943">
        <ele>739.86</ele>
        <time>2017-09-23T10:05:34Z</time>
      </trkpt>
      <trkpt lat="48.06735" lon="6.81944">
        <ele>740.03</ele>
        <time>2017-09-23T10:05:35Z</time>
      </trkpt>
      <trkpt lat="48.06732" lon="6.81946">
        <ele>740.04</ele>
        <time>2017-09-23T10:05:36Z</time>
      </trkpt>
      <trkpt lat="48.06703" lon="6.81981">
        <ele>743.09</ele>
        <time>2017-09-23T10:05:48Z</time>
      </trkpt>
      <trkpt lat="48.06673" lon="6.82022">
        <ele>745.38</ele>
        <time>2017-09-23T10:06:00Z</time>
      </trkpt>
      <trkpt lat="48.06637" lon="6.82047">
        <ele>748.07</ele>
        <time>2017-09-23T10:06:11Z</time>
      </trkpt>
      <trkpt lat="48.06598" lon="6.8207">
        <ele>751.13</ele>
        <time>2017-09-23T10:06:23Z</time>
      </trkpt>
      <trkpt lat="48.0656" lon="6.82094">
        <ele>753.47</ele>
        <time>2017-09-23T10:06:34Z</time>
      </trkpt>
      <trkpt lat="48.06525" lon="6.82117">
        <ele>756.47</ele>
        <time>2017-09-23T10:06:45Z</time>
      </trkpt>
      <trkpt lat="48.0648" lon="6.82134">
        <ele>759.76</ele>
        <time>2017-09-23T10:06:58Z</time>
      </trkpt>
      <trkpt lat="48.06445" lon="6.82148">
        <ele>762.97</ele>
        <time>2017-09-23T10:07:09Z</time>
      </trkpt>
      <trkpt lat="48.06402" lon="6.8216">
        <ele>765.72</ele>
        <time>2017-09-23T10:07:20Z</time>
      </trkpt>
      <trkpt lat="48.06353" lon="6.82184">
        <ele>769.01</ele>
        <time>2017-09-23T10:07:34Z</time>
      </trkpt>
      <trkpt lat="48.06334" lon="6.822">
        <ele>770.42</ele>
        <time>2017-09-23T10:07:46Z</time>
      </trkpt>
      <trkpt lat="48.06315" lon="6.82231">
        <ele>773.47</ele>
        <time>2017-09-23T10:07:59Z</time>
      </trkpt>
      <trkpt lat="48.0629" lon="6.82261">
        <ele>776.45</ele>
        <time>2017-09-23T10:08:16Z</time>
      </trkpt>
      <trkpt lat="48.06287" lon="6.82263">
        <ele>776.55</ele>
        <time>2017-09-23T10:08:28Z</time>
      </trkpt>
      <trkpt lat="48.06287" lon="6.82265">
        <ele>776.57</ele>
        <time>2017-09-23T10:08:48Z</time>
      </trkpt>
      <trkpt lat="48.06288" lon="6.82264">
        <ele>776.58</ele>
        <time>2017-09-23T10:08:49Z</time>
      </trkpt>
      <trkpt lat="48.06289" lon="6.82263">
        <ele>776.93</ele>
        <time>2017-09-23T10:08:50Z</time>
      </trkpt>
      <trkpt lat="48.06291" lon="6.82262">
        <ele>777.02</ele>
        <time>2017-09-23T10:08:51Z</time>
      </trkpt>
      <trkpt lat="48.06292" lon="6.8226">
        <ele>777.04</ele>
        <time>2017-09-23T10:08:52Z</time>
      </trkpt>
      <trkpt lat="48.06294" lon="6.82258">
        <ele>776.79</ele>
        <time>2017-09-23T10:08:53Z</time>
      </trkpt>
      <trkpt lat="48.06296" lon="6.82255">
        <ele>776.84</ele>
        <time>2017-09-23T10:08:54Z</time>
      </trkpt>
      <trkpt lat="48.06316" lon="6.8222">
        <ele>773.82</ele>
        <time>2017-09-23T10:09:01Z</time>
      </trkpt>
      <trkpt lat="48.06332" lon="6.82191">
        <ele>770.72</ele>
        <time>2017-09-23T10:09:06Z</time>
      </trkpt>
      <trkpt lat="48.06336" lon="6.82187">
        <ele>770.58</ele>
        <time>2017-09-23T10:09:07Z</time>
      </trkpt>
      <trkpt lat="48.06352" lon="6.82173">
        <ele>768.06</ele>
        <time>2017-09-23T10:09:15Z</time>
      </trkpt>
      <trkpt lat="48.06353" lon="6.82175">
        <ele>768.06</ele>
        <time>2017-09-23T10:09:16Z</time>
      </trkpt>
      <trkpt lat="48.06354" lon="6.82177">
        <ele>768.42</ele>
        <time>2017-09-23T10:09:17Z</time>
      </trkpt>
      <trkpt lat="48.06354" lon="6.8218">
        <ele>768.28</ele>
        <time>2017-09-23T10:09:18Z</time>
      </trkpt>
      <trkpt lat="48.06353" lon="6.82182">
        <ele>768.97</ele>
        <time>2017-09-23T10:09:19Z</time>
      </trkpt>
      <trkpt lat="48.06352" lon="6.82184">
        <ele>769.32</ele>
        <time>2017-09-23T10:09:20Z</time>
      </trkpt>
      <trkpt lat="48.06352" lon="6.82187">
        <ele>769.69</ele>
        <time>2017-09-23T10:09:21Z</time>
      </trkpt>
      <trkpt lat="48.06352" lon="6.8219">
        <ele>769.91</ele>
        <time>2017-09-23T10:09:22Z</time>
      </trkpt>
      <trkpt lat="48.06353" lon="6.82193">
        <ele>770.36</ele>
        <time>2017-09-23T10:09:23Z</time>
      </trkpt>
      <trkpt lat="48.06353" lon="6.82196">
        <ele>771.16</ele>
        <time>2017-09-23T10:09:24Z</time>
      </trkpt>
      <trkpt lat="48.06353" lon="6.82198">
        <ele>771.82</ele>
        <time>2017-09-23T10:09:25Z</time>
      </trkpt>
      <trkpt lat="48.06352" lon="6.82199">
        <ele>772.05</ele>
        <time>2017-09-23T10:09:26Z</time>
      </trkpt>
      <trkpt lat="48.06353" lon="6.822">
        <ele>772.08</ele>
        <time>2017-09-23T10:09:40Z</time>
      </trkpt>
      <trkpt lat="48.06352" lon="6.82196">
        <ele>770.97</ele>
        <time>2017-09-23T10:10:01Z</time>
      </trkpt>
      <trkpt lat="48.0635" lon="6.82194">
        <ele>770.65</ele>
        <time>2017-09-23T10:10:26Z</time>
      </trkpt>
      <trkpt lat="48.06347" lon="6.8219">
        <ele>770.29</ele>
        <time>2017-09-23T10:10:50Z</time>
      </trkpt>
      <trkpt lat="48.06353" lon="6.82189">
        <ele>770.57</ele>
        <time>2017-09-23T10:11:18Z</time>
      </trkpt>
      <trkpt lat="48.06354" lon="6.82192">
        <ele>770.19</ele>
        <time>2017-09-23T10:11:57Z</time>
      </trkpt>
      <trkpt lat="48.06354" lon="6.82189">
        <ele>769.28</ele>
        <time>2017-09-23T10:12:15Z</time>
      </trkpt>
      <trkpt lat="48.06354" lon="6.82182">
        <ele>767.94</ele>
        <time>2017-09-23T10:12:34Z</time>
      </trkpt>
      <trkpt lat="48.06355" lon="6.82177">
        <ele>768.35</ele>
        <time>2017-09-23T10:12:37Z</time>
      </trkpt>
      <trkpt lat="48.06357" lon="6.82172">
        <ele>768.17</ele>
        <time>2017-09-23T10:12:38Z</time>
      </trkpt>
      <trkpt lat="48.06359" lon="6.82169">
        <ele>767.33</ele>
        <time>2017-09-23T10:12:39Z</time>
      </trkpt>
      <trkpt lat="48.06362" lon="6.82165">
        <ele>767.18</ele>
        <time>2017-09-23T10:12:40Z</time>
      </trkpt>
      <trkpt lat="48.06365" lon="6.82163">
        <ele>767.29</ele>
        <time>2017-09-23T10:12:41Z</time>
      </trkpt>
      <trkpt lat="48.06376" lon="6.82153">
        <ele>765.49</ele>
        <time>2017-09-23T10:12:51Z</time>
      </trkpt>
      <trkpt lat="48.06376" lon="6.8215">
        <ele>765.82</ele>
        <time>2017-09-23T10:13:01Z</time>
      </trkpt>
      <trkpt lat="48.06377" lon="6.82149">
        <ele>765.8</ele>
        <time>2017-09-23T10:13:02Z</time>
      </trkpt>
      <trkpt lat="48.06379" lon="6.82148">
        <ele>765.7</ele>
        <time>2017-09-23T10:13:03Z</time>
      </trkpt>
      <trkpt lat="48.06406" lon="6.82139">
        <ele>763.83</ele>
        <time>2017-09-23T10:13:11Z</time>
      </trkpt>
      <trkpt lat="48.06412" lon="6.82137">
        <ele>763.62</ele>
        <time>2017-09-23T10:13:12Z</time>
      </trkpt>
      <trkpt lat="48.06417" lon="6.82135">
        <ele>763.07</ele>
        <time>2017-09-23T10:13:13Z</time>
      </trkpt>
      <trkpt lat="48.06426" lon="6.82133">
        <ele>762.08</ele>
        <time>2017-09-23T10:13:15Z</time>
      </trkpt>
      <trkpt lat="48.06472" lon="6.82115">
        <ele>759.39</ele>
        <time>2017-09-23T10:13:26Z</time>
      </trkpt>
      <trkpt lat="48.06507" lon="6.82099">
        <ele>756.31</ele>
        <time>2017-09-23T10:13:36Z</time>
      </trkpt>
      <trkpt lat="48.06542" lon="6.82078">
        <ele>754.08</ele>
        <time>2017-09-23T10:13:47Z</time>
      </trkpt>
      <trkpt lat="48.06585" lon="6.82046">
        <ele>751.23</ele>
        <time>2017-09-23T10:13:59Z</time>
      </trkpt>
      <trkpt lat="48.06616" lon="6.82025">
        <ele>749.25</ele>
        <time>2017-09-23T10:14:06Z</time>
      </trkpt>
      <trkpt lat="48.06657" lon="6.81991">
        <ele>746.16</ele>
        <time>2017-09-23T10:14:15Z</time>
      </trkpt>
      <trkpt lat="48.06687" lon="6.81944">
        <ele>743.85</ele>
        <time>2017-09-23T10:14:22Z</time>
      </trkpt>
      <trkpt lat="48.06692" lon="6.81938">
        <ele>743.58</ele>
        <time>2017-09-23T10:14:23Z</time>
      </trkpt>
      <trkpt lat="48.06696" lon="6.81932">
        <ele>743.35</ele>
        <time>2017-09-23T10:14:24Z</time>
      </trkpt>
      <trkpt lat="48.067" lon="6.81927">
        <ele>742.61</ele>
        <time>2017-09-23T10:14:25Z</time>
      </trkpt>
      <trkpt lat="48.06704" lon="6.81921">
        <ele>742.2</ele>
        <time>2017-09-23T10:14:26Z</time>
      </trkpt>
      <trkpt lat="48.06708" lon="6.81915">
        <ele>741.69</ele>
        <time>2017-09-23T10:14:27Z</time>
      </trkpt>
      <trkpt lat="48.06712" lon="6.81911">
        <ele>741.42</ele>
        <time>2017-09-23T10:14:28Z</time>
      </trkpt>
      <trkpt lat="48.06716" lon="6.81909">
        <ele>741.02</ele>
        <time>2017-09-23T10:14:29Z</time>
      </trkpt>
      <trkpt lat="48.0672" lon="6.81908">
        <ele>740.62</ele>
        <time>2017-09-23T10:14:30Z</time>
      </trkpt>
      <trkpt lat="48.06732" lon="6.81933">
        <ele>739.75</ele>
        <time>2017-09-23T10:14:34Z</time>
      </trkpt>
      <trkpt lat="48.06734" lon="6.81942">
        <ele>739.28</ele>
        <time>2017-09-23T10:14:35Z</time>
      </trkpt>
      <trkpt lat="48.06751" lon="6.82033">
        <ele>736.74</ele>
        <time>2017-09-23T10:14:45Z</time>
      </trkpt>
      <trkpt lat="48.06761" lon="6.82054">
        <ele>735.28</ele>
        <time>2017-09-23T10:14:48Z</time>
      </trkpt>
      <trkpt lat="48.06766" lon="6.82059">
        <ele>734.84</ele>
        <time>2017-09-23T10:14:49Z</time>
      </trkpt>
      <trkpt lat="48.06771" lon="6.82064">
        <ele>734.7</ele>
        <time>2017-09-23T10:14:50Z</time>
      </trkpt>
      <trkpt lat="48.06784" lon="6.82083">
        <ele>733.92</ele>
        <time>2017-09-23T10:14:53Z</time>
      </trkpt>
      <trkpt lat="48.06806" lon="6.82134">
        <ele>732.19</ele>
        <time>2017-09-23T10:14:59Z</time>
      </trkpt>
      <trkpt lat="48.06839" lon="6.8224">
        <ele>729.16</ele>
        <time>2017-09-23T10:15:10Z</time>
      </trkpt>
      <trkpt lat="48.06862" lon="6.82306">
        <ele>727.32</ele>
        <time>2017-09-23T10:15:18Z</time>
      </trkpt>
      <trkpt lat="48.06889" lon="6.82423">
        <ele>725.06</ele>
        <time>2017-09-23T10:15:29Z</time>
      </trkpt>
      <trkpt lat="48.06904" lon="6.82569">
        <ele>722.77</ele>
        <time>2017-09-23T10:15:41Z</time>
      </trkpt>
      <trkpt lat="48.06899" lon="6.82696">
        <ele>720.1</ele>
        <time>2017-09-23T10:15:52Z</time>
      </trkpt>
      <trkpt lat="48.06898" lon="6.82719">
        <ele>719.04</ele>
        <time>2017-09-23T10:15:54Z</time>
      </trkpt>
      <trkpt lat="48.0689" lon="6.82847">
        <ele>717.33</ele>
        <time>2017-09-23T10:16:07Z</time>
      </trkpt>
      <trkpt lat="48.06889" lon="6.82884">
        <ele>716.51</ele>
        <time>2017-09-23T10:16:11Z</time>
      </trkpt>
      <trkpt lat="48.06887" lon="6.82893">
        <ele>716.5</ele>
        <time>2017-09-23T10:16:12Z</time>
      </trkpt>
      <trkpt lat="48.0686" lon="6.83033">
        <ele>713.67</ele>
        <time>2017-09-23T10:16:25Z</time>
      </trkpt>
      <trkpt lat="48.06844" lon="6.83101">
        <ele>711.61</ele>
        <time>2017-09-23T10:16:31Z</time>
      </trkpt>
      <trkpt lat="48.06841" lon="6.83112">
        <ele>711.16</ele>
        <time>2017-09-23T10:16:32Z</time>
      </trkpt>
      <trkpt lat="48.06835" lon="6.83134">
        <ele>709.91</ele>
        <time>2017-09-23T10:16:35Z</time>
      </trkpt>
      <trkpt lat="48.06838" lon="6.83195">
        <ele>708.16</ele>
        <time>2017-09-23T10:16:46Z</time>
      </trkpt>
      <trkpt lat="48.06839" lon="6.83208">
        <ele>708.09</ele>
        <time>2017-09-23T10:16:48Z</time>
      </trkpt>
      <trkpt lat="48.06836" lon="6.83247">
        <ele>706.94</ele>
        <time>2017-09-23T10:16:54Z</time>
      </trkpt>
      <trkpt lat="48.06835" lon="6.83254">
        <ele>706.79</ele>
        <time>2017-09-23T10:16:55Z</time>
      </trkpt>
      <trkpt lat="48.06831" lon="6.83274">
        <ele>706.59</ele>
        <time>2017-09-23T10:16:58Z</time>
      </trkpt>
      <trkpt lat="48.06827" lon="6.83289">
        <ele>705.83</ele>
        <time>2017-09-23T10:17:00Z</time>
      </trkpt>
      <trkpt lat="48.06825" lon="6.83297">
        <ele>705.93</ele>
        <time>2017-09-23T10:17:01Z</time>
      </trkpt>
      <trkpt lat="48.06822" lon="6.83305">
        <ele>705.27</ele>
        <time>2017-09-23T10:17:02Z</time>
      </trkpt>
      <trkpt lat="48.06819" lon="6.83314">
        <ele>705.16</ele>
        <time>2017-09-23T10:17:03Z</time>
      </trkpt>
      <trkpt lat="48.06815" lon="6.83323">
        <ele>704.97</ele>
        <time>2017-09-23T10:17:04Z</time>
      </trkpt>
      <trkpt lat="48.06806" lon="6.83352">
        <ele>703.84</ele>
        <time>2017-09-23T10:17:07Z</time>
      </trkpt>
      <trkpt lat="48.06805" lon="6.83363">
        <ele>703.46</ele>
        <time>2017-09-23T10:17:08Z</time>
      </trkpt>
      <trkpt lat="48.06804" lon="6.83373">
        <ele>703.05</ele>
        <time>2017-09-23T10:17:09Z</time>
      </trkpt>
      <trkpt lat="48.06795" lon="6.83436">
        <ele>701.08</ele>
        <time>2017-09-23T10:17:15Z</time>
      </trkpt>
      <trkpt lat="48.06777" lon="6.83526">
        <ele>698.05</ele>
        <time>2017-09-23T10:17:23Z</time>
      </trkpt>
      <trkpt lat="48.06756" lon="6.83632">
        <ele>694.85</ele>
        <time>2017-09-23T10:17:32Z</time>
      </trkpt>
      <trkpt lat="48.06751" lon="6.83656">
        <ele>694.12</ele>
        <time>2017-09-23T10:17:34Z</time>
      </trkpt>
      <trkpt lat="48.06735" lon="6.83746">
        <ele>691.68</ele>
        <time>2017-09-23T10:17:41Z</time>
      </trkpt>
      <trkpt lat="48.06727" lon="6.83797">
        <ele>689.6</ele>
        <time>2017-09-23T10:17:45Z</time>
      </trkpt>
      <trkpt lat="48.06726" lon="6.83809">
        <ele>689.28</ele>
        <time>2017-09-23T10:17:46Z</time>
      </trkpt>
      <trkpt lat="48.06721" lon="6.83842">
        <ele>688.19</ele>
        <time>2017-09-23T10:17:49Z</time>
      </trkpt>
      <trkpt lat="48.06716" lon="6.83903">
        <ele>685.8</ele>
        <time>2017-09-23T10:17:57Z</time>
      </trkpt>
      <trkpt lat="48.06716" lon="6.83925">
        <ele>685.81</ele>
        <time>2017-09-23T10:18:00Z</time>
      </trkpt>
      <trkpt lat="48.06715" lon="6.83955">
        <ele>686.09</ele>
        <time>2017-09-23T10:18:04Z</time>
      </trkpt>
      <trkpt lat="48.06719" lon="6.84042">
        <ele>687.65</ele>
        <time>2017-09-23T10:18:15Z</time>
      </trkpt>
      <trkpt lat="48.06718" lon="6.84048">
        <ele>687.4</ele>
        <time>2017-09-23T10:18:16Z</time>
      </trkpt>
      <trkpt lat="48.06715" lon="6.84073">
        <ele>687.67</ele>
        <time>2017-09-23T10:18:20Z</time>
      </trkpt>
      <trkpt lat="48.06712" lon="6.84091">
        <ele>688.62</ele>
        <time>2017-09-23T10:18:23Z</time>
      </trkpt>
      <trkpt lat="48.06709" lon="6.84103">
        <ele>688.71</ele>
        <time>2017-09-23T10:18:25Z</time>
      </trkpt>
      <trkpt lat="48.06708" lon="6.84208">
        <ele>690.68</ele>
        <time>2017-09-23T10:18:41Z</time>
      </trkpt>
      <trkpt lat="48.06707" lon="6.84276">
        <ele>692</ele>
        <time>2017-09-23T10:18:51Z</time>
      </trkpt>
      <trkpt lat="48.06707" lon="6.84368">
        <ele>694.12</ele>
        <time>2017-09-23T10:19:04Z</time>
      </trkpt>
      <trkpt lat="48.06699" lon="6.84408">
        <ele>694.6</ele>
        <time>2017-09-23T10:19:10Z</time>
      </trkpt>
      <trkpt lat="48.06679" lon="6.84508">
        <ele>696.63</ele>
        <time>2017-09-23T10:19:25Z</time>
      </trkpt>
      <trkpt lat="48.06666" lon="6.84567">
        <ele>696.74</ele>
        <time>2017-09-23T10:19:33Z</time>
      </trkpt>
      <trkpt lat="48.06665" lon="6.84575">
        <ele>696.92</ele>
        <time>2017-09-23T10:19:34Z</time>
      </trkpt>
      <trkpt lat="48.06663" lon="6.84584">
        <ele>696.56</ele>
        <time>2017-09-23T10:19:35Z</time>
      </trkpt>
      <trkpt lat="48.06632" lon="6.84695">
        <ele>692.81</ele>
        <time>2017-09-23T10:19:49Z</time>
      </trkpt>
      <trkpt lat="48.06614" lon="6.84728">
        <ele>691.61</ele>
        <time>2017-09-23T10:19:53Z</time>
      </trkpt>
      <trkpt lat="48.06611" lon="6.84737">
        <ele>690.94</ele>
        <time>2017-09-23T10:19:54Z</time>
      </trkpt>
      <trkpt lat="48.06609" lon="6.84746">
        <ele>690.86</ele>
        <time>2017-09-23T10:19:55Z</time>
      </trkpt>
      <trkpt lat="48.06607" lon="6.84756">
        <ele>690.29</ele>
        <time>2017-09-23T10:19:56Z</time>
      </trkpt>
      <trkpt lat="48.06604" lon="6.84766">
        <ele>689.8</ele>
        <time>2017-09-23T10:19:57Z</time>
      </trkpt>
      <trkpt lat="48.06603" lon="6.84777">
        <ele>689.76</ele>
        <time>2017-09-23T10:19:58Z</time>
      </trkpt>
      <trkpt lat="48.06602" lon="6.84788">
        <ele>688.99</ele>
        <time>2017-09-23T10:19:59Z</time>
      </trkpt>
      <trkpt lat="48.066" lon="6.84831">
        <ele>687.36</ele>
        <time>2017-09-23T10:20:03Z</time>
      </trkpt>
      <trkpt lat="48.06599" lon="6.84839">
        <ele>686.23</ele>
        <time>2017-09-23T10:20:04Z</time>
      </trkpt>
      <trkpt lat="48.06597" lon="6.84852">
        <ele>686</ele>
        <time>2017-09-23T10:20:06Z</time>
      </trkpt>
      <trkpt lat="48.06593" lon="6.84864">
        <ele>685.71</ele>
        <time>2017-09-23T10:20:08Z</time>
      </trkpt>
      <trkpt lat="48.06587" lon="6.84882">
        <ele>684.67</ele>
        <time>2017-09-23T10:20:11Z</time>
      </trkpt>
      <trkpt lat="48.06549" lon="6.84953">
        <ele>682.74</ele>
        <time>2017-09-23T10:20:21Z</time>
      </trkpt>
      <trkpt lat="48.06497" lon="6.85029">
        <ele>679.53</ele>
        <time>2017-09-23T10:20:30Z</time>
      </trkpt>
      <trkpt lat="48.06466" lon="6.85073">
        <ele>678.29</ele>
        <time>2017-09-23T10:20:35Z</time>
      </trkpt>
      <trkpt lat="48.06457" lon="6.85093">
        <ele>677.79</ele>
        <time>2017-09-23T10:20:37Z</time>
      </trkpt>
      <trkpt lat="48.06453" lon="6.85104">
        <ele>677.59</ele>
        <time>2017-09-23T10:20:38Z</time>
      </trkpt>
      <trkpt lat="48.06451" lon="6.85116">
        <ele>677.29</ele>
        <time>2017-09-23T10:20:39Z</time>
      </trkpt>
      <trkpt lat="48.06447" lon="6.85139">
        <ele>676.76</ele>
        <time>2017-09-23T10:20:41Z</time>
      </trkpt>
      <trkpt lat="48.06446" lon="6.85269">
        <ele>674.8</ele>
        <time>2017-09-23T10:20:52Z</time>
      </trkpt>
      <trkpt lat="48.0647" lon="6.85374">
        <ele>674.42</ele>
        <time>2017-09-23T10:21:04Z</time>
      </trkpt>
      <trkpt lat="48.06509" lon="6.85542">
        <ele>673.88</ele>
        <time>2017-09-23T10:21:25Z</time>
      </trkpt>
      <trkpt lat="48.06509" lon="6.85551">
        <ele>674.05</ele>
        <time>2017-09-23T10:21:26Z</time>
      </trkpt>
      <trkpt lat="48.0651" lon="6.8556">
        <ele>674.23</ele>
        <time>2017-09-23T10:21:27Z</time>
      </trkpt>
      <trkpt lat="48.0652" lon="6.8565">
        <ele>674.17</ele>
        <time>2017-09-23T10:21:38Z</time>
      </trkpt>
      <trkpt lat="48.06524" lon="6.85658">
        <ele>674.33</ele>
        <time>2017-09-23T10:21:39Z</time>
      </trkpt>
      <trkpt lat="48.06528" lon="6.85665">
        <ele>674.07</ele>
        <time>2017-09-23T10:21:40Z</time>
      </trkpt>
      <trkpt lat="48.06579" lon="6.85769">
        <ele>672.99</ele>
        <time>2017-09-23T10:21:55Z</time>
      </trkpt>
      <trkpt lat="48.06602" lon="6.85905">
        <ele>676.01</ele>
        <time>2017-09-23T10:22:12Z</time>
      </trkpt>
      <trkpt lat="48.06603" lon="6.85913">
        <ele>675.93</ele>
        <time>2017-09-23T10:22:13Z</time>
      </trkpt>
      <trkpt lat="48.06611" lon="6.85963">
        <ele>678.5</ele>
        <time>2017-09-23T10:22:20Z</time>
      </trkpt>
      <trkpt lat="48.0663" lon="6.86114">
        <ele>681.68</ele>
        <time>2017-09-23T10:22:40Z</time>
      </trkpt>
      <trkpt lat="48.06617" lon="6.8624">
        <ele>683.82</ele>
        <time>2017-09-23T10:22:56Z</time>
      </trkpt>
      <trkpt lat="48.06573" lon="6.86371">
        <ele>686.85</ele>
        <time>2017-09-23T10:23:14Z</time>
      </trkpt>
      <trkpt lat="48.06549" lon="6.86416">
        <ele>687.74</ele>
        <time>2017-09-23T10:23:21Z</time>
      </trkpt>
      <trkpt lat="48.06546" lon="6.86423">
        <ele>687.81</ele>
        <time>2017-09-23T10:23:22Z</time>
      </trkpt>
      <trkpt lat="48.06543" lon="6.86431">
        <ele>687.93</ele>
        <time>2017-09-23T10:23:23Z</time>
      </trkpt>
      <trkpt lat="48.06541" lon="6.86439">
        <ele>688.01</ele>
        <time>2017-09-23T10:23:24Z</time>
      </trkpt>
      <trkpt lat="48.0654" lon="6.86448">
        <ele>687.88</ele>
        <time>2017-09-23T10:23:25Z</time>
      </trkpt>
      <trkpt lat="48.0654" lon="6.86456">
        <ele>688.11</ele>
        <time>2017-09-23T10:23:26Z</time>
      </trkpt>
      <trkpt lat="48.0654" lon="6.86465">
        <ele>687.6</ele>
        <time>2017-09-23T10:23:27Z</time>
      </trkpt>
      <trkpt lat="48.06541" lon="6.86473">
        <ele>688.21</ele>
        <time>2017-09-23T10:23:28Z</time>
      </trkpt>
      <trkpt lat="48.06542" lon="6.86481">
        <ele>688.39</ele>
        <time>2017-09-23T10:23:29Z</time>
      </trkpt>
      <trkpt lat="48.06544" lon="6.86489">
        <ele>688.51</ele>
        <time>2017-09-23T10:23:30Z</time>
      </trkpt>
      <trkpt lat="48.06557" lon="6.86555">
        <ele>689.07</ele>
        <time>2017-09-23T10:23:41Z</time>
      </trkpt>
      <trkpt lat="48.06561" lon="6.86559">
        <ele>688.83</ele>
        <time>2017-09-23T10:23:42Z</time>
      </trkpt>
      <trkpt lat="48.06567" lon="6.86563">
        <ele>688.14</ele>
        <time>2017-09-23T10:23:43Z</time>
      </trkpt>
      <trkpt lat="48.06572" lon="6.86567">
        <ele>687.69</ele>
        <time>2017-09-23T10:23:44Z</time>
      </trkpt>
      <trkpt lat="48.06577" lon="6.86572">
        <ele>687.82</ele>
        <time>2017-09-23T10:23:45Z</time>
      </trkpt>
      <trkpt lat="48.06582" lon="6.86579">
        <ele>687.36</ele>
        <time>2017-09-23T10:23:46Z</time>
      </trkpt>
      <trkpt lat="48.06605" lon="6.86609">
        <ele>685.84</ele>
        <time>2017-09-23T10:23:51Z</time>
      </trkpt>
      <trkpt lat="48.06611" lon="6.86615">
        <ele>685.59</ele>
        <time>2017-09-23T10:23:52Z</time>
      </trkpt>
      <trkpt lat="48.06622" lon="6.86628">
        <ele>685.09</ele>
        <time>2017-09-23T10:23:54Z</time>
      </trkpt>
      <trkpt lat="48.06627" lon="6.86636">
        <ele>684.53</ele>
        <time>2017-09-23T10:23:55Z</time>
      </trkpt>
      <trkpt lat="48.06631" lon="6.86644">
        <ele>684.39</ele>
        <time>2017-09-23T10:23:56Z</time>
      </trkpt>
      <trkpt lat="48.06641" lon="6.8666">
        <ele>683.55</ele>
        <time>2017-09-23T10:23:58Z</time>
      </trkpt>
      <trkpt lat="48.06646" lon="6.86666">
        <ele>683.3</ele>
        <time>2017-09-23T10:23:59Z</time>
      </trkpt>
      <trkpt lat="48.06653" lon="6.86669">
        <ele>683.19</ele>
        <time>2017-09-23T10:24:00Z</time>
      </trkpt>
      <trkpt lat="48.0666" lon="6.86671">
        <ele>682.74</ele>
        <time>2017-09-23T10:24:01Z</time>
      </trkpt>
      <trkpt lat="48.06668" lon="6.86672">
        <ele>682.85</ele>
        <time>2017-09-23T10:24:02Z</time>
      </trkpt>
      <trkpt lat="48.06675" lon="6.86673">
        <ele>681.78</ele>
        <time>2017-09-23T10:24:03Z</time>
      </trkpt>
      <trkpt lat="48.06683" lon="6.86674">
        <ele>681.71</ele>
        <time>2017-09-23T10:24:04Z</time>
      </trkpt>
      <trkpt lat="48.0669" lon="6.86677">
        <ele>681.29</ele>
        <time>2017-09-23T10:24:05Z</time>
      </trkpt>
      <trkpt lat="48.06697" lon="6.86682">
        <ele>681.08</ele>
        <time>2017-09-23T10:24:06Z</time>
      </trkpt>
      <trkpt lat="48.06703" lon="6.86689">
        <ele>681.1</ele>
        <time>2017-09-23T10:24:07Z</time>
      </trkpt>
      <trkpt lat="48.06708" lon="6.86697">
        <ele>680.78</ele>
        <time>2017-09-23T10:24:08Z</time>
      </trkpt>
      <trkpt lat="48.06761" lon="6.86776">
        <ele>678.03</ele>
        <time>2017-09-23T10:24:18Z</time>
      </trkpt>
      <trkpt lat="48.06767" lon="6.8678">
        <ele>677.53</ele>
        <time>2017-09-23T10:24:19Z</time>
      </trkpt>
      <trkpt lat="48.06772" lon="6.8678">
        <ele>677.58</ele>
        <time>2017-09-23T10:24:20Z</time>
      </trkpt>
      <trkpt lat="48.06777" lon="6.86778">
        <ele>676.76</ele>
        <time>2017-09-23T10:24:21Z</time>
      </trkpt>
      <trkpt lat="48.06781" lon="6.86775">
        <ele>676.97</ele>
        <time>2017-09-23T10:24:22Z</time>
      </trkpt>
      <trkpt lat="48.06792" lon="6.86774">
        <ele>676.88</ele>
        <time>2017-09-23T10:24:25Z</time>
      </trkpt>
      <trkpt lat="48.06795" lon="6.86778">
        <ele>676.45</ele>
        <time>2017-09-23T10:24:26Z</time>
      </trkpt>
      <trkpt lat="48.06797" lon="6.86783">
        <ele>676.71</ele>
        <time>2017-09-23T10:24:27Z</time>
      </trkpt>
      <trkpt lat="48.06819" lon="6.86835">
        <ele>677.43</ele>
        <time>2017-09-23T10:24:35Z</time>
      </trkpt>
      <trkpt lat="48.06851" lon="6.86916">
        <ele>678.19</ele>
        <time>2017-09-23T10:24:47Z</time>
      </trkpt>
      <trkpt lat="48.06853" lon="6.8692">
        <ele>678.55</ele>
        <time>2017-09-23T10:24:48Z</time>
      </trkpt>
      <trkpt lat="48.06857" lon="6.86924">
        <ele>678.46</ele>
        <time>2017-09-23T10:24:49Z</time>
      </trkpt>
      <trkpt lat="48.06861" lon="6.86926">
        <ele>678.43</ele>
        <time>2017-09-23T10:24:50Z</time>
      </trkpt>
      <trkpt lat="48.06866" lon="6.86926">
        <ele>678.72</ele>
        <time>2017-09-23T10:24:51Z</time>
      </trkpt>
      <trkpt lat="48.06872" lon="6.86924">
        <ele>678.51</ele>
        <time>2017-09-23T10:24:52Z</time>
      </trkpt>
      <trkpt lat="48.06877" lon="6.86921">
        <ele>678.32</ele>
        <time>2017-09-23T10:24:53Z</time>
      </trkpt>
      <trkpt lat="48.06882" lon="6.86916">
        <ele>678.18</ele>
        <time>2017-09-23T10:24:54Z</time>
      </trkpt>
      <trkpt lat="48.06905" lon="6.86898">
        <ele>677.18</ele>
        <time>2017-09-23T10:24:58Z</time>
      </trkpt>
      <trkpt lat="48.06996" lon="6.86819">
        <ele>674.61</ele>
        <time>2017-09-23T10:25:13Z</time>
      </trkpt>
      <trkpt lat="48.07007" lon="6.8681">
        <ele>673.94</ele>
        <time>2017-09-23T10:25:15Z</time>
      </trkpt>
      <trkpt lat="48.07012" lon="6.8681">
        <ele>672.85</ele>
        <time>2017-09-23T10:25:16Z</time>
      </trkpt>
      <trkpt lat="48.07017" lon="6.86813">
        <ele>673.54</ele>
        <time>2017-09-23T10:25:17Z</time>
      </trkpt>
      <trkpt lat="48.0702" lon="6.86819">
        <ele>673.59</ele>
        <time>2017-09-23T10:25:18Z</time>
      </trkpt>
      <trkpt lat="48.07023" lon="6.86826">
        <ele>673.74</ele>
        <time>2017-09-23T10:25:19Z</time>
      </trkpt>
      <trkpt lat="48.07025" lon="6.86834">
        <ele>673.89</ele>
        <time>2017-09-23T10:25:20Z</time>
      </trkpt>
      <trkpt lat="48.07028" lon="6.86842">
        <ele>673.72</ele>
        <time>2017-09-23T10:25:21Z</time>
      </trkpt>
      <trkpt lat="48.07055" lon="6.86911">
        <ele>674.04</ele>
        <time>2017-09-23T10:25:30Z</time>
      </trkpt>
      <trkpt lat="48.07059" lon="6.86918">
        <ele>674.31</ele>
        <time>2017-09-23T10:25:31Z</time>
      </trkpt>
      <trkpt lat="48.07108" lon="6.87006">
        <ele>673.52</ele>
        <time>2017-09-23T10:25:46Z</time>
      </trkpt>
      <trkpt lat="48.07118" lon="6.87022">
        <ele>673.19</ele>
        <time>2017-09-23T10:25:50Z</time>
      </trkpt>
      <trkpt lat="48.07129" lon="6.87034">
        <ele>673.18</ele>
        <time>2017-09-23T10:25:53Z</time>
      </trkpt>
      <trkpt lat="48.07132" lon="6.8704">
        <ele>672.68</ele>
        <time>2017-09-23T10:25:54Z</time>
      </trkpt>
      <trkpt lat="48.07133" lon="6.87048">
        <ele>672.75</ele>
        <time>2017-09-23T10:25:55Z</time>
      </trkpt>
      <trkpt lat="48.07134" lon="6.87056">
        <ele>673.2</ele>
        <time>2017-09-23T10:25:56Z</time>
      </trkpt>
      <trkpt lat="48.07134" lon="6.87064">
        <ele>673.11</ele>
        <time>2017-09-23T10:25:57Z</time>
      </trkpt>
      <trkpt lat="48.07134" lon="6.87073">
        <ele>673.46</ele>
        <time>2017-09-23T10:25:58Z</time>
      </trkpt>
      <trkpt lat="48.07145" lon="6.87209">
        <ele>673.26</ele>
        <time>2017-09-23T10:26:15Z</time>
      </trkpt>
      <trkpt lat="48.07159" lon="6.8728">
        <ele>674.01</ele>
        <time>2017-09-23T10:26:28Z</time>
      </trkpt>
      <trkpt lat="48.0718" lon="6.8732">
        <ele>673.77</ele>
        <time>2017-09-23T10:26:41Z</time>
      </trkpt>
      <trkpt lat="48.07181" lon="6.87326">
        <ele>673.59</ele>
        <time>2017-09-23T10:26:43Z</time>
      </trkpt>
      <trkpt lat="48.07181" lon="6.87329">
        <ele>673.72</ele>
        <time>2017-09-23T10:26:44Z</time>
      </trkpt>
      <trkpt lat="48.07181" lon="6.87333">
        <ele>673.71</ele>
        <time>2017-09-23T10:26:45Z</time>
      </trkpt>
      <trkpt lat="48.07182" lon="6.87336">
        <ele>673.31</ele>
        <time>2017-09-23T10:26:46Z</time>
      </trkpt>
      <trkpt lat="48.07184" lon="6.8734">
        <ele>673.39</ele>
        <time>2017-09-23T10:26:47Z</time>
      </trkpt>
      <trkpt lat="48.07186" lon="6.87343">
        <ele>673.45</ele>
        <time>2017-09-23T10:26:48Z</time>
      </trkpt>
      <trkpt lat="48.07189" lon="6.87345">
        <ele>673.09</ele>
        <time>2017-09-23T10:26:49Z</time>
      </trkpt>
      <trkpt lat="48.07193" lon="6.87346">
        <ele>673.76</ele>
        <time>2017-09-23T10:26:50Z</time>
      </trkpt>
      <trkpt lat="48.07196" lon="6.87347">
        <ele>673.4</ele>
        <time>2017-09-23T10:26:51Z</time>
      </trkpt>
      <trkpt lat="48.072" lon="6.87347">
        <ele>672.83</ele>
        <time>2017-09-23T10:26:52Z</time>
      </trkpt>
      <trkpt lat="48.07202" lon="6.87348">
        <ele>673.36</ele>
        <time>2017-09-23T10:26:53Z</time>
      </trkpt>
      <trkpt lat="48.07204" lon="6.87351">
        <ele>672.88</ele>
        <time>2017-09-23T10:26:54Z</time>
      </trkpt>
      <trkpt lat="48.07206" lon="6.87355">
        <ele>673.17</ele>
        <time>2017-09-23T10:26:55Z</time>
      </trkpt>
      <trkpt lat="48.07211" lon="6.87364">
        <ele>672.95</ele>
        <time>2017-09-23T10:26:57Z</time>
      </trkpt>
      <trkpt lat="48.07213" lon="6.87369">
        <ele>673.02</ele>
        <time>2017-09-23T10:26:58Z</time>
      </trkpt>
      <trkpt lat="48.07242" lon="6.87442">
        <ele>672.68</ele>
        <time>2017-09-23T10:27:12Z</time>
      </trkpt>
      <trkpt lat="48.07245" lon="6.87448">
        <ele>673.3</ele>
        <time>2017-09-23T10:27:13Z</time>
      </trkpt>
      <trkpt lat="48.07275" lon="6.87516">
        <ele>672.32</ele>
        <time>2017-09-23T10:27:27Z</time>
      </trkpt>
      <trkpt lat="48.07277" lon="6.87522">
        <ele>672.37</ele>
        <time>2017-09-23T10:27:28Z</time>
      </trkpt>
      <trkpt lat="48.07281" lon="6.87527">
        <ele>672.53</ele>
        <time>2017-09-23T10:27:29Z</time>
      </trkpt>
      <trkpt lat="48.07294" lon="6.87547">
        <ele>672.62</ele>
        <time>2017-09-23T10:27:33Z</time>
      </trkpt>
      <trkpt lat="48.07303" lon="6.87565">
        <ele>672.28</ele>
        <time>2017-09-23T10:27:36Z</time>
      </trkpt>
      <trkpt lat="48.07306" lon="6.87571">
        <ele>672.36</ele>
        <time>2017-09-23T10:27:37Z</time>
      </trkpt>
      <trkpt lat="48.07309" lon="6.87576">
        <ele>672.44</ele>
        <time>2017-09-23T10:27:38Z</time>
      </trkpt>
      <trkpt lat="48.07355" lon="6.8767">
        <ele>672.46</ele>
        <time>2017-09-23T10:27:53Z</time>
      </trkpt>
      <trkpt lat="48.07396" lon="6.87751">
        <ele>672.19</ele>
        <time>2017-09-23T10:28:08Z</time>
      </trkpt>
      <trkpt lat="48.07405" lon="6.87765">
        <ele>672.36</ele>
        <time>2017-09-23T10:28:13Z</time>
      </trkpt>
      <trkpt lat="48.07408" lon="6.87766">
        <ele>672.03</ele>
        <time>2017-09-23T10:28:14Z</time>
      </trkpt>
      <trkpt lat="48.07411" lon="6.87764">
        <ele>672.06</ele>
        <time>2017-09-23T10:28:15Z</time>
      </trkpt>
      <trkpt lat="48.07413" lon="6.87762">
        <ele>672.17</ele>
        <time>2017-09-23T10:28:16Z</time>
      </trkpt>
      <trkpt lat="48.07416" lon="6.87759">
        <ele>671.71</ele>
        <time>2017-09-23T10:28:17Z</time>
      </trkpt>
      <trkpt lat="48.07419" lon="6.87755">
        <ele>672.15</ele>
        <time>2017-09-23T10:28:18Z</time>
      </trkpt>
      <trkpt lat="48.07468" lon="6.87711">
        <ele>670.56</ele>
        <time>2017-09-23T10:28:33Z</time>
      </trkpt>
      <trkpt lat="48.07473" lon="6.87709">
        <ele>669.8</ele>
        <time>2017-09-23T10:28:44Z</time>
      </trkpt>
      <trkpt lat="48.07474" lon="6.87711">
        <ele>669.65</ele>
        <time>2017-09-23T10:29:09Z</time>
      </trkpt>
      <trkpt lat="48.07475" lon="6.87712">
        <ele>669.63</ele>
        <time>2017-09-23T10:29:31Z</time>
      </trkpt>
      <trkpt lat="48.07476" lon="6.87711">
        <ele>669.61</ele>
        <time>2017-09-23T10:30:06Z</time>
      </trkpt>
      <trkpt lat="48.07477" lon="6.87711">
        <ele>669.04</ele>
        <time>2017-09-23T10:30:30Z</time>
      </trkpt>
      <trkpt lat="48.07483" lon="6.87714">
        <ele>669.6</ele>
        <time>2017-09-23T10:30:45Z</time>
      </trkpt>
      <trkpt lat="48.07483" lon="6.87716">
        <ele>669.51</ele>
        <time>2017-09-23T10:30:46Z</time>
      </trkpt>
      <trkpt lat="48.07483" lon="6.87718">
        <ele>669.79</ele>
        <time>2017-09-23T10:30:47Z</time>
      </trkpt>
      <trkpt lat="48.07483" lon="6.87721">
        <ele>669.66</ele>
        <time>2017-09-23T10:30:48Z</time>
      </trkpt>
      <trkpt lat="48.07483" lon="6.87724">
        <ele>669.72</ele>
        <time>2017-09-23T10:30:49Z</time>
      </trkpt>
      <trkpt lat="48.07483" lon="6.87727">
        <ele>669.93</ele>
        <time>2017-09-23T10:30:50Z</time>
      </trkpt>
      <trkpt lat="48.0748" lon="6.87732">
        <ele>670.37</ele>
        <time>2017-09-23T10:30:52Z</time>
      </trkpt>
      <trkpt lat="48.07453" lon="6.87764">
        <ele>669.73</ele>
        <time>2017-09-23T10:31:07Z</time>
      </trkpt>
      <trkpt lat="48.07455" lon="6.87773">
        <ele>669.61</ele>
        <time>2017-09-23T10:31:19Z</time>
      </trkpt>
      <trkpt lat="48.07452" lon="6.87778">
        <ele>669.24</ele>
        <time>2017-09-23T10:31:40Z</time>
      </trkpt>
      <trkpt lat="48.07453" lon="6.87783">
        <ele>669.22</ele>
        <time>2017-09-23T10:31:59Z</time>
      </trkpt>
      <trkpt lat="48.07448" lon="6.87783">
        <ele>668.28</ele>
        <time>2017-09-23T10:32:22Z</time>
      </trkpt>
      <trkpt lat="48.0745" lon="6.87786">
        <ele>667.73</ele>
        <time>2017-09-23T10:33:48Z</time>
      </trkpt>
      <trkpt lat="48.07453" lon="6.87783">
        <ele>668.3</ele>
        <time>2017-09-23T10:34:02Z</time>
      </trkpt>
      <trkpt lat="48.07429" lon="6.87814">
        <ele>670.36</ele>
        <time>2017-09-23T11:30:52Z</time>
      </trkpt>
      <trkpt lat="48.07447" lon="6.87768">
        <ele>672.85</ele>
        <time>2017-09-23T11:31:20Z</time>
      </trkpt>
      <trkpt lat="48.07443" lon="6.87774">
        <ele>672.82</ele>
        <time>2017-09-23T11:31:36Z</time>
      </trkpt>
      <trkpt lat="48.07439" lon="6.87773">
        <ele>672.17</ele>
        <time>2017-09-23T11:32:06Z</time>
      </trkpt>
      <trkpt lat="48.07438" lon="6.87773">
        <ele>672.07</ele>
        <time>2017-09-23T11:32:33Z</time>
      </trkpt>
      <trkpt lat="48.07437" lon="6.87774">
        <ele>672.44</ele>
        <time>2017-09-23T11:33:00Z</time>
      </trkpt>
      <trkpt lat="48.07441" lon="6.87774">
        <ele>672.28</ele>
        <time>2017-09-23T11:33:24Z</time>
      </trkpt>
      <trkpt lat="48.07443" lon="6.87775">
        <ele>671.89</ele>
        <time>2017-09-23T11:33:44Z</time>
      </trkpt>
      <trkpt lat="48.07441" lon="6.87774">
        <ele>671.76</ele>
        <time>2017-09-23T11:34:07Z</time>
      </trkpt>
      <trkpt lat="48.07439" lon="6.87771">
        <ele>671.3</ele>
        <time>2017-09-23T11:34:34Z</time>
      </trkpt>
      <trkpt lat="48.07437" lon="6.8777">
        <ele>671.44</ele>
        <time>2017-09-23T11:35:13Z</time>
      </trkpt>
      <trkpt lat="48.07436" lon="6.87772">
        <ele>671.95</ele>
        <time>2017-09-23T11:35:48Z</time>
      </trkpt>
      <trkpt lat="48.07435" lon="6.87762">
        <ele>672.31</ele>
        <time>2017-09-23T11:36:11Z</time>
      </trkpt>
      <trkpt lat="48.07436" lon="6.87761">
        <ele>672</ele>
        <time>2017-09-23T11:36:16Z</time>
      </trkpt>
      <trkpt lat="48.0744" lon="6.87758">
        <ele>671.58</ele>
        <time>2017-09-23T11:36:19Z</time>
      </trkpt>
      <trkpt lat="48.07442" lon="6.87756">
        <ele>671.85</ele>
        <time>2017-09-23T11:36:20Z</time>
      </trkpt>
      <trkpt lat="48.07445" lon="6.87754">
        <ele>671.61</ele>
        <time>2017-09-23T11:36:21Z</time>
      </trkpt>
      <trkpt lat="48.07447" lon="6.87751">
        <ele>671.71</ele>
        <time>2017-09-23T11:36:22Z</time>
      </trkpt>
      <trkpt lat="48.07449" lon="6.87749">
        <ele>671.46</ele>
        <time>2017-09-23T11:36:23Z</time>
      </trkpt>
      <trkpt lat="48.07452" lon="6.87748">
        <ele>671.79</ele>
        <time>2017-09-23T11:36:24Z</time>
      </trkpt>
      <trkpt lat="48.07455" lon="6.87746">
        <ele>671.34</ele>
        <time>2017-09-23T11:36:25Z</time>
      </trkpt>
      <trkpt lat="48.07457" lon="6.87744">
        <ele>671.57</ele>
        <time>2017-09-23T11:36:26Z</time>
      </trkpt>
      <trkpt lat="48.07458" lon="6.87741">
        <ele>671.57</ele>
        <time>2017-09-23T11:36:27Z</time>
      </trkpt>
      <trkpt lat="48.07471" lon="6.87716">
        <ele>671.45</ele>
        <time>2017-09-23T11:36:38Z</time>
      </trkpt>
      <trkpt lat="48.07473" lon="6.8771">
        <ele>670.93</ele>
        <time>2017-09-23T11:37:09Z</time>
      </trkpt>
      <trkpt lat="48.07475" lon="6.87707">
        <ele>671.23</ele>
        <time>2017-09-23T11:38:05Z</time>
      </trkpt>
      <trkpt lat="48.07478" lon="6.87702">
        <ele>671.2</ele>
        <time>2017-09-23T11:38:12Z</time>
      </trkpt>
      <trkpt lat="48.07479" lon="6.87701">
        <ele>671.24</ele>
        <time>2017-09-23T11:38:13Z</time>
      </trkpt>
      <trkpt lat="48.07481" lon="6.87699">
        <ele>671.1</ele>
        <time>2017-09-23T11:38:14Z</time>
      </trkpt>
      <trkpt lat="48.0752" lon="6.87662">
        <ele>670.29</ele>
        <time>2017-09-23T11:38:33Z</time>
      </trkpt>
      <trkpt lat="48.07567" lon="6.87618">
        <ele>668.26</ele>
        <time>2017-09-23T11:38:46Z</time>
      </trkpt>
      <trkpt lat="48.07569" lon="6.87617">
        <ele>667.99</ele>
        <time>2017-09-23T11:39:03Z</time>
      </trkpt>
      <trkpt lat="48.07571" lon="6.87614">
        <ele>668.06</ele>
        <time>2017-09-23T11:39:10Z</time>
      </trkpt>
      <trkpt lat="48.07572" lon="6.87613">
        <ele>668.28</ele>
        <time>2017-09-23T11:39:11Z</time>
      </trkpt>
      <trkpt lat="48.07574" lon="6.87612">
        <ele>668.01</ele>
        <time>2017-09-23T11:39:12Z</time>
      </trkpt>
      <trkpt lat="48.07576" lon="6.8761">
        <ele>667.8</ele>
        <time>2017-09-23T11:39:13Z</time>
      </trkpt>
      <trkpt lat="48.07578" lon="6.87608">
        <ele>667.83</ele>
        <time>2017-09-23T11:39:14Z</time>
      </trkpt>
      <trkpt lat="48.07581" lon="6.87606">
        <ele>668.3</ele>
        <time>2017-09-23T11:39:15Z</time>
      </trkpt>
      <trkpt lat="48.07616" lon="6.87578">
        <ele>670.61</ele>
        <time>2017-09-23T11:39:26Z</time>
      </trkpt>
      <trkpt lat="48.07619" lon="6.8758">
        <ele>670.64</ele>
        <time>2017-09-23T11:39:27Z</time>
      </trkpt>
      <trkpt lat="48.07622" lon="6.87583">
        <ele>671.27</ele>
        <time>2017-09-23T11:39:28Z</time>
      </trkpt>
      <trkpt lat="48.07632" lon="6.87602">
        <ele>670.85</ele>
        <time>2017-09-23T11:39:32Z</time>
      </trkpt>
      <trkpt lat="48.07635" lon="6.87606">
        <ele>671.18</ele>
        <time>2017-09-23T11:39:33Z</time>
      </trkpt>
      <trkpt lat="48.07638" lon="6.87611">
        <ele>671.5</ele>
        <time>2017-09-23T11:39:34Z</time>
      </trkpt>
      <trkpt lat="48.07681" lon="6.87681">
        <ele>670.86</ele>
        <time>2017-09-23T11:39:47Z</time>
      </trkpt>
      <trkpt lat="48.07728" lon="6.87756">
        <ele>669.97</ele>
        <time>2017-09-23T11:40:02Z</time>
      </trkpt>
      <trkpt lat="48.0773" lon="6.87762">
        <ele>669.69</ele>
        <time>2017-09-23T11:40:03Z</time>
      </trkpt>
      <trkpt lat="48.07731" lon="6.87767">
        <ele>670.05</ele>
        <time>2017-09-23T11:40:04Z</time>
      </trkpt>
      <trkpt lat="48.0773" lon="6.87772">
        <ele>669.79</ele>
        <time>2017-09-23T11:40:05Z</time>
      </trkpt>
      <trkpt lat="48.07727" lon="6.87776">
        <ele>669.4</ele>
        <time>2017-09-23T11:40:06Z</time>
      </trkpt>
      <trkpt lat="48.07724" lon="6.87779">
        <ele>668.89</ele>
        <time>2017-09-23T11:40:07Z</time>
      </trkpt>
      <trkpt lat="48.07694" lon="6.87818">
        <ele>667.23</ele>
        <time>2017-09-23T11:40:18Z</time>
      </trkpt>
      <trkpt lat="48.07693" lon="6.87826">
        <ele>666.67</ele>
        <time>2017-09-23T11:40:20Z</time>
      </trkpt>
      <trkpt lat="48.07694" lon="6.8783">
        <ele>666.36</ele>
        <time>2017-09-23T11:40:21Z</time>
      </trkpt>
      <trkpt lat="48.07695" lon="6.87833">
        <ele>666.83</ele>
        <time>2017-09-23T11:40:22Z</time>
      </trkpt>
      <trkpt lat="48.07729" lon="6.87904">
        <ele>666.04</ele>
        <time>2017-09-23T11:40:39Z</time>
      </trkpt>
      <trkpt lat="48.07764" lon="6.87985">
        <ele>665.72</ele>
        <time>2017-09-23T11:40:57Z</time>
      </trkpt>
      <trkpt lat="48.07799" lon="6.88059">
        <ele>664.92</ele>
        <time>2017-09-23T11:41:14Z</time>
      </trkpt>
      <trkpt lat="48.07832" lon="6.88138">
        <ele>664.69</ele>
        <time>2017-09-23T11:41:29Z</time>
      </trkpt>
      <trkpt lat="48.07856" lon="6.88225">
        <ele>664.32</ele>
        <time>2017-09-23T11:41:45Z</time>
      </trkpt>
      <trkpt lat="48.07871" lon="6.88288">
        <ele>663.44</ele>
        <time>2017-09-23T11:41:58Z</time>
      </trkpt>
      <trkpt lat="48.07872" lon="6.883">
        <ele>663.29</ele>
        <time>2017-09-23T11:42:13Z</time>
      </trkpt>
      <trkpt lat="48.07873" lon="6.88302">
        <ele>663.8</ele>
        <time>2017-09-23T11:42:16Z</time>
      </trkpt>
      <trkpt lat="48.07875" lon="6.88303">
        <ele>662.82</ele>
        <time>2017-09-23T11:42:17Z</time>
      </trkpt>
      <trkpt lat="48.07876" lon="6.88305">
        <ele>663.18</ele>
        <time>2017-09-23T11:42:18Z</time>
      </trkpt>
      <trkpt lat="48.07878" lon="6.88308">
        <ele>662.7</ele>
        <time>2017-09-23T11:42:19Z</time>
      </trkpt>
      <trkpt lat="48.07879" lon="6.88312">
        <ele>662.74</ele>
        <time>2017-09-23T11:42:20Z</time>
      </trkpt>
      <trkpt lat="48.07881" lon="6.88316">
        <ele>662.41</ele>
        <time>2017-09-23T11:42:21Z</time>
      </trkpt>
      <trkpt lat="48.07892" lon="6.88342">
        <ele>661.54</ele>
        <time>2017-09-23T11:42:26Z</time>
      </trkpt>
      <trkpt lat="48.07893" lon="6.88349">
        <ele>661.41</ele>
        <time>2017-09-23T11:42:27Z</time>
      </trkpt>
      <trkpt lat="48.07893" lon="6.88356">
        <ele>661.39</ele>
        <time>2017-09-23T11:42:28Z</time>
      </trkpt>
      <trkpt lat="48.07893" lon="6.88379">
        <ele>661.36</ele>
        <time>2017-09-23T11:42:31Z</time>
      </trkpt>
      <trkpt lat="48.07894" lon="6.88386">
        <ele>660.76</ele>
        <time>2017-09-23T11:42:32Z</time>
      </trkpt>
      <trkpt lat="48.07912" lon="6.88425">
        <ele>661.52</ele>
        <time>2017-09-23T11:42:40Z</time>
      </trkpt>
      <trkpt lat="48.07921" lon="6.8844">
        <ele>662.2</ele>
        <time>2017-09-23T11:42:43Z</time>
      </trkpt>
      <trkpt lat="48.0795" lon="6.88503">
        <ele>663.3</ele>
        <time>2017-09-23T11:42:56Z</time>
      </trkpt>
      <trkpt lat="48.07974" lon="6.88559">
        <ele>665.32</ele>
        <time>2017-09-23T11:43:10Z</time>
      </trkpt>
      <trkpt lat="48.08013" lon="6.88614">
        <ele>666.59</ele>
        <time>2017-09-23T11:43:25Z</time>
      </trkpt>
      <trkpt lat="48.08031" lon="6.88663">
        <ele>666.09</ele>
        <time>2017-09-23T11:43:36Z</time>
      </trkpt>
      <trkpt lat="48.08035" lon="6.88702">
        <ele>665.16</ele>
        <time>2017-09-23T11:43:42Z</time>
      </trkpt>
      <trkpt lat="48.0805" lon="6.8878">
        <ele>664.44</ele>
        <time>2017-09-23T11:43:55Z</time>
      </trkpt>
      <trkpt lat="48.08061" lon="6.88822">
        <ele>664.12</ele>
        <time>2017-09-23T11:44:02Z</time>
      </trkpt>
      <trkpt lat="48.08062" lon="6.88828">
        <ele>663.86</ele>
        <time>2017-09-23T11:44:03Z</time>
      </trkpt>
      <trkpt lat="48.08062" lon="6.88834">
        <ele>664.1</ele>
        <time>2017-09-23T11:44:04Z</time>
      </trkpt>
      <trkpt lat="48.08063" lon="6.88841">
        <ele>663.83</ele>
        <time>2017-09-23T11:44:05Z</time>
      </trkpt>
      <trkpt lat="48.08066" lon="6.88848">
        <ele>663.94</ele>
        <time>2017-09-23T11:44:06Z</time>
      </trkpt>
      <trkpt lat="48.08068" lon="6.88854">
        <ele>663.91</ele>
        <time>2017-09-23T11:44:07Z</time>
      </trkpt>
      <trkpt lat="48.0807" lon="6.88857">
        <ele>664.05</ele>
        <time>2017-09-23T11:44:08Z</time>
      </trkpt>
      <trkpt lat="48.08074" lon="6.88859">
        <ele>664.56</ele>
        <time>2017-09-23T11:44:09Z</time>
      </trkpt>
      <trkpt lat="48.08078" lon="6.8886">
        <ele>664.09</ele>
        <time>2017-09-23T11:44:10Z</time>
      </trkpt>
      <trkpt lat="48.08082" lon="6.88861">
        <ele>664.32</ele>
        <time>2017-09-23T11:44:11Z</time>
      </trkpt>
      <trkpt lat="48.08084" lon="6.88863">
        <ele>664.46</ele>
        <time>2017-09-23T11:44:12Z</time>
      </trkpt>
      <trkpt lat="48.08086" lon="6.88869">
        <ele>664.16</ele>
        <time>2017-09-23T11:44:13Z</time>
      </trkpt>
      <trkpt lat="48.08088" lon="6.88874">
        <ele>664.68</ele>
        <time>2017-09-23T11:44:14Z</time>
      </trkpt>
      <trkpt lat="48.0809" lon="6.88879">
        <ele>664.33</ele>
        <time>2017-09-23T11:44:15Z</time>
      </trkpt>
      <trkpt lat="48.08093" lon="6.88883">
        <ele>664.15</ele>
        <time>2017-09-23T11:44:16Z</time>
      </trkpt>
      <trkpt lat="48.08096" lon="6.88886">
        <ele>664.35</ele>
        <time>2017-09-23T11:44:17Z</time>
      </trkpt>
      <trkpt lat="48.08099" lon="6.88888">
        <ele>664.25</ele>
        <time>2017-09-23T11:44:18Z</time>
      </trkpt>
      <trkpt lat="48.08102" lon="6.8889">
        <ele>664.31</ele>
        <time>2017-09-23T11:44:19Z</time>
      </trkpt>
      <trkpt lat="48.08106" lon="6.88891">
        <ele>664.23</ele>
        <time>2017-09-23T11:44:20Z</time>
      </trkpt>
      <trkpt lat="48.08141" lon="6.88902">
        <ele>663.91</ele>
        <time>2017-09-23T11:44:35Z</time>
      </trkpt>
      <trkpt lat="48.08143" lon="6.88903">
        <ele>663.92</ele>
        <time>2017-09-23T11:44:36Z</time>
      </trkpt>
      <trkpt lat="48.08145" lon="6.88904">
        <ele>663.85</ele>
        <time>2017-09-23T11:44:37Z</time>
      </trkpt>
      <trkpt lat="48.08146" lon="6.88905">
        <ele>663.72</ele>
        <time>2017-09-23T11:44:38Z</time>
      </trkpt>
      <trkpt lat="48.08148" lon="6.88906">
        <ele>663.36</ele>
        <time>2017-09-23T11:44:39Z</time>
      </trkpt>
      <trkpt lat="48.0815" lon="6.88908">
        <ele>663.53</ele>
        <time>2017-09-23T11:44:40Z</time>
      </trkpt>
      <trkpt lat="48.08155" lon="6.88907">
        <ele>664.29</ele>
        <time>2017-09-23T11:44:44Z</time>
      </trkpt>
      <trkpt lat="48.08154" lon="6.88907">
        <ele>664.31</ele>
        <time>2017-09-23T11:44:45Z</time>
      </trkpt>
      <trkpt lat="48.08152" lon="6.88907">
        <ele>663.71</ele>
        <time>2017-09-23T11:44:46Z</time>
      </trkpt>
      <trkpt lat="48.0815" lon="6.88907">
        <ele>664.31</ele>
        <time>2017-09-23T11:44:47Z</time>
      </trkpt>
      <trkpt lat="48.08148" lon="6.88906">
        <ele>664.53</ele>
        <time>2017-09-23T11:44:48Z</time>
      </trkpt>
      <trkpt lat="48.08112" lon="6.8889">
        <ele>664.59</ele>
        <time>2017-09-23T11:45:03Z</time>
      </trkpt>
      <trkpt lat="48.08089" lon="6.88857">
        <ele>663.86</ele>
        <time>2017-09-23T11:45:16Z</time>
      </trkpt>
      <trkpt lat="48.08083" lon="6.88841">
        <ele>663.7</ele>
        <time>2017-09-23T11:45:29Z</time>
      </trkpt>
      <trkpt lat="48.08089" lon="6.88837">
        <ele>663.9</ele>
        <time>2017-09-23T11:45:59Z</time>
      </trkpt>
      <trkpt lat="48.08084" lon="6.88834">
        <ele>663.32</ele>
        <time>2017-09-23T11:46:10Z</time>
      </trkpt>
      <trkpt lat="48.08083" lon="6.88833">
        <ele>663.82</ele>
        <time>2017-09-23T11:46:11Z</time>
      </trkpt>
      <trkpt lat="48.08081" lon="6.88831">
        <ele>663.67</ele>
        <time>2017-09-23T11:46:12Z</time>
      </trkpt>
      <trkpt lat="48.0808" lon="6.88829">
        <ele>663.86</ele>
        <time>2017-09-23T11:46:13Z</time>
      </trkpt>
      <trkpt lat="48.08078" lon="6.88825">
        <ele>663.98</ele>
        <time>2017-09-23T11:46:14Z</time>
      </trkpt>
      <trkpt lat="48.08077" lon="6.88822">
        <ele>663.94</ele>
        <time>2017-09-23T11:46:15Z</time>
      </trkpt>
      <trkpt lat="48.08056" lon="6.88771">
        <ele>665.36</ele>
        <time>2017-09-23T11:46:28Z</time>
      </trkpt>
      <trkpt lat="48.08047" lon="6.88705">
        <ele>665.29</ele>
        <time>2017-09-23T11:46:41Z</time>
      </trkpt>
      <trkpt lat="48.08035" lon="6.88646">
        <ele>666.56</ele>
        <time>2017-09-23T11:46:53Z</time>
      </trkpt>
      <trkpt lat="48.08008" lon="6.88608">
        <ele>666.71</ele>
        <time>2017-09-23T11:47:03Z</time>
      </trkpt>
      <trkpt lat="48.07996" lon="6.88588">
        <ele>665.98</ele>
        <time>2017-09-23T11:47:07Z</time>
      </trkpt>
      <trkpt lat="48.0798" lon="6.88558">
        <ele>665.12</ele>
        <time>2017-09-23T11:47:13Z</time>
      </trkpt>
      <trkpt lat="48.07959" lon="6.88504">
        <ele>663.65</ele>
        <time>2017-09-23T11:47:21Z</time>
      </trkpt>
      <trkpt lat="48.07949" lon="6.88471">
        <ele>663.28</ele>
        <time>2017-09-23T11:47:26Z</time>
      </trkpt>
      <trkpt lat="48.07943" lon="6.88441">
        <ele>663.31</ele>
        <time>2017-09-23T11:47:32Z</time>
      </trkpt>
      <trkpt lat="48.07945" lon="6.88438">
        <ele>663.39</ele>
        <time>2017-09-23T11:47:33Z</time>
      </trkpt>
      <trkpt lat="48.07948" lon="6.88437">
        <ele>663.76</ele>
        <time>2017-09-23T11:47:34Z</time>
      </trkpt>
      <trkpt lat="48.07951" lon="6.88438">
        <ele>664.14</ele>
        <time>2017-09-23T11:47:35Z</time>
      </trkpt>
      <trkpt lat="48.07955" lon="6.8844">
        <ele>664.88</ele>
        <time>2017-09-23T11:47:36Z</time>
      </trkpt>
      <trkpt lat="48.07958" lon="6.88442">
        <ele>664.89</ele>
        <time>2017-09-23T11:47:37Z</time>
      </trkpt>
      <trkpt lat="48.07961" lon="6.88445">
        <ele>665.11</ele>
        <time>2017-09-23T11:47:38Z</time>
      </trkpt>
      <trkpt lat="48.07964" lon="6.88448">
        <ele>665.37</ele>
        <time>2017-09-23T11:47:39Z</time>
      </trkpt>
      <trkpt lat="48.07985" lon="6.88471">
        <ele>668.39</ele>
        <time>2017-09-23T11:47:47Z</time>
      </trkpt>
      <trkpt lat="48.08015" lon="6.88529">
        <ele>671.14</ele>
        <time>2017-09-23T11:48:03Z</time>
      </trkpt>
      <trkpt lat="48.08044" lon="6.88569">
        <ele>674.2</ele>
        <time>2017-09-23T11:48:16Z</time>
      </trkpt>
      <trkpt lat="48.08101" lon="6.8862">
        <ele>676.39</ele>
        <time>2017-09-23T11:48:34Z</time>
      </trkpt>
      <trkpt lat="48.08153" lon="6.88664">
        <ele>680</ele>
        <time>2017-09-23T11:48:51Z</time>
      </trkpt>
      <trkpt lat="48.08204" lon="6.88683">
        <ele>683</ele>
        <time>2017-09-23T11:49:07Z</time>
      </trkpt>
      <trkpt lat="48.08229" lon="6.8869">
        <ele>684.74</ele>
        <time>2017-09-23T11:49:15Z</time>
      </trkpt>
      <trkpt lat="48.08277" lon="6.88706">
        <ele>686.87</ele>
        <time>2017-09-23T11:49:31Z</time>
      </trkpt>
      <trkpt lat="48.0831" lon="6.88721">
        <ele>689.97</ele>
        <time>2017-09-23T11:49:43Z</time>
      </trkpt>
      <trkpt lat="48.08342" lon="6.88741">
        <ele>693.06</ele>
        <time>2017-09-23T11:49:56Z</time>
      </trkpt>
      <trkpt lat="48.08363" lon="6.88733">
        <ele>695.68</ele>
        <time>2017-09-23T11:50:04Z</time>
      </trkpt>
      <trkpt lat="48.08379" lon="6.88708">
        <ele>698.69</ele>
        <time>2017-09-23T11:50:15Z</time>
      </trkpt>
      <trkpt lat="48.08398" lon="6.88661">
        <ele>701.4</ele>
        <time>2017-09-23T11:50:32Z</time>
      </trkpt>
      <trkpt lat="48.08399" lon="6.88655">
        <ele>701.55</ele>
        <time>2017-09-23T11:50:46Z</time>
      </trkpt>
      <trkpt lat="48.08399" lon="6.88652">
        <ele>701.33</ele>
        <time>2017-09-23T11:51:27Z</time>
      </trkpt>
      <trkpt lat="48.084" lon="6.88651">
        <ele>700.79</ele>
        <time>2017-09-23T11:52:11Z</time>
      </trkpt>
      <trkpt lat="48.08402" lon="6.88651">
        <ele>701.88</ele>
        <time>2017-09-23T11:52:37Z</time>
      </trkpt>
      <trkpt lat="48.08402" lon="6.88645">
        <ele>701.08</ele>
        <time>2017-09-23T11:52:49Z</time>
      </trkpt>
      <trkpt lat="48.08403" lon="6.88643">
        <ele>701.91</ele>
        <time>2017-09-23T11:52:50Z</time>
      </trkpt>
      <trkpt lat="48.08404" lon="6.8864">
        <ele>702.11</ele>
        <time>2017-09-23T11:52:51Z</time>
      </trkpt>
      <trkpt lat="48.08406" lon="6.88637">
        <ele>702.96</ele>
        <time>2017-09-23T11:52:52Z</time>
      </trkpt>
      <trkpt lat="48.08407" lon="6.88634">
        <ele>702.51</ele>
        <time>2017-09-23T11:52:53Z</time>
      </trkpt>
      <trkpt lat="48.08409" lon="6.88632">
        <ele>702.92</ele>
        <time>2017-09-23T11:52:54Z</time>
      </trkpt>
      <trkpt lat="48.08411" lon="6.88629">
        <ele>702.99</ele>
        <time>2017-09-23T11:52:55Z</time>
      </trkpt>
      <trkpt lat="48.08412" lon="6.88626">
        <ele>703.39</ele>
        <time>2017-09-23T11:52:56Z</time>
      </trkpt>
      <trkpt lat="48.0843" lon="6.88564">
        <ele>704.15</ele>
        <time>2017-09-23T11:53:15Z</time>
      </trkpt>
      <trkpt lat="48.08442" lon="6.88516">
        <ele>706.08</ele>
        <time>2017-09-23T11:53:31Z</time>
      </trkpt>
      <trkpt lat="48.08447" lon="6.88513">
        <ele>705.67</ele>
        <time>2017-09-23T11:53:45Z</time>
      </trkpt>
      <trkpt lat="48.08449" lon="6.88515">
        <ele>705.52</ele>
        <time>2017-09-23T11:54:05Z</time>
      </trkpt>
      <trkpt lat="48.08453" lon="6.88525">
        <ele>706.29</ele>
        <time>2017-09-23T11:54:08Z</time>
      </trkpt>
      <trkpt lat="48.08456" lon="6.88528">
        <ele>705.91</ele>
        <time>2017-09-23T11:54:09Z</time>
      </trkpt>
      <trkpt lat="48.08459" lon="6.88531">
        <ele>705.67</ele>
        <time>2017-09-23T11:54:10Z</time>
      </trkpt>
      <trkpt lat="48.08462" lon="6.88534">
        <ele>705.61</ele>
        <time>2017-09-23T11:54:11Z</time>
      </trkpt>
      <trkpt lat="48.08465" lon="6.88537">
        <ele>705.7</ele>
        <time>2017-09-23T11:54:12Z</time>
      </trkpt>
      <trkpt lat="48.08517" lon="6.88592">
        <ele>706.61</ele>
        <time>2017-09-23T11:54:28Z</time>
      </trkpt>
      <trkpt lat="48.08575" lon="6.88632">
        <ele>708.05</ele>
        <time>2017-09-23T11:54:45Z</time>
      </trkpt>
      <trkpt lat="48.08613" lon="6.88669">
        <ele>708.08</ele>
        <time>2017-09-23T11:54:58Z</time>
      </trkpt>
      <trkpt lat="48.08646" lon="6.88706">
        <ele>708.31</ele>
        <time>2017-09-23T11:55:11Z</time>
      </trkpt>
      <trkpt lat="48.0868" lon="6.88733">
        <ele>708.59</ele>
        <time>2017-09-23T11:55:25Z</time>
      </trkpt>
      <trkpt lat="48.08707" lon="6.88735">
        <ele>707.03</ele>
        <time>2017-09-23T11:55:36Z</time>
      </trkpt>
      <trkpt lat="48.08741" lon="6.8873">
        <ele>707.35</ele>
        <time>2017-09-23T11:55:49Z</time>
      </trkpt>
      <trkpt lat="48.08762" lon="6.8872">
        <ele>707.02</ele>
        <time>2017-09-23T11:56:03Z</time>
      </trkpt>
      <trkpt lat="48.0879" lon="6.88697">
        <ele>708.76</ele>
        <time>2017-09-23T11:56:16Z</time>
      </trkpt>
      <trkpt lat="48.08813" lon="6.88675">
        <ele>707.57</ele>
        <time>2017-09-23T11:56:23Z</time>
      </trkpt>
      <trkpt lat="48.08816" lon="6.8867">
        <ele>707.24</ele>
        <time>2017-09-23T11:56:24Z</time>
      </trkpt>
      <trkpt lat="48.0882" lon="6.88665">
        <ele>707.4</ele>
        <time>2017-09-23T11:56:25Z</time>
      </trkpt>
      <trkpt lat="48.08837" lon="6.88648">
        <ele>703.99</ele>
        <time>2017-09-23T11:56:30Z</time>
      </trkpt>
      <trkpt lat="48.08841" lon="6.88645">
        <ele>703.43</ele>
        <time>2017-09-23T11:56:31Z</time>
      </trkpt>
      <trkpt lat="48.08849" lon="6.88639">
        <ele>701.73</ele>
        <time>2017-09-23T11:56:33Z</time>
      </trkpt>
      <trkpt lat="48.08852" lon="6.88635">
        <ele>701.46</ele>
        <time>2017-09-23T11:56:34Z</time>
      </trkpt>
      <trkpt lat="48.08861" lon="6.88619">
        <ele>699.32</ele>
        <time>2017-09-23T11:56:38Z</time>
      </trkpt>
      <trkpt lat="48.08862" lon="6.886">
        <ele>696.55</ele>
        <time>2017-09-23T11:56:43Z</time>
      </trkpt>
      <trkpt lat="48.08861" lon="6.88596">
        <ele>695.55</ele>
        <time>2017-09-23T11:56:44Z</time>
      </trkpt>
      <trkpt lat="48.0886" lon="6.8859">
        <ele>695.14</ele>
        <time>2017-09-23T11:56:45Z</time>
      </trkpt>
      <trkpt lat="48.08859" lon="6.88576">
        <ele>693.59</ele>
        <time>2017-09-23T11:56:48Z</time>
      </trkpt>
      <trkpt lat="48.08863" lon="6.88555">
        <ele>690.23</ele>
        <time>2017-09-23T11:56:53Z</time>
      </trkpt>
      <trkpt lat="48.08868" lon="6.88538">
        <ele>688.53</ele>
        <time>2017-09-23T11:56:56Z</time>
      </trkpt>
      <trkpt lat="48.08874" lon="6.88529">
        <ele>686.43</ele>
        <time>2017-09-23T11:56:58Z</time>
      </trkpt>
      <trkpt lat="48.08877" lon="6.88524">
        <ele>685.4</ele>
        <time>2017-09-23T11:56:59Z</time>
      </trkpt>
      <trkpt lat="48.08881" lon="6.8852">
        <ele>684.21</ele>
        <time>2017-09-23T11:57:00Z</time>
      </trkpt>
      <trkpt lat="48.08884" lon="6.88517">
        <ele>683.92</ele>
        <time>2017-09-23T11:57:01Z</time>
      </trkpt>
      <trkpt lat="48.08897" lon="6.88503">
        <ele>680.1</ele>
        <time>2017-09-23T11:57:05Z</time>
      </trkpt>
      <trkpt lat="48.08906" lon="6.88492">
        <ele>678.1</ele>
        <time>2017-09-23T11:57:08Z</time>
      </trkpt>
      <trkpt lat="48.0892" lon="6.88464">
        <ele>674.95</ele>
        <time>2017-09-23T11:57:14Z</time>
      </trkpt>
      <trkpt lat="48.08928" lon="6.88451">
        <ele>671.76</ele>
        <time>2017-09-23T11:57:17Z</time>
      </trkpt>
      <trkpt lat="48.0893" lon="6.88447">
        <ele>671.92</ele>
        <time>2017-09-23T11:57:18Z</time>
      </trkpt>
      <trkpt lat="48.08939" lon="6.88425">
        <ele>668.82</ele>
        <time>2017-09-23T11:57:23Z</time>
      </trkpt>
      <trkpt lat="48.08943" lon="6.88418">
        <ele>667.94</ele>
        <time>2017-09-23T11:57:25Z</time>
      </trkpt>
      <trkpt lat="48.08951" lon="6.88405">
        <ele>664.22</ele>
        <time>2017-09-23T11:57:29Z</time>
      </trkpt>
      <trkpt lat="48.08953" lon="6.88403">
        <ele>664.77</ele>
        <time>2017-09-23T11:57:30Z</time>
      </trkpt>
      <trkpt lat="48.08962" lon="6.88393">
        <ele>661.6</ele>
        <time>2017-09-23T11:57:35Z</time>
      </trkpt>
      <trkpt lat="48.08963" lon="6.88392">
        <ele>661.1</ele>
        <time>2017-09-23T11:57:36Z</time>
      </trkpt>
      <trkpt lat="48.08968" lon="6.88389">
        <ele>660.16</ele>
        <time>2017-09-23T11:57:38Z</time>
      </trkpt>
      <trkpt lat="48.08974" lon="6.88387">
        <ele>658.64</ele>
        <time>2017-09-23T11:57:42Z</time>
      </trkpt>
      <trkpt lat="48.08981" lon="6.88386">
        <ele>657.41</ele>
        <time>2017-09-23T11:57:46Z</time>
      </trkpt>
      <trkpt lat="48.08984" lon="6.88385">
        <ele>657.24</ele>
        <time>2017-09-23T11:57:47Z</time>
      </trkpt>
      <trkpt lat="48.08986" lon="6.88384">
        <ele>656.56</ele>
        <time>2017-09-23T11:57:48Z</time>
      </trkpt>
      <trkpt lat="48.09" lon="6.8838">
        <ele>653.42</ele>
        <time>2017-09-23T11:57:53Z</time>
      </trkpt>
      <trkpt lat="48.09004" lon="6.88378">
        <ele>653.31</ele>
        <time>2017-09-23T11:57:54Z</time>
      </trkpt>
      <trkpt lat="48.09025" lon="6.88378">
        <ele>649.81</ele>
        <time>2017-09-23T11:58:02Z</time>
      </trkpt>
      <trkpt lat="48.0903" lon="6.88381">
        <ele>648.57</ele>
        <time>2017-09-23T11:58:04Z</time>
      </trkpt>
      <trkpt lat="48.09047" lon="6.88393">
        <ele>645.09</ele>
        <time>2017-09-23T11:58:10Z</time>
      </trkpt>
      <trkpt lat="48.0906" lon="6.88403">
        <ele>643.5</ele>
        <time>2017-09-23T11:58:13Z</time>
      </trkpt>
      <trkpt lat="48.09066" lon="6.88406">
        <ele>642.91</ele>
        <time>2017-09-23T11:58:14Z</time>
      </trkpt>
      <trkpt lat="48.09091" lon="6.88417">
        <ele>641.28</ele>
        <time>2017-09-23T11:58:18Z</time>
      </trkpt>
      <trkpt lat="48.09122" lon="6.88418">
        <ele>637.44</ele>
        <time>2017-09-23T11:58:27Z</time>
      </trkpt>
      <trkpt lat="48.09158" lon="6.88398">
        <ele>634.39</ele>
        <time>2017-09-23T11:58:35Z</time>
      </trkpt>
      <trkpt lat="48.09168" lon="6.8839">
        <ele>634.38</ele>
        <time>2017-09-23T11:58:37Z</time>
      </trkpt>
      <trkpt lat="48.09178" lon="6.8838">
        <ele>633.91</ele>
        <time>2017-09-23T11:58:39Z</time>
      </trkpt>
      <trkpt lat="48.09183" lon="6.88376">
        <ele>633.13</ele>
        <time>2017-09-23T11:58:40Z</time>
      </trkpt>
      <trkpt lat="48.09187" lon="6.88374">
        <ele>633.53</ele>
        <time>2017-09-23T11:58:41Z</time>
      </trkpt>
      <trkpt lat="48.0919" lon="6.88374">
        <ele>633.8</ele>
        <time>2017-09-23T11:58:42Z</time>
      </trkpt>
      <trkpt lat="48.09193" lon="6.88373">
        <ele>634.28</ele>
        <time>2017-09-23T11:58:43Z</time>
      </trkpt>
      <trkpt lat="48.09223" lon="6.88376">
        <ele>632.81</ele>
        <time>2017-09-23T11:58:51Z</time>
      </trkpt>
      <trkpt lat="48.09255" lon="6.88372">
        <ele>631.33</ele>
        <time>2017-09-23T11:59:01Z</time>
      </trkpt>
      <trkpt lat="48.0926" lon="6.88374">
        <ele>630.87</ele>
        <time>2017-09-23T11:59:03Z</time>
      </trkpt>
      <trkpt lat="48.09262" lon="6.88375">
        <ele>630.62</ele>
        <time>2017-09-23T11:59:04Z</time>
      </trkpt>
      <trkpt lat="48.09264" lon="6.88377">
        <ele>631.32</ele>
        <time>2017-09-23T11:59:05Z</time>
      </trkpt>
      <trkpt lat="48.09266" lon="6.88381">
        <ele>630.54</ele>
        <time>2017-09-23T11:59:06Z</time>
      </trkpt>
      <trkpt lat="48.09269" lon="6.88386">
        <ele>630.46</ele>
        <time>2017-09-23T11:59:07Z</time>
      </trkpt>
      <trkpt lat="48.09278" lon="6.88398">
        <ele>630.08</ele>
        <time>2017-09-23T11:59:09Z</time>
      </trkpt>
      <trkpt lat="48.09282" lon="6.88404">
        <ele>630.11</ele>
        <time>2017-09-23T11:59:10Z</time>
      </trkpt>
      <trkpt lat="48.09285" lon="6.8841">
        <ele>629.57</ele>
        <time>2017-09-23T11:59:11Z</time>
      </trkpt>
      <trkpt lat="48.09286" lon="6.88417">
        <ele>629.85</ele>
        <time>2017-09-23T11:59:12Z</time>
      </trkpt>
      <trkpt lat="48.09287" lon="6.88423">
        <ele>630</ele>
        <time>2017-09-23T11:59:13Z</time>
      </trkpt>
      <trkpt lat="48.09296" lon="6.88454">
        <ele>629.72</ele>
        <time>2017-09-23T11:59:21Z</time>
      </trkpt>
      <trkpt lat="48.09298" lon="6.88454">
        <ele>629.9</ele>
        <time>2017-09-23T11:59:22Z</time>
      </trkpt>
      <trkpt lat="48.093" lon="6.88454">
        <ele>629.72</ele>
        <time>2017-09-23T11:59:23Z</time>
      </trkpt>
      <trkpt lat="48.09316" lon="6.88455">
        <ele>629.99</ele>
        <time>2017-09-23T11:59:31Z</time>
      </trkpt>
      <trkpt lat="48.09318" lon="6.88453">
        <ele>629.8</ele>
        <time>2017-09-23T11:59:32Z</time>
      </trkpt>
      <trkpt lat="48.09354" lon="6.88421">
        <ele>629</ele>
        <time>2017-09-23T11:59:47Z</time>
      </trkpt>
      <trkpt lat="48.09389" lon="6.8839">
        <ele>628.39</ele>
        <time>2017-09-23T11:59:57Z</time>
      </trkpt>
      <trkpt lat="48.09426" lon="6.88353">
        <ele>627.85</ele>
        <time>2017-09-23T12:00:06Z</time>
      </trkpt>
      <trkpt lat="48.09477" lon="6.88309">
        <ele>626.11</ele>
        <time>2017-09-23T12:00:20Z</time>
      </trkpt>
      <trkpt lat="48.09479" lon="6.88309">
        <ele>625.91</ele>
        <time>2017-09-23T12:00:21Z</time>
      </trkpt>
      <trkpt lat="48.0948" lon="6.88311">
        <ele>625.37</ele>
        <time>2017-09-23T12:00:22Z</time>
      </trkpt>
      <trkpt lat="48.09481" lon="6.88315">
        <ele>625.81</ele>
        <time>2017-09-23T12:00:23Z</time>
      </trkpt>
      <trkpt lat="48.0948" lon="6.8832">
        <ele>625.71</ele>
        <time>2017-09-23T12:00:24Z</time>
      </trkpt>
      <trkpt lat="48.09479" lon="6.88324">
        <ele>625.96</ele>
        <time>2017-09-23T12:00:25Z</time>
      </trkpt>
      <trkpt lat="48.09477" lon="6.88328">
        <ele>625.95</ele>
        <time>2017-09-23T12:00:26Z</time>
      </trkpt>
      <trkpt lat="48.09475" lon="6.88332">
        <ele>625.97</ele>
        <time>2017-09-23T12:00:27Z</time>
      </trkpt>
      <trkpt lat="48.09474" lon="6.88336">
        <ele>626.52</ele>
        <time>2017-09-23T12:00:28Z</time>
      </trkpt>
      <trkpt lat="48.09449" lon="6.88392">
        <ele>628.31</ele>
        <time>2017-09-23T12:00:41Z</time>
      </trkpt>
      <trkpt lat="48.09441" lon="6.88447">
        <ele>631</ele>
        <time>2017-09-23T12:00:53Z</time>
      </trkpt>
      <trkpt lat="48.0945" lon="6.88493">
        <ele>632.83</ele>
        <time>2017-09-23T12:01:06Z</time>
      </trkpt>
      <trkpt lat="48.09435" lon="6.88548">
        <ele>635.04</ele>
        <time>2017-09-23T12:01:21Z</time>
      </trkpt>
      <trkpt lat="48.09409" lon="6.8858">
        <ele>636.02</ele>
        <time>2017-09-23T12:01:33Z</time>
      </trkpt>
      <trkpt lat="48.09385" lon="6.88624">
        <ele>636.6</ele>
        <time>2017-09-23T12:01:45Z</time>
      </trkpt>
      <trkpt lat="48.09363" lon="6.88666">
        <ele>638.03</ele>
        <time>2017-09-23T12:01:57Z</time>
      </trkpt>
      <trkpt lat="48.09349" lon="6.88695">
        <ele>638.07</ele>
        <time>2017-09-23T12:02:04Z</time>
      </trkpt>
      <trkpt lat="48.09346" lon="6.887">
        <ele>637.93</ele>
        <time>2017-09-23T12:02:05Z</time>
      </trkpt>
      <trkpt lat="48.09343" lon="6.88705">
        <ele>638.4</ele>
        <time>2017-09-23T12:02:06Z</time>
      </trkpt>
      <trkpt lat="48.0932" lon="6.88767">
        <ele>637.35</ele>
        <time>2017-09-23T12:02:18Z</time>
      </trkpt>
      <trkpt lat="48.0931" lon="6.88786">
        <ele>637.56</ele>
        <time>2017-09-23T12:02:24Z</time>
      </trkpt>
      <trkpt lat="48.09283" lon="6.88776">
        <ele>637.1</ele>
        <time>2017-09-23T12:02:34Z</time>
      </trkpt>
      <trkpt lat="48.09246" lon="6.88773">
        <ele>637.77</ele>
        <time>2017-09-23T12:02:45Z</time>
      </trkpt>
      <trkpt lat="48.09239" lon="6.88778">
        <ele>637.41</ele>
        <time>2017-09-23T12:02:47Z</time>
      </trkpt>
      <trkpt lat="48.09235" lon="6.88779">
        <ele>637.74</ele>
        <time>2017-09-23T12:02:48Z</time>
      </trkpt>
      <trkpt lat="48.09231" lon="6.88781">
        <ele>637.64</ele>
        <time>2017-09-23T12:02:49Z</time>
      </trkpt>
      <trkpt lat="48.09228" lon="6.88784">
        <ele>637.2</ele>
        <time>2017-09-23T12:02:50Z</time>
      </trkpt>
      <trkpt lat="48.09224" lon="6.88784">
        <ele>637.21</ele>
        <time>2017-09-23T12:02:51Z</time>
      </trkpt>
      <trkpt lat="48.0922" lon="6.88788">
        <ele>637.39</ele>
        <time>2017-09-23T12:02:52Z</time>
      </trkpt>
      <trkpt lat="48.09217" lon="6.88792">
        <ele>637.47</ele>
        <time>2017-09-23T12:02:53Z</time>
      </trkpt>
      <trkpt lat="48.09214" lon="6.88796">
        <ele>637.41</ele>
        <time>2017-09-23T12:02:54Z</time>
      </trkpt>
      <trkpt lat="48.09206" lon="6.88805">
        <ele>637.8</ele>
        <time>2017-09-23T12:02:56Z</time>
      </trkpt>
      <trkpt lat="48.09203" lon="6.8881">
        <ele>637.72</ele>
        <time>2017-09-23T12:02:57Z</time>
      </trkpt>
      <trkpt lat="48.09181" lon="6.88837">
        <ele>638.23</ele>
        <time>2017-09-23T12:03:04Z</time>
      </trkpt>
      <trkpt lat="48.09178" lon="6.88841">
        <ele>638.18</ele>
        <time>2017-09-23T12:03:05Z</time>
      </trkpt>
      <trkpt lat="48.09175" lon="6.88846">
        <ele>638.39</ele>
        <time>2017-09-23T12:03:06Z</time>
      </trkpt>
      <trkpt lat="48.09166" lon="6.88861">
        <ele>638.56</ele>
        <time>2017-09-23T12:03:09Z</time>
      </trkpt>
      <trkpt lat="48.09149" lon="6.88896">
        <ele>638.54</ele>
        <time>2017-09-23T12:03:16Z</time>
      </trkpt>
      <trkpt lat="48.09142" lon="6.88913">
        <ele>638.77</ele>
        <time>2017-09-23T12:03:19Z</time>
      </trkpt>
      <trkpt lat="48.09133" lon="6.88937">
        <ele>639.1</ele>
        <time>2017-09-23T12:03:23Z</time>
      </trkpt>
      <trkpt lat="48.09131" lon="6.88943">
        <ele>638.97</ele>
        <time>2017-09-23T12:03:24Z</time>
      </trkpt>
      <trkpt lat="48.0913" lon="6.88949">
        <ele>638.93</ele>
        <time>2017-09-23T12:03:25Z</time>
      </trkpt>
      <trkpt lat="48.09129" lon="6.88955">
        <ele>639.06</ele>
        <time>2017-09-23T12:03:26Z</time>
      </trkpt>
      <trkpt lat="48.09127" lon="6.88961">
        <ele>638.88</ele>
        <time>2017-09-23T12:03:27Z</time>
      </trkpt>
      <trkpt lat="48.09125" lon="6.88967">
        <ele>639.32</ele>
        <time>2017-09-23T12:03:28Z</time>
      </trkpt>
      <trkpt lat="48.09124" lon="6.88973">
        <ele>639.03</ele>
        <time>2017-09-23T12:03:29Z</time>
      </trkpt>
      <trkpt lat="48.09123" lon="6.88979">
        <ele>639.51</ele>
        <time>2017-09-23T12:03:30Z</time>
      </trkpt>
      <trkpt lat="48.09122" lon="6.88985">
        <ele>639.78</ele>
        <time>2017-09-23T12:03:31Z</time>
      </trkpt>
      <trkpt lat="48.09111" lon="6.89028">
        <ele>640.11</ele>
        <time>2017-09-23T12:03:39Z</time>
      </trkpt>
      <trkpt lat="48.09109" lon="6.89033">
        <ele>640.66</ele>
        <time>2017-09-23T12:03:40Z</time>
      </trkpt>
      <trkpt lat="48.09108" lon="6.89039">
        <ele>640.36</ele>
        <time>2017-09-23T12:03:41Z</time>
      </trkpt>
      <trkpt lat="48.09106" lon="6.89045">
        <ele>640.5</ele>
        <time>2017-09-23T12:03:42Z</time>
      </trkpt>
      <trkpt lat="48.09104" lon="6.8905">
        <ele>640.55</ele>
        <time>2017-09-23T12:03:43Z</time>
      </trkpt>
      <trkpt lat="48.09082" lon="6.89116">
        <ele>641.28</ele>
        <time>2017-09-23T12:03:56Z</time>
      </trkpt>
      <trkpt lat="48.09066" lon="6.89176">
        <ele>642.63</ele>
        <time>2017-09-23T12:04:08Z</time>
      </trkpt>
      <trkpt lat="48.09054" lon="6.89238">
        <ele>643.55</ele>
        <time>2017-09-23T12:04:21Z</time>
      </trkpt>
      <trkpt lat="48.09054" lon="6.89241">
        <ele>643.55</ele>
        <time>2017-09-23T12:04:22Z</time>
      </trkpt>
      <trkpt lat="48.09054" lon="6.89243">
        <ele>644.49</ele>
        <time>2017-09-23T12:04:23Z</time>
      </trkpt>
      <trkpt lat="48.09055" lon="6.89248">
        <ele>643.67</ele>
        <time>2017-09-23T12:04:26Z</time>
      </trkpt>
      <trkpt lat="48.09055" lon="6.89251">
        <ele>644.23</ele>
        <time>2017-09-23T12:04:27Z</time>
      </trkpt>
      <trkpt lat="48.09054" lon="6.89255">
        <ele>644.34</ele>
        <time>2017-09-23T12:04:28Z</time>
      </trkpt>
      <trkpt lat="48.09038" lon="6.89317">
        <ele>645.86</ele>
        <time>2017-09-23T12:04:40Z</time>
      </trkpt>
      <trkpt lat="48.09023" lon="6.89382">
        <ele>646.68</ele>
        <time>2017-09-23T12:04:52Z</time>
      </trkpt>
      <trkpt lat="48.09001" lon="6.89439">
        <ele>648.62</ele>
        <time>2017-09-23T12:05:05Z</time>
      </trkpt>
      <trkpt lat="48.08986" lon="6.89486">
        <ele>649.62</ele>
        <time>2017-09-23T12:05:16Z</time>
      </trkpt>
      <trkpt lat="48.0898" lon="6.89548">
        <ele>650.3</ele>
        <time>2017-09-23T12:05:28Z</time>
      </trkpt>
      <trkpt lat="48.08975" lon="6.89605">
        <ele>650.56</ele>
        <time>2017-09-23T12:05:38Z</time>
      </trkpt>
      <trkpt lat="48.08964" lon="6.8966">
        <ele>651.18</ele>
        <time>2017-09-23T12:05:48Z</time>
      </trkpt>
      <trkpt lat="48.08935" lon="6.89709">
        <ele>651.88</ele>
        <time>2017-09-23T12:06:00Z</time>
      </trkpt>
      <trkpt lat="48.089" lon="6.89724">
        <ele>652.81</ele>
        <time>2017-09-23T12:06:11Z</time>
      </trkpt>
      <trkpt lat="48.08875" lon="6.89731">
        <ele>653.23</ele>
        <time>2017-09-23T12:06:21Z</time>
      </trkpt>
      <trkpt lat="48.08845" lon="6.89767">
        <ele>654.06</ele>
        <time>2017-09-23T12:06:31Z</time>
      </trkpt>
      <trkpt lat="48.08822" lon="6.89824">
        <ele>654.33</ele>
        <time>2017-09-23T12:06:42Z</time>
      </trkpt>
      <trkpt lat="48.08801" lon="6.89877">
        <ele>655.39</ele>
        <time>2017-09-23T12:06:54Z</time>
      </trkpt>
      <trkpt lat="48.08792" lon="6.89905">
        <ele>655.35</ele>
        <time>2017-09-23T12:06:59Z</time>
      </trkpt>
      <trkpt lat="48.0879" lon="6.8991">
        <ele>656.05</ele>
        <time>2017-09-23T12:07:00Z</time>
      </trkpt>
      <trkpt lat="48.08789" lon="6.89916">
        <ele>656.07</ele>
        <time>2017-09-23T12:07:01Z</time>
      </trkpt>
      <trkpt lat="48.08776" lon="6.89976">
        <ele>657.07</ele>
        <time>2017-09-23T12:07:12Z</time>
      </trkpt>
      <trkpt lat="48.0877" lon="6.90006">
        <ele>656.99</ele>
        <time>2017-09-23T12:07:21Z</time>
      </trkpt>
      <trkpt lat="48.0877" lon="6.9001">
        <ele>656.56</ele>
        <time>2017-09-23T12:07:33Z</time>
      </trkpt>
      <trkpt lat="48.08771" lon="6.90009">
        <ele>656.32</ele>
        <time>2017-09-23T12:07:57Z</time>
      </trkpt>
      <trkpt lat="48.08767" lon="6.90008">
        <ele>655.72</ele>
        <time>2017-09-23T12:08:21Z</time>
      </trkpt>
      <trkpt lat="48.08767" lon="6.90005">
        <ele>656.33</ele>
        <time>2017-09-23T12:08:51Z</time>
      </trkpt>
      <trkpt lat="48.08772" lon="6.90004">
        <ele>655.8</ele>
        <time>2017-09-23T12:09:17Z</time>
      </trkpt>
      <trkpt lat="48.08772" lon="6.9001">
        <ele>656.18</ele>
        <time>2017-09-23T12:09:40Z</time>
      </trkpt>
      <trkpt lat="48.08767" lon="6.90021">
        <ele>656.77</ele>
        <time>2017-09-23T12:09:48Z</time>
      </trkpt>
      <trkpt lat="48.08767" lon="6.90023">
        <ele>656.21</ele>
        <time>2017-09-23T12:09:49Z</time>
      </trkpt>
      <trkpt lat="48.08753" lon="6.90057">
        <ele>657.42</ele>
        <time>2017-09-23T12:10:04Z</time>
      </trkpt>
      <trkpt lat="48.08752" lon="6.90059">
        <ele>657.48</ele>
        <time>2017-09-23T12:10:05Z</time>
      </trkpt>
      <trkpt lat="48.08745" lon="6.90071">
        <ele>658.17</ele>
        <time>2017-09-23T12:10:13Z</time>
      </trkpt>
      <trkpt lat="48.08743" lon="6.90073">
        <ele>657.71</ele>
        <time>2017-09-23T12:10:14Z</time>
      </trkpt>
      <trkpt lat="48.08742" lon="6.90075">
        <ele>657.86</ele>
        <time>2017-09-23T12:10:15Z</time>
      </trkpt>
      <trkpt lat="48.08741" lon="6.90077">
        <ele>658.08</ele>
        <time>2017-09-23T12:10:16Z</time>
      </trkpt>
      <trkpt lat="48.08739" lon="6.9008">
        <ele>657.65</ele>
        <time>2017-09-23T12:10:17Z</time>
      </trkpt>
      <trkpt lat="48.08737" lon="6.90084">
        <ele>657.71</ele>
        <time>2017-09-23T12:10:18Z</time>
      </trkpt>
      <trkpt lat="48.08735" lon="6.90086">
        <ele>658.5</ele>
        <time>2017-09-23T12:10:19Z</time>
      </trkpt>
      <trkpt lat="48.08733" lon="6.90088">
        <ele>658.35</ele>
        <time>2017-09-23T12:10:20Z</time>
      </trkpt>
      <trkpt lat="48.08731" lon="6.9009">
        <ele>658.69</ele>
        <time>2017-09-23T12:10:21Z</time>
      </trkpt>
      <trkpt lat="48.0873" lon="6.90091">
        <ele>658.26</ele>
        <time>2017-09-23T12:10:22Z</time>
      </trkpt>
      <trkpt lat="48.08717" lon="6.90107">
        <ele>659.26</ele>
        <time>2017-09-23T12:10:29Z</time>
      </trkpt>
      <trkpt lat="48.08715" lon="6.9011">
        <ele>659.63</ele>
        <time>2017-09-23T12:10:30Z</time>
      </trkpt>
      <trkpt lat="48.08714" lon="6.90113">
        <ele>659.25</ele>
        <time>2017-09-23T12:10:31Z</time>
      </trkpt>
      <trkpt lat="48.08691" lon="6.90149">
        <ele>661.2</ele>
        <time>2017-09-23T12:10:41Z</time>
      </trkpt>
      <trkpt lat="48.08685" lon="6.90188">
        <ele>662.14</ele>
        <time>2017-09-23T12:10:52Z</time>
      </trkpt>
      <trkpt lat="48.08689" lon="6.90204">
        <ele>662.26</ele>
        <time>2017-09-23T12:10:58Z</time>
      </trkpt>
      <trkpt lat="48.08692" lon="6.90214">
        <ele>662.84</ele>
        <time>2017-09-23T12:11:01Z</time>
      </trkpt>
      <trkpt lat="48.08692" lon="6.90217">
        <ele>662.7</ele>
        <time>2017-09-23T12:11:02Z</time>
      </trkpt>
      <trkpt lat="48.08692" lon="6.9022">
        <ele>663.18</ele>
        <time>2017-09-23T12:11:03Z</time>
      </trkpt>
      <trkpt lat="48.08692" lon="6.90223">
        <ele>663.55</ele>
        <time>2017-09-23T12:11:04Z</time>
      </trkpt>
      <trkpt lat="48.08692" lon="6.90227">
        <ele>663.96</ele>
        <time>2017-09-23T12:11:05Z</time>
      </trkpt>
      <trkpt lat="48.08691" lon="6.90231">
        <ele>663.67</ele>
        <time>2017-09-23T12:11:06Z</time>
      </trkpt>
      <trkpt lat="48.0869" lon="6.90234">
        <ele>664.05</ele>
        <time>2017-09-23T12:11:07Z</time>
      </trkpt>
      <trkpt lat="48.08689" lon="6.90238">
        <ele>663.94</ele>
        <time>2017-09-23T12:11:08Z</time>
      </trkpt>
      <trkpt lat="48.08687" lon="6.90241">
        <ele>663.68</ele>
        <time>2017-09-23T12:11:09Z</time>
      </trkpt>
      <trkpt lat="48.08686" lon="6.90244">
        <ele>664.39</ele>
        <time>2017-09-23T12:11:10Z</time>
      </trkpt>
      <trkpt lat="48.08685" lon="6.90247">
        <ele>664.67</ele>
        <time>2017-09-23T12:11:11Z</time>
      </trkpt>
      <trkpt lat="48.08683" lon="6.9025">
        <ele>665.12</ele>
        <time>2017-09-23T12:11:12Z</time>
      </trkpt>
      <trkpt lat="48.08665" lon="6.90289">
        <ele>665.15</ele>
        <time>2017-09-23T12:11:26Z</time>
      </trkpt>
      <trkpt lat="48.08653" lon="6.90311">
        <ele>666.14</ele>
        <time>2017-09-23T12:11:36Z</time>
      </trkpt>
      <trkpt lat="48.08651" lon="6.90312">
        <ele>665.52</ele>
        <time>2017-09-23T12:11:37Z</time>
      </trkpt>
      <trkpt lat="48.08633" lon="6.903">
        <ele>666.82</ele>
        <time>2017-09-23T12:11:48Z</time>
      </trkpt>
      <trkpt lat="48.08631" lon="6.90298">
        <ele>666.39</ele>
        <time>2017-09-23T12:12:06Z</time>
      </trkpt>
      <trkpt lat="48.08634" lon="6.90305">
        <ele>666.41</ele>
        <time>2017-09-23T12:12:18Z</time>
      </trkpt>
      <trkpt lat="48.08635" lon="6.90307">
        <ele>665.47</ele>
        <time>2017-09-23T12:12:19Z</time>
      </trkpt>
      <trkpt lat="48.08636" lon="6.90308">
        <ele>665.89</ele>
        <time>2017-09-23T12:12:20Z</time>
      </trkpt>
      <trkpt lat="48.0864" lon="6.90312">
        <ele>665.03</ele>
        <time>2017-09-23T12:12:35Z</time>
      </trkpt>
      <trkpt lat="48.08643" lon="6.90314">
        <ele>664.86</ele>
        <time>2017-09-23T12:12:59Z</time>
      </trkpt>
      <trkpt lat="48.08647" lon="6.90313">
        <ele>664.65</ele>
        <time>2017-09-23T12:13:05Z</time>
      </trkpt>
      <trkpt lat="48.08648" lon="6.90314">
        <ele>664.64</ele>
        <time>2017-09-23T12:13:06Z</time>
      </trkpt>
      <trkpt lat="48.0867" lon="6.90301">
        <ele>665.79</ele>
        <time>2017-09-23T12:13:16Z</time>
      </trkpt>
      <trkpt lat="48.08681" lon="6.90287">
        <ele>667.28</ele>
        <time>2017-09-23T12:13:23Z</time>
      </trkpt>
      <trkpt lat="48.08682" lon="6.90286">
        <ele>668.06</ele>
        <time>2017-09-23T12:13:24Z</time>
      </trkpt>
      <trkpt lat="48.08683" lon="6.90285">
        <ele>668.11</ele>
        <time>2017-09-23T12:13:25Z</time>
      </trkpt>
      <trkpt lat="48.0869" lon="6.90281">
        <ele>669.85</ele>
        <time>2017-09-23T12:13:29Z</time>
      </trkpt>
      <trkpt lat="48.08703" lon="6.9027">
        <ele>672.94</ele>
        <time>2017-09-23T12:13:38Z</time>
      </trkpt>
      <trkpt lat="48.08719" lon="6.90242">
        <ele>676.1</ele>
        <time>2017-09-23T12:13:51Z</time>
      </trkpt>
      <trkpt lat="48.08728" lon="6.90213">
        <ele>678.52</ele>
        <time>2017-09-23T12:13:58Z</time>
      </trkpt>
      <trkpt lat="48.0873" lon="6.90198">
        <ele>680.33</ele>
        <time>2017-09-23T12:14:03Z</time>
      </trkpt>
      <trkpt lat="48.08731" lon="6.90197">
        <ele>680.24</ele>
        <time>2017-09-23T12:14:04Z</time>
      </trkpt>
      <trkpt lat="48.08733" lon="6.90194">
        <ele>680.89</ele>
        <time>2017-09-23T12:14:05Z</time>
      </trkpt>
      <trkpt lat="48.08734" lon="6.90191">
        <ele>681.72</ele>
        <time>2017-09-23T12:14:07Z</time>
      </trkpt>
      <trkpt lat="48.08742" lon="6.90176">
        <ele>684.76</ele>
        <time>2017-09-23T12:14:17Z</time>
      </trkpt>
      <trkpt lat="48.08751" lon="6.90169">
        <ele>686.6</ele>
        <time>2017-09-23T12:14:24Z</time>
      </trkpt>
      <trkpt lat="48.08753" lon="6.90168">
        <ele>686.99</ele>
        <time>2017-09-23T12:14:25Z</time>
      </trkpt>
      <trkpt lat="48.08755" lon="6.90167">
        <ele>687.54</ele>
        <time>2017-09-23T12:14:26Z</time>
      </trkpt>
      <trkpt lat="48.08756" lon="6.90166">
        <ele>687.71</ele>
        <time>2017-09-23T12:14:27Z</time>
      </trkpt>
      <trkpt lat="48.08757" lon="6.90165">
        <ele>687.68</ele>
        <time>2017-09-23T12:14:28Z</time>
      </trkpt>
      <trkpt lat="48.08759" lon="6.90164">
        <ele>688.5</ele>
        <time>2017-09-23T12:14:29Z</time>
      </trkpt>
      <trkpt lat="48.0876" lon="6.90164">
        <ele>687.99</ele>
        <time>2017-09-23T12:14:30Z</time>
      </trkpt>
      <trkpt lat="48.08762" lon="6.90161">
        <ele>688.77</ele>
        <time>2017-09-23T12:14:31Z</time>
      </trkpt>
      <trkpt lat="48.08764" lon="6.90159">
        <ele>689.58</ele>
        <time>2017-09-23T12:14:32Z</time>
      </trkpt>
      <trkpt lat="48.08766" lon="6.90159">
        <ele>689.09</ele>
        <time>2017-09-23T12:14:33Z</time>
      </trkpt>
      <trkpt lat="48.08787" lon="6.90153">
        <ele>691.71</ele>
        <time>2017-09-23T12:14:44Z</time>
      </trkpt>
      <trkpt lat="48.08794" lon="6.90152">
        <ele>693.18</ele>
        <time>2017-09-23T12:14:48Z</time>
      </trkpt>
      <trkpt lat="48.0882" lon="6.90125">
        <ele>695.96</ele>
        <time>2017-09-23T12:15:00Z</time>
      </trkpt>
      <trkpt lat="48.08847" lon="6.90095">
        <ele>698.18</ele>
        <time>2017-09-23T12:15:15Z</time>
      </trkpt>
      <trkpt lat="48.08851" lon="6.9009">
        <ele>698.64</ele>
        <time>2017-09-23T12:15:17Z</time>
      </trkpt>
      <trkpt lat="48.08876" lon="6.90067">
        <ele>701.21</ele>
        <time>2017-09-23T12:15:32Z</time>
      </trkpt>
      <trkpt lat="48.08905" lon="6.90041">
        <ele>704.47</ele>
        <time>2017-09-23T12:15:47Z</time>
      </trkpt>
      <trkpt lat="48.08927" lon="6.90034">
        <ele>707.72</ele>
        <time>2017-09-23T12:15:57Z</time>
      </trkpt>
      <trkpt lat="48.08957" lon="6.90013">
        <ele>710.16</ele>
        <time>2017-09-23T12:16:11Z</time>
      </trkpt>
      <trkpt lat="48.09004" lon="6.9">
        <ele>712.97</ele>
        <time>2017-09-23T12:16:30Z</time>
      </trkpt>
      <trkpt lat="48.09041" lon="6.89989">
        <ele>716.14</ele>
        <time>2017-09-23T12:16:45Z</time>
      </trkpt>
      <trkpt lat="48.0907" lon="6.89955">
        <ele>718.35</ele>
        <time>2017-09-23T12:17:00Z</time>
      </trkpt>
      <trkpt lat="48.09087" lon="6.8994">
        <ele>721.41</ele>
        <time>2017-09-23T12:17:08Z</time>
      </trkpt>
      <trkpt lat="48.09103" lon="6.89943">
        <ele>724.3</ele>
        <time>2017-09-23T12:17:14Z</time>
      </trkpt>
      <trkpt lat="48.09123" lon="6.89948">
        <ele>727.67</ele>
        <time>2017-09-23T12:17:22Z</time>
      </trkpt>
      <trkpt lat="48.09155" lon="6.89954">
        <ele>730.86</ele>
        <time>2017-09-23T12:17:34Z</time>
      </trkpt>
      <trkpt lat="48.09185" lon="6.89959">
        <ele>733.96</ele>
        <time>2017-09-23T12:17:45Z</time>
      </trkpt>
      <trkpt lat="48.09197" lon="6.8996">
        <ele>735.59</ele>
        <time>2017-09-23T12:17:49Z</time>
      </trkpt>
      <trkpt lat="48.09234" lon="6.89974">
        <ele>738.89</ele>
        <time>2017-09-23T12:18:04Z</time>
      </trkpt>
      <trkpt lat="48.09269" lon="6.89975">
        <ele>741.21</ele>
        <time>2017-09-23T12:18:19Z</time>
      </trkpt>
      <trkpt lat="48.09271" lon="6.89978">
        <ele>741.29</ele>
        <time>2017-09-23T12:18:20Z</time>
      </trkpt>
      <trkpt lat="48.09272" lon="6.8998">
        <ele>741.74</ele>
        <time>2017-09-23T12:18:21Z</time>
      </trkpt>
      <trkpt lat="48.09273" lon="6.89983">
        <ele>741.6</ele>
        <time>2017-09-23T12:18:22Z</time>
      </trkpt>
      <trkpt lat="48.09274" lon="6.89986">
        <ele>741.65</ele>
        <time>2017-09-23T12:18:23Z</time>
      </trkpt>
      <trkpt lat="48.09278" lon="6.89987">
        <ele>741.94</ele>
        <time>2017-09-23T12:18:37Z</time>
      </trkpt>
      <trkpt lat="48.09279" lon="6.89988">
        <ele>742.52</ele>
        <time>2017-09-23T12:18:39Z</time>
      </trkpt>
      <trkpt lat="48.09281" lon="6.89989">
        <ele>742.57</ele>
        <time>2017-09-23T12:18:40Z</time>
      </trkpt>
      <trkpt lat="48.09282" lon="6.8999">
        <ele>742.27</ele>
        <time>2017-09-23T12:18:41Z</time>
      </trkpt>
      <trkpt lat="48.09284" lon="6.89992">
        <ele>743.08</ele>
        <time>2017-09-23T12:18:42Z</time>
      </trkpt>
      <trkpt lat="48.09285" lon="6.89994">
        <ele>742.52</ele>
        <time>2017-09-23T12:18:43Z</time>
      </trkpt>
      <trkpt lat="48.09287" lon="6.89997">
        <ele>742.98</ele>
        <time>2017-09-23T12:18:44Z</time>
      </trkpt>
      <trkpt lat="48.09314" lon="6.90013">
        <ele>744.69</ele>
        <time>2017-09-23T12:18:55Z</time>
      </trkpt>
      <trkpt lat="48.09339" lon="6.90013">
        <ele>746.15</ele>
        <time>2017-09-23T12:19:05Z</time>
      </trkpt>
      <trkpt lat="48.09375" lon="6.90018">
        <ele>747.48</ele>
        <time>2017-09-23T12:19:17Z</time>
      </trkpt>
      <trkpt lat="48.0942" lon="6.90022">
        <ele>749.66</ele>
        <time>2017-09-23T12:19:32Z</time>
      </trkpt>
      <trkpt lat="48.09468" lon="6.90028">
        <ele>751.54</ele>
        <time>2017-09-23T12:19:49Z</time>
      </trkpt>
      <trkpt lat="48.09498" lon="6.90037">
        <ele>754.27</ele>
        <time>2017-09-23T12:20:02Z</time>
      </trkpt>
      <trkpt lat="48.09534" lon="6.90065">
        <ele>757.64</ele>
        <time>2017-09-23T12:20:18Z</time>
      </trkpt>
      <trkpt lat="48.09542" lon="6.90073">
        <ele>759.13</ele>
        <time>2017-09-23T12:20:22Z</time>
      </trkpt>
      <trkpt lat="48.0955" lon="6.90082">
        <ele>760.32</ele>
        <time>2017-09-23T12:20:27Z</time>
      </trkpt>
      <trkpt lat="48.09572" lon="6.90106">
        <ele>763.53</ele>
        <time>2017-09-23T12:20:39Z</time>
      </trkpt>
      <trkpt lat="48.09574" lon="6.90106">
        <ele>763.67</ele>
        <time>2017-09-23T12:20:41Z</time>
      </trkpt>
      <trkpt lat="48.09575" lon="6.90108">
        <ele>764.08</ele>
        <time>2017-09-23T12:20:42Z</time>
      </trkpt>
      <trkpt lat="48.09576" lon="6.90109">
        <ele>763.76</ele>
        <time>2017-09-23T12:20:43Z</time>
      </trkpt>
      <trkpt lat="48.09577" lon="6.90109">
        <ele>764.48</ele>
        <time>2017-09-23T12:20:44Z</time>
      </trkpt>
      <trkpt lat="48.09578" lon="6.9011">
        <ele>764.39</ele>
        <time>2017-09-23T12:20:45Z</time>
      </trkpt>
      <trkpt lat="48.0958" lon="6.90111">
        <ele>764.73</ele>
        <time>2017-09-23T12:20:46Z</time>
      </trkpt>
      <trkpt lat="48.09581" lon="6.90113">
        <ele>765.13</ele>
        <time>2017-09-23T12:20:47Z</time>
      </trkpt>
      <trkpt lat="48.09583" lon="6.90115">
        <ele>765.45</ele>
        <time>2017-09-23T12:20:48Z</time>
      </trkpt>
      <trkpt lat="48.09584" lon="6.90117">
        <ele>765.46</ele>
        <time>2017-09-23T12:20:49Z</time>
      </trkpt>
      <trkpt lat="48.09586" lon="6.90119">
        <ele>766.02</ele>
        <time>2017-09-23T12:20:50Z</time>
      </trkpt>
      <trkpt lat="48.09587" lon="6.90121">
        <ele>766.45</ele>
        <time>2017-09-23T12:20:51Z</time>
      </trkpt>
      <trkpt lat="48.09589" lon="6.90123">
        <ele>766.51</ele>
        <time>2017-09-23T12:20:52Z</time>
      </trkpt>
      <trkpt lat="48.09591" lon="6.90125">
        <ele>766.43</ele>
        <time>2017-09-23T12:20:53Z</time>
      </trkpt>
      <trkpt lat="48.09592" lon="6.90128">
        <ele>767.01</ele>
        <time>2017-09-23T12:20:54Z</time>
      </trkpt>
      <trkpt lat="48.09592" lon="6.90131">
        <ele>766.98</ele>
        <time>2017-09-23T12:20:55Z</time>
      </trkpt>
      <trkpt lat="48.09593" lon="6.90134">
        <ele>767.59</ele>
        <time>2017-09-23T12:20:56Z</time>
      </trkpt>
      <trkpt lat="48.09593" lon="6.90137">
        <ele>767.97</ele>
        <time>2017-09-23T12:20:57Z</time>
      </trkpt>
      <trkpt lat="48.09594" lon="6.9014">
        <ele>768.54</ele>
        <time>2017-09-23T12:20:58Z</time>
      </trkpt>
      <trkpt lat="48.09594" lon="6.90142">
        <ele>768.45</ele>
        <time>2017-09-23T12:20:59Z</time>
      </trkpt>
      <trkpt lat="48.09593" lon="6.90144">
        <ele>768.62</ele>
        <time>2017-09-23T12:21:00Z</time>
      </trkpt>
      <trkpt lat="48.09593" lon="6.90146">
        <ele>769.68</ele>
        <time>2017-09-23T12:21:01Z</time>
      </trkpt>
      <trkpt lat="48.09594" lon="6.90153">
        <ele>770.53</ele>
        <time>2017-09-23T12:21:04Z</time>
      </trkpt>
      <trkpt lat="48.09595" lon="6.90156">
        <ele>769.78</ele>
        <time>2017-09-23T12:21:05Z</time>
      </trkpt>
      <trkpt lat="48.09604" lon="6.90179">
        <ele>773</ele>
        <time>2017-09-23T12:21:14Z</time>
      </trkpt>
      <trkpt lat="48.09622" lon="6.90199">
        <ele>776.5</ele>
        <time>2017-09-23T12:21:25Z</time>
      </trkpt>
      <trkpt lat="48.09629" lon="6.90204">
        <ele>776.91</ele>
        <time>2017-09-23T12:21:29Z</time>
      </trkpt>
      <trkpt lat="48.09651" lon="6.9023">
        <ele>778.19</ele>
        <time>2017-09-23T12:21:40Z</time>
      </trkpt>
      <trkpt lat="48.09668" lon="6.90254">
        <ele>780.12</ele>
        <time>2017-09-23T12:21:51Z</time>
      </trkpt>
      <trkpt lat="48.09683" lon="6.90275">
        <ele>783.71</ele>
        <time>2017-09-23T12:22:02Z</time>
      </trkpt>
      <trkpt lat="48.09687" lon="6.90278">
        <ele>781.71</ele>
        <time>2017-09-23T12:22:08Z</time>
      </trkpt>
      <trkpt lat="48.09693" lon="6.90279">
        <ele>782.54</ele>
        <time>2017-09-23T12:22:15Z</time>
      </trkpt>
      <trkpt lat="48.09694" lon="6.9028">
        <ele>782.87</ele>
        <time>2017-09-23T12:22:16Z</time>
      </trkpt>
      <trkpt lat="48.09695" lon="6.90282">
        <ele>782.82</ele>
        <time>2017-09-23T12:22:17Z</time>
      </trkpt>
      <trkpt lat="48.09697" lon="6.90284">
        <ele>783.2</ele>
        <time>2017-09-23T12:22:18Z</time>
      </trkpt>
      <trkpt lat="48.09698" lon="6.90285">
        <ele>783.21</ele>
        <time>2017-09-23T12:22:19Z</time>
      </trkpt>
      <trkpt lat="48.09699" lon="6.90287">
        <ele>783.5</ele>
        <time>2017-09-23T12:22:20Z</time>
      </trkpt>
      <trkpt lat="48.097" lon="6.90289">
        <ele>784.06</ele>
        <time>2017-09-23T12:22:21Z</time>
      </trkpt>
      <trkpt lat="48.09702" lon="6.90292">
        <ele>784.35</ele>
        <time>2017-09-23T12:22:22Z</time>
      </trkpt>
      <trkpt lat="48.09704" lon="6.90294">
        <ele>784.04</ele>
        <time>2017-09-23T12:22:23Z</time>
      </trkpt>
      <trkpt lat="48.09706" lon="6.90296">
        <ele>784.66</ele>
        <time>2017-09-23T12:22:24Z</time>
      </trkpt>
      <trkpt lat="48.09707" lon="6.90298">
        <ele>784.79</ele>
        <time>2017-09-23T12:22:25Z</time>
      </trkpt>
      <trkpt lat="48.09709" lon="6.903">
        <ele>785.23</ele>
        <time>2017-09-23T12:22:26Z</time>
      </trkpt>
      <trkpt lat="48.09717" lon="6.90314">
        <ele>786.44</ele>
        <time>2017-09-23T12:22:32Z</time>
      </trkpt>
      <trkpt lat="48.09718" lon="6.90316">
        <ele>786.45</ele>
        <time>2017-09-23T12:22:33Z</time>
      </trkpt>
      <trkpt lat="48.09731" lon="6.9035">
        <ele>789.83</ele>
        <time>2017-09-23T12:22:46Z</time>
      </trkpt>
      <trkpt lat="48.09735" lon="6.90359">
        <ele>791.01</ele>
        <time>2017-09-23T12:22:49Z</time>
      </trkpt>
      <trkpt lat="48.09735" lon="6.90363">
        <ele>790.67</ele>
        <time>2017-09-23T12:22:50Z</time>
      </trkpt>
      <trkpt lat="48.09735" lon="6.90366">
        <ele>790.99</ele>
        <time>2017-09-23T12:22:51Z</time>
      </trkpt>
      <trkpt lat="48.09744" lon="6.90377">
        <ele>791.03</ele>
        <time>2017-09-23T12:23:04Z</time>
      </trkpt>
      <trkpt lat="48.09748" lon="6.90379">
        <ele>791.4</ele>
        <time>2017-09-23T12:23:10Z</time>
      </trkpt>
      <trkpt lat="48.0975" lon="6.90383">
        <ele>791.28</ele>
        <time>2017-09-23T12:23:40Z</time>
      </trkpt>
      <trkpt lat="48.09748" lon="6.90389">
        <ele>791.52</ele>
        <time>2017-09-23T12:23:48Z</time>
      </trkpt>
      <trkpt lat="48.0975" lon="6.9039">
        <ele>791.61</ele>
        <time>2017-09-23T12:24:01Z</time>
      </trkpt>
      <trkpt lat="48.09754" lon="6.90388">
        <ele>791.09</ele>
        <time>2017-09-23T12:24:11Z</time>
      </trkpt>
      <trkpt lat="48.09755" lon="6.90389">
        <ele>791.82</ele>
        <time>2017-09-23T12:24:12Z</time>
      </trkpt>
      <trkpt lat="48.09756" lon="6.9039">
        <ele>791.76</ele>
        <time>2017-09-23T12:24:13Z</time>
      </trkpt>
      <trkpt lat="48.09757" lon="6.90391">
        <ele>791.73</ele>
        <time>2017-09-23T12:24:14Z</time>
      </trkpt>
      <trkpt lat="48.09758" lon="6.90392">
        <ele>791.9</ele>
        <time>2017-09-23T12:24:15Z</time>
      </trkpt>
      <trkpt lat="48.0976" lon="6.90394">
        <ele>791.72</ele>
        <time>2017-09-23T12:24:16Z</time>
      </trkpt>
      <trkpt lat="48.09772" lon="6.90409">
        <ele>792.45</ele>
        <time>2017-09-23T12:24:25Z</time>
      </trkpt>
      <trkpt lat="48.09773" lon="6.90409">
        <ele>791.66</ele>
        <time>2017-09-23T12:24:26Z</time>
      </trkpt>
      <trkpt lat="48.09778" lon="6.90415">
        <ele>792.27</ele>
        <time>2017-09-23T12:24:42Z</time>
      </trkpt>
      <trkpt lat="48.0978" lon="6.90417">
        <ele>795.36</ele>
        <time>2017-09-23T12:24:46Z</time>
      </trkpt>
      <trkpt lat="48.09779" lon="6.90421">
        <ele>793.15</ele>
        <time>2017-09-23T12:24:48Z</time>
      </trkpt>
      <trkpt lat="48.09779" lon="6.90423">
        <ele>793.11</ele>
        <time>2017-09-23T12:24:49Z</time>
      </trkpt>
      <trkpt lat="48.09778" lon="6.90425">
        <ele>792.88</ele>
        <time>2017-09-23T12:24:50Z</time>
      </trkpt>
      <trkpt lat="48.09774" lon="6.9043">
        <ele>793.36</ele>
        <time>2017-09-23T12:24:54Z</time>
      </trkpt>
      <trkpt lat="48.09771" lon="6.9043">
        <ele>793.65</ele>
        <time>2017-09-23T12:24:59Z</time>
      </trkpt>
      <trkpt lat="48.09765" lon="6.90436">
        <ele>792.51</ele>
        <time>2017-09-23T12:25:24Z</time>
      </trkpt>
      <trkpt lat="48.09761" lon="6.90431">
        <ele>793.13</ele>
        <time>2017-09-23T12:26:01Z</time>
      </trkpt>
      <trkpt lat="48.09757" lon="6.9043">
        <ele>793.61</ele>
        <time>2017-09-23T12:26:41Z</time>
      </trkpt>
      <trkpt lat="48.09755" lon="6.90429">
        <ele>793.82</ele>
        <time>2017-09-23T12:26:46Z</time>
      </trkpt>
      <trkpt lat="48.09747" lon="6.90424">
        <ele>794.21</ele>
        <time>2017-09-23T12:26:51Z</time>
      </trkpt>
      <trkpt lat="48.09746" lon="6.90423">
        <ele>794.49</ele>
        <time>2017-09-23T12:26:52Z</time>
      </trkpt>
      <trkpt lat="48.09719" lon="6.90411">
        <ele>795.16</ele>
        <time>2017-09-23T12:27:06Z</time>
      </trkpt>
      <trkpt lat="48.09704" lon="6.90403">
        <ele>796.02</ele>
        <time>2017-09-23T12:27:14Z</time>
      </trkpt>
      <trkpt lat="48.09703" lon="6.90401">
        <ele>795.82</ele>
        <time>2017-09-23T12:27:15Z</time>
      </trkpt>
      <trkpt lat="48.097" lon="6.90399">
        <ele>796.6</ele>
        <time>2017-09-23T12:27:17Z</time>
      </trkpt>
      <trkpt lat="48.09697" lon="6.90399">
        <ele>796.53</ele>
        <time>2017-09-23T12:27:18Z</time>
      </trkpt>
      <trkpt lat="48.09695" lon="6.90399">
        <ele>796.41</ele>
        <time>2017-09-23T12:27:19Z</time>
      </trkpt>
      <trkpt lat="48.09692" lon="6.90397">
        <ele>796.64</ele>
        <time>2017-09-23T12:27:20Z</time>
      </trkpt>
      <trkpt lat="48.09689" lon="6.90396">
        <ele>796.41</ele>
        <time>2017-09-23T12:27:21Z</time>
      </trkpt>
      <trkpt lat="48.09686" lon="6.90395">
        <ele>796.73</ele>
        <time>2017-09-23T12:27:22Z</time>
      </trkpt>
      <trkpt lat="48.0965" lon="6.90376">
        <ele>798.2</ele>
        <time>2017-09-23T12:27:35Z</time>
      </trkpt>
      <trkpt lat="48.09609" lon="6.90372">
        <ele>799.7</ele>
        <time>2017-09-23T12:27:49Z</time>
      </trkpt>
      <trkpt lat="48.0958" lon="6.90383">
        <ele>801.47</ele>
        <time>2017-09-23T12:28:00Z</time>
      </trkpt>
      <trkpt lat="48.09551" lon="6.90391">
        <ele>801.75</ele>
        <time>2017-09-23T12:28:10Z</time>
      </trkpt>
      <trkpt lat="48.09518" lon="6.90401">
        <ele>803.3</ele>
        <time>2017-09-23T12:28:21Z</time>
      </trkpt>
      <trkpt lat="48.0948" lon="6.90409">
        <ele>804.26</ele>
        <time>2017-09-23T12:28:34Z</time>
      </trkpt>
      <trkpt lat="48.09443" lon="6.90404">
        <ele>804.73</ele>
        <time>2017-09-23T12:28:46Z</time>
      </trkpt>
      <trkpt lat="48.09402" lon="6.90406">
        <ele>805.99</ele>
        <time>2017-09-23T12:28:58Z</time>
      </trkpt>
      <trkpt lat="48.09361" lon="6.90409">
        <ele>806.56</ele>
        <time>2017-09-23T12:29:10Z</time>
      </trkpt>
      <trkpt lat="48.09321" lon="6.90409">
        <ele>807.99</ele>
        <time>2017-09-23T12:29:21Z</time>
      </trkpt>
      <trkpt lat="48.09275" lon="6.90411">
        <ele>808.59</ele>
        <time>2017-09-23T12:29:33Z</time>
      </trkpt>
      <trkpt lat="48.09236" lon="6.90416">
        <ele>809.58</ele>
        <time>2017-09-23T12:29:44Z</time>
      </trkpt>
      <trkpt lat="48.092" lon="6.90429">
        <ele>809.55</ele>
        <time>2017-09-23T12:29:53Z</time>
      </trkpt>
      <trkpt lat="48.09153" lon="6.90454">
        <ele>810.84</ele>
        <time>2017-09-23T12:30:05Z</time>
      </trkpt>
      <trkpt lat="48.09113" lon="6.90478">
        <ele>811.76</ele>
        <time>2017-09-23T12:30:17Z</time>
      </trkpt>
      <trkpt lat="48.09071" lon="6.90498">
        <ele>812.12</ele>
        <time>2017-09-23T12:30:29Z</time>
      </trkpt>
      <trkpt lat="48.09032" lon="6.90528">
        <ele>812.8</ele>
        <time>2017-09-23T12:30:40Z</time>
      </trkpt>
      <trkpt lat="48.08989" lon="6.90559">
        <ele>813.13</ele>
        <time>2017-09-23T12:30:53Z</time>
      </trkpt>
      <trkpt lat="48.08956" lon="6.90584">
        <ele>814.42</ele>
        <time>2017-09-23T12:31:03Z</time>
      </trkpt>
      <trkpt lat="48.08918" lon="6.90614">
        <ele>815.74</ele>
        <time>2017-09-23T12:31:15Z</time>
      </trkpt>
      <trkpt lat="48.08883" lon="6.90647">
        <ele>816.76</ele>
        <time>2017-09-23T12:31:26Z</time>
      </trkpt>
      <trkpt lat="48.0886" lon="6.90689">
        <ele>818.65</ele>
        <time>2017-09-23T12:31:36Z</time>
      </trkpt>
      <trkpt lat="48.08837" lon="6.90738">
        <ele>820.06</ele>
        <time>2017-09-23T12:31:48Z</time>
      </trkpt>
      <trkpt lat="48.08832" lon="6.90746">
        <ele>819.74</ele>
        <time>2017-09-23T12:31:51Z</time>
      </trkpt>
      <trkpt lat="48.08831" lon="6.90755">
        <ele>819.37</ele>
        <time>2017-09-23T12:32:04Z</time>
      </trkpt>
      <trkpt lat="48.08831" lon="6.90763">
        <ele>819.94</ele>
        <time>2017-09-23T12:32:35Z</time>
      </trkpt>
      <trkpt lat="48.08826" lon="6.90768">
        <ele>820.75</ele>
        <time>2017-09-23T12:32:52Z</time>
      </trkpt>
      <trkpt lat="48.08825" lon="6.9077">
        <ele>820.72</ele>
        <time>2017-09-23T12:32:53Z</time>
      </trkpt>
      <trkpt lat="48.08825" lon="6.90771">
        <ele>820.45</ele>
        <time>2017-09-23T12:32:54Z</time>
      </trkpt>
      <trkpt lat="48.08824" lon="6.90773">
        <ele>820.64</ele>
        <time>2017-09-23T12:32:55Z</time>
      </trkpt>
      <trkpt lat="48.08823" lon="6.90776">
        <ele>820.78</ele>
        <time>2017-09-23T12:32:56Z</time>
      </trkpt>
      <trkpt lat="48.08807" lon="6.90808">
        <ele>822.19</ele>
        <time>2017-09-23T12:33:09Z</time>
      </trkpt>
      <trkpt lat="48.08792" lon="6.90867">
        <ele>824.35</ele>
        <time>2017-09-23T12:33:25Z</time>
      </trkpt>
      <trkpt lat="48.08784" lon="6.90922">
        <ele>826</ele>
        <time>2017-09-23T12:33:39Z</time>
      </trkpt>
      <trkpt lat="48.0878" lon="6.90977">
        <ele>827.47</ele>
        <time>2017-09-23T12:33:52Z</time>
      </trkpt>
      <trkpt lat="48.08781" lon="6.90981">
        <ele>827.89</ele>
        <time>2017-09-23T12:33:53Z</time>
      </trkpt>
      <trkpt lat="48.08781" lon="6.90986">
        <ele>827.55</ele>
        <time>2017-09-23T12:33:54Z</time>
      </trkpt>
      <trkpt lat="48.08784" lon="6.91003">
        <ele>828.14</ele>
        <time>2017-09-23T12:33:58Z</time>
      </trkpt>
      <trkpt lat="48.08784" lon="6.91007">
        <ele>828.63</ele>
        <time>2017-09-23T12:33:59Z</time>
      </trkpt>
      <trkpt lat="48.08787" lon="6.9107">
        <ele>830.61</ele>
        <time>2017-09-23T12:34:14Z</time>
      </trkpt>
      <trkpt lat="48.08789" lon="6.91118">
        <ele>831.93</ele>
        <time>2017-09-23T12:34:24Z</time>
      </trkpt>
      <trkpt lat="48.08789" lon="6.91121">
        <ele>832.17</ele>
        <time>2017-09-23T12:34:25Z</time>
      </trkpt>
      <trkpt lat="48.08789" lon="6.91126">
        <ele>832.33</ele>
        <time>2017-09-23T12:34:26Z</time>
      </trkpt>
      <trkpt lat="48.0879" lon="6.9113">
        <ele>832.88</ele>
        <time>2017-09-23T12:34:27Z</time>
      </trkpt>
      <trkpt lat="48.08791" lon="6.91134">
        <ele>832.66</ele>
        <time>2017-09-23T12:34:28Z</time>
      </trkpt>
      <trkpt lat="48.08801" lon="6.91187">
        <ele>834.06</ele>
        <time>2017-09-23T12:34:40Z</time>
      </trkpt>
      <trkpt lat="48.08803" lon="6.91242">
        <ele>834.82</ele>
        <time>2017-09-23T12:34:52Z</time>
      </trkpt>
      <trkpt lat="48.08796" lon="6.91296">
        <ele>835.73</ele>
        <time>2017-09-23T12:35:03Z</time>
      </trkpt>
      <trkpt lat="48.08802" lon="6.91357">
        <ele>837.13</ele>
        <time>2017-09-23T12:35:15Z</time>
      </trkpt>
      <trkpt lat="48.08797" lon="6.9142">
        <ele>839.67</ele>
        <time>2017-09-23T12:35:29Z</time>
      </trkpt>
      <trkpt lat="48.08794" lon="6.91472">
        <ele>841.31</ele>
        <time>2017-09-23T12:35:40Z</time>
      </trkpt>
      <trkpt lat="48.08793" lon="6.91519">
        <ele>841.5</ele>
        <time>2017-09-23T12:35:51Z</time>
      </trkpt>
      <trkpt lat="48.08783" lon="6.91564">
        <ele>843.14</ele>
        <time>2017-09-23T12:36:02Z</time>
      </trkpt>
      <trkpt lat="48.08767" lon="6.91618">
        <ele>844.82</ele>
        <time>2017-09-23T12:36:15Z</time>
      </trkpt>
      <trkpt lat="48.08748" lon="6.91678">
        <ele>846.15</ele>
        <time>2017-09-23T12:36:28Z</time>
      </trkpt>
      <trkpt lat="48.08748" lon="6.91682">
        <ele>846.17</ele>
        <time>2017-09-23T12:36:29Z</time>
      </trkpt>
      <trkpt lat="48.08745" lon="6.91736">
        <ele>847.8</ele>
        <time>2017-09-23T12:36:40Z</time>
      </trkpt>
      <trkpt lat="48.0874" lon="6.91783">
        <ele>848.7</ele>
        <time>2017-09-23T12:36:51Z</time>
      </trkpt>
      <trkpt lat="48.08741" lon="6.91839">
        <ele>850.97</ele>
        <time>2017-09-23T12:37:04Z</time>
      </trkpt>
      <trkpt lat="48.08741" lon="6.91889">
        <ele>852.33</ele>
        <time>2017-09-23T12:37:15Z</time>
      </trkpt>
      <trkpt lat="48.08739" lon="6.91939">
        <ele>853.62</ele>
        <time>2017-09-23T12:37:27Z</time>
      </trkpt>
      <trkpt lat="48.08743" lon="6.92005">
        <ele>855.22</ele>
        <time>2017-09-23T12:37:39Z</time>
      </trkpt>
      <trkpt lat="48.08743" lon="6.92066">
        <ele>856.36</ele>
        <time>2017-09-23T12:37:52Z</time>
      </trkpt>
      <trkpt lat="48.08748" lon="6.92119">
        <ele>858.8</ele>
        <time>2017-09-23T12:38:05Z</time>
      </trkpt>
      <trkpt lat="48.08765" lon="6.92168">
        <ele>860.35</ele>
        <time>2017-09-23T12:38:18Z</time>
      </trkpt>
      <trkpt lat="48.08789" lon="6.92222">
        <ele>861.38</ele>
        <time>2017-09-23T12:38:31Z</time>
      </trkpt>
      <trkpt lat="48.08813" lon="6.92267">
        <ele>862.77</ele>
        <time>2017-09-23T12:38:43Z</time>
      </trkpt>
      <trkpt lat="48.08834" lon="6.92312">
        <ele>863.9</ele>
        <time>2017-09-23T12:38:55Z</time>
      </trkpt>
      <trkpt lat="48.08849" lon="6.92358">
        <ele>864.31</ele>
        <time>2017-09-23T12:39:05Z</time>
      </trkpt>
      <trkpt lat="48.08877" lon="6.92398">
        <ele>865.31</ele>
        <time>2017-09-23T12:39:16Z</time>
      </trkpt>
      <trkpt lat="48.08909" lon="6.92417">
        <ele>866.22</ele>
        <time>2017-09-23T12:39:27Z</time>
      </trkpt>
      <trkpt lat="48.08941" lon="6.92433">
        <ele>867.1</ele>
        <time>2017-09-23T12:39:39Z</time>
      </trkpt>
      <trkpt lat="48.08982" lon="6.92436">
        <ele>868.11</ele>
        <time>2017-09-23T12:39:50Z</time>
      </trkpt>
      <trkpt lat="48.09023" lon="6.92414">
        <ele>868.73</ele>
        <time>2017-09-23T12:40:01Z</time>
      </trkpt>
      <trkpt lat="48.09061" lon="6.92395">
        <ele>869.39</ele>
        <time>2017-09-23T12:40:11Z</time>
      </trkpt>
      <trkpt lat="48.09066" lon="6.92389">
        <ele>869.35</ele>
        <time>2017-09-23T12:40:13Z</time>
      </trkpt>
      <trkpt lat="48.09069" lon="6.92386">
        <ele>869.52</ele>
        <time>2017-09-23T12:40:14Z</time>
      </trkpt>
      <trkpt lat="48.09071" lon="6.92382">
        <ele>869.57</ele>
        <time>2017-09-23T12:40:15Z</time>
      </trkpt>
      <trkpt lat="48.09073" lon="6.92379">
        <ele>870.03</ele>
        <time>2017-09-23T12:40:16Z</time>
      </trkpt>
      <trkpt lat="48.09077" lon="6.92376">
        <ele>869.34</ele>
        <time>2017-09-23T12:40:17Z</time>
      </trkpt>
      <trkpt lat="48.0908" lon="6.92373">
        <ele>870.46</ele>
        <time>2017-09-23T12:40:18Z</time>
      </trkpt>
      <trkpt lat="48.09119" lon="6.92353">
        <ele>870.64</ele>
        <time>2017-09-23T12:40:30Z</time>
      </trkpt>
      <trkpt lat="48.09142" lon="6.92341">
        <ele>871.61</ele>
        <time>2017-09-23T12:40:42Z</time>
      </trkpt>
      <trkpt lat="48.09158" lon="6.92335">
        <ele>871.89</ele>
        <time>2017-09-23T12:40:57Z</time>
      </trkpt>
      <trkpt lat="48.09166" lon="6.92334">
        <ele>872.49</ele>
        <time>2017-09-23T12:41:03Z</time>
      </trkpt>
      <trkpt lat="48.09168" lon="6.92334">
        <ele>872.52</ele>
        <time>2017-09-23T12:41:04Z</time>
      </trkpt>
      <trkpt lat="48.09191" lon="6.92336">
        <ele>872.91</ele>
        <time>2017-09-23T12:41:17Z</time>
      </trkpt>
      <trkpt lat="48.09211" lon="6.9234">
        <ele>872.75</ele>
        <time>2017-09-23T12:41:27Z</time>
      </trkpt>
      <trkpt lat="48.09219" lon="6.9234">
        <ele>873</ele>
        <time>2017-09-23T12:41:44Z</time>
      </trkpt>
      <trkpt lat="48.09222" lon="6.92341">
        <ele>872.77</ele>
        <time>2017-09-23T12:41:54Z</time>
      </trkpt>
      <trkpt lat="48.09223" lon="6.92342">
        <ele>873.32</ele>
        <time>2017-09-23T12:41:55Z</time>
      </trkpt>
      <trkpt lat="48.09224" lon="6.92343">
        <ele>873.37</ele>
        <time>2017-09-23T12:41:56Z</time>
      </trkpt>
      <trkpt lat="48.09226" lon="6.92344">
        <ele>872.93</ele>
        <time>2017-09-23T12:41:57Z</time>
      </trkpt>
      <trkpt lat="48.09226" lon="6.92345">
        <ele>873.26</ele>
        <time>2017-09-23T12:41:58Z</time>
      </trkpt>
      <trkpt lat="48.09246" lon="6.92368">
        <ele>873.07</ele>
        <time>2017-09-23T12:42:08Z</time>
      </trkpt>
      <trkpt lat="48.09247" lon="6.92373">
        <ele>872.92</ele>
        <time>2017-09-23T12:42:09Z</time>
      </trkpt>
      <trkpt lat="48.09259" lon="6.92417">
        <ele>872.7</ele>
        <time>2017-09-23T12:42:16Z</time>
      </trkpt>
      <trkpt lat="48.09259" lon="6.92425">
        <ele>872.59</ele>
        <time>2017-09-23T12:42:17Z</time>
      </trkpt>
      <trkpt lat="48.09259" lon="6.92448">
        <ele>872.09</ele>
        <time>2017-09-23T12:42:20Z</time>
      </trkpt>
      <trkpt lat="48.09258" lon="6.92456">
        <ele>871.44</ele>
        <time>2017-09-23T12:42:21Z</time>
      </trkpt>
      <trkpt lat="48.09256" lon="6.9247">
        <ele>871.6</ele>
        <time>2017-09-23T12:42:23Z</time>
      </trkpt>
      <trkpt lat="48.09246" lon="6.92518">
        <ele>870.63</ele>
        <time>2017-09-23T12:42:30Z</time>
      </trkpt>
      <trkpt lat="48.09245" lon="6.92526">
        <ele>871.21</ele>
        <time>2017-09-23T12:42:31Z</time>
      </trkpt>
      <trkpt lat="48.09237" lon="6.92555">
        <ele>869.82</ele>
        <time>2017-09-23T12:42:35Z</time>
      </trkpt>
      <trkpt lat="48.09208" lon="6.92656">
        <ele>868.35</ele>
        <time>2017-09-23T12:42:48Z</time>
      </trkpt>
      <trkpt lat="48.09193" lon="6.92746">
        <ele>866.78</ele>
        <time>2017-09-23T12:42:58Z</time>
      </trkpt>
      <trkpt lat="48.09193" lon="6.92755">
        <ele>867.34</ele>
        <time>2017-09-23T12:42:59Z</time>
      </trkpt>
      <trkpt lat="48.09189" lon="6.92808">
        <ele>865.97</ele>
        <time>2017-09-23T12:43:05Z</time>
      </trkpt>
      <trkpt lat="48.09189" lon="6.92816">
        <ele>865.78</ele>
        <time>2017-09-23T12:43:06Z</time>
      </trkpt>
      <trkpt lat="48.09189" lon="6.9285">
        <ele>865.43</ele>
        <time>2017-09-23T12:43:10Z</time>
      </trkpt>
      <trkpt lat="48.09189" lon="6.92859">
        <ele>865.55</ele>
        <time>2017-09-23T12:43:11Z</time>
      </trkpt>
      <trkpt lat="48.09192" lon="6.92912">
        <ele>864.33</ele>
        <time>2017-09-23T12:43:17Z</time>
      </trkpt>
      <trkpt lat="48.09202" lon="6.92978">
        <ele>863.14</ele>
        <time>2017-09-23T12:43:24Z</time>
      </trkpt>
      <trkpt lat="48.09202" lon="6.92987">
        <ele>863.73</ele>
        <time>2017-09-23T12:43:25Z</time>
      </trkpt>
      <trkpt lat="48.09202" lon="6.92996">
        <ele>863.05</ele>
        <time>2017-09-23T12:43:26Z</time>
      </trkpt>
      <trkpt lat="48.09201" lon="6.93023">
        <ele>862.73</ele>
        <time>2017-09-23T12:43:29Z</time>
      </trkpt>
      <trkpt lat="48.09197" lon="6.93057">
        <ele>862.39</ele>
        <time>2017-09-23T12:43:33Z</time>
      </trkpt>
      <trkpt lat="48.09189" lon="6.93139">
        <ele>860.61</ele>
        <time>2017-09-23T12:43:42Z</time>
      </trkpt>
      <trkpt lat="48.09188" lon="6.93147">
        <ele>859.99</ele>
        <time>2017-09-23T12:43:43Z</time>
      </trkpt>
      <trkpt lat="48.09187" lon="6.93165">
        <ele>859.63</ele>
        <time>2017-09-23T12:43:45Z</time>
      </trkpt>
      <trkpt lat="48.09168" lon="6.93243">
        <ele>858.04</ele>
        <time>2017-09-23T12:43:54Z</time>
      </trkpt>
      <trkpt lat="48.09166" lon="6.9327">
        <ele>857.18</ele>
        <time>2017-09-23T12:43:57Z</time>
      </trkpt>
      <trkpt lat="48.09164" lon="6.93278">
        <ele>857.28</ele>
        <time>2017-09-23T12:43:58Z</time>
      </trkpt>
      <trkpt lat="48.09161" lon="6.93286">
        <ele>857.25</ele>
        <time>2017-09-23T12:43:59Z</time>
      </trkpt>
      <trkpt lat="48.09148" lon="6.93316">
        <ele>856.94</ele>
        <time>2017-09-23T12:44:03Z</time>
      </trkpt>
      <trkpt lat="48.09144" lon="6.93323">
        <ele>857.27</ele>
        <time>2017-09-23T12:44:04Z</time>
      </trkpt>
      <trkpt lat="48.09133" lon="6.93346">
        <ele>856.68</ele>
        <time>2017-09-23T12:44:07Z</time>
      </trkpt>
      <trkpt lat="48.09126" lon="6.93361">
        <ele>856.1</ele>
        <time>2017-09-23T12:44:09Z</time>
      </trkpt>
      <trkpt lat="48.09122" lon="6.93368">
        <ele>855.82</ele>
        <time>2017-09-23T12:44:10Z</time>
      </trkpt>
      <trkpt lat="48.09083" lon="6.93486">
        <ele>853.5</ele>
        <time>2017-09-23T12:44:23Z</time>
      </trkpt>
      <trkpt lat="48.0908" lon="6.93506">
        <ele>852.49</ele>
        <time>2017-09-23T12:44:25Z</time>
      </trkpt>
      <trkpt lat="48.09077" lon="6.93526">
        <ele>852.65</ele>
        <time>2017-09-23T12:44:27Z</time>
      </trkpt>
      <trkpt lat="48.09071" lon="6.93631">
        <ele>851.2</ele>
        <time>2017-09-23T12:44:38Z</time>
      </trkpt>
      <trkpt lat="48.09066" lon="6.93712">
        <ele>849.67</ele>
        <time>2017-09-23T12:44:47Z</time>
      </trkpt>
      <trkpt lat="48.09065" lon="6.93721">
        <ele>849.64</ele>
        <time>2017-09-23T12:44:48Z</time>
      </trkpt>
      <trkpt lat="48.09065" lon="6.93729">
        <ele>849.02</ele>
        <time>2017-09-23T12:44:49Z</time>
      </trkpt>
      <trkpt lat="48.09065" lon="6.93737">
        <ele>848.95</ele>
        <time>2017-09-23T12:44:50Z</time>
      </trkpt>
      <trkpt lat="48.09065" lon="6.93745">
        <ele>848.96</ele>
        <time>2017-09-23T12:44:51Z</time>
      </trkpt>
      <trkpt lat="48.09069" lon="6.93768">
        <ele>848.08</ele>
        <time>2017-09-23T12:44:54Z</time>
      </trkpt>
      <trkpt lat="48.09071" lon="6.93777">
        <ele>847.96</ele>
        <time>2017-09-23T12:44:55Z</time>
      </trkpt>
      <trkpt lat="48.09077" lon="6.93805">
        <ele>847.85</ele>
        <time>2017-09-23T12:44:58Z</time>
      </trkpt>
      <trkpt lat="48.09079" lon="6.93814">
        <ele>847.39</ele>
        <time>2017-09-23T12:44:59Z</time>
      </trkpt>
      <trkpt lat="48.09086" lon="6.9384">
        <ele>847.14</ele>
        <time>2017-09-23T12:45:02Z</time>
      </trkpt>
      <trkpt lat="48.09089" lon="6.93848">
        <ele>846.98</ele>
        <time>2017-09-23T12:45:03Z</time>
      </trkpt>
      <trkpt lat="48.09103" lon="6.93873">
        <ele>846.1</ele>
        <time>2017-09-23T12:45:06Z</time>
      </trkpt>
      <trkpt lat="48.09107" lon="6.93881">
        <ele>845.71</ele>
        <time>2017-09-23T12:45:07Z</time>
      </trkpt>
      <trkpt lat="48.09126" lon="6.93907">
        <ele>845.77</ele>
        <time>2017-09-23T12:45:10Z</time>
      </trkpt>
      <trkpt lat="48.09137" lon="6.93924">
        <ele>844.89</ele>
        <time>2017-09-23T12:45:12Z</time>
      </trkpt>
      <trkpt lat="48.0915" lon="6.93942">
        <ele>844.61</ele>
        <time>2017-09-23T12:45:14Z</time>
      </trkpt>
      <trkpt lat="48.09158" lon="6.93951">
        <ele>843.98</ele>
        <time>2017-09-23T12:45:15Z</time>
      </trkpt>
      <trkpt lat="48.09165" lon="6.93957">
        <ele>844.15</ele>
        <time>2017-09-23T12:45:16Z</time>
      </trkpt>
      <trkpt lat="48.09174" lon="6.93963">
        <ele>844.35</ele>
        <time>2017-09-23T12:45:17Z</time>
      </trkpt>
      <trkpt lat="48.09181" lon="6.93966">
        <ele>843.54</ele>
        <time>2017-09-23T12:45:18Z</time>
      </trkpt>
      <trkpt lat="48.09189" lon="6.9397">
        <ele>843.42</ele>
        <time>2017-09-23T12:45:19Z</time>
      </trkpt>
      <trkpt lat="48.09196" lon="6.93973">
        <ele>843.52</ele>
        <time>2017-09-23T12:45:20Z</time>
      </trkpt>
      <trkpt lat="48.09212" lon="6.93981">
        <ele>842.6</ele>
        <time>2017-09-23T12:45:23Z</time>
      </trkpt>
      <trkpt lat="48.09219" lon="6.93985">
        <ele>842.57</ele>
        <time>2017-09-23T12:45:24Z</time>
      </trkpt>
      <trkpt lat="48.09225" lon="6.93991">
        <ele>841.92</ele>
        <time>2017-09-23T12:45:25Z</time>
      </trkpt>
      <trkpt lat="48.09228" lon="6.94">
        <ele>841.85</ele>
        <time>2017-09-23T12:45:26Z</time>
      </trkpt>
      <trkpt lat="48.09228" lon="6.94009">
        <ele>841.06</ele>
        <time>2017-09-23T12:45:27Z</time>
      </trkpt>
      <trkpt lat="48.09227" lon="6.94018">
        <ele>840.91</ele>
        <time>2017-09-23T12:45:28Z</time>
      </trkpt>
      <trkpt lat="48.09226" lon="6.94028">
        <ele>840.86</ele>
        <time>2017-09-23T12:45:29Z</time>
      </trkpt>
      <trkpt lat="48.09226" lon="6.94038">
        <ele>840.34</ele>
        <time>2017-09-23T12:45:30Z</time>
      </trkpt>
      <trkpt lat="48.09211" lon="6.9416">
        <ele>837.65</ele>
        <time>2017-09-23T12:45:40Z</time>
      </trkpt>
      <trkpt lat="48.0921" lon="6.94185">
        <ele>836.25</ele>
        <time>2017-09-23T12:45:42Z</time>
      </trkpt>
      <trkpt lat="48.09214" lon="6.94269">
        <ele>833.32</ele>
        <time>2017-09-23T12:45:49Z</time>
      </trkpt>
      <trkpt lat="48.09218" lon="6.94304">
        <ele>831.52</ele>
        <time>2017-09-23T12:45:52Z</time>
      </trkpt>
      <trkpt lat="48.09219" lon="6.94316">
        <ele>831.24</ele>
        <time>2017-09-23T12:45:53Z</time>
      </trkpt>
      <trkpt lat="48.09223" lon="6.94355">
        <ele>829.98</ele>
        <time>2017-09-23T12:45:56Z</time>
      </trkpt>
      <trkpt lat="48.09224" lon="6.94378">
        <ele>829.01</ele>
        <time>2017-09-23T12:45:58Z</time>
      </trkpt>
      <trkpt lat="48.09224" lon="6.9439">
        <ele>829.06</ele>
        <time>2017-09-23T12:45:59Z</time>
      </trkpt>
      <trkpt lat="48.09229" lon="6.94471">
        <ele>826</ele>
        <time>2017-09-23T12:46:06Z</time>
      </trkpt>
      <trkpt lat="48.09233" lon="6.94532">
        <ele>823.7</ele>
        <time>2017-09-23T12:46:11Z</time>
      </trkpt>
      <trkpt lat="48.09235" lon="6.94543">
        <ele>824.53</ele>
        <time>2017-09-23T12:46:12Z</time>
      </trkpt>
      <trkpt lat="48.09239" lon="6.94553">
        <ele>823.42</ele>
        <time>2017-09-23T12:46:13Z</time>
      </trkpt>
      <trkpt lat="48.09271" lon="6.94612">
        <ele>821.12</ele>
        <time>2017-09-23T12:46:19Z</time>
      </trkpt>
      <trkpt lat="48.09294" lon="6.94648">
        <ele>819.5</ele>
        <time>2017-09-23T12:46:23Z</time>
      </trkpt>
      <trkpt lat="48.09301" lon="6.94656">
        <ele>818.95</ele>
        <time>2017-09-23T12:46:24Z</time>
      </trkpt>
      <trkpt lat="48.09308" lon="6.94663">
        <ele>818.64</ele>
        <time>2017-09-23T12:46:25Z</time>
      </trkpt>
      <trkpt lat="48.09351" lon="6.94713">
        <ele>815.45</ele>
        <time>2017-09-23T12:46:32Z</time>
      </trkpt>
      <trkpt lat="48.09359" lon="6.9472">
        <ele>814.68</ele>
        <time>2017-09-23T12:46:34Z</time>
      </trkpt>
      <trkpt lat="48.09403" lon="6.94733">
        <ele>812.94</ele>
        <time>2017-09-23T12:46:43Z</time>
      </trkpt>
      <trkpt lat="48.0944" lon="6.94758">
        <ele>812.7</ele>
        <time>2017-09-23T12:46:59Z</time>
      </trkpt>
      <trkpt lat="48.09441" lon="6.94767">
        <ele>812.19</ele>
        <time>2017-09-23T12:47:02Z</time>
      </trkpt>
      <trkpt lat="48.09442" lon="6.94774">
        <ele>812.21</ele>
        <time>2017-09-23T12:47:03Z</time>
      </trkpt>
      <trkpt lat="48.09444" lon="6.94781">
        <ele>812.11</ele>
        <time>2017-09-23T12:47:04Z</time>
      </trkpt>
      <trkpt lat="48.09446" lon="6.94789">
        <ele>812.18</ele>
        <time>2017-09-23T12:47:05Z</time>
      </trkpt>
      <trkpt lat="48.09446" lon="6.94798">
        <ele>811.81</ele>
        <time>2017-09-23T12:47:06Z</time>
      </trkpt>
      <trkpt lat="48.09446" lon="6.94824">
        <ele>811.46</ele>
        <time>2017-09-23T12:47:09Z</time>
      </trkpt>
      <trkpt lat="48.09446" lon="6.94833">
        <ele>811.49</ele>
        <time>2017-09-23T12:47:10Z</time>
      </trkpt>
      <trkpt lat="48.09447" lon="6.94843">
        <ele>811.18</ele>
        <time>2017-09-23T12:47:11Z</time>
      </trkpt>
      <trkpt lat="48.09447" lon="6.94852">
        <ele>810.72</ele>
        <time>2017-09-23T12:47:12Z</time>
      </trkpt>
      <trkpt lat="48.09447" lon="6.94863">
        <ele>810.43</ele>
        <time>2017-09-23T12:47:13Z</time>
      </trkpt>
      <trkpt lat="48.09448" lon="6.94885">
        <ele>809.99</ele>
        <time>2017-09-23T12:47:15Z</time>
      </trkpt>
      <trkpt lat="48.09449" lon="6.94896">
        <ele>809.39</ele>
        <time>2017-09-23T12:47:16Z</time>
      </trkpt>
      <trkpt lat="48.0945" lon="6.94908">
        <ele>809.07</ele>
        <time>2017-09-23T12:47:17Z</time>
      </trkpt>
      <trkpt lat="48.09455" lon="6.94932">
        <ele>808</ele>
        <time>2017-09-23T12:47:19Z</time>
      </trkpt>
      <trkpt lat="48.09461" lon="6.94956">
        <ele>807.08</ele>
        <time>2017-09-23T12:47:21Z</time>
      </trkpt>
      <trkpt lat="48.09493" lon="6.95042">
        <ele>804.04</ele>
        <time>2017-09-23T12:47:29Z</time>
      </trkpt>
      <trkpt lat="48.09496" lon="6.9505">
        <ele>803.43</ele>
        <time>2017-09-23T12:47:30Z</time>
      </trkpt>
      <trkpt lat="48.09497" lon="6.95056">
        <ele>802.55</ele>
        <time>2017-09-23T12:47:31Z</time>
      </trkpt>
      <trkpt lat="48.09498" lon="6.95061">
        <ele>802.76</ele>
        <time>2017-09-23T12:47:32Z</time>
      </trkpt>
      <trkpt lat="48.09498" lon="6.95066">
        <ele>803.18</ele>
        <time>2017-09-23T12:47:33Z</time>
      </trkpt>
      <trkpt lat="48.09501" lon="6.95083">
        <ele>803.08</ele>
        <time>2017-09-23T12:47:36Z</time>
      </trkpt>
      <trkpt lat="48.09503" lon="6.9509">
        <ele>803.02</ele>
        <time>2017-09-23T12:47:37Z</time>
      </trkpt>
      <trkpt lat="48.09506" lon="6.95097">
        <ele>802.95</ele>
        <time>2017-09-23T12:47:38Z</time>
      </trkpt>
      <trkpt lat="48.09553" lon="6.95231">
        <ele>803.91</ele>
        <time>2017-09-23T12:47:55Z</time>
      </trkpt>
      <trkpt lat="48.09564" lon="6.95263">
        <ele>804</ele>
        <time>2017-09-23T12:47:59Z</time>
      </trkpt>
      <trkpt lat="48.09567" lon="6.95271">
        <ele>804.13</ele>
        <time>2017-09-23T12:48:00Z</time>
      </trkpt>
      <trkpt lat="48.09586" lon="6.95325">
        <ele>804.35</ele>
        <time>2017-09-23T12:48:07Z</time>
      </trkpt>
      <trkpt lat="48.09589" lon="6.95333">
        <ele>804.21</ele>
        <time>2017-09-23T12:48:08Z</time>
      </trkpt>
      <trkpt lat="48.09591" lon="6.95342">
        <ele>804.43</ele>
        <time>2017-09-23T12:48:09Z</time>
      </trkpt>
      <trkpt lat="48.09599" lon="6.95451">
        <ele>804.06</ele>
        <time>2017-09-23T12:48:21Z</time>
      </trkpt>
      <trkpt lat="48.09596" lon="6.95498">
        <ele>803.77</ele>
        <time>2017-09-23T12:48:26Z</time>
      </trkpt>
      <trkpt lat="48.09592" lon="6.95527">
        <ele>803.38</ele>
        <time>2017-09-23T12:48:29Z</time>
      </trkpt>
      <trkpt lat="48.09584" lon="6.9556">
        <ele>803.74</ele>
        <time>2017-09-23T12:48:33Z</time>
      </trkpt>
      <trkpt lat="48.09581" lon="6.95567">
        <ele>803.64</ele>
        <time>2017-09-23T12:48:34Z</time>
      </trkpt>
      <trkpt lat="48.09577" lon="6.95573">
        <ele>802.92</ele>
        <time>2017-09-23T12:48:35Z</time>
      </trkpt>
      <trkpt lat="48.09574" lon="6.95577">
        <ele>803.02</ele>
        <time>2017-09-23T12:48:36Z</time>
      </trkpt>
      <trkpt lat="48.09569" lon="6.95581">
        <ele>802.49</ele>
        <time>2017-09-23T12:48:37Z</time>
      </trkpt>
      <trkpt lat="48.09563" lon="6.95584">
        <ele>802.53</ele>
        <time>2017-09-23T12:48:38Z</time>
      </trkpt>
      <trkpt lat="48.09557" lon="6.95587">
        <ele>802.44</ele>
        <time>2017-09-23T12:48:39Z</time>
      </trkpt>
      <trkpt lat="48.09498" lon="6.95614">
        <ele>802.29</ele>
        <time>2017-09-23T12:48:49Z</time>
      </trkpt>
      <trkpt lat="48.09477" lon="6.95628">
        <ele>803.59</ele>
        <time>2017-09-23T12:48:53Z</time>
      </trkpt>
      <trkpt lat="48.09473" lon="6.95632">
        <ele>803.48</ele>
        <time>2017-09-23T12:48:54Z</time>
      </trkpt>
      <trkpt lat="48.09434" lon="6.95659">
        <ele>805.98</ele>
        <time>2017-09-23T12:49:05Z</time>
      </trkpt>
      <trkpt lat="48.09413" lon="6.9566">
        <ele>808.29</ele>
        <time>2017-09-23T12:49:12Z</time>
      </trkpt>
      <trkpt lat="48.09404" lon="6.95665">
        <ele>810.63</ele>
        <time>2017-09-23T12:49:15Z</time>
      </trkpt>
      <trkpt lat="48.094" lon="6.95671">
        <ele>811.74</ele>
        <time>2017-09-23T12:49:17Z</time>
      </trkpt>
      <trkpt lat="48.09396" lon="6.95683">
        <ele>813.14</ele>
        <time>2017-09-23T12:49:19Z</time>
      </trkpt>
      <trkpt lat="48.09396" lon="6.95703">
        <ele>814.24</ele>
        <time>2017-09-23T12:49:23Z</time>
      </trkpt>
      <trkpt lat="48.09398" lon="6.95746">
        <ele>816.69</ele>
        <time>2017-09-23T12:49:33Z</time>
      </trkpt>
      <trkpt lat="48.09392" lon="6.95782">
        <ele>819.47</ele>
        <time>2017-09-23T12:49:43Z</time>
      </trkpt>
      <trkpt lat="48.09382" lon="6.95841">
        <ele>822.3</ele>
        <time>2017-09-23T12:49:57Z</time>
      </trkpt>
      <trkpt lat="48.09373" lon="6.95907">
        <ele>825.53</ele>
        <time>2017-09-23T12:50:10Z</time>
      </trkpt>
      <trkpt lat="48.09373" lon="6.95971">
        <ele>828.66</ele>
        <time>2017-09-23T12:50:23Z</time>
      </trkpt>
      <trkpt lat="48.09368" lon="6.96011">
        <ele>831.18</ele>
        <time>2017-09-23T12:50:32Z</time>
      </trkpt>
      <trkpt lat="48.09361" lon="6.96042">
        <ele>832.72</ele>
        <time>2017-09-23T12:50:38Z</time>
      </trkpt>
      <trkpt lat="48.09377" lon="6.961">
        <ele>835.87</ele>
        <time>2017-09-23T12:50:49Z</time>
      </trkpt>
      <trkpt lat="48.09387" lon="6.96151">
        <ele>838.89</ele>
        <time>2017-09-23T12:51:01Z</time>
      </trkpt>
      <trkpt lat="48.09414" lon="6.96192">
        <ele>841.06</ele>
        <time>2017-09-23T12:51:12Z</time>
      </trkpt>
      <trkpt lat="48.0943" lon="6.96225">
        <ele>843.56</ele>
        <time>2017-09-23T12:51:21Z</time>
      </trkpt>
      <trkpt lat="48.09434" lon="6.96287">
        <ele>846.6</ele>
        <time>2017-09-23T12:51:33Z</time>
      </trkpt>
      <trkpt lat="48.09436" lon="6.9631">
        <ele>848.67</ele>
        <time>2017-09-23T12:51:38Z</time>
      </trkpt>
      <trkpt lat="48.09438" lon="6.96351">
        <ele>851.66</ele>
        <time>2017-09-23T12:51:47Z</time>
      </trkpt>
      <trkpt lat="48.09436" lon="6.96412">
        <ele>854.69</ele>
        <time>2017-09-23T12:51:58Z</time>
      </trkpt>
      <trkpt lat="48.09433" lon="6.96468">
        <ele>857.11</ele>
        <time>2017-09-23T12:52:09Z</time>
      </trkpt>
      <trkpt lat="48.09426" lon="6.96538">
        <ele>860.05</ele>
        <time>2017-09-23T12:52:23Z</time>
      </trkpt>
      <trkpt lat="48.0942" lon="6.96579">
        <ele>862.37</ele>
        <time>2017-09-23T12:52:31Z</time>
      </trkpt>
      <trkpt lat="48.09413" lon="6.96637">
        <ele>864.77</ele>
        <time>2017-09-23T12:52:43Z</time>
      </trkpt>
      <trkpt lat="48.09398" lon="6.96685">
        <ele>868.15</ele>
        <time>2017-09-23T12:52:54Z</time>
      </trkpt>
      <trkpt lat="48.09385" lon="6.96731">
        <ele>870.65</ele>
        <time>2017-09-23T12:53:05Z</time>
      </trkpt>
      <trkpt lat="48.09397" lon="6.96775">
        <ele>872.47</ele>
        <time>2017-09-23T12:53:15Z</time>
      </trkpt>
      <trkpt lat="48.09393" lon="6.96825">
        <ele>874.55</ele>
        <time>2017-09-23T12:53:25Z</time>
      </trkpt>
      <trkpt lat="48.09383" lon="6.96877">
        <ele>876.41</ele>
        <time>2017-09-23T12:53:35Z</time>
      </trkpt>
      <trkpt lat="48.09369" lon="6.96946">
        <ele>878.86</ele>
        <time>2017-09-23T12:53:49Z</time>
      </trkpt>
      <trkpt lat="48.09328" lon="6.96972">
        <ele>880.5</ele>
        <time>2017-09-23T12:54:01Z</time>
      </trkpt>
      <trkpt lat="48.09297" lon="6.96995">
        <ele>881.11</ele>
        <time>2017-09-23T12:54:10Z</time>
      </trkpt>
      <trkpt lat="48.09248" lon="6.97014">
        <ele>882.23</ele>
        <time>2017-09-23T12:54:22Z</time>
      </trkpt>
      <trkpt lat="48.09213" lon="6.97032">
        <ele>884.27</ele>
        <time>2017-09-23T12:54:33Z</time>
      </trkpt>
      <trkpt lat="48.09166" lon="6.97065">
        <ele>886.29</ele>
        <time>2017-09-23T12:54:47Z</time>
      </trkpt>
      <trkpt lat="48.0913" lon="6.97093">
        <ele>888.95</ele>
        <time>2017-09-23T12:54:59Z</time>
      </trkpt>
      <trkpt lat="48.09104" lon="6.97126">
        <ele>891.34</ele>
        <time>2017-09-23T12:55:11Z</time>
      </trkpt>
      <trkpt lat="48.09085" lon="6.97151">
        <ele>892.62</ele>
        <time>2017-09-23T12:55:23Z</time>
      </trkpt>
      <trkpt lat="48.09074" lon="6.97148">
        <ele>893.11</ele>
        <time>2017-09-23T12:55:52Z</time>
      </trkpt>
      <trkpt lat="48.09076" lon="6.9715">
        <ele>893.78</ele>
        <time>2017-09-23T12:56:23Z</time>
      </trkpt>
      <trkpt lat="48.09079" lon="6.97142">
        <ele>893.5</ele>
        <time>2017-09-23T12:56:53Z</time>
      </trkpt>
      <trkpt lat="48.09072" lon="6.97142">
        <ele>893.78</ele>
        <time>2017-09-23T12:57:21Z</time>
      </trkpt>
      <trkpt lat="48.09074" lon="6.97146">
        <ele>894.13</ele>
        <time>2017-09-23T12:57:44Z</time>
      </trkpt>
      <trkpt lat="48.09073" lon="6.97148">
        <ele>893.94</ele>
        <time>2017-09-23T12:58:10Z</time>
      </trkpt>
      <trkpt lat="48.09077" lon="6.9714">
        <ele>894.35</ele>
        <time>2017-09-23T12:58:42Z</time>
      </trkpt>
      <trkpt lat="48.09077" lon="6.97135">
        <ele>894.55</ele>
        <time>2017-09-23T12:59:13Z</time>
      </trkpt>
      <trkpt lat="48.09081" lon="6.97138">
        <ele>894.78</ele>
        <time>2017-09-23T12:59:41Z</time>
      </trkpt>
      <trkpt lat="48.09078" lon="6.97139">
        <ele>894.94</ele>
        <time>2017-09-23T13:00:09Z</time>
      </trkpt>
      <trkpt lat="48.09074" lon="6.97151">
        <ele>894.8</ele>
        <time>2017-09-23T13:00:40Z</time>
      </trkpt>
      <trkpt lat="48.09078" lon="6.97163">
        <ele>895.89</ele>
        <time>2017-09-23T13:01:18Z</time>
      </trkpt>
      <trkpt lat="48.09086" lon="6.97165">
        <ele>895.37</ele>
        <time>2017-09-23T13:01:47Z</time>
      </trkpt>
      <trkpt lat="48.09083" lon="6.97163">
        <ele>896.02</ele>
        <time>2017-09-23T13:02:19Z</time>
      </trkpt>
      <trkpt lat="48.09084" lon="6.97164">
        <ele>896.52</ele>
        <time>2017-09-23T13:02:32Z</time>
      </trkpt>
      <trkpt lat="48.09082" lon="6.97157">
        <ele>896.48</ele>
        <time>2017-09-23T13:02:42Z</time>
      </trkpt>
      <trkpt lat="48.09084" lon="6.97164">
        <ele>896.19</ele>
        <time>2017-09-23T13:03:11Z</time>
      </trkpt>
      <trkpt lat="48.09084" lon="6.97168">
        <ele>896.03</ele>
        <time>2017-09-23T13:03:45Z</time>
      </trkpt>
      <trkpt lat="48.09077" lon="6.97159">
        <ele>897.39</ele>
        <time>2017-09-23T13:04:15Z</time>
      </trkpt>
      <trkpt lat="48.09075" lon="6.9716">
        <ele>896.83</ele>
        <time>2017-09-23T13:04:17Z</time>
      </trkpt>
      <trkpt lat="48.09073" lon="6.9716">
        <ele>897.24</ele>
        <time>2017-09-23T13:04:18Z</time>
      </trkpt>
      <trkpt lat="48.09071" lon="6.9716">
        <ele>897.03</ele>
        <time>2017-09-23T13:04:19Z</time>
      </trkpt>
      <trkpt lat="48.09068" lon="6.97161">
        <ele>896.92</ele>
        <time>2017-09-23T13:04:20Z</time>
      </trkpt>
      <trkpt lat="48.09065" lon="6.97163">
        <ele>897.8</ele>
        <time>2017-09-23T13:04:21Z</time>
      </trkpt>
      <trkpt lat="48.0903" lon="6.97174">
        <ele>897</ele>
        <time>2017-09-23T13:04:31Z</time>
      </trkpt>
      <trkpt lat="48.09025" lon="6.97174">
        <ele>896.9</ele>
        <time>2017-09-23T13:04:32Z</time>
      </trkpt>
      <trkpt lat="48.08985" lon="6.97191">
        <ele>896.62</ele>
        <time>2017-09-23T13:04:42Z</time>
      </trkpt>
      <trkpt lat="48.0898" lon="6.97193">
        <ele>896.39</ele>
        <time>2017-09-23T13:04:43Z</time>
      </trkpt>
      <trkpt lat="48.08976" lon="6.97195">
        <ele>896.07</ele>
        <time>2017-09-23T13:04:44Z</time>
      </trkpt>
      <trkpt lat="48.08937" lon="6.97213">
        <ele>894.1</ele>
        <time>2017-09-23T13:04:51Z</time>
      </trkpt>
      <trkpt lat="48.0893" lon="6.97216">
        <ele>893.87</ele>
        <time>2017-09-23T13:04:52Z</time>
      </trkpt>
      <trkpt lat="48.08923" lon="6.97218">
        <ele>893.34</ele>
        <time>2017-09-23T13:04:53Z</time>
      </trkpt>
      <trkpt lat="48.08916" lon="6.97222">
        <ele>893.25</ele>
        <time>2017-09-23T13:04:54Z</time>
      </trkpt>
      <trkpt lat="48.0891" lon="6.97225">
        <ele>892.79</ele>
        <time>2017-09-23T13:04:55Z</time>
      </trkpt>
      <trkpt lat="48.08903" lon="6.9723">
        <ele>892.19</ele>
        <time>2017-09-23T13:04:56Z</time>
      </trkpt>
      <trkpt lat="48.08895" lon="6.97235">
        <ele>891.98</ele>
        <time>2017-09-23T13:04:57Z</time>
      </trkpt>
      <trkpt lat="48.08824" lon="6.97289">
        <ele>888.3</ele>
        <time>2017-09-23T13:05:06Z</time>
      </trkpt>
      <trkpt lat="48.08817" lon="6.97297">
        <ele>888.78</ele>
        <time>2017-09-23T13:05:07Z</time>
      </trkpt>
      <trkpt lat="48.08802" lon="6.97314">
        <ele>887.54</ele>
        <time>2017-09-23T13:05:09Z</time>
      </trkpt>
      <trkpt lat="48.08795" lon="6.97325">
        <ele>887.89</ele>
        <time>2017-09-23T13:05:10Z</time>
      </trkpt>
      <trkpt lat="48.08753" lon="6.97397">
        <ele>884.65</ele>
        <time>2017-09-23T13:05:17Z</time>
      </trkpt>
      <trkpt lat="48.08719" lon="6.97476">
        <ele>881.57</ele>
        <time>2017-09-23T13:05:25Z</time>
      </trkpt>
      <trkpt lat="48.08684" lon="6.97555">
        <ele>878.18</ele>
        <time>2017-09-23T13:05:33Z</time>
      </trkpt>
      <trkpt lat="48.08663" lon="6.97605">
        <ele>877.9</ele>
        <time>2017-09-23T13:05:39Z</time>
      </trkpt>
      <trkpt lat="48.08657" lon="6.97621">
        <ele>878.45</ele>
        <time>2017-09-23T13:05:41Z</time>
      </trkpt>
      <trkpt lat="48.08655" lon="6.97628">
        <ele>879.19</ele>
        <time>2017-09-23T13:05:42Z</time>
      </trkpt>
      <trkpt lat="48.08643" lon="6.97691">
        <ele>881.99</ele>
        <time>2017-09-23T13:05:53Z</time>
      </trkpt>
      <trkpt lat="48.0865" lon="6.97734">
        <ele>885.19</ele>
        <time>2017-09-23T13:06:02Z</time>
      </trkpt>
      <trkpt lat="48.08655" lon="6.97785">
        <ele>888.36</ele>
        <time>2017-09-23T13:06:13Z</time>
      </trkpt>
      <trkpt lat="48.08662" lon="6.97835">
        <ele>890.8</ele>
        <time>2017-09-23T13:06:24Z</time>
      </trkpt>
      <trkpt lat="48.08667" lon="6.97884">
        <ele>893.89</ele>
        <time>2017-09-23T13:06:34Z</time>
      </trkpt>
      <trkpt lat="48.0867" lon="6.97952">
        <ele>896.85</ele>
        <time>2017-09-23T13:06:48Z</time>
      </trkpt>
      <trkpt lat="48.08667" lon="6.98009">
        <ele>898.24</ele>
        <time>2017-09-23T13:07:01Z</time>
      </trkpt>
      <trkpt lat="48.08666" lon="6.98022">
        <ele>899.54</ele>
        <time>2017-09-23T13:07:04Z</time>
      </trkpt>
      <trkpt lat="48.08671" lon="6.98028">
        <ele>899.41</ele>
        <time>2017-09-23T13:07:05Z</time>
      </trkpt>
      <trkpt lat="48.08675" lon="6.98031">
        <ele>900.03</ele>
        <time>2017-09-23T13:07:06Z</time>
      </trkpt>
      <trkpt lat="48.08681" lon="6.98033">
        <ele>900.34</ele>
        <time>2017-09-23T13:07:07Z</time>
      </trkpt>
      <trkpt lat="48.08686" lon="6.98034">
        <ele>900.39</ele>
        <time>2017-09-23T13:07:08Z</time>
      </trkpt>
      <trkpt lat="48.08689" lon="6.98033">
        <ele>900.54</ele>
        <time>2017-09-23T13:07:09Z</time>
      </trkpt>
      <trkpt lat="48.08693" lon="6.98031">
        <ele>900.61</ele>
        <time>2017-09-23T13:07:10Z</time>
      </trkpt>
      <trkpt lat="48.08696" lon="6.98028">
        <ele>900.38</ele>
        <time>2017-09-23T13:07:11Z</time>
      </trkpt>
      <trkpt lat="48.08697" lon="6.98026">
        <ele>900.97</ele>
        <time>2017-09-23T13:07:12Z</time>
      </trkpt>
      <trkpt lat="48.08699" lon="6.98024">
        <ele>901.11</ele>
        <time>2017-09-23T13:07:13Z</time>
      </trkpt>
      <trkpt lat="48.0872" lon="6.98005">
        <ele>903.11</ele>
        <time>2017-09-23T13:07:23Z</time>
      </trkpt>
      <trkpt lat="48.08754" lon="6.9798">
        <ele>906.14</ele>
        <time>2017-09-23T13:07:35Z</time>
      </trkpt>
      <trkpt lat="48.08784" lon="6.9795">
        <ele>909.1</ele>
        <time>2017-09-23T13:07:45Z</time>
      </trkpt>
      <trkpt lat="48.08814" lon="6.97948">
        <ele>911.38</ele>
        <time>2017-09-23T13:07:56Z</time>
      </trkpt>
      <trkpt lat="48.08835" lon="6.97971">
        <ele>913.96</ele>
        <time>2017-09-23T13:08:08Z</time>
      </trkpt>
      <trkpt lat="48.08853" lon="6.97997">
        <ele>914.76</ele>
        <time>2017-09-23T13:08:19Z</time>
      </trkpt>
      <trkpt lat="48.08852" lon="6.97999">
        <ele>914.96</ele>
        <time>2017-09-23T13:08:20Z</time>
      </trkpt>
      <trkpt lat="48.08841" lon="6.98027">
        <ele>917.83</ele>
        <time>2017-09-23T13:08:31Z</time>
      </trkpt>
      <trkpt lat="48.08826" lon="6.98049">
        <ele>918.56</ele>
        <time>2017-09-23T13:08:43Z</time>
      </trkpt>
      <trkpt lat="48.0882" lon="6.98051">
        <ele>918.87</ele>
        <time>2017-09-23T13:08:46Z</time>
      </trkpt>
      <trkpt lat="48.08818" lon="6.98054">
        <ele>918.86</ele>
        <time>2017-09-23T13:08:47Z</time>
      </trkpt>
      <trkpt lat="48.08815" lon="6.98057">
        <ele>919.1</ele>
        <time>2017-09-23T13:08:48Z</time>
      </trkpt>
      <trkpt lat="48.08812" lon="6.9806">
        <ele>919.36</ele>
        <time>2017-09-23T13:08:49Z</time>
      </trkpt>
      <trkpt lat="48.08809" lon="6.98064">
        <ele>919.47</ele>
        <time>2017-09-23T13:08:50Z</time>
      </trkpt>
      <trkpt lat="48.08805" lon="6.98067">
        <ele>919.44</ele>
        <time>2017-09-23T13:08:51Z</time>
      </trkpt>
      <trkpt lat="48.08802" lon="6.9807">
        <ele>919.15</ele>
        <time>2017-09-23T13:08:52Z</time>
      </trkpt>
      <trkpt lat="48.08766" lon="6.9812">
        <ele>922.5</ele>
        <time>2017-09-23T13:09:05Z</time>
      </trkpt>
      <trkpt lat="48.08764" lon="6.98124">
        <ele>922.61</ele>
        <time>2017-09-23T13:09:06Z</time>
      </trkpt>
      <trkpt lat="48.08739" lon="6.98163">
        <ele>924.91</ele>
        <time>2017-09-23T13:09:17Z</time>
      </trkpt>
      <trkpt lat="48.0871" lon="6.98192">
        <ele>927.13</ele>
        <time>2017-09-23T13:09:28Z</time>
      </trkpt>
      <trkpt lat="48.08676" lon="6.98226">
        <ele>929.07</ele>
        <time>2017-09-23T13:09:39Z</time>
      </trkpt>
      <trkpt lat="48.08656" lon="6.98256">
        <ele>930.17</ele>
        <time>2017-09-23T13:09:46Z</time>
      </trkpt>
      <trkpt lat="48.08654" lon="6.98261">
        <ele>930.09</ele>
        <time>2017-09-23T13:09:47Z</time>
      </trkpt>
      <trkpt lat="48.08628" lon="6.9831">
        <ele>931.57</ele>
        <time>2017-09-23T13:09:58Z</time>
      </trkpt>
      <trkpt lat="48.08601" lon="6.98371">
        <ele>933.95</ele>
        <time>2017-09-23T13:10:11Z</time>
      </trkpt>
      <trkpt lat="48.08595" lon="6.98393">
        <ele>934.53</ele>
        <time>2017-09-23T13:10:15Z</time>
      </trkpt>
      <trkpt lat="48.08589" lon="6.9846">
        <ele>937.52</ele>
        <time>2017-09-23T13:10:27Z</time>
      </trkpt>
      <trkpt lat="48.08595" lon="6.98513">
        <ele>940.67</ele>
        <time>2017-09-23T13:10:37Z</time>
      </trkpt>
      <trkpt lat="48.08596" lon="6.98579">
        <ele>942.58</ele>
        <time>2017-09-23T13:10:49Z</time>
      </trkpt>
      <trkpt lat="48.086" lon="6.98658">
        <ele>943.21</ele>
        <time>2017-09-23T13:11:03Z</time>
      </trkpt>
      <trkpt lat="48.08602" lon="6.98664">
        <ele>943.07</ele>
        <time>2017-09-23T13:11:04Z</time>
      </trkpt>
      <trkpt lat="48.08604" lon="6.98694">
        <ele>943.07</ele>
        <time>2017-09-23T13:11:09Z</time>
      </trkpt>
      <trkpt lat="48.08603" lon="6.98701">
        <ele>943.27</ele>
        <time>2017-09-23T13:11:10Z</time>
      </trkpt>
      <trkpt lat="48.08606" lon="6.9873">
        <ele>943.42</ele>
        <time>2017-09-23T13:11:15Z</time>
      </trkpt>
      <trkpt lat="48.08605" lon="6.98736">
        <ele>943.93</ele>
        <time>2017-09-23T13:11:16Z</time>
      </trkpt>
      <trkpt lat="48.08602" lon="6.98755">
        <ele>944.23</ele>
        <time>2017-09-23T13:11:19Z</time>
      </trkpt>
      <trkpt lat="48.08599" lon="6.98768">
        <ele>943.8</ele>
        <time>2017-09-23T13:11:21Z</time>
      </trkpt>
      <trkpt lat="48.08591" lon="6.98794">
        <ele>943.83</ele>
        <time>2017-09-23T13:11:25Z</time>
      </trkpt>
      <trkpt lat="48.08583" lon="6.98817">
        <ele>944.01</ele>
        <time>2017-09-23T13:11:29Z</time>
      </trkpt>
      <trkpt lat="48.08574" lon="6.98834">
        <ele>944.11</ele>
        <time>2017-09-23T13:11:32Z</time>
      </trkpt>
      <trkpt lat="48.08571" lon="6.98838">
        <ele>944.25</ele>
        <time>2017-09-23T13:11:33Z</time>
      </trkpt>
      <trkpt lat="48.08569" lon="6.9884">
        <ele>944.22</ele>
        <time>2017-09-23T13:11:34Z</time>
      </trkpt>
      <trkpt lat="48.08563" lon="6.98845">
        <ele>944.29</ele>
        <time>2017-09-23T13:11:36Z</time>
      </trkpt>
      <trkpt lat="48.08559" lon="6.98846">
        <ele>944.53</ele>
        <time>2017-09-23T13:11:37Z</time>
      </trkpt>
      <trkpt lat="48.08501" lon="6.98856">
        <ele>946.77</ele>
        <time>2017-09-23T13:11:51Z</time>
      </trkpt>
      <trkpt lat="48.08458" lon="6.98845">
        <ele>949.9</ele>
        <time>2017-09-23T13:12:02Z</time>
      </trkpt>
      <trkpt lat="48.08427" lon="6.98849">
        <ele>952.98</ele>
        <time>2017-09-23T13:12:11Z</time>
      </trkpt>
      <trkpt lat="48.08385" lon="6.9886">
        <ele>955.02</ele>
        <time>2017-09-23T13:12:23Z</time>
      </trkpt>
      <trkpt lat="48.08343" lon="6.98881">
        <ele>958.07</ele>
        <time>2017-09-23T13:12:34Z</time>
      </trkpt>
      <trkpt lat="48.08328" lon="6.98893">
        <ele>959.02</ele>
        <time>2017-09-23T13:12:38Z</time>
      </trkpt>
      <trkpt lat="48.08298" lon="6.98935">
        <ele>961.3</ele>
        <time>2017-09-23T13:12:50Z</time>
      </trkpt>
      <trkpt lat="48.08284" lon="6.98957">
        <ele>962.83</ele>
        <time>2017-09-23T13:12:55Z</time>
      </trkpt>
      <trkpt lat="48.08271" lon="6.98998">
        <ele>965.85</ele>
        <time>2017-09-23T13:13:04Z</time>
      </trkpt>
      <trkpt lat="48.08251" lon="6.99024">
        <ele>968.78</ele>
        <time>2017-09-23T13:13:13Z</time>
      </trkpt>
      <trkpt lat="48.08219" lon="6.99007">
        <ele>970.86</ele>
        <time>2017-09-23T13:13:23Z</time>
      </trkpt>
      <trkpt lat="48.08167" lon="6.98999">
        <ele>973.78</ele>
        <time>2017-09-23T13:13:37Z</time>
      </trkpt>
      <trkpt lat="48.08132" lon="6.99009">
        <ele>975.7</ele>
        <time>2017-09-23T13:13:48Z</time>
      </trkpt>
      <trkpt lat="48.08098" lon="6.99017">
        <ele>976.73</ele>
        <time>2017-09-23T13:13:59Z</time>
      </trkpt>
      <trkpt lat="48.0807" lon="6.99038">
        <ele>976.85</ele>
        <time>2017-09-23T13:14:10Z</time>
      </trkpt>
      <trkpt lat="48.08037" lon="6.9907">
        <ele>976.68</ele>
        <time>2017-09-23T13:14:21Z</time>
      </trkpt>
      <trkpt lat="48.08025" lon="6.9908">
        <ele>977.03</ele>
        <time>2017-09-23T13:14:24Z</time>
      </trkpt>
      <trkpt lat="48.08011" lon="6.99094">
        <ele>977.55</ele>
        <time>2017-09-23T13:14:28Z</time>
      </trkpt>
      <trkpt lat="48.08007" lon="6.99097">
        <ele>977.49</ele>
        <time>2017-09-23T13:14:29Z</time>
      </trkpt>
      <trkpt lat="48.08004" lon="6.99102">
        <ele>977.43</ele>
        <time>2017-09-23T13:14:30Z</time>
      </trkpt>
      <trkpt lat="48.07971" lon="6.99151">
        <ele>977.38</ele>
        <time>2017-09-23T13:14:42Z</time>
      </trkpt>
      <trkpt lat="48.0795" lon="6.99202">
        <ele>977.57</ele>
        <time>2017-09-23T13:14:52Z</time>
      </trkpt>
      <trkpt lat="48.07931" lon="6.99246">
        <ele>978.18</ele>
        <time>2017-09-23T13:15:00Z</time>
      </trkpt>
      <trkpt lat="48.07929" lon="6.99252">
        <ele>978.32</ele>
        <time>2017-09-23T13:15:01Z</time>
      </trkpt>
      <trkpt lat="48.07928" lon="6.99258">
        <ele>978.29</ele>
        <time>2017-09-23T13:15:02Z</time>
      </trkpt>
      <trkpt lat="48.07916" lon="6.99306">
        <ele>979.15</ele>
        <time>2017-09-23T13:15:10Z</time>
      </trkpt>
      <trkpt lat="48.07916" lon="6.99313">
        <ele>978.95</ele>
        <time>2017-09-23T13:15:11Z</time>
      </trkpt>
      <trkpt lat="48.07913" lon="6.99333">
        <ele>979.15</ele>
        <time>2017-09-23T13:15:14Z</time>
      </trkpt>
      <trkpt lat="48.07912" lon="6.99341">
        <ele>979.39</ele>
        <time>2017-09-23T13:15:15Z</time>
      </trkpt>
      <trkpt lat="48.07909" lon="6.99362">
        <ele>979.84</ele>
        <time>2017-09-23T13:15:18Z</time>
      </trkpt>
      <trkpt lat="48.07909" lon="6.99369">
        <ele>979.51</ele>
        <time>2017-09-23T13:15:19Z</time>
      </trkpt>
      <trkpt lat="48.07908" lon="6.99376">
        <ele>980.34</ele>
        <time>2017-09-23T13:15:20Z</time>
      </trkpt>
      <trkpt lat="48.07907" lon="6.99383">
        <ele>979.93</ele>
        <time>2017-09-23T13:15:21Z</time>
      </trkpt>
      <trkpt lat="48.07907" lon="6.9939">
        <ele>980.14</ele>
        <time>2017-09-23T13:15:22Z</time>
      </trkpt>
      <trkpt lat="48.07906" lon="6.99403">
        <ele>980.11</ele>
        <time>2017-09-23T13:15:24Z</time>
      </trkpt>
      <trkpt lat="48.07909" lon="6.99471">
        <ele>980.73</ele>
        <time>2017-09-23T13:15:35Z</time>
      </trkpt>
      <trkpt lat="48.07911" lon="6.99478">
        <ele>980.99</ele>
        <time>2017-09-23T13:15:36Z</time>
      </trkpt>
      <trkpt lat="48.07915" lon="6.99499">
        <ele>981.06</ele>
        <time>2017-09-23T13:15:39Z</time>
      </trkpt>
      <trkpt lat="48.07917" lon="6.99505">
        <ele>981.45</ele>
        <time>2017-09-23T13:15:40Z</time>
      </trkpt>
      <trkpt lat="48.07921" lon="6.99511">
        <ele>981.36</ele>
        <time>2017-09-23T13:15:41Z</time>
      </trkpt>
      <trkpt lat="48.07931" lon="6.99522">
        <ele>981.64</ele>
        <time>2017-09-23T13:15:43Z</time>
      </trkpt>
      <trkpt lat="48.07936" lon="6.99525">
        <ele>981.95</ele>
        <time>2017-09-23T13:15:44Z</time>
      </trkpt>
      <trkpt lat="48.07941" lon="6.99528">
        <ele>981.74</ele>
        <time>2017-09-23T13:15:45Z</time>
      </trkpt>
      <trkpt lat="48.07946" lon="6.99531">
        <ele>981.82</ele>
        <time>2017-09-23T13:15:46Z</time>
      </trkpt>
      <trkpt lat="48.0795" lon="6.99533">
        <ele>981.84</ele>
        <time>2017-09-23T13:15:47Z</time>
      </trkpt>
      <trkpt lat="48.07954" lon="6.99535">
        <ele>981.77</ele>
        <time>2017-09-23T13:15:48Z</time>
      </trkpt>
      <trkpt lat="48.07958" lon="6.99538">
        <ele>982.16</ele>
        <time>2017-09-23T13:15:49Z</time>
      </trkpt>
      <trkpt lat="48.07967" lon="6.99541">
        <ele>982.13</ele>
        <time>2017-09-23T13:15:51Z</time>
      </trkpt>
      <trkpt lat="48.07972" lon="6.99544">
        <ele>982.51</ele>
        <time>2017-09-23T13:15:52Z</time>
      </trkpt>
      <trkpt lat="48.07976" lon="6.99547">
        <ele>982.52</ele>
        <time>2017-09-23T13:15:53Z</time>
      </trkpt>
      <trkpt lat="48.0798" lon="6.9955">
        <ele>982.63</ele>
        <time>2017-09-23T13:15:54Z</time>
      </trkpt>
      <trkpt lat="48.07983" lon="6.99552">
        <ele>982.39</ele>
        <time>2017-09-23T13:15:55Z</time>
      </trkpt>
      <trkpt lat="48.07987" lon="6.99555">
        <ele>982.84</ele>
        <time>2017-09-23T13:15:56Z</time>
      </trkpt>
      <trkpt lat="48.07991" lon="6.99559">
        <ele>983.07</ele>
        <time>2017-09-23T13:15:57Z</time>
      </trkpt>
      <trkpt lat="48.07994" lon="6.99563">
        <ele>982.91</ele>
        <time>2017-09-23T13:15:58Z</time>
      </trkpt>
      <trkpt lat="48.07997" lon="6.99568">
        <ele>983.36</ele>
        <time>2017-09-23T13:15:59Z</time>
      </trkpt>
      <trkpt lat="48.07999" lon="6.99573">
        <ele>983.71</ele>
        <time>2017-09-23T13:16:00Z</time>
      </trkpt>
      <trkpt lat="48.08001" lon="6.99579">
        <ele>984.08</ele>
        <time>2017-09-23T13:16:01Z</time>
      </trkpt>
      <trkpt lat="48.08002" lon="6.99586">
        <ele>983.9</ele>
        <time>2017-09-23T13:16:02Z</time>
      </trkpt>
      <trkpt lat="48.08003" lon="6.99593">
        <ele>984.27</ele>
        <time>2017-09-23T13:16:03Z</time>
      </trkpt>
      <trkpt lat="48.08003" lon="6.996">
        <ele>984.36</ele>
        <time>2017-09-23T13:16:04Z</time>
      </trkpt>
      <trkpt lat="48.08002" lon="6.99607">
        <ele>984.76</ele>
        <time>2017-09-23T13:16:05Z</time>
      </trkpt>
      <trkpt lat="48.08002" lon="6.99612">
        <ele>984.51</ele>
        <time>2017-09-23T13:16:06Z</time>
      </trkpt>
      <trkpt lat="48.08002" lon="6.99618">
        <ele>984.83</ele>
        <time>2017-09-23T13:16:07Z</time>
      </trkpt>
      <trkpt lat="48.0799" lon="6.99644">
        <ele>985</ele>
        <time>2017-09-23T13:16:12Z</time>
      </trkpt>
      <trkpt lat="48.07988" lon="6.99648">
        <ele>985.2</ele>
        <time>2017-09-23T13:16:13Z</time>
      </trkpt>
      <trkpt lat="48.07969" lon="6.99682">
        <ele>986.48</ele>
        <time>2017-09-23T13:16:20Z</time>
      </trkpt>
      <trkpt lat="48.07966" lon="6.99687">
        <ele>986.38</ele>
        <time>2017-09-23T13:16:21Z</time>
      </trkpt>
      <trkpt lat="48.07963" lon="6.99691">
        <ele>986.78</ele>
        <time>2017-09-23T13:16:22Z</time>
      </trkpt>
      <trkpt lat="48.07961" lon="6.99696">
        <ele>986.35</ele>
        <time>2017-09-23T13:16:23Z</time>
      </trkpt>
      <trkpt lat="48.07958" lon="6.997">
        <ele>986.59</ele>
        <time>2017-09-23T13:16:24Z</time>
      </trkpt>
      <trkpt lat="48.07955" lon="6.99704">
        <ele>986.15</ele>
        <time>2017-09-23T13:16:25Z</time>
      </trkpt>
      <trkpt lat="48.07928" lon="6.99763">
        <ele>988.23</ele>
        <time>2017-09-23T13:16:37Z</time>
      </trkpt>
      <trkpt lat="48.07914" lon="6.9982">
        <ele>989.94</ele>
        <time>2017-09-23T13:16:47Z</time>
      </trkpt>
      <trkpt lat="48.07913" lon="6.99852">
        <ele>990.65</ele>
        <time>2017-09-23T13:16:52Z</time>
      </trkpt>
      <trkpt lat="48.07912" lon="6.99882">
        <ele>991.52</ele>
        <time>2017-09-23T13:16:57Z</time>
      </trkpt>
      <trkpt lat="48.07912" lon="6.99888">
        <ele>991.41</ele>
        <time>2017-09-23T13:16:58Z</time>
      </trkpt>
      <trkpt lat="48.07912" lon="6.99894">
        <ele>991.49</ele>
        <time>2017-09-23T13:16:59Z</time>
      </trkpt>
      <trkpt lat="48.07912" lon="6.999">
        <ele>992.1</ele>
        <time>2017-09-23T13:17:00Z</time>
      </trkpt>
      <trkpt lat="48.07911" lon="6.99906">
        <ele>991.79</ele>
        <time>2017-09-23T13:17:01Z</time>
      </trkpt>
      <trkpt lat="48.07911" lon="6.99919">
        <ele>992.1</ele>
        <time>2017-09-23T13:17:03Z</time>
      </trkpt>
      <trkpt lat="48.07911" lon="6.99987">
        <ele>993.46</ele>
        <time>2017-09-23T13:17:15Z</time>
      </trkpt>
      <trkpt lat="48.07914" lon="7.00047">
        <ele>994.5</ele>
        <time>2017-09-23T13:17:26Z</time>
      </trkpt>
      <trkpt lat="48.07918" lon="7.00103">
        <ele>996.1</ele>
        <time>2017-09-23T13:17:37Z</time>
      </trkpt>
      <trkpt lat="48.07931" lon="7.00151">
        <ele>996.99</ele>
        <time>2017-09-23T13:17:46Z</time>
      </trkpt>
      <trkpt lat="48.07933" lon="7.00155">
        <ele>997.14</ele>
        <time>2017-09-23T13:17:47Z</time>
      </trkpt>
      <trkpt lat="48.07934" lon="7.0016">
        <ele>997.61</ele>
        <time>2017-09-23T13:17:48Z</time>
      </trkpt>
      <trkpt lat="48.0795" lon="7.00224">
        <ele>999.34</ele>
        <time>2017-09-23T13:18:00Z</time>
      </trkpt>
      <trkpt lat="48.07964" lon="7.00262">
        <ele>1000.78</ele>
        <time>2017-09-23T13:18:07Z</time>
      </trkpt>
      <trkpt lat="48.07977" lon="7.00328">
        <ele>1002.2</ele>
        <time>2017-09-23T13:18:19Z</time>
      </trkpt>
      <trkpt lat="48.07988" lon="7.00391">
        <ele>1003.78</ele>
        <time>2017-09-23T13:18:30Z</time>
      </trkpt>
      <trkpt lat="48.08" lon="7.00455">
        <ele>1005.09</ele>
        <time>2017-09-23T13:18:41Z</time>
      </trkpt>
      <trkpt lat="48.08002" lon="7.00527">
        <ele>1006.93</ele>
        <time>2017-09-23T13:18:53Z</time>
      </trkpt>
      <trkpt lat="48.07998" lon="7.00565">
        <ele>1008.35</ele>
        <time>2017-09-23T13:19:03Z</time>
      </trkpt>
      <trkpt lat="48.07996" lon="7.00567">
        <ele>1008.24</ele>
        <time>2017-09-23T13:19:04Z</time>
      </trkpt>
      <trkpt lat="48.07994" lon="7.0057">
        <ele>1008.6</ele>
        <time>2017-09-23T13:19:05Z</time>
      </trkpt>
      <trkpt lat="48.07994" lon="7.00573">
        <ele>1008.96</ele>
        <time>2017-09-23T13:19:06Z</time>
      </trkpt>
      <trkpt lat="48.07993" lon="7.00576">
        <ele>1009.21</ele>
        <time>2017-09-23T13:19:07Z</time>
      </trkpt>
      <trkpt lat="48.07992" lon="7.00579">
        <ele>1008.94</ele>
        <time>2017-09-23T13:19:08Z</time>
      </trkpt>
      <trkpt lat="48.08001" lon="7.00596">
        <ele>1010.04</ele>
        <time>2017-09-23T13:19:22Z</time>
      </trkpt>
      <trkpt lat="48.07997" lon="7.00596">
        <ele>1009.54</ele>
        <time>2017-09-23T13:20:00Z</time>
      </trkpt>
      <trkpt lat="48.07996" lon="7.006">
        <ele>1010.4</ele>
        <time>2017-09-23T13:20:27Z</time>
      </trkpt>
      <trkpt lat="48.07993" lon="7.00603">
        <ele>1010.23</ele>
        <time>2017-09-23T13:20:52Z</time>
      </trkpt>
      <trkpt lat="48.07989" lon="7.00607">
        <ele>1010.32</ele>
        <time>2017-09-23T13:21:21Z</time>
      </trkpt>
      <trkpt lat="48.07988" lon="7.00608">
        <ele>1010.91</ele>
        <time>2017-09-23T13:21:22Z</time>
      </trkpt>
      <trkpt lat="48.07987" lon="7.00609">
        <ele>1010.38</ele>
        <time>2017-09-23T13:21:23Z</time>
      </trkpt>
      <trkpt lat="48.0796" lon="7.00637">
        <ele>1012.95</ele>
        <time>2017-09-23T13:21:37Z</time>
      </trkpt>
      <trkpt lat="48.0793" lon="7.00662">
        <ele>1015.26</ele>
        <time>2017-09-23T13:21:49Z</time>
      </trkpt>
      <trkpt lat="48.07899" lon="7.0067">
        <ele>1017.81</ele>
        <time>2017-09-23T13:22:00Z</time>
      </trkpt>
      <trkpt lat="48.0785" lon="7.00653">
        <ele>1021.63</ele>
        <time>2017-09-23T13:22:15Z</time>
      </trkpt>
      <trkpt lat="48.07811" lon="7.00624">
        <ele>1023.57</ele>
        <time>2017-09-23T13:22:30Z</time>
      </trkpt>
      <trkpt lat="48.07785" lon="7.00596">
        <ele>1025.71</ele>
        <time>2017-09-23T13:22:40Z</time>
      </trkpt>
      <trkpt lat="48.07755" lon="7.00564">
        <ele>1027.58</ele>
        <time>2017-09-23T13:22:51Z</time>
      </trkpt>
      <trkpt lat="48.07718" lon="7.0053">
        <ele>1029.9</ele>
        <time>2017-09-23T13:23:04Z</time>
      </trkpt>
      <trkpt lat="48.07682" lon="7.00469">
        <ele>1031.58</ele>
        <time>2017-09-23T13:23:18Z</time>
      </trkpt>
      <trkpt lat="48.07651" lon="7.00425">
        <ele>1033.38</ele>
        <time>2017-09-23T13:23:30Z</time>
      </trkpt>
      <trkpt lat="48.07618" lon="7.0038">
        <ele>1036.53</ele>
        <time>2017-09-23T13:23:43Z</time>
      </trkpt>
      <trkpt lat="48.07582" lon="7.00357">
        <ele>1037.53</ele>
        <time>2017-09-23T13:23:55Z</time>
      </trkpt>
      <trkpt lat="48.07541" lon="7.00358">
        <ele>1039.71</ele>
        <time>2017-09-23T13:24:07Z</time>
      </trkpt>
      <trkpt lat="48.07505" lon="7.00368">
        <ele>1040.58</ele>
        <time>2017-09-23T13:24:18Z</time>
      </trkpt>
      <trkpt lat="48.07458" lon="7.00362">
        <ele>1041.92</ele>
        <time>2017-09-23T13:24:32Z</time>
      </trkpt>
      <trkpt lat="48.07421" lon="7.00347">
        <ele>1043.15</ele>
        <time>2017-09-23T13:24:43Z</time>
      </trkpt>
      <trkpt lat="48.07381" lon="7.00322">
        <ele>1043.99</ele>
        <time>2017-09-23T13:24:55Z</time>
      </trkpt>
      <trkpt lat="48.07337" lon="7.00289">
        <ele>1044.91</ele>
        <time>2017-09-23T13:25:07Z</time>
      </trkpt>
      <trkpt lat="48.07295" lon="7.00258">
        <ele>1045.93</ele>
        <time>2017-09-23T13:25:18Z</time>
      </trkpt>
      <trkpt lat="48.07264" lon="7.00237">
        <ele>1046.9</ele>
        <time>2017-09-23T13:25:25Z</time>
      </trkpt>
      <trkpt lat="48.0725" lon="7.0022">
        <ele>1047.41</ele>
        <time>2017-09-23T13:25:28Z</time>
      </trkpt>
      <trkpt lat="48.07199" lon="7.00157">
        <ele>1047.05</ele>
        <time>2017-09-23T13:25:39Z</time>
      </trkpt>
      <trkpt lat="48.07195" lon="7.00152">
        <ele>1047.91</ele>
        <time>2017-09-23T13:25:40Z</time>
      </trkpt>
      <trkpt lat="48.07192" lon="7.00145">
        <ele>1047.99</ele>
        <time>2017-09-23T13:25:41Z</time>
      </trkpt>
      <trkpt lat="48.07188" lon="7.0014">
        <ele>1047.88</ele>
        <time>2017-09-23T13:25:42Z</time>
      </trkpt>
      <trkpt lat="48.07185" lon="7.00133">
        <ele>1048.23</ele>
        <time>2017-09-23T13:25:43Z</time>
      </trkpt>
      <trkpt lat="48.07182" lon="7.00127">
        <ele>1047.48</ele>
        <time>2017-09-23T13:25:44Z</time>
      </trkpt>
      <trkpt lat="48.07171" lon="7.00102">
        <ele>1048.59</ele>
        <time>2017-09-23T13:25:48Z</time>
      </trkpt>
      <trkpt lat="48.07141" lon="7.00037">
        <ele>1048.66</ele>
        <time>2017-09-23T13:25:59Z</time>
      </trkpt>
      <trkpt lat="48.07121" lon="6.99998">
        <ele>1049.91</ele>
        <time>2017-09-23T13:26:06Z</time>
      </trkpt>
      <trkpt lat="48.07117" lon="6.99994">
        <ele>1050.34</ele>
        <time>2017-09-23T13:26:07Z</time>
      </trkpt>
      <trkpt lat="48.07101" lon="6.99968">
        <ele>1050.41</ele>
        <time>2017-09-23T13:26:12Z</time>
      </trkpt>
      <trkpt lat="48.07098" lon="6.99963">
        <ele>1050.66</ele>
        <time>2017-09-23T13:26:13Z</time>
      </trkpt>
      <trkpt lat="48.07095" lon="6.99958">
        <ele>1051.03</ele>
        <time>2017-09-23T13:26:14Z</time>
      </trkpt>
      <trkpt lat="48.07071" lon="6.9992">
        <ele>1051.43</ele>
        <time>2017-09-23T13:26:21Z</time>
      </trkpt>
      <trkpt lat="48.07067" lon="6.99915">
        <ele>1051.72</ele>
        <time>2017-09-23T13:26:22Z</time>
      </trkpt>
      <trkpt lat="48.07063" lon="6.9991">
        <ele>1051.84</ele>
        <time>2017-09-23T13:26:23Z</time>
      </trkpt>
      <trkpt lat="48.07051" lon="6.99895">
        <ele>1052.12</ele>
        <time>2017-09-23T13:26:26Z</time>
      </trkpt>
      <trkpt lat="48.07035" lon="6.99875">
        <ele>1052.22</ele>
        <time>2017-09-23T13:26:30Z</time>
      </trkpt>
      <trkpt lat="48.07031" lon="6.99869">
        <ele>1052.39</ele>
        <time>2017-09-23T13:26:31Z</time>
      </trkpt>
      <trkpt lat="48.07001" lon="6.99829">
        <ele>1053.18</ele>
        <time>2017-09-23T13:26:39Z</time>
      </trkpt>
      <trkpt lat="48.06997" lon="6.99824">
        <ele>1052.56</ele>
        <time>2017-09-23T13:26:40Z</time>
      </trkpt>
      <trkpt lat="48.06973" lon="6.99801">
        <ele>1054.2</ele>
        <time>2017-09-23T13:26:46Z</time>
      </trkpt>
      <trkpt lat="48.06969" lon="6.99798">
        <ele>1054.03</ele>
        <time>2017-09-23T13:26:47Z</time>
      </trkpt>
      <trkpt lat="48.0696" lon="6.99793">
        <ele>1054.54</ele>
        <time>2017-09-23T13:26:49Z</time>
      </trkpt>
      <trkpt lat="48.06907" lon="6.99768">
        <ele>1055.45</ele>
        <time>2017-09-23T13:27:02Z</time>
      </trkpt>
      <trkpt lat="48.0686" lon="6.99752">
        <ele>1056.9</ele>
        <time>2017-09-23T13:27:13Z</time>
      </trkpt>
      <trkpt lat="48.06817" lon="6.99745">
        <ele>1057.1</ele>
        <time>2017-09-23T13:27:22Z</time>
      </trkpt>
      <trkpt lat="48.06804" lon="6.99737">
        <ele>1058.03</ele>
        <time>2017-09-23T13:27:25Z</time>
      </trkpt>
      <trkpt lat="48.068" lon="6.99733">
        <ele>1057.63</ele>
        <time>2017-09-23T13:27:26Z</time>
      </trkpt>
      <trkpt lat="48.06796" lon="6.9973">
        <ele>1057.68</ele>
        <time>2017-09-23T13:27:27Z</time>
      </trkpt>
      <trkpt lat="48.06792" lon="6.99727">
        <ele>1058.07</ele>
        <time>2017-09-23T13:27:28Z</time>
      </trkpt>
      <trkpt lat="48.06788" lon="6.99723">
        <ele>1058.19</ele>
        <time>2017-09-23T13:27:29Z</time>
      </trkpt>
      <trkpt lat="48.06773" lon="6.99708">
        <ele>1058.75</ele>
        <time>2017-09-23T13:27:33Z</time>
      </trkpt>
      <trkpt lat="48.06769" lon="6.99705">
        <ele>1058.48</ele>
        <time>2017-09-23T13:27:34Z</time>
      </trkpt>
      <trkpt lat="48.06765" lon="6.99702">
        <ele>1059</ele>
        <time>2017-09-23T13:27:35Z</time>
      </trkpt>
      <trkpt lat="48.0674" lon="6.99688">
        <ele>1059.39</ele>
        <time>2017-09-23T13:27:41Z</time>
      </trkpt>
      <trkpt lat="48.06707" lon="6.99664">
        <ele>1060.15</ele>
        <time>2017-09-23T13:27:50Z</time>
      </trkpt>
      <trkpt lat="48.06703" lon="6.9966">
        <ele>1060.77</ele>
        <time>2017-09-23T13:27:51Z</time>
      </trkpt>
      <trkpt lat="48.06696" lon="6.99649">
        <ele>1061.21</ele>
        <time>2017-09-23T13:27:53Z</time>
      </trkpt>
      <trkpt lat="48.06681" lon="6.9963">
        <ele>1061.68</ele>
        <time>2017-09-23T13:27:57Z</time>
      </trkpt>
      <trkpt lat="48.06678" lon="6.99624">
        <ele>1061.51</ele>
        <time>2017-09-23T13:27:58Z</time>
      </trkpt>
      <trkpt lat="48.06649" lon="6.99589">
        <ele>1061.7</ele>
        <time>2017-09-23T13:28:07Z</time>
      </trkpt>
      <trkpt lat="48.06637" lon="6.99579">
        <ele>1061.54</ele>
        <time>2017-09-23T13:28:10Z</time>
      </trkpt>
      <trkpt lat="48.06633" lon="6.99576">
        <ele>1061.29</ele>
        <time>2017-09-23T13:28:11Z</time>
      </trkpt>
      <trkpt lat="48.06623" lon="6.99569">
        <ele>1061.39</ele>
        <time>2017-09-23T13:28:13Z</time>
      </trkpt>
      <trkpt lat="48.06618" lon="6.99564">
        <ele>1061.23</ele>
        <time>2017-09-23T13:28:14Z</time>
      </trkpt>
      <trkpt lat="48.06613" lon="6.99557">
        <ele>1061.96</ele>
        <time>2017-09-23T13:28:15Z</time>
      </trkpt>
      <trkpt lat="48.06605" lon="6.99545">
        <ele>1061.59</ele>
        <time>2017-09-23T13:28:17Z</time>
      </trkpt>
      <trkpt lat="48.06601" lon="6.9954">
        <ele>1061.59</ele>
        <time>2017-09-23T13:28:18Z</time>
      </trkpt>
      <trkpt lat="48.06558" lon="6.99493">
        <ele>1061.87</ele>
        <time>2017-09-23T13:28:28Z</time>
      </trkpt>
      <trkpt lat="48.06511" lon="6.9946">
        <ele>1062.13</ele>
        <time>2017-09-23T13:28:38Z</time>
      </trkpt>
      <trkpt lat="48.06506" lon="6.99459">
        <ele>1062.81</ele>
        <time>2017-09-23T13:28:39Z</time>
      </trkpt>
      <trkpt lat="48.06503" lon="6.9946">
        <ele>1063.09</ele>
        <time>2017-09-23T13:28:40Z</time>
      </trkpt>
      <trkpt lat="48.06499" lon="6.99461">
        <ele>1063.09</ele>
        <time>2017-09-23T13:28:41Z</time>
      </trkpt>
      <trkpt lat="48.06497" lon="6.99462">
        <ele>1062.55</ele>
        <time>2017-09-23T13:28:42Z</time>
      </trkpt>
      <trkpt lat="48.06497" lon="6.99463">
        <ele>1062.95</ele>
        <time>2017-09-23T13:28:52Z</time>
      </trkpt>
      <trkpt lat="48.06498" lon="6.99463">
        <ele>1062.73</ele>
        <time>2017-09-23T13:29:28Z</time>
      </trkpt>
      <trkpt lat="48.06501" lon="6.99462">
        <ele>1063.18</ele>
        <time>2017-09-23T13:30:00Z</time>
      </trkpt>
      <trkpt lat="48.06503" lon="6.99461">
        <ele>1063.56</ele>
        <time>2017-09-23T13:30:34Z</time>
      </trkpt>
      <trkpt lat="48.06504" lon="6.99458">
        <ele>1063.59</ele>
        <time>2017-09-23T13:31:13Z</time>
      </trkpt>
      <trkpt lat="48.06502" lon="6.99461">
        <ele>1063.71</ele>
        <time>2017-09-23T13:31:33Z</time>
      </trkpt>
      <trkpt lat="48.06502" lon="6.99463">
        <ele>1064.08</ele>
        <time>2017-09-23T13:31:34Z</time>
      </trkpt>
      <trkpt lat="48.06501" lon="6.99466">
        <ele>1064.56</ele>
        <time>2017-09-23T13:31:35Z</time>
      </trkpt>
      <trkpt lat="48.06501" lon="6.9947">
        <ele>1064.54</ele>
        <time>2017-09-23T13:31:36Z</time>
      </trkpt>
      <trkpt lat="48.06502" lon="6.99474">
        <ele>1064.91</ele>
        <time>2017-09-23T13:31:37Z</time>
      </trkpt>
      <trkpt lat="48.06505" lon="6.99486">
        <ele>1065.69</ele>
        <time>2017-09-23T13:31:40Z</time>
      </trkpt>
      <trkpt lat="48.06508" lon="6.99488">
        <ele>1065.48</ele>
        <time>2017-09-23T13:31:41Z</time>
      </trkpt>
      <trkpt lat="48.06538" lon="6.99509">
        <ele>1069.02</ele>
        <time>2017-09-23T13:31:53Z</time>
      </trkpt>
      <trkpt lat="48.06564" lon="6.9954">
        <ele>1072.44</ele>
        <time>2017-09-23T13:32:06Z</time>
      </trkpt>
      <trkpt lat="48.06576" lon="6.99568">
        <ele>1073.69</ele>
        <time>2017-09-23T13:32:15Z</time>
      </trkpt>
      <trkpt lat="48.06575" lon="6.99572">
        <ele>1073.38</ele>
        <time>2017-09-23T13:32:16Z</time>
      </trkpt>
      <trkpt lat="48.06573" lon="6.99575">
        <ele>1074.24</ele>
        <time>2017-09-23T13:32:17Z</time>
      </trkpt>
      <trkpt lat="48.06571" lon="6.99577">
        <ele>1074.36</ele>
        <time>2017-09-23T13:32:18Z</time>
      </trkpt>
      <trkpt lat="48.06569" lon="6.99577">
        <ele>1074.5</ele>
        <time>2017-09-23T13:32:19Z</time>
      </trkpt>
      <trkpt lat="48.06567" lon="6.99577">
        <ele>1074.64</ele>
        <time>2017-09-23T13:32:20Z</time>
      </trkpt>
      <trkpt lat="48.06565" lon="6.99577">
        <ele>1075.15</ele>
        <time>2017-09-23T13:32:21Z</time>
      </trkpt>
      <trkpt lat="48.06562" lon="6.99578">
        <ele>1075.86</ele>
        <time>2017-09-23T13:32:22Z</time>
      </trkpt>
      <trkpt lat="48.0656" lon="6.99579">
        <ele>1075.61</ele>
        <time>2017-09-23T13:32:23Z</time>
      </trkpt>
      <trkpt lat="48.06558" lon="6.99581">
        <ele>1076.66</ele>
        <time>2017-09-23T13:32:24Z</time>
      </trkpt>
      <trkpt lat="48.06556" lon="6.99583">
        <ele>1076.9</ele>
        <time>2017-09-23T13:32:25Z</time>
      </trkpt>
      <trkpt lat="48.06554" lon="6.99585">
        <ele>1077.49</ele>
        <time>2017-09-23T13:32:26Z</time>
      </trkpt>
      <trkpt lat="48.06552" lon="6.99587">
        <ele>1077.78</ele>
        <time>2017-09-23T13:32:27Z</time>
      </trkpt>
      <trkpt lat="48.0655" lon="6.99589">
        <ele>1078.28</ele>
        <time>2017-09-23T13:32:28Z</time>
      </trkpt>
      <trkpt lat="48.06548" lon="6.99591">
        <ele>1078.84</ele>
        <time>2017-09-23T13:32:29Z</time>
      </trkpt>
      <trkpt lat="48.06545" lon="6.99592">
        <ele>1079.45</ele>
        <time>2017-09-23T13:32:30Z</time>
      </trkpt>
      <trkpt lat="48.06543" lon="6.99593">
        <ele>1080.05</ele>
        <time>2017-09-23T13:32:31Z</time>
      </trkpt>
      <trkpt lat="48.06529" lon="6.996">
        <ele>1082.53</ele>
        <time>2017-09-23T13:32:37Z</time>
      </trkpt>
      <trkpt lat="48.0649" lon="6.99623">
        <ele>1083.73</ele>
        <time>2017-09-23T13:32:53Z</time>
      </trkpt>
      <trkpt lat="48.06464" lon="6.99648">
        <ele>1085.78</ele>
        <time>2017-09-23T13:33:05Z</time>
      </trkpt>
      <trkpt lat="48.06448" lon="6.9967">
        <ele>1089.29</ele>
        <time>2017-09-23T13:33:15Z</time>
      </trkpt>
      <trkpt lat="48.0644" lon="6.99684">
        <ele>1091.06</ele>
        <time>2017-09-23T13:33:20Z</time>
      </trkpt>
      <trkpt lat="48.06429" lon="6.99707">
        <ele>1094.35</ele>
        <time>2017-09-23T13:33:28Z</time>
      </trkpt>
      <trkpt lat="48.06414" lon="6.99728">
        <ele>1097.37</ele>
        <time>2017-09-23T13:33:38Z</time>
      </trkpt>
      <trkpt lat="48.06401" lon="6.99744">
        <ele>1100.63</ele>
        <time>2017-09-23T13:33:46Z</time>
      </trkpt>
      <trkpt lat="48.06379" lon="6.99766">
        <ele>1103.73</ele>
        <time>2017-09-23T13:33:57Z</time>
      </trkpt>
      <trkpt lat="48.06366" lon="6.99771">
        <ele>1106.82</ele>
        <time>2017-09-23T13:34:04Z</time>
      </trkpt>
      <trkpt lat="48.06357" lon="6.99773">
        <ele>1108.39</ele>
        <time>2017-09-23T13:34:08Z</time>
      </trkpt>
      <trkpt lat="48.06337" lon="6.99782">
        <ele>1112.15</ele>
        <time>2017-09-23T13:34:18Z</time>
      </trkpt>
      <trkpt lat="48.06334" lon="6.99784">
        <ele>1112.85</ele>
        <time>2017-09-23T13:34:20Z</time>
      </trkpt>
      <trkpt lat="48.06324" lon="6.9979">
        <ele>1115.63</ele>
        <time>2017-09-23T13:34:26Z</time>
      </trkpt>
      <trkpt lat="48.06322" lon="6.9979">
        <ele>1115.88</ele>
        <time>2017-09-23T13:34:27Z</time>
      </trkpt>
      <trkpt lat="48.06321" lon="6.99791">
        <ele>1116.22</ele>
        <time>2017-09-23T13:34:28Z</time>
      </trkpt>
      <trkpt lat="48.06308" lon="6.99801">
        <ele>1119.49</ele>
        <time>2017-09-23T13:34:35Z</time>
      </trkpt>
      <trkpt lat="48.06306" lon="6.99802">
        <ele>1119.72</ele>
        <time>2017-09-23T13:34:36Z</time>
      </trkpt>
      <trkpt lat="48.06296" lon="6.9981">
        <ele>1122.25</ele>
        <time>2017-09-23T13:34:41Z</time>
      </trkpt>
      <trkpt lat="48.0628" lon="6.99824">
        <ele>1125.94</ele>
        <time>2017-09-23T13:34:49Z</time>
      </trkpt>
      <trkpt lat="48.06273" lon="6.99833">
        <ele>1127.09</ele>
        <time>2017-09-23T13:34:53Z</time>
      </trkpt>
      <trkpt lat="48.06254" lon="6.99857">
        <ele>1130.36</ele>
        <time>2017-09-23T13:35:04Z</time>
      </trkpt>
      <trkpt lat="48.06234" lon="6.99878">
        <ele>1134.51</ele>
        <time>2017-09-23T13:35:15Z</time>
      </trkpt>
      <trkpt lat="48.06218" lon="6.99892">
        <ele>1137.72</ele>
        <time>2017-09-23T13:35:23Z</time>
      </trkpt>
      <trkpt lat="48.06202" lon="6.99901">
        <ele>1140.72</ele>
        <time>2017-09-23T13:35:30Z</time>
      </trkpt>
      <trkpt lat="48.06175" lon="6.99915">
        <ele>1144.15</ele>
        <time>2017-09-23T13:35:42Z</time>
      </trkpt>
      <trkpt lat="48.06155" lon="6.99923">
        <ele>1147.46</ele>
        <time>2017-09-23T13:35:51Z</time>
      </trkpt>
      <trkpt lat="48.06134" lon="6.99933">
        <ele>1150.02</ele>
        <time>2017-09-23T13:36:02Z</time>
      </trkpt>
      <trkpt lat="48.06132" lon="6.99933">
        <ele>1150.19</ele>
        <time>2017-09-23T13:36:03Z</time>
      </trkpt>
      <trkpt lat="48.06131" lon="6.99933">
        <ele>1150.15</ele>
        <time>2017-09-23T13:36:04Z</time>
      </trkpt>
      <trkpt lat="48.06126" lon="6.99933">
        <ele>1149.99</ele>
        <time>2017-09-23T13:36:19Z</time>
      </trkpt>
      <trkpt lat="48.0612" lon="6.99933">
        <ele>1150.67</ele>
        <time>2017-09-23T13:36:29Z</time>
      </trkpt>
      <trkpt lat="48.06118" lon="6.99933">
        <ele>1150.9</ele>
        <time>2017-09-23T13:36:30Z</time>
      </trkpt>
      <trkpt lat="48.06116" lon="6.99932">
        <ele>1151.26</ele>
        <time>2017-09-23T13:36:31Z</time>
      </trkpt>
      <trkpt lat="48.06099" lon="6.99929">
        <ele>1154.13</ele>
        <time>2017-09-23T13:36:40Z</time>
      </trkpt>
      <trkpt lat="48.06083" lon="6.99928">
        <ele>1156.51</ele>
        <time>2017-09-23T13:36:48Z</time>
      </trkpt>
      <trkpt lat="48.06075" lon="6.99927">
        <ele>1157.93</ele>
        <time>2017-09-23T13:36:52Z</time>
      </trkpt>
      <trkpt lat="48.06056" lon="6.99926">
        <ele>1161.11</ele>
        <time>2017-09-23T13:37:02Z</time>
      </trkpt>
      <trkpt lat="48.06043" lon="6.99926">
        <ele>1163.09</ele>
        <time>2017-09-23T13:37:09Z</time>
      </trkpt>
      <trkpt lat="48.06035" lon="6.99926">
        <ele>1164.28</ele>
        <time>2017-09-23T13:37:14Z</time>
      </trkpt>
      <trkpt lat="48.06022" lon="6.9993">
        <ele>1167.35</ele>
        <time>2017-09-23T13:37:22Z</time>
      </trkpt>
      <trkpt lat="48.06009" lon="6.99934">
        <ele>1170.62</ele>
        <time>2017-09-23T13:37:29Z</time>
      </trkpt>
      <trkpt lat="48.0599" lon="6.99936">
        <ele>1173.73</ele>
        <time>2017-09-23T13:37:39Z</time>
      </trkpt>
      <trkpt lat="48.05976" lon="6.99933">
        <ele>1176.96</ele>
        <time>2017-09-23T13:37:46Z</time>
      </trkpt>
      <trkpt lat="48.05959" lon="6.99929">
        <ele>1180.28</ele>
        <time>2017-09-23T13:37:54Z</time>
      </trkpt>
      <trkpt lat="48.05935" lon="6.99925">
        <ele>1183.41</ele>
        <time>2017-09-23T13:38:05Z</time>
      </trkpt>
      <trkpt lat="48.059" lon="6.99917">
        <ele>1186.6</ele>
        <time>2017-09-23T13:38:20Z</time>
      </trkpt>
      <trkpt lat="48.05864" lon="6.99909">
        <ele>1189.15</ele>
        <time>2017-09-23T13:38:37Z</time>
      </trkpt>
      <trkpt lat="48.05823" lon="6.99923">
        <ele>1189.03</ele>
        <time>2017-09-23T13:38:54Z</time>
      </trkpt>
      <trkpt lat="48.05804" lon="6.99928">
        <ele>1188.04</ele>
        <time>2017-09-23T13:38:59Z</time>
      </trkpt>
      <trkpt lat="48.05799" lon="6.99929">
        <ele>1187.76</ele>
        <time>2017-09-23T13:39:00Z</time>
      </trkpt>
      <trkpt lat="48.05785" lon="6.9993">
        <ele>1186.96</ele>
        <time>2017-09-23T13:39:03Z</time>
      </trkpt>
      <trkpt lat="48.05775" lon="6.99932">
        <ele>1186.12</ele>
        <time>2017-09-23T13:39:05Z</time>
      </trkpt>
      <trkpt lat="48.05759" lon="6.99938">
        <ele>1184.66</ele>
        <time>2017-09-23T13:39:08Z</time>
      </trkpt>
      <trkpt lat="48.05715" lon="6.99953">
        <ele>1186.96</ele>
        <time>2017-09-23T13:39:21Z</time>
      </trkpt>
      <trkpt lat="48.05693" lon="6.9996">
        <ele>1190.44</ele>
        <time>2017-09-23T13:39:29Z</time>
      </trkpt>
      <trkpt lat="48.05666" lon="6.99969">
        <ele>1192.37</ele>
        <time>2017-09-23T13:39:46Z</time>
      </trkpt>
      <trkpt lat="48.05665" lon="6.9997">
        <ele>1192.51</ele>
        <time>2017-09-23T13:40:26Z</time>
      </trkpt>
      <trkpt lat="48.05664" lon="6.99971">
        <ele>1192.08</ele>
        <time>2017-09-23T13:41:01Z</time>
      </trkpt>
      <trkpt lat="48.05667" lon="6.99968">
        <ele>1192.19</ele>
        <time>2017-09-23T13:41:55Z</time>
      </trkpt>
      <trkpt lat="48.05665" lon="6.99968">
        <ele>1193.01</ele>
        <time>2017-09-23T13:42:40Z</time>
      </trkpt>
      <trkpt lat="48.05662" lon="6.99971">
        <ele>1193.17</ele>
        <time>2017-09-23T13:43:10Z</time>
      </trkpt>
      <trkpt lat="48.0566" lon="6.99972">
        <ele>1193.32</ele>
        <time>2017-09-23T13:43:11Z</time>
      </trkpt>
      <trkpt lat="48.05658" lon="6.99973">
        <ele>1194.32</ele>
        <time>2017-09-23T13:43:12Z</time>
      </trkpt>
      <trkpt lat="48.05627" lon="6.99982">
        <ele>1192.62</ele>
        <time>2017-09-23T13:43:22Z</time>
      </trkpt>
      <trkpt lat="48.05594" lon="6.99991">
        <ele>1193.4</ele>
        <time>2017-09-23T13:43:36Z</time>
      </trkpt>
      <trkpt lat="48.05563" lon="6.99993">
        <ele>1191.87</ele>
        <time>2017-09-23T13:43:44Z</time>
      </trkpt>
      <trkpt lat="48.05529" lon="7.00024">
        <ele>1189.39</ele>
        <time>2017-09-23T13:43:54Z</time>
      </trkpt>
      <trkpt lat="48.05503" lon="7.00053">
        <ele>1184.79</ele>
        <time>2017-09-23T13:43:59Z</time>
      </trkpt>
      <trkpt lat="48.05499" lon="7.00059">
        <ele>1183.89</ele>
        <time>2017-09-23T13:44:00Z</time>
      </trkpt>
      <trkpt lat="48.05496" lon="7.00065">
        <ele>1183.11</ele>
        <time>2017-09-23T13:44:01Z</time>
      </trkpt>
      <trkpt lat="48.05487" lon="7.00086">
        <ele>1179.72</ele>
        <time>2017-09-23T13:44:05Z</time>
      </trkpt>
      <trkpt lat="48.05485" lon="7.00091">
        <ele>1179.53</ele>
        <time>2017-09-23T13:44:06Z</time>
      </trkpt>
      <trkpt lat="48.05475" lon="7.00115">
        <ele>1175.52</ele>
        <time>2017-09-23T13:44:11Z</time>
      </trkpt>
      <trkpt lat="48.05469" lon="7.0013">
        <ele>1172.3</ele>
        <time>2017-09-23T13:44:14Z</time>
      </trkpt>
      <trkpt lat="48.05461" lon="7.00147">
        <ele>1168.78</ele>
        <time>2017-09-23T13:44:18Z</time>
      </trkpt>
      <trkpt lat="48.05457" lon="7.00165">
        <ele>1165.43</ele>
        <time>2017-09-23T13:44:22Z</time>
      </trkpt>
      <trkpt lat="48.05457" lon="7.00179">
        <ele>1162.06</ele>
        <time>2017-09-23T13:44:26Z</time>
      </trkpt>
      <trkpt lat="48.05456" lon="7.00183">
        <ele>1161.98</ele>
        <time>2017-09-23T13:44:27Z</time>
      </trkpt>
      <trkpt lat="48.05454" lon="7.00196">
        <ele>1158.88</ele>
        <time>2017-09-23T13:44:30Z</time>
      </trkpt>
      <trkpt lat="48.05451" lon="7.00208">
        <ele>1151.49</ele>
        <time>2017-09-23T13:44:33Z</time>
      </trkpt>
      <trkpt lat="48.05451" lon="7.0021">
        <ele>1156.81</ele>
        <time>2017-09-23T13:44:34Z</time>
      </trkpt>
      <trkpt lat="48.05451" lon="7.00212">
        <ele>1153.25</ele>
        <time>2017-09-23T13:44:38Z</time>
      </trkpt>
      <trkpt lat="48.05452" lon="7.00222">
        <ele>1151.8</ele>
        <time>2017-09-23T13:44:55Z</time>
      </trkpt>
      <trkpt lat="48.05453" lon="7.00226">
        <ele>1150.21</ele>
        <time>2017-09-23T13:45:03Z</time>
      </trkpt>
      <trkpt lat="48.05453" lon="7.00231">
        <ele>1148.45</ele>
        <time>2017-09-23T13:45:08Z</time>
      </trkpt>
      <trkpt lat="48.05452" lon="7.00237">
        <ele>1146.4</ele>
        <time>2017-09-23T13:45:14Z</time>
      </trkpt>
      <trkpt lat="48.05451" lon="7.00246">
        <ele>1143.37</ele>
        <time>2017-09-23T13:45:23Z</time>
      </trkpt>
      <trkpt lat="48.05448" lon="7.00255">
        <ele>1140.15</ele>
        <time>2017-09-23T13:45:31Z</time>
      </trkpt>
      <trkpt lat="48.05445" lon="7.00262">
        <ele>1137.61</ele>
        <time>2017-09-23T13:45:41Z</time>
      </trkpt>
      <trkpt lat="48.05446" lon="7.00273">
        <ele>1134.58</ele>
        <time>2017-09-23T13:45:50Z</time>
      </trkpt>
      <trkpt lat="48.05445" lon="7.00283">
        <ele>1131.51</ele>
        <time>2017-09-23T13:45:58Z</time>
      </trkpt>
      <trkpt lat="48.05446" lon="7.00285">
        <ele>1130.86</ele>
        <time>2017-09-23T13:45:59Z</time>
      </trkpt>
      <trkpt lat="48.05446" lon="7.00287">
        <ele>1130.73</ele>
        <time>2017-09-23T13:46:00Z</time>
      </trkpt>
      <trkpt lat="48.05446" lon="7.00296">
        <ele>1128.12</ele>
        <time>2017-09-23T13:46:06Z</time>
      </trkpt>
      <trkpt lat="48.05444" lon="7.00309">
        <ele>1124.98</ele>
        <time>2017-09-23T13:46:16Z</time>
      </trkpt>
      <trkpt lat="48.05445" lon="7.00313">
        <ele>1124.79</ele>
        <time>2017-09-23T13:46:25Z</time>
      </trkpt>
      <trkpt lat="48.05445" lon="7.00316">
        <ele>1124.58</ele>
        <time>2017-09-23T13:46:26Z</time>
      </trkpt>
      <trkpt lat="48.05445" lon="7.00319">
        <ele>1123.7</ele>
        <time>2017-09-23T13:46:27Z</time>
      </trkpt>
      <trkpt lat="48.05444" lon="7.00324">
        <ele>1122.91</ele>
        <time>2017-09-23T13:46:28Z</time>
      </trkpt>
      <trkpt lat="48.05444" lon="7.00328">
        <ele>1122.54</ele>
        <time>2017-09-23T13:46:29Z</time>
      </trkpt>
      <trkpt lat="48.05442" lon="7.00339">
        <ele>1120.69</ele>
        <time>2017-09-23T13:46:31Z</time>
      </trkpt>
      <trkpt lat="48.05441" lon="7.00355">
        <ele>1117.24</ele>
        <time>2017-09-23T13:46:34Z</time>
      </trkpt>
      <trkpt lat="48.0544" lon="7.00376">
        <ele>1113.63</ele>
        <time>2017-09-23T13:46:38Z</time>
      </trkpt>
      <trkpt lat="48.0544" lon="7.00394">
        <ele>1110.17</ele>
        <time>2017-09-23T13:46:42Z</time>
      </trkpt>
      <trkpt lat="48.0544" lon="7.00398">
        <ele>1110.07</ele>
        <time>2017-09-23T13:46:43Z</time>
      </trkpt>
      <trkpt lat="48.0544" lon="7.0041">
        <ele>1108.4</ele>
        <time>2017-09-23T13:46:46Z</time>
      </trkpt>
      <trkpt lat="48.05453" lon="7.00433">
        <ele>1106.36</ele>
        <time>2017-09-23T13:46:58Z</time>
      </trkpt>
      <trkpt lat="48.05459" lon="7.00432">
        <ele>1105.73</ele>
        <time>2017-09-23T13:47:13Z</time>
      </trkpt>
      <trkpt lat="48.05457" lon="7.00429">
        <ele>1105.5</ele>
        <time>2017-09-23T13:47:47Z</time>
      </trkpt>
      <trkpt lat="48.05458" lon="7.00424">
        <ele>1106.48</ele>
        <time>2017-09-23T13:48:23Z</time>
      </trkpt>
      <trkpt lat="48.05459" lon="7.00423">
        <ele>1105.85</ele>
        <time>2017-09-23T13:48:34Z</time>
      </trkpt>
      <trkpt lat="48.05461" lon="7.00422">
        <ele>1106.28</ele>
        <time>2017-09-23T13:48:35Z</time>
      </trkpt>
      <trkpt lat="48.05462" lon="7.00421">
        <ele>1106.21</ele>
        <time>2017-09-23T13:48:36Z</time>
      </trkpt>
      <trkpt lat="48.05464" lon="7.0042">
        <ele>1105.99</ele>
        <time>2017-09-23T13:48:37Z</time>
      </trkpt>
      <trkpt lat="48.05465" lon="7.00418">
        <ele>1105.64</ele>
        <time>2017-09-23T13:48:38Z</time>
      </trkpt>
      <trkpt lat="48.05467" lon="7.00416">
        <ele>1105.65</ele>
        <time>2017-09-23T13:48:39Z</time>
      </trkpt>
      <trkpt lat="48.05468" lon="7.00414">
        <ele>1105.76</ele>
        <time>2017-09-23T13:48:40Z</time>
      </trkpt>
      <trkpt lat="48.05469" lon="7.00411">
        <ele>1105.02</ele>
        <time>2017-09-23T13:48:41Z</time>
      </trkpt>
      <trkpt lat="48.05475" lon="7.00404">
        <ele>1105.3</ele>
        <time>2017-09-23T13:48:52Z</time>
      </trkpt>
      <trkpt lat="48.05475" lon="7.00404">
        <ele>1105.85</ele>
        <time>2017-09-23T13:49:22Z</time>
      </trkpt>
      <trkpt lat="48.05474" lon="7.00403">
        <ele>1105.71</ele>
        <time>2017-09-23T13:49:56Z</time>
      </trkpt>
      <trkpt lat="48.05475" lon="7.00403">
        <ele>1105.46</ele>
        <time>2017-09-23T13:50:14Z</time>
      </trkpt>
      <trkpt lat="48.05478" lon="7.00404">
        <ele>1105.83</ele>
        <time>2017-09-23T13:50:37Z</time>
      </trkpt>
      <trkpt lat="48.05479" lon="7.00409">
        <ele>1106.02</ele>
        <time>2017-09-23T13:51:05Z</time>
      </trkpt>
      <trkpt lat="48.0548" lon="7.00407">
        <ele>1106.18</ele>
        <time>2017-09-23T13:51:22Z</time>
      </trkpt>
      <trkpt lat="48.0548" lon="7.00405">
        <ele>1106.22</ele>
        <time>2017-09-23T13:51:23Z</time>
      </trkpt>
      <trkpt lat="48.0548" lon="7.00408">
        <ele>1106.31</ele>
        <time>2017-09-23T13:51:49Z</time>
      </trkpt>
      <trkpt lat="48.0548" lon="7.0041">
        <ele>1106.13</ele>
        <time>2017-09-23T13:52:05Z</time>
      </trkpt>
      <trkpt lat="48.05479" lon="7.00408">
        <ele>1106.39</ele>
        <time>2017-09-23T13:52:07Z</time>
      </trkpt>
      <trkpt lat="48.05478" lon="7.00407">
        <ele>1106.25</ele>
        <time>2017-09-23T13:52:08Z</time>
      </trkpt>
      <trkpt lat="48.05472" lon="7.00417">
        <ele>1102.82</ele>
        <time>2017-09-23T13:52:16Z</time>
      </trkpt>
      <trkpt lat="48.05472" lon="7.00418">
        <ele>1107.51</ele>
        <time>2017-09-23T13:52:17Z</time>
      </trkpt>
      <trkpt lat="48.0547" lon="7.00422">
        <ele>1106.79</ele>
        <time>2017-09-23T13:52:25Z</time>
      </trkpt>
      <trkpt lat="48.05471" lon="7.00426">
        <ele>1107.06</ele>
        <time>2017-09-23T13:52:52Z</time>
      </trkpt>
      <trkpt lat="48.05467" lon="7.00422">
        <ele>1106.85</ele>
        <time>2017-09-23T13:53:21Z</time>
      </trkpt>
      <trkpt lat="48.05468" lon="7.00428">
        <ele>1108.08</ele>
        <time>2017-09-23T13:53:48Z</time>
      </trkpt>
      <trkpt lat="48.05468" lon="7.00429">
        <ele>1107.79</ele>
        <time>2017-09-23T13:54:00Z</time>
      </trkpt>
      <trkpt lat="48.05469" lon="7.00426">
        <ele>1107.6</ele>
        <time>2017-09-23T13:54:02Z</time>
      </trkpt>
      <trkpt lat="48.05473" lon="7.00408">
        <ele>1107.91</ele>
        <time>2017-09-23T13:54:32Z</time>
      </trkpt>
      <trkpt lat="48.05472" lon="7.00401">
        <ele>1107.95</ele>
        <time>2017-09-23T13:54:58Z</time>
      </trkpt>
      <trkpt lat="48.0547" lon="7.00397">
        <ele>1108.43</ele>
        <time>2017-09-23T13:55:30Z</time>
      </trkpt>
      <trkpt lat="48.05471" lon="7.00399">
        <ele>1108.25</ele>
        <time>2017-09-23T13:56:01Z</time>
      </trkpt>
      <trkpt lat="48.05471" lon="7.00402">
        <ele>1108.31</ele>
        <time>2017-09-23T13:56:24Z</time>
      </trkpt>
      <trkpt lat="48.05473" lon="7.00406">
        <ele>1109.09</ele>
        <time>2017-09-23T13:56:59Z</time>
      </trkpt>
      <trkpt lat="48.05472" lon="7.0041">
        <ele>1108.93</ele>
        <time>2017-09-23T13:57:38Z</time>
      </trkpt>
      <trkpt lat="48.05477" lon="7.00411">
        <ele>1109.5</ele>
        <time>2017-09-23T13:58:14Z</time>
      </trkpt>
      <trkpt lat="48.05482" lon="7.00411">
        <ele>1109.04</ele>
        <time>2017-09-23T13:58:36Z</time>
      </trkpt>
      <trkpt lat="48.05481" lon="7.00411">
        <ele>1109.58</ele>
        <time>2017-09-23T13:58:59Z</time>
      </trkpt>
      <trkpt lat="48.05479" lon="7.00414">
        <ele>1109.45</ele>
        <time>2017-09-23T13:59:20Z</time>
      </trkpt>
      <trkpt lat="48.0548" lon="7.00414">
        <ele>1109.14</ele>
        <time>2017-09-23T13:59:42Z</time>
      </trkpt>
      <trkpt lat="48.05476" lon="7.00415">
        <ele>1109.6</ele>
        <time>2017-09-23T14:00:03Z</time>
      </trkpt>
      <trkpt lat="48.05477" lon="7.0041">
        <ele>1109.21</ele>
        <time>2017-09-23T14:00:26Z</time>
      </trkpt>
      <trkpt lat="48.05474" lon="7.00416">
        <ele>1109.42</ele>
        <time>2017-09-23T14:00:52Z</time>
      </trkpt>
      <trkpt lat="48.05477" lon="7.00411">
        <ele>1109.23</ele>
        <time>2017-09-23T14:01:17Z</time>
      </trkpt>
      <trkpt lat="48.05476" lon="7.00406">
        <ele>1109.34</ele>
        <time>2017-09-23T14:01:32Z</time>
      </trkpt>
      <trkpt lat="48.05477" lon="7.00407">
        <ele>1109.28</ele>
        <time>2017-09-23T14:02:21Z</time>
      </trkpt>
      <trkpt lat="48.05478" lon="7.00407">
        <ele>1108.98</ele>
        <time>2017-09-23T14:02:59Z</time>
      </trkpt>
      <trkpt lat="48.05477" lon="7.00404">
        <ele>1108.93</ele>
        <time>2017-09-23T14:03:39Z</time>
      </trkpt>
      <trkpt lat="48.05477" lon="7.00404">
        <ele>1108.91</ele>
        <time>2017-09-23T14:04:18Z</time>
      </trkpt>
      <trkpt lat="48.05477" lon="7.00389">
        <ele>1109.46</ele>
        <time>2017-09-23T14:04:34Z</time>
      </trkpt>
      <trkpt lat="48.05477" lon="7.00387">
        <ele>1109.49</ele>
        <time>2017-09-23T14:04:50Z</time>
      </trkpt>
      <trkpt lat="48.05485" lon="7.00389">
        <ele>1109.04</ele>
        <time>2017-09-23T14:05:33Z</time>
      </trkpt>
      <trkpt lat="48.05483" lon="7.00392">
        <ele>1108.52</ele>
        <time>2017-09-23T14:05:44Z</time>
      </trkpt>
      <trkpt lat="48.05471" lon="7.0042">
        <ele>1109.45</ele>
        <time>2017-09-23T14:06:42Z</time>
      </trkpt>
      <trkpt lat="48.05475" lon="7.00413">
        <ele>1109.42</ele>
        <time>2017-09-23T14:06:47Z</time>
      </trkpt>
      <trkpt lat="48.05478" lon="7.0041">
        <ele>1109.5</ele>
        <time>2017-09-23T14:07:10Z</time>
      </trkpt>
      <trkpt lat="48.05479" lon="7.00415">
        <ele>1109.62</ele>
        <time>2017-09-23T14:07:34Z</time>
      </trkpt>
      <trkpt lat="48.0548" lon="7.00414">
        <ele>1109.02</ele>
        <time>2017-09-23T14:08:08Z</time>
      </trkpt>
      <trkpt lat="48.05478" lon="7.00414">
        <ele>1109.44</ele>
        <time>2017-09-23T14:08:44Z</time>
      </trkpt>
      <trkpt lat="48.05479" lon="7.00413">
        <ele>1105.73</ele>
        <time>2017-09-23T14:08:58Z</time>
      </trkpt>
      <trkpt lat="48.05479" lon="7.00413">
        <ele>1112.52</ele>
        <time>2017-09-23T14:08:59Z</time>
      </trkpt>
      <trkpt lat="48.05478" lon="7.00413">
        <ele>1109.18</ele>
        <time>2017-09-23T14:09:02Z</time>
      </trkpt>
      <trkpt lat="48.05477" lon="7.00415">
        <ele>1109.41</ele>
        <time>2017-09-23T14:09:21Z</time>
      </trkpt>
      <trkpt lat="48.05479" lon="7.00413">
        <ele>1109.47</ele>
        <time>2017-09-23T14:09:56Z</time>
      </trkpt>
      <trkpt lat="48.05481" lon="7.00412">
        <ele>1109.34</ele>
        <time>2017-09-23T14:10:22Z</time>
      </trkpt>
      <trkpt lat="48.05482" lon="7.00413">
        <ele>1109.48</ele>
        <time>2017-09-23T14:10:54Z</time>
      </trkpt>
      <trkpt lat="48.0548" lon="7.00413">
        <ele>1109.6</ele>
        <time>2017-09-23T14:11:15Z</time>
      </trkpt>
      <trkpt lat="48.05479" lon="7.00415">
        <ele>1109.61</ele>
        <time>2017-09-23T14:11:43Z</time>
      </trkpt>
      <trkpt lat="48.05477" lon="7.00417">
        <ele>1109.79</ele>
        <time>2017-09-23T14:12:18Z</time>
      </trkpt>
      <trkpt lat="48.05477" lon="7.00413">
        <ele>1109.99</ele>
        <time>2017-09-23T14:12:42Z</time>
      </trkpt>
      <trkpt lat="48.05476" lon="7.00414">
        <ele>1110.22</ele>
        <time>2017-09-23T14:13:01Z</time>
      </trkpt>
      <trkpt lat="48.05475" lon="7.00415">
        <ele>1109.8</ele>
        <time>2017-09-23T14:13:17Z</time>
      </trkpt>
      <trkpt lat="48.05474" lon="7.00415">
        <ele>1109.46</ele>
        <time>2017-09-23T14:13:41Z</time>
      </trkpt>
      <trkpt lat="48.05473" lon="7.00415">
        <ele>1110.18</ele>
        <time>2017-09-23T14:14:11Z</time>
      </trkpt>
      <trkpt lat="48.05472" lon="7.0041">
        <ele>1109.79</ele>
        <time>2017-09-23T14:14:43Z</time>
      </trkpt>
      <trkpt lat="48.05473" lon="7.00403">
        <ele>1109.91</ele>
        <time>2017-09-23T14:15:05Z</time>
      </trkpt>
      <trkpt lat="48.05467" lon="7.00419">
        <ele>1110.26</ele>
        <time>2017-09-23T14:16:29Z</time>
      </trkpt>
      <trkpt lat="48.05467" lon="7.00406">
        <ele>1109.74</ele>
        <time>2017-09-23T14:16:54Z</time>
      </trkpt>
      <trkpt lat="48.05467" lon="7.00402">
        <ele>1109.59</ele>
        <time>2017-09-23T14:17:26Z</time>
      </trkpt>
      <trkpt lat="48.05466" lon="7.00408">
        <ele>1109.75</ele>
        <time>2017-09-23T14:18:04Z</time>
      </trkpt>
      <trkpt lat="48.05467" lon="7.00415">
        <ele>1110.52</ele>
        <time>2017-09-23T14:18:13Z</time>
      </trkpt>
      <trkpt lat="48.05466" lon="7.00415">
        <ele>1106.21</ele>
        <time>2017-09-23T14:18:18Z</time>
      </trkpt>
      <trkpt lat="48.05467" lon="7.00415">
        <ele>1110</ele>
        <time>2017-09-23T14:18:19Z</time>
      </trkpt>
      <trkpt lat="48.0547" lon="7.00412">
        <ele>1109.78</ele>
        <time>2017-09-23T14:18:49Z</time>
      </trkpt>
      <trkpt lat="48.0547" lon="7.00412">
        <ele>1110</ele>
        <time>2017-09-23T14:19:21Z</time>
      </trkpt>
      <trkpt lat="48.05473" lon="7.00413">
        <ele>1110.09</ele>
        <time>2017-09-23T14:19:47Z</time>
      </trkpt>
      <trkpt lat="48.05473" lon="7.00409">
        <ele>1110.4</ele>
        <time>2017-09-23T14:20:29Z</time>
      </trkpt>
      <trkpt lat="48.05474" lon="7.00405">
        <ele>1109.86</ele>
        <time>2017-09-23T14:20:43Z</time>
      </trkpt>
      <trkpt lat="48.05474" lon="7.00401">
        <ele>1109.49</ele>
        <time>2017-09-23T14:20:56Z</time>
      </trkpt>
      <trkpt lat="48.05472" lon="7.00407">
        <ele>1109.55</ele>
        <time>2017-09-23T14:21:28Z</time>
      </trkpt>
      <trkpt lat="48.05475" lon="7.00406">
        <ele>1109.55</ele>
        <time>2017-09-23T14:22:11Z</time>
      </trkpt>
      <trkpt lat="48.05474" lon="7.00404">
        <ele>1109.34</ele>
        <time>2017-09-23T14:22:35Z</time>
      </trkpt>
      <trkpt lat="48.05473" lon="7.00404">
        <ele>1109.35</ele>
        <time>2017-09-23T14:23:09Z</time>
      </trkpt>
      <trkpt lat="48.05475" lon="7.00402">
        <ele>1108.99</ele>
        <time>2017-09-23T14:23:35Z</time>
      </trkpt>
      <trkpt lat="48.05476" lon="7.00402">
        <ele>1109.43</ele>
        <time>2017-09-23T14:23:56Z</time>
      </trkpt>
      <trkpt lat="48.05476" lon="7.00404">
        <ele>1109.17</ele>
        <time>2017-09-23T14:24:25Z</time>
      </trkpt>
      <trkpt lat="48.05476" lon="7.00406">
        <ele>1109.18</ele>
        <time>2017-09-23T14:24:53Z</time>
      </trkpt>
      <trkpt lat="48.05474" lon="7.00408">
        <ele>1109.43</ele>
        <time>2017-09-23T14:25:00Z</time>
      </trkpt>
      <trkpt lat="48.05473" lon="7.00411">
        <ele>1109.6</ele>
        <time>2017-09-23T14:25:01Z</time>
      </trkpt>
      <trkpt lat="48.05472" lon="7.00413">
        <ele>1109.05</ele>
        <time>2017-09-23T14:25:02Z</time>
      </trkpt>
      <trkpt lat="48.05471" lon="7.00416">
        <ele>1108.91</ele>
        <time>2017-09-23T14:25:03Z</time>
      </trkpt>
      <trkpt lat="48.0547" lon="7.00418">
        <ele>1109.71</ele>
        <time>2017-09-23T14:25:04Z</time>
      </trkpt>
      <trkpt lat="48.05469" lon="7.0042">
        <ele>1110.5</ele>
        <time>2017-09-23T14:25:05Z</time>
      </trkpt>
      <trkpt lat="48.05467" lon="7.00422">
        <ele>1109.19</ele>
        <time>2017-09-23T14:25:06Z</time>
      </trkpt>
      <trkpt lat="48.05466" lon="7.00424">
        <ele>1109.95</ele>
        <time>2017-09-23T14:25:07Z</time>
      </trkpt>
      <trkpt lat="48.05441" lon="7.00448">
        <ele>1111.59</ele>
        <time>2017-09-23T14:25:20Z</time>
      </trkpt>
      <trkpt lat="48.05415" lon="7.00473">
        <ele>1113.21</ele>
        <time>2017-09-23T14:25:31Z</time>
      </trkpt>
      <trkpt lat="48.05394" lon="7.00515">
        <ele>1114.71</ele>
        <time>2017-09-23T14:25:46Z</time>
      </trkpt>
      <trkpt lat="48.05387" lon="7.0055">
        <ele>1118.03</ele>
        <time>2017-09-23T14:25:57Z</time>
      </trkpt>
      <trkpt lat="48.05385" lon="7.00555">
        <ele>1119.25</ele>
        <time>2017-09-23T14:25:59Z</time>
      </trkpt>
      <trkpt lat="48.05375" lon="7.00588">
        <ele>1122.72</ele>
        <time>2017-09-23T14:26:12Z</time>
      </trkpt>
      <trkpt lat="48.05362" lon="7.00626">
        <ele>1126.1</ele>
        <time>2017-09-23T14:26:27Z</time>
      </trkpt>
      <trkpt lat="48.05348" lon="7.00641">
        <ele>1129.15</ele>
        <time>2017-09-23T14:26:37Z</time>
      </trkpt>
      <trkpt lat="48.05343" lon="7.00645">
        <ele>1130.32</ele>
        <time>2017-09-23T14:26:41Z</time>
      </trkpt>
      <trkpt lat="48.0534" lon="7.00645">
        <ele>1130.42</ele>
        <time>2017-09-23T14:26:42Z</time>
      </trkpt>
      <trkpt lat="48.05339" lon="7.00644">
        <ele>1131.01</ele>
        <time>2017-09-23T14:26:43Z</time>
      </trkpt>
      <trkpt lat="48.05337" lon="7.00645">
        <ele>1131.32</ele>
        <time>2017-09-23T14:26:44Z</time>
      </trkpt>
      <trkpt lat="48.05335" lon="7.00645">
        <ele>1130.94</ele>
        <time>2017-09-23T14:26:45Z</time>
      </trkpt>
      <trkpt lat="48.05333" lon="7.00646">
        <ele>1131.49</ele>
        <time>2017-09-23T14:26:46Z</time>
      </trkpt>
      <trkpt lat="48.05309" lon="7.00651">
        <ele>1134.59</ele>
        <time>2017-09-23T14:26:57Z</time>
      </trkpt>
      <trkpt lat="48.05291" lon="7.00652">
        <ele>1136.67</ele>
        <time>2017-09-23T14:27:09Z</time>
      </trkpt>
      <trkpt lat="48.05275" lon="7.00654">
        <ele>1139.45</ele>
        <time>2017-09-23T14:27:20Z</time>
      </trkpt>
      <trkpt lat="48.05249" lon="7.00657">
        <ele>1141.63</ele>
        <time>2017-09-23T14:27:34Z</time>
      </trkpt>
      <trkpt lat="48.05247" lon="7.00658">
        <ele>1142.03</ele>
        <time>2017-09-23T14:27:35Z</time>
      </trkpt>
      <trkpt lat="48.05245" lon="7.00658">
        <ele>1142.19</ele>
        <time>2017-09-23T14:27:36Z</time>
      </trkpt>
      <trkpt lat="48.05243" lon="7.00659">
        <ele>1142.67</ele>
        <time>2017-09-23T14:27:37Z</time>
      </trkpt>
      <trkpt lat="48.05241" lon="7.00659">
        <ele>1142.86</ele>
        <time>2017-09-23T14:27:38Z</time>
      </trkpt>
      <trkpt lat="48.05216" lon="7.00661">
        <ele>1146.07</ele>
        <time>2017-09-23T14:27:51Z</time>
      </trkpt>
      <trkpt lat="48.05194" lon="7.00665">
        <ele>1148.41</ele>
        <time>2017-09-23T14:28:03Z</time>
      </trkpt>
      <trkpt lat="48.05187" lon="7.00674">
        <ele>1150.25</ele>
        <time>2017-09-23T14:28:10Z</time>
      </trkpt>
      <trkpt lat="48.05185" lon="7.00674">
        <ele>1150.34</ele>
        <time>2017-09-23T14:28:11Z</time>
      </trkpt>
      <trkpt lat="48.05179" lon="7.00675">
        <ele>1151.1</ele>
        <time>2017-09-23T14:28:15Z</time>
      </trkpt>
      <trkpt lat="48.05176" lon="7.00675">
        <ele>1151.19</ele>
        <time>2017-09-23T14:28:17Z</time>
      </trkpt>
      <trkpt lat="48.05174" lon="7.00675">
        <ele>1151.25</ele>
        <time>2017-09-23T14:28:18Z</time>
      </trkpt>
      <trkpt lat="48.05172" lon="7.00676">
        <ele>1151.9</ele>
        <time>2017-09-23T14:28:19Z</time>
      </trkpt>
      <trkpt lat="48.0517" lon="7.00677">
        <ele>1151.8</ele>
        <time>2017-09-23T14:28:20Z</time>
      </trkpt>
      <trkpt lat="48.05168" lon="7.0068">
        <ele>1152.2</ele>
        <time>2017-09-23T14:28:21Z</time>
      </trkpt>
      <trkpt lat="48.05166" lon="7.00681">
        <ele>1152.36</ele>
        <time>2017-09-23T14:28:22Z</time>
      </trkpt>
      <trkpt lat="48.05164" lon="7.00682">
        <ele>1152.25</ele>
        <time>2017-09-23T14:28:23Z</time>
      </trkpt>
      <trkpt lat="48.0515" lon="7.00685">
        <ele>1153.38</ele>
        <time>2017-09-23T14:28:29Z</time>
      </trkpt>
      <trkpt lat="48.05148" lon="7.00686">
        <ele>1153.71</ele>
        <time>2017-09-23T14:28:30Z</time>
      </trkpt>
      <trkpt lat="48.05146" lon="7.00687">
        <ele>1153.92</ele>
        <time>2017-09-23T14:28:31Z</time>
      </trkpt>
      <trkpt lat="48.05144" lon="7.00688">
        <ele>1154.19</ele>
        <time>2017-09-23T14:28:32Z</time>
      </trkpt>
      <trkpt lat="48.05142" lon="7.00688">
        <ele>1154.6</ele>
        <time>2017-09-23T14:28:33Z</time>
      </trkpt>
      <trkpt lat="48.0514" lon="7.00689">
        <ele>1154.6</ele>
        <time>2017-09-23T14:28:34Z</time>
      </trkpt>
      <trkpt lat="48.05136" lon="7.0069">
        <ele>1155.32</ele>
        <time>2017-09-23T14:28:36Z</time>
      </trkpt>
      <trkpt lat="48.05127" lon="7.00694">
        <ele>1156.17</ele>
        <time>2017-09-23T14:28:43Z</time>
      </trkpt>
      <trkpt lat="48.05105" lon="7.00701">
        <ele>1159.01</ele>
        <time>2017-09-23T14:28:53Z</time>
      </trkpt>
      <trkpt lat="48.05099" lon="7.00702">
        <ele>1159.64</ele>
        <time>2017-09-23T14:28:57Z</time>
      </trkpt>
      <trkpt lat="48.05097" lon="7.00702">
        <ele>1159.53</ele>
        <time>2017-09-23T14:28:58Z</time>
      </trkpt>
      <trkpt lat="48.0507" lon="7.00708">
        <ele>1161.72</ele>
        <time>2017-09-23T14:29:10Z</time>
      </trkpt>
      <trkpt lat="48.05069" lon="7.00708">
        <ele>1161.97</ele>
        <time>2017-09-23T14:29:11Z</time>
      </trkpt>
      <trkpt lat="48.05054" lon="7.00711">
        <ele>1164.5</ele>
        <time>2017-09-23T14:29:24Z</time>
      </trkpt>
      <trkpt lat="48.05051" lon="7.0071">
        <ele>1164.42</ele>
        <time>2017-09-23T14:29:25Z</time>
      </trkpt>
      <trkpt lat="48.05049" lon="7.00709">
        <ele>1164.8</ele>
        <time>2017-09-23T14:29:26Z</time>
      </trkpt>
      <trkpt lat="48.05046" lon="7.00706">
        <ele>1165.26</ele>
        <time>2017-09-23T14:29:27Z</time>
      </trkpt>
      <trkpt lat="48.05044" lon="7.00707">
        <ele>1165.36</ele>
        <time>2017-09-23T14:29:28Z</time>
      </trkpt>
      <trkpt lat="48.05042" lon="7.00707">
        <ele>1165.29</ele>
        <time>2017-09-23T14:29:29Z</time>
      </trkpt>
      <trkpt lat="48.05039" lon="7.00706">
        <ele>1165.73</ele>
        <time>2017-09-23T14:29:30Z</time>
      </trkpt>
      <trkpt lat="48.05034" lon="7.00706">
        <ele>1166.17</ele>
        <time>2017-09-23T14:29:33Z</time>
      </trkpt>
      <trkpt lat="48.05032" lon="7.00706">
        <ele>1166.38</ele>
        <time>2017-09-23T14:29:34Z</time>
      </trkpt>
      <trkpt lat="48.0503" lon="7.00706">
        <ele>1166.56</ele>
        <time>2017-09-23T14:29:35Z</time>
      </trkpt>
      <trkpt lat="48.05027" lon="7.00706">
        <ele>1166.77</ele>
        <time>2017-09-23T14:29:36Z</time>
      </trkpt>
      <trkpt lat="48.05024" lon="7.00707">
        <ele>1166.28</ele>
        <time>2017-09-23T14:29:37Z</time>
      </trkpt>
      <trkpt lat="48.05022" lon="7.00708">
        <ele>1166.89</ele>
        <time>2017-09-23T14:29:38Z</time>
      </trkpt>
      <trkpt lat="48.05019" lon="7.00708">
        <ele>1167.01</ele>
        <time>2017-09-23T14:29:39Z</time>
      </trkpt>
      <trkpt lat="48.04976" lon="7.00698">
        <ele>1169.61</ele>
        <time>2017-09-23T14:29:53Z</time>
      </trkpt>
      <trkpt lat="48.04943" lon="7.00689">
        <ele>1172.65</ele>
        <time>2017-09-23T14:30:09Z</time>
      </trkpt>
      <trkpt lat="48.04922" lon="7.00689">
        <ele>1175.92</ele>
        <time>2017-09-23T14:30:22Z</time>
      </trkpt>
      <trkpt lat="48.04897" lon="7.00692">
        <ele>1178.47</ele>
        <time>2017-09-23T14:30:34Z</time>
      </trkpt>
      <trkpt lat="48.04876" lon="7.00693">
        <ele>1180.83</ele>
        <time>2017-09-23T14:30:45Z</time>
      </trkpt>
      <trkpt lat="48.04875" lon="7.00692">
        <ele>1181.02</ele>
        <time>2017-09-23T14:30:46Z</time>
      </trkpt>
      <trkpt lat="48.04873" lon="7.00692">
        <ele>1181.37</ele>
        <time>2017-09-23T14:30:47Z</time>
      </trkpt>
      <trkpt lat="48.04859" lon="7.00688">
        <ele>1183.32</ele>
        <time>2017-09-23T14:30:57Z</time>
      </trkpt>
      <trkpt lat="48.04858" lon="7.00689">
        <ele>1183.72</ele>
        <time>2017-09-23T14:30:58Z</time>
      </trkpt>
      <trkpt lat="48.04856" lon="7.0069">
        <ele>1183.31</ele>
        <time>2017-09-23T14:30:59Z</time>
      </trkpt>
      <trkpt lat="48.04854" lon="7.0069">
        <ele>1183.59</ele>
        <time>2017-09-23T14:31:00Z</time>
      </trkpt>
      <trkpt lat="48.04853" lon="7.0069">
        <ele>1184.17</ele>
        <time>2017-09-23T14:31:01Z</time>
      </trkpt>
      <trkpt lat="48.04851" lon="7.0069">
        <ele>1184.14</ele>
        <time>2017-09-23T14:31:02Z</time>
      </trkpt>
      <trkpt lat="48.04849" lon="7.0069">
        <ele>1184.33</ele>
        <time>2017-09-23T14:31:03Z</time>
      </trkpt>
      <trkpt lat="48.04833" lon="7.00691">
        <ele>1186.43</ele>
        <time>2017-09-23T14:31:12Z</time>
      </trkpt>
      <trkpt lat="48.04832" lon="7.00691">
        <ele>1186.65</ele>
        <time>2017-09-23T14:31:13Z</time>
      </trkpt>
      <trkpt lat="48.04822" lon="7.00689">
        <ele>1187.87</ele>
        <time>2017-09-23T14:31:18Z</time>
      </trkpt>
      <trkpt lat="48.0482" lon="7.0069">
        <ele>1188.17</ele>
        <time>2017-09-23T14:31:19Z</time>
      </trkpt>
      <trkpt lat="48.04817" lon="7.00689">
        <ele>1187.95</ele>
        <time>2017-09-23T14:31:21Z</time>
      </trkpt>
      <trkpt lat="48.04815" lon="7.00689">
        <ele>1188.44</ele>
        <time>2017-09-23T14:31:22Z</time>
      </trkpt>
      <trkpt lat="48.04811" lon="7.00689">
        <ele>1189.47</ele>
        <time>2017-09-23T14:31:25Z</time>
      </trkpt>
      <trkpt lat="48.04809" lon="7.00689">
        <ele>1189.16</ele>
        <time>2017-09-23T14:31:26Z</time>
      </trkpt>
      <trkpt lat="48.04808" lon="7.00689">
        <ele>1189.17</ele>
        <time>2017-09-23T14:31:27Z</time>
      </trkpt>
      <trkpt lat="48.04806" lon="7.00689">
        <ele>1189.44</ele>
        <time>2017-09-23T14:31:28Z</time>
      </trkpt>
      <trkpt lat="48.048" lon="7.00692">
        <ele>1190.13</ele>
        <time>2017-09-23T14:31:32Z</time>
      </trkpt>
      <trkpt lat="48.04798" lon="7.00693">
        <ele>1190.19</ele>
        <time>2017-09-23T14:31:33Z</time>
      </trkpt>
      <trkpt lat="48.04796" lon="7.00694">
        <ele>1190.18</ele>
        <time>2017-09-23T14:31:34Z</time>
      </trkpt>
      <trkpt lat="48.04794" lon="7.00695">
        <ele>1191.01</ele>
        <time>2017-09-23T14:31:35Z</time>
      </trkpt>
      <trkpt lat="48.04792" lon="7.00695">
        <ele>1190.92</ele>
        <time>2017-09-23T14:31:36Z</time>
      </trkpt>
      <trkpt lat="48.04784" lon="7.00697">
        <ele>1192.08</ele>
        <time>2017-09-23T14:31:41Z</time>
      </trkpt>
      <trkpt lat="48.04781" lon="7.00698">
        <ele>1192</ele>
        <time>2017-09-23T14:31:43Z</time>
      </trkpt>
      <trkpt lat="48.04777" lon="7.007">
        <ele>1192.87</ele>
        <time>2017-09-23T14:31:45Z</time>
      </trkpt>
      <trkpt lat="48.04776" lon="7.00701">
        <ele>1193.1</ele>
        <time>2017-09-23T14:31:46Z</time>
      </trkpt>
      <trkpt lat="48.04774" lon="7.00702">
        <ele>1193.37</ele>
        <time>2017-09-23T14:31:47Z</time>
      </trkpt>
      <trkpt lat="48.04773" lon="7.00702">
        <ele>1193.44</ele>
        <time>2017-09-23T14:31:48Z</time>
      </trkpt>
      <trkpt lat="48.04756" lon="7.00707">
        <ele>1195.46</ele>
        <time>2017-09-23T14:31:58Z</time>
      </trkpt>
      <trkpt lat="48.04731" lon="7.00706">
        <ele>1198.19</ele>
        <time>2017-09-23T14:32:11Z</time>
      </trkpt>
      <trkpt lat="48.04729" lon="7.00706">
        <ele>1198.35</ele>
        <time>2017-09-23T14:32:12Z</time>
      </trkpt>
      <trkpt lat="48.04727" lon="7.00706">
        <ele>1198.93</ele>
        <time>2017-09-23T14:32:13Z</time>
      </trkpt>
      <trkpt lat="48.04725" lon="7.00707">
        <ele>1199.08</ele>
        <time>2017-09-23T14:32:14Z</time>
      </trkpt>
      <trkpt lat="48.04723" lon="7.00707">
        <ele>1199.13</ele>
        <time>2017-09-23T14:32:15Z</time>
      </trkpt>
      <trkpt lat="48.04721" lon="7.00707">
        <ele>1199.29</ele>
        <time>2017-09-23T14:32:16Z</time>
      </trkpt>
      <trkpt lat="48.0472" lon="7.00707">
        <ele>1199.41</ele>
        <time>2017-09-23T14:32:17Z</time>
      </trkpt>
      <trkpt lat="48.04718" lon="7.00707">
        <ele>1199.49</ele>
        <time>2017-09-23T14:32:18Z</time>
      </trkpt>
      <trkpt lat="48.04695" lon="7.00707">
        <ele>1201.83</ele>
        <time>2017-09-23T14:32:29Z</time>
      </trkpt>
      <trkpt lat="48.04672" lon="7.00711">
        <ele>1204.19</ele>
        <time>2017-09-23T14:32:40Z</time>
      </trkpt>
      <trkpt lat="48.04648" lon="7.00704">
        <ele>1206.54</ele>
        <time>2017-09-23T14:32:52Z</time>
      </trkpt>
      <trkpt lat="48.04636" lon="7.00701">
        <ele>1208.02</ele>
        <time>2017-09-23T14:32:58Z</time>
      </trkpt>
      <trkpt lat="48.04634" lon="7.007">
        <ele>1207.53</ele>
        <time>2017-09-23T14:32:59Z</time>
      </trkpt>
      <trkpt lat="48.04631" lon="7.007">
        <ele>1208.08</ele>
        <time>2017-09-23T14:33:00Z</time>
      </trkpt>
      <trkpt lat="48.04627" lon="7.00702">
        <ele>1208.41</ele>
        <time>2017-09-23T14:33:01Z</time>
      </trkpt>
      <trkpt lat="48.04625" lon="7.00701">
        <ele>1208.6</ele>
        <time>2017-09-23T14:33:02Z</time>
      </trkpt>
      <trkpt lat="48.04613" lon="7.00696">
        <ele>1209.42</ele>
        <time>2017-09-23T14:33:09Z</time>
      </trkpt>
      <trkpt lat="48.04611" lon="7.00695">
        <ele>1209.91</ele>
        <time>2017-09-23T14:33:10Z</time>
      </trkpt>
      <trkpt lat="48.0461" lon="7.00693">
        <ele>1209.89</ele>
        <time>2017-09-23T14:33:11Z</time>
      </trkpt>
      <trkpt lat="48.04608" lon="7.00692">
        <ele>1210.42</ele>
        <time>2017-09-23T14:33:12Z</time>
      </trkpt>
      <trkpt lat="48.04606" lon="7.00692">
        <ele>1210.79</ele>
        <time>2017-09-23T14:33:13Z</time>
      </trkpt>
      <trkpt lat="48.04605" lon="7.00691">
        <ele>1210.56</ele>
        <time>2017-09-23T14:33:14Z</time>
      </trkpt>
      <trkpt lat="48.04603" lon="7.0069">
        <ele>1210.63</ele>
        <time>2017-09-23T14:33:15Z</time>
      </trkpt>
      <trkpt lat="48.04601" lon="7.00689">
        <ele>1210.99</ele>
        <time>2017-09-23T14:33:16Z</time>
      </trkpt>
      <trkpt lat="48.04579" lon="7.00679">
        <ele>1213.79</ele>
        <time>2017-09-23T14:33:28Z</time>
      </trkpt>
      <trkpt lat="48.04578" lon="7.00677">
        <ele>1213.73</ele>
        <time>2017-09-23T14:33:29Z</time>
      </trkpt>
      <trkpt lat="48.04576" lon="7.00678">
        <ele>1213.74</ele>
        <time>2017-09-23T14:33:30Z</time>
      </trkpt>
      <trkpt lat="48.04559" lon="7.00674">
        <ele>1214.58</ele>
        <time>2017-09-23T14:33:42Z</time>
      </trkpt>
      <trkpt lat="48.04558" lon="7.00673">
        <ele>1214.41</ele>
        <time>2017-09-23T14:33:43Z</time>
      </trkpt>
      <trkpt lat="48.04558" lon="7.00676">
        <ele>1214.99</ele>
        <time>2017-09-23T14:33:51Z</time>
      </trkpt>
      <trkpt lat="48.04553" lon="7.00679">
        <ele>1215.21</ele>
        <time>2017-09-23T14:34:00Z</time>
      </trkpt>
      <trkpt lat="48.04552" lon="7.00678">
        <ele>1215.85</ele>
        <time>2017-09-23T14:34:01Z</time>
      </trkpt>
      <trkpt lat="48.04551" lon="7.00677">
        <ele>1215.68</ele>
        <time>2017-09-23T14:34:02Z</time>
      </trkpt>
      <trkpt lat="48.0455" lon="7.00676">
        <ele>1215.89</ele>
        <time>2017-09-23T14:34:03Z</time>
      </trkpt>
      <trkpt lat="48.04548" lon="7.00676">
        <ele>1215.93</ele>
        <time>2017-09-23T14:34:04Z</time>
      </trkpt>
      <trkpt lat="48.04546" lon="7.00675">
        <ele>1215.74</ele>
        <time>2017-09-23T14:34:05Z</time>
      </trkpt>
      <trkpt lat="48.04544" lon="7.00675">
        <ele>1216.18</ele>
        <time>2017-09-23T14:34:06Z</time>
      </trkpt>
      <trkpt lat="48.04542" lon="7.00674">
        <ele>1216.6</ele>
        <time>2017-09-23T14:34:07Z</time>
      </trkpt>
      <trkpt lat="48.0454" lon="7.00672">
        <ele>1216.84</ele>
        <time>2017-09-23T14:34:08Z</time>
      </trkpt>
      <trkpt lat="48.04511" lon="7.00656">
        <ele>1219.54</ele>
        <time>2017-09-23T14:34:22Z</time>
      </trkpt>
      <trkpt lat="48.04482" lon="7.00636">
        <ele>1222.16</ele>
        <time>2017-09-23T14:34:36Z</time>
      </trkpt>
      <trkpt lat="48.04459" lon="7.00616">
        <ele>1225.4</ele>
        <time>2017-09-23T14:34:48Z</time>
      </trkpt>
      <trkpt lat="48.04441" lon="7.00598">
        <ele>1225.69</ele>
        <time>2017-09-23T14:35:02Z</time>
      </trkpt>
      <trkpt lat="48.04433" lon="7.00584">
        <ele>1224.96</ele>
        <time>2017-09-23T14:35:37Z</time>
      </trkpt>
      <trkpt lat="48.0443" lon="7.0058">
        <ele>1225.58</ele>
        <time>2017-09-23T14:35:40Z</time>
      </trkpt>
      <trkpt lat="48.04428" lon="7.00578">
        <ele>1225.52</ele>
        <time>2017-09-23T14:35:41Z</time>
      </trkpt>
      <trkpt lat="48.04425" lon="7.00576">
        <ele>1225.22</ele>
        <time>2017-09-23T14:35:42Z</time>
      </trkpt>
      <trkpt lat="48.04386" lon="7.00538">
        <ele>1225.61</ele>
        <time>2017-09-23T14:35:57Z</time>
      </trkpt>
      <trkpt lat="48.04365" lon="7.00509">
        <ele>1225.78</ele>
        <time>2017-09-23T14:36:04Z</time>
      </trkpt>
      <trkpt lat="48.04305" lon="7.00438">
        <ele>1226.13</ele>
        <time>2017-09-23T14:36:21Z</time>
      </trkpt>
      <trkpt lat="48.04286" lon="7.00428">
        <ele>1226.46</ele>
        <time>2017-09-23T14:36:25Z</time>
      </trkpt>
      <trkpt lat="48.04282" lon="7.00427">
        <ele>1226.19</ele>
        <time>2017-09-23T14:36:26Z</time>
      </trkpt>
      <trkpt lat="48.04277" lon="7.00426">
        <ele>1226.65</ele>
        <time>2017-09-23T14:36:27Z</time>
      </trkpt>
      <trkpt lat="48.04216" lon="7.00441">
        <ele>1227.58</ele>
        <time>2017-09-23T14:36:42Z</time>
      </trkpt>
      <trkpt lat="48.04166" lon="7.00474">
        <ele>1228.63</ele>
        <time>2017-09-23T14:36:56Z</time>
      </trkpt>
      <trkpt lat="48.04124" lon="7.00515">
        <ele>1230.45</ele>
        <time>2017-09-23T14:37:10Z</time>
      </trkpt>
      <trkpt lat="48.04079" lon="7.00565">
        <ele>1232.1</ele>
        <time>2017-09-23T14:37:26Z</time>
      </trkpt>
      <trkpt lat="48.04021" lon="7.00642">
        <ele>1231.81</ele>
        <time>2017-09-23T14:37:45Z</time>
      </trkpt>
      <trkpt lat="48.0398" lon="7.00731">
        <ele>1231.29</ele>
        <time>2017-09-23T14:38:03Z</time>
      </trkpt>
      <trkpt lat="48.03952" lon="7.00772">
        <ele>1231.77</ele>
        <time>2017-09-23T14:38:12Z</time>
      </trkpt>
      <trkpt lat="48.03881" lon="7.00795">
        <ele>1232.79</ele>
        <time>2017-09-23T14:38:29Z</time>
      </trkpt>
      <trkpt lat="48.038" lon="7.00802">
        <ele>1233.03</ele>
        <time>2017-09-23T14:38:48Z</time>
      </trkpt>
      <trkpt lat="48.03738" lon="7.00795">
        <ele>1233.94</ele>
        <time>2017-09-23T14:39:04Z</time>
      </trkpt>
      <trkpt lat="48.03712" lon="7.00787">
        <ele>1234.65</ele>
        <time>2017-09-23T14:39:11Z</time>
      </trkpt>
      <trkpt lat="48.03651" lon="7.00785">
        <ele>1236.47</ele>
        <time>2017-09-23T14:39:28Z</time>
      </trkpt>
      <trkpt lat="48.03604" lon="7.00784">
        <ele>1237.85</ele>
        <time>2017-09-23T14:39:43Z</time>
      </trkpt>
      <trkpt lat="48.03559" lon="7.00745">
        <ele>1240.24</ele>
        <time>2017-09-23T14:39:59Z</time>
      </trkpt>
      <trkpt lat="48.03525" lon="7.00688">
        <ele>1243.04</ele>
        <time>2017-09-23T14:40:15Z</time>
      </trkpt>
      <trkpt lat="48.03484" lon="7.0061">
        <ele>1243.61</ele>
        <time>2017-09-23T14:40:34Z</time>
      </trkpt>
      <trkpt lat="48.03455" lon="7.00531">
        <ele>1241.52</ele>
        <time>2017-09-23T14:40:46Z</time>
      </trkpt>
      <trkpt lat="48.03434" lon="7.00423">
        <ele>1239.19</ele>
        <time>2017-09-23T14:40:57Z</time>
      </trkpt>
      <trkpt lat="48.03434" lon="7.00412">
        <ele>1239.27</ele>
        <time>2017-09-23T14:40:58Z</time>
      </trkpt>
      <trkpt lat="48.03426" lon="7.00284">
        <ele>1236.04</ele>
        <time>2017-09-23T14:41:09Z</time>
      </trkpt>
      <trkpt lat="48.0342" lon="7.00214">
        <ele>1234.64</ele>
        <time>2017-09-23T14:41:15Z</time>
      </trkpt>
      <trkpt lat="48.03419" lon="7.00202">
        <ele>1233.82</ele>
        <time>2017-09-23T14:41:16Z</time>
      </trkpt>
      <trkpt lat="48.0342" lon="7.0019">
        <ele>1233.37</ele>
        <time>2017-09-23T14:41:17Z</time>
      </trkpt>
      <trkpt lat="48.03418" lon="7.00067">
        <ele>1230.36</ele>
        <time>2017-09-23T14:41:28Z</time>
      </trkpt>
      <trkpt lat="48.03413" lon="7.00021">
        <ele>1228.93</ele>
        <time>2017-09-23T14:41:32Z</time>
      </trkpt>
      <trkpt lat="48.03411" lon="7.00009">
        <ele>1228.38</ele>
        <time>2017-09-23T14:41:33Z</time>
      </trkpt>
      <trkpt lat="48.0341" lon="6.99997">
        <ele>1228.14</ele>
        <time>2017-09-23T14:41:34Z</time>
      </trkpt>
      <trkpt lat="48.03412" lon="6.99985">
        <ele>1227.83</ele>
        <time>2017-09-23T14:41:35Z</time>
      </trkpt>
      <trkpt lat="48.03415" lon="6.99974">
        <ele>1227.78</ele>
        <time>2017-09-23T14:41:36Z</time>
      </trkpt>
      <trkpt lat="48.03419" lon="6.99964">
        <ele>1228.18</ele>
        <time>2017-09-23T14:41:37Z</time>
      </trkpt>
      <trkpt lat="48.03424" lon="6.99945">
        <ele>1228.41</ele>
        <time>2017-09-23T14:41:39Z</time>
      </trkpt>
      <trkpt lat="48.03425" lon="6.99934">
        <ele>1228.49</ele>
        <time>2017-09-23T14:41:40Z</time>
      </trkpt>
      <trkpt lat="48.03425" lon="6.99924">
        <ele>1228.38</ele>
        <time>2017-09-23T14:41:41Z</time>
      </trkpt>
      <trkpt lat="48.03425" lon="6.99915">
        <ele>1227.64</ele>
        <time>2017-09-23T14:41:42Z</time>
      </trkpt>
      <trkpt lat="48.03424" lon="6.99905">
        <ele>1227.55</ele>
        <time>2017-09-23T14:41:43Z</time>
      </trkpt>
      <trkpt lat="48.03417" lon="6.99827">
        <ele>1228.14</ele>
        <time>2017-09-23T14:41:54Z</time>
      </trkpt>
      <trkpt lat="48.03409" lon="6.99778">
        <ele>1227.02</ele>
        <time>2017-09-23T14:42:02Z</time>
      </trkpt>
      <trkpt lat="48.03408" lon="6.99771">
        <ele>1227.19</ele>
        <time>2017-09-23T14:42:03Z</time>
      </trkpt>
      <trkpt lat="48.03407" lon="6.99763">
        <ele>1226.82</ele>
        <time>2017-09-23T14:42:04Z</time>
      </trkpt>
      <trkpt lat="48.034" lon="6.9973">
        <ele>1225.95</ele>
        <time>2017-09-23T14:42:08Z</time>
      </trkpt>
      <trkpt lat="48.03394" lon="6.9968">
        <ele>1222.9</ele>
        <time>2017-09-23T14:42:13Z</time>
      </trkpt>
      <trkpt lat="48.03383" lon="6.99627">
        <ele>1219.55</ele>
        <time>2017-09-23T14:42:18Z</time>
      </trkpt>
      <trkpt lat="48.03372" lon="6.99583">
        <ele>1216.26</ele>
        <time>2017-09-23T14:42:24Z</time>
      </trkpt>
      <trkpt lat="48.03368" lon="6.99566">
        <ele>1214.87</ele>
        <time>2017-09-23T14:42:27Z</time>
      </trkpt>
      <trkpt lat="48.03365" lon="6.99537">
        <ele>1212.04</ele>
        <time>2017-09-23T14:42:33Z</time>
      </trkpt>
      <trkpt lat="48.03365" lon="6.99517">
        <ele>1209.02</ele>
        <time>2017-09-23T14:42:35Z</time>
      </trkpt>
      <trkpt lat="48.03365" lon="6.99472">
        <ele>1205.32</ele>
        <time>2017-09-23T14:42:39Z</time>
      </trkpt>
      <trkpt lat="48.03367" lon="6.99434">
        <ele>1201.22</ele>
        <time>2017-09-23T14:42:42Z</time>
      </trkpt>
      <trkpt lat="48.03368" lon="6.99411">
        <ele>1198.28</ele>
        <time>2017-09-23T14:42:44Z</time>
      </trkpt>
      <trkpt lat="48.03369" lon="6.99399">
        <ele>1196.84</ele>
        <time>2017-09-23T14:42:45Z</time>
      </trkpt>
      <trkpt lat="48.03376" lon="6.99346">
        <ele>1193.17</ele>
        <time>2017-09-23T14:42:49Z</time>
      </trkpt>
      <trkpt lat="48.03379" lon="6.9932">
        <ele>1190.1</ele>
        <time>2017-09-23T14:42:51Z</time>
      </trkpt>
      <trkpt lat="48.03384" lon="6.99271">
        <ele>1186.23</ele>
        <time>2017-09-23T14:42:55Z</time>
      </trkpt>
      <trkpt lat="48.03385" lon="6.99223">
        <ele>1182.58</ele>
        <time>2017-09-23T14:43:00Z</time>
      </trkpt>
      <trkpt lat="48.03385" lon="6.99218">
        <ele>1182.75</ele>
        <time>2017-09-23T14:43:01Z</time>
      </trkpt>
      <trkpt lat="48.03386" lon="6.99183">
        <ele>1180.73</ele>
        <time>2017-09-23T14:43:08Z</time>
      </trkpt>
      <trkpt lat="48.03385" lon="6.99169">
        <ele>1179.29</ele>
        <time>2017-09-23T14:43:10Z</time>
      </trkpt>
      <trkpt lat="48.03386" lon="6.99161">
        <ele>1179.29</ele>
        <time>2017-09-23T14:43:11Z</time>
      </trkpt>
      <trkpt lat="48.03393" lon="6.99123">
        <ele>1175.84</ele>
        <time>2017-09-23T14:43:15Z</time>
      </trkpt>
      <trkpt lat="48.03397" lon="6.99112">
        <ele>1176.2</ele>
        <time>2017-09-23T14:43:16Z</time>
      </trkpt>
      <trkpt lat="48.03405" lon="6.99091">
        <ele>1173.16</ele>
        <time>2017-09-23T14:43:18Z</time>
      </trkpt>
      <trkpt lat="48.03412" lon="6.99071">
        <ele>1171.56</ele>
        <time>2017-09-23T14:43:20Z</time>
      </trkpt>
      <trkpt lat="48.03426" lon="6.99025">
        <ele>1168.57</ele>
        <time>2017-09-23T14:43:25Z</time>
      </trkpt>
      <trkpt lat="48.03439" lon="6.98988">
        <ele>1165.14</ele>
        <time>2017-09-23T14:43:30Z</time>
      </trkpt>
      <trkpt lat="48.03452" lon="6.98956">
        <ele>1163.43</ele>
        <time>2017-09-23T14:43:39Z</time>
      </trkpt>
      <trkpt lat="48.03452" lon="6.98956">
        <ele>1163.67</ele>
        <time>2017-09-23T14:44:10Z</time>
      </trkpt>
      <trkpt lat="48.03452" lon="6.98957">
        <ele>1163.88</ele>
        <time>2017-09-23T14:44:42Z</time>
      </trkpt>
      <trkpt lat="48.03453" lon="6.98957">
        <ele>1163.7</ele>
        <time>2017-09-23T14:45:16Z</time>
      </trkpt>
      <trkpt lat="48.03456" lon="6.98958">
        <ele>1163.23</ele>
        <time>2017-09-23T14:45:41Z</time>
      </trkpt>
      <trkpt lat="48.03458" lon="6.98964">
        <ele>1162.99</ele>
        <time>2017-09-23T14:46:10Z</time>
      </trkpt>
      <trkpt lat="48.03456" lon="6.98975">
        <ele>1164.46</ele>
        <time>2017-09-23T14:46:30Z</time>
      </trkpt>
      <trkpt lat="48.03454" lon="6.98975">
        <ele>1164.4</ele>
        <time>2017-09-23T14:46:45Z</time>
      </trkpt>
      <trkpt lat="48.03454" lon="6.98976">
        <ele>1164.9</ele>
        <time>2017-09-23T14:47:07Z</time>
      </trkpt>
      <trkpt lat="48.03454" lon="6.98977">
        <ele>1164.47</ele>
        <time>2017-09-23T14:47:41Z</time>
      </trkpt>
      <trkpt lat="48.03453" lon="6.98979">
        <ele>1163.96</ele>
        <time>2017-09-23T14:48:25Z</time>
      </trkpt>
      <trkpt lat="48.03452" lon="6.98972">
        <ele>1164.06</ele>
        <time>2017-09-23T14:48:40Z</time>
      </trkpt>
      <trkpt lat="48.03451" lon="6.98967">
        <ele>1164.76</ele>
        <time>2017-09-23T14:48:55Z</time>
      </trkpt>
      <trkpt lat="48.03451" lon="6.98965">
        <ele>1164.16</ele>
        <time>2017-09-23T14:48:56Z</time>
      </trkpt>
      <trkpt lat="48.03452" lon="6.98962">
        <ele>1164.17</ele>
        <time>2017-09-23T14:48:57Z</time>
      </trkpt>
      <trkpt lat="48.03453" lon="6.98958">
        <ele>1164.16</ele>
        <time>2017-09-23T14:48:58Z</time>
      </trkpt>
      <trkpt lat="48.03454" lon="6.98954">
        <ele>1163.98</ele>
        <time>2017-09-23T14:48:59Z</time>
      </trkpt>
      <trkpt lat="48.03459" lon="6.98941">
        <ele>1162.47</ele>
        <time>2017-09-23T14:49:02Z</time>
      </trkpt>
      <trkpt lat="48.03473" lon="6.98911">
        <ele>1158.72</ele>
        <time>2017-09-23T14:49:11Z</time>
      </trkpt>
      <trkpt lat="48.0349" lon="6.9888">
        <ele>1156.43</ele>
        <time>2017-09-23T14:49:19Z</time>
      </trkpt>
      <trkpt lat="48.03494" lon="6.98876">
        <ele>1156.04</ele>
        <time>2017-09-23T14:49:20Z</time>
      </trkpt>
      <trkpt lat="48.03497" lon="6.98874">
        <ele>1155.98</ele>
        <time>2017-09-23T14:49:21Z</time>
      </trkpt>
      <trkpt lat="48.035" lon="6.98871">
        <ele>1155.71</ele>
        <time>2017-09-23T14:49:22Z</time>
      </trkpt>
      <trkpt lat="48.03502" lon="6.98868">
        <ele>1154.68</ele>
        <time>2017-09-23T14:49:23Z</time>
      </trkpt>
      <trkpt lat="48.03504" lon="6.98865">
        <ele>1155.02</ele>
        <time>2017-09-23T14:49:24Z</time>
      </trkpt>
      <trkpt lat="48.03505" lon="6.98862">
        <ele>1155</ele>
        <time>2017-09-23T14:49:25Z</time>
      </trkpt>
      <trkpt lat="48.03506" lon="6.98859">
        <ele>1153.93</ele>
        <time>2017-09-23T14:49:26Z</time>
      </trkpt>
      <trkpt lat="48.0352" lon="6.98823">
        <ele>1150.87</ele>
        <time>2017-09-23T14:49:34Z</time>
      </trkpt>
      <trkpt lat="48.03522" lon="6.98814">
        <ele>1150.28</ele>
        <time>2017-09-23T14:49:35Z</time>
      </trkpt>
      <trkpt lat="48.03534" lon="6.98766">
        <ele>1146.74</ele>
        <time>2017-09-23T14:49:40Z</time>
      </trkpt>
      <trkpt lat="48.03541" lon="6.98737">
        <ele>1143.25</ele>
        <time>2017-09-23T14:49:43Z</time>
      </trkpt>
      <trkpt lat="48.03547" lon="6.98703">
        <ele>1140.76</ele>
        <time>2017-09-23T14:49:48Z</time>
      </trkpt>
      <trkpt lat="48.03548" lon="6.98675">
        <ele>1137.98</ele>
        <time>2017-09-23T14:49:56Z</time>
      </trkpt>
      <trkpt lat="48.03549" lon="6.98668">
        <ele>1137.35</ele>
        <time>2017-09-23T14:49:57Z</time>
      </trkpt>
      <trkpt lat="48.0355" lon="6.98661">
        <ele>1136.58</ele>
        <time>2017-09-23T14:49:58Z</time>
      </trkpt>
      <trkpt lat="48.03556" lon="6.98627">
        <ele>1132.88</ele>
        <time>2017-09-23T14:50:02Z</time>
      </trkpt>
      <trkpt lat="48.03556" lon="6.98618">
        <ele>1132.72</ele>
        <time>2017-09-23T14:50:03Z</time>
      </trkpt>
      <trkpt lat="48.03558" lon="6.98589">
        <ele>1129.3</ele>
        <time>2017-09-23T14:50:06Z</time>
      </trkpt>
      <trkpt lat="48.03559" lon="6.98559">
        <ele>1126.28</ele>
        <time>2017-09-23T14:50:09Z</time>
      </trkpt>
      <trkpt lat="48.03559" lon="6.98529">
        <ele>1124.76</ele>
        <time>2017-09-23T14:50:12Z</time>
      </trkpt>
      <trkpt lat="48.03559" lon="6.98508">
        <ele>1121.32</ele>
        <time>2017-09-23T14:50:14Z</time>
      </trkpt>
      <trkpt lat="48.03559" lon="6.98475">
        <ele>1118.24</ele>
        <time>2017-09-23T14:50:17Z</time>
      </trkpt>
      <trkpt lat="48.03559" lon="6.98453">
        <ele>1115.15</ele>
        <time>2017-09-23T14:50:19Z</time>
      </trkpt>
      <trkpt lat="48.03559" lon="6.98441">
        <ele>1115.8</ele>
        <time>2017-09-23T14:50:20Z</time>
      </trkpt>
      <trkpt lat="48.0356" lon="6.9841">
        <ele>1113.22</ele>
        <time>2017-09-23T14:50:23Z</time>
      </trkpt>
      <trkpt lat="48.03562" lon="6.9838">
        <ele>1111.1</ele>
        <time>2017-09-23T14:50:26Z</time>
      </trkpt>
      <trkpt lat="48.03565" lon="6.98351">
        <ele>1108.59</ele>
        <time>2017-09-23T14:50:29Z</time>
      </trkpt>
      <trkpt lat="48.03566" lon="6.98343">
        <ele>1107.55</ele>
        <time>2017-09-23T14:50:30Z</time>
      </trkpt>
      <trkpt lat="48.0357" lon="6.98321">
        <ele>1105.19</ele>
        <time>2017-09-23T14:50:33Z</time>
      </trkpt>
      <trkpt lat="48.0357" lon="6.98313">
        <ele>1104.5</ele>
        <time>2017-09-23T14:50:34Z</time>
      </trkpt>
      <trkpt lat="48.0357" lon="6.98305">
        <ele>1103.98</ele>
        <time>2017-09-23T14:50:35Z</time>
      </trkpt>
      <trkpt lat="48.0357" lon="6.98297">
        <ele>1102.73</ele>
        <time>2017-09-23T14:50:36Z</time>
      </trkpt>
      <trkpt lat="48.03568" lon="6.98289">
        <ele>1101.89</ele>
        <time>2017-09-23T14:50:37Z</time>
      </trkpt>
      <trkpt lat="48.03567" lon="6.9828">
        <ele>1100.83</ele>
        <time>2017-09-23T14:50:38Z</time>
      </trkpt>
      <trkpt lat="48.03561" lon="6.98255">
        <ele>1099.04</ele>
        <time>2017-09-23T14:50:41Z</time>
      </trkpt>
      <trkpt lat="48.0356" lon="6.9822">
        <ele>1095.16</ele>
        <time>2017-09-23T14:50:45Z</time>
      </trkpt>
      <trkpt lat="48.03573" lon="6.98172">
        <ele>1091.24</ele>
        <time>2017-09-23T14:50:50Z</time>
      </trkpt>
      <trkpt lat="48.03575" lon="6.98163">
        <ele>1091.1</ele>
        <time>2017-09-23T14:50:51Z</time>
      </trkpt>
      <trkpt lat="48.03593" lon="6.98107">
        <ele>1088.26</ele>
        <time>2017-09-23T14:50:57Z</time>
      </trkpt>
      <trkpt lat="48.03601" lon="6.98082">
        <ele>1086.89</ele>
        <time>2017-09-23T14:51:00Z</time>
      </trkpt>
      <trkpt lat="48.03603" lon="6.98075">
        <ele>1085.92</ele>
        <time>2017-09-23T14:51:01Z</time>
      </trkpt>
      <trkpt lat="48.0361" lon="6.98058">
        <ele>1085.01</ele>
        <time>2017-09-23T14:51:04Z</time>
      </trkpt>
      <trkpt lat="48.03612" lon="6.98053">
        <ele>1084.39</ele>
        <time>2017-09-23T14:51:05Z</time>
      </trkpt>
      <trkpt lat="48.03613" lon="6.98046">
        <ele>1084.05</ele>
        <time>2017-09-23T14:51:06Z</time>
      </trkpt>
      <trkpt lat="48.03614" lon="6.98039">
        <ele>1083.53</ele>
        <time>2017-09-23T14:51:07Z</time>
      </trkpt>
      <trkpt lat="48.03614" lon="6.98031">
        <ele>1083.91</ele>
        <time>2017-09-23T14:51:08Z</time>
      </trkpt>
      <trkpt lat="48.03614" lon="6.98022">
        <ele>1083.57</ele>
        <time>2017-09-23T14:51:09Z</time>
      </trkpt>
      <trkpt lat="48.03614" lon="6.98013">
        <ele>1083.06</ele>
        <time>2017-09-23T14:51:10Z</time>
      </trkpt>
      <trkpt lat="48.03609" lon="6.97976">
        <ele>1081.61</ele>
        <time>2017-09-23T14:51:14Z</time>
      </trkpt>
      <trkpt lat="48.03607" lon="6.97966">
        <ele>1081.74</ele>
        <time>2017-09-23T14:51:15Z</time>
      </trkpt>
      <trkpt lat="48.03602" lon="6.97949">
        <ele>1080.68</ele>
        <time>2017-09-23T14:51:17Z</time>
      </trkpt>
      <trkpt lat="48.03599" lon="6.97941">
        <ele>1080.4</ele>
        <time>2017-09-23T14:51:18Z</time>
      </trkpt>
      <trkpt lat="48.03595" lon="6.97934">
        <ele>1080.64</ele>
        <time>2017-09-23T14:51:19Z</time>
      </trkpt>
      <trkpt lat="48.03591" lon="6.97928">
        <ele>1080.54</ele>
        <time>2017-09-23T14:51:20Z</time>
      </trkpt>
      <trkpt lat="48.03587" lon="6.97922">
        <ele>1079.94</ele>
        <time>2017-09-23T14:51:21Z</time>
      </trkpt>
      <trkpt lat="48.03582" lon="6.97917">
        <ele>1079.38</ele>
        <time>2017-09-23T14:51:22Z</time>
      </trkpt>
      <trkpt lat="48.03578" lon="6.97912">
        <ele>1079.76</ele>
        <time>2017-09-23T14:51:23Z</time>
      </trkpt>
      <trkpt lat="48.03565" lon="6.97895">
        <ele>1078.65</ele>
        <time>2017-09-23T14:51:26Z</time>
      </trkpt>
      <trkpt lat="48.03562" lon="6.97889">
        <ele>1078.26</ele>
        <time>2017-09-23T14:51:27Z</time>
      </trkpt>
      <trkpt lat="48.0356" lon="6.97883">
        <ele>1078.21</ele>
        <time>2017-09-23T14:51:28Z</time>
      </trkpt>
      <trkpt lat="48.03558" lon="6.97877">
        <ele>1078.19</ele>
        <time>2017-09-23T14:51:29Z</time>
      </trkpt>
      <trkpt lat="48.03557" lon="6.9787">
        <ele>1077.52</ele>
        <time>2017-09-23T14:51:30Z</time>
      </trkpt>
      <trkpt lat="48.03557" lon="6.97863">
        <ele>1076.89</ele>
        <time>2017-09-23T14:51:31Z</time>
      </trkpt>
      <trkpt lat="48.03556" lon="6.97848">
        <ele>1076.61</ele>
        <time>2017-09-23T14:51:33Z</time>
      </trkpt>
      <trkpt lat="48.03555" lon="6.9784">
        <ele>1076.09</ele>
        <time>2017-09-23T14:51:34Z</time>
      </trkpt>
      <trkpt lat="48.03553" lon="6.97834">
        <ele>1076.22</ele>
        <time>2017-09-23T14:51:35Z</time>
      </trkpt>
      <trkpt lat="48.03552" lon="6.97831">
        <ele>1075.59</ele>
        <time>2017-09-23T14:51:36Z</time>
      </trkpt>
      <trkpt lat="48.03551" lon="6.97828">
        <ele>1074.79</ele>
        <time>2017-09-23T14:51:37Z</time>
      </trkpt>
      <trkpt lat="48.03549" lon="6.97825">
        <ele>1074.77</ele>
        <time>2017-09-23T14:51:38Z</time>
      </trkpt>
      <trkpt lat="48.03517" lon="6.97803">
        <ele>1073.2</ele>
        <time>2017-09-23T14:51:48Z</time>
      </trkpt>
      <trkpt lat="48.03509" lon="6.97805">
        <ele>1073.09</ele>
        <time>2017-09-23T14:51:50Z</time>
      </trkpt>
      <trkpt lat="48.03505" lon="6.97807">
        <ele>1072.53</ele>
        <time>2017-09-23T14:51:51Z</time>
      </trkpt>
      <trkpt lat="48.03498" lon="6.97813">
        <ele>1071.68</ele>
        <time>2017-09-23T14:51:53Z</time>
      </trkpt>
      <trkpt lat="48.03494" lon="6.97817">
        <ele>1071.71</ele>
        <time>2017-09-23T14:51:54Z</time>
      </trkpt>
      <trkpt lat="48.03491" lon="6.97822">
        <ele>1071.5</ele>
        <time>2017-09-23T14:51:55Z</time>
      </trkpt>
      <trkpt lat="48.03488" lon="6.97827">
        <ele>1071.63</ele>
        <time>2017-09-23T14:51:56Z</time>
      </trkpt>
      <trkpt lat="48.03485" lon="6.97832">
        <ele>1070.66</ele>
        <time>2017-09-23T14:51:57Z</time>
      </trkpt>
      <trkpt lat="48.03482" lon="6.97839">
        <ele>1070.4</ele>
        <time>2017-09-23T14:51:58Z</time>
      </trkpt>
      <trkpt lat="48.03439" lon="6.97932">
        <ele>1070.21</ele>
        <time>2017-09-23T14:52:11Z</time>
      </trkpt>
      <trkpt lat="48.03436" lon="6.97939">
        <ele>1069.76</ele>
        <time>2017-09-23T14:52:12Z</time>
      </trkpt>
      <trkpt lat="48.03416" lon="6.98009">
        <ele>1070.71</ele>
        <time>2017-09-23T14:52:22Z</time>
      </trkpt>
      <trkpt lat="48.03415" lon="6.98017">
        <ele>1071.13</ele>
        <time>2017-09-23T14:52:23Z</time>
      </trkpt>
      <trkpt lat="48.03401" lon="6.98083">
        <ele>1071.74</ele>
        <time>2017-09-23T14:52:33Z</time>
      </trkpt>
      <trkpt lat="48.034" lon="6.98089">
        <ele>1071.6</ele>
        <time>2017-09-23T14:52:34Z</time>
      </trkpt>
      <trkpt lat="48.03398" lon="6.98128">
        <ele>1071.57</ele>
        <time>2017-09-23T14:52:40Z</time>
      </trkpt>
      <trkpt lat="48.03389" lon="6.98212">
        <ele>1071.18</ele>
        <time>2017-09-23T14:52:52Z</time>
      </trkpt>
      <trkpt lat="48.03381" lon="6.98235">
        <ele>1070.96</ele>
        <time>2017-09-23T14:52:55Z</time>
      </trkpt>
      <trkpt lat="48.03379" lon="6.98243">
        <ele>1070.91</ele>
        <time>2017-09-23T14:52:56Z</time>
      </trkpt>
      <trkpt lat="48.0337" lon="6.98268">
        <ele>1069.65</ele>
        <time>2017-09-23T14:53:01Z</time>
      </trkpt>
      <trkpt lat="48.03369" lon="6.98266">
        <ele>1068.54</ele>
        <time>2017-09-23T14:53:04Z</time>
      </trkpt>
      <trkpt lat="48.03369" lon="6.98264">
        <ele>1068.45</ele>
        <time>2017-09-23T14:53:05Z</time>
      </trkpt>
      <trkpt lat="48.03369" lon="6.9826">
        <ele>1068.11</ele>
        <time>2017-09-23T14:53:06Z</time>
      </trkpt>
      <trkpt lat="48.03371" lon="6.98257">
        <ele>1068.19</ele>
        <time>2017-09-23T14:53:07Z</time>
      </trkpt>
      <trkpt lat="48.03372" lon="6.98253">
        <ele>1067.81</ele>
        <time>2017-09-23T14:53:08Z</time>
      </trkpt>
      <trkpt lat="48.03378" lon="6.98213">
        <ele>1065.14</ele>
        <time>2017-09-23T14:53:16Z</time>
      </trkpt>
      <trkpt lat="48.03379" lon="6.98207">
        <ele>1065.04</ele>
        <time>2017-09-23T14:53:17Z</time>
      </trkpt>
      <trkpt lat="48.03379" lon="6.98201">
        <ele>1064.08</ele>
        <time>2017-09-23T14:53:18Z</time>
      </trkpt>
      <trkpt lat="48.03379" lon="6.98196">
        <ele>1063.81</ele>
        <time>2017-09-23T14:53:19Z</time>
      </trkpt>
      <trkpt lat="48.03372" lon="6.98149">
        <ele>1060.66</ele>
        <time>2017-09-23T14:53:27Z</time>
      </trkpt>
      <trkpt lat="48.0337" lon="6.98135">
        <ele>1059.77</ele>
        <time>2017-09-23T14:53:29Z</time>
      </trkpt>
      <trkpt lat="48.0337" lon="6.98121">
        <ele>1059.44</ele>
        <time>2017-09-23T14:53:31Z</time>
      </trkpt>
      <trkpt lat="48.0337" lon="6.98115">
        <ele>1058.24</ele>
        <time>2017-09-23T14:53:32Z</time>
      </trkpt>
      <trkpt lat="48.0337" lon="6.98108">
        <ele>1058</ele>
        <time>2017-09-23T14:53:33Z</time>
      </trkpt>
      <trkpt lat="48.03371" lon="6.98102">
        <ele>1057.5</ele>
        <time>2017-09-23T14:53:34Z</time>
      </trkpt>
      <trkpt lat="48.03374" lon="6.98081">
        <ele>1055.95</ele>
        <time>2017-09-23T14:53:37Z</time>
      </trkpt>
      <trkpt lat="48.03375" lon="6.98067">
        <ele>1054.91</ele>
        <time>2017-09-23T14:53:39Z</time>
      </trkpt>
      <trkpt lat="48.03377" lon="6.98043">
        <ele>1054.22</ele>
        <time>2017-09-23T14:53:42Z</time>
      </trkpt>
      <trkpt lat="48.03378" lon="6.98025">
        <ele>1053.1</ele>
        <time>2017-09-23T14:53:44Z</time>
      </trkpt>
      <trkpt lat="48.03378" lon="6.98016">
        <ele>1052.58</ele>
        <time>2017-09-23T14:53:45Z</time>
      </trkpt>
      <trkpt lat="48.0338" lon="6.98008">
        <ele>1052.57</ele>
        <time>2017-09-23T14:53:46Z</time>
      </trkpt>
      <trkpt lat="48.03382" lon="6.98">
        <ele>1052.52</ele>
        <time>2017-09-23T14:53:47Z</time>
      </trkpt>
      <trkpt lat="48.03384" lon="6.97992">
        <ele>1052.05</ele>
        <time>2017-09-23T14:53:48Z</time>
      </trkpt>
      <trkpt lat="48.03386" lon="6.97985">
        <ele>1052.75</ele>
        <time>2017-09-23T14:53:49Z</time>
      </trkpt>
      <trkpt lat="48.03387" lon="6.97977">
        <ele>1052.62</ele>
        <time>2017-09-23T14:53:50Z</time>
      </trkpt>
      <trkpt lat="48.03388" lon="6.9797">
        <ele>1052.45</ele>
        <time>2017-09-23T14:53:51Z</time>
      </trkpt>
      <trkpt lat="48.03398" lon="6.97904">
        <ele>1051.86</ele>
        <time>2017-09-23T14:54:00Z</time>
      </trkpt>
      <trkpt lat="48.034" lon="6.97897">
        <ele>1052.98</ele>
        <time>2017-09-23T14:54:01Z</time>
      </trkpt>
      <trkpt lat="48.03403" lon="6.9789">
        <ele>1052.65</ele>
        <time>2017-09-23T14:54:02Z</time>
      </trkpt>
      <trkpt lat="48.0343" lon="6.97848">
        <ele>1051.63</ele>
        <time>2017-09-23T14:54:13Z</time>
      </trkpt>
      <trkpt lat="48.03426" lon="6.97839">
        <ele>1050.01</ele>
        <time>2017-09-23T14:54:23Z</time>
      </trkpt>
      <trkpt lat="48.03424" lon="6.97837">
        <ele>1050.52</ele>
        <time>2017-09-23T14:54:25Z</time>
      </trkpt>
      <trkpt lat="48.03423" lon="6.97836">
        <ele>1050.97</ele>
        <time>2017-09-23T14:54:26Z</time>
      </trkpt>
      <trkpt lat="48.03421" lon="6.97834">
        <ele>1051.18</ele>
        <time>2017-09-23T14:54:27Z</time>
      </trkpt>
      <trkpt lat="48.03382" lon="6.97788">
        <ele>1051.49</ele>
        <time>2017-09-23T14:54:42Z</time>
      </trkpt>
      <trkpt lat="48.03376" lon="6.97781">
        <ele>1051.39</ele>
        <time>2017-09-23T14:54:45Z</time>
      </trkpt>
      <trkpt lat="48.03375" lon="6.97777">
        <ele>1051.22</ele>
        <time>2017-09-23T14:54:46Z</time>
      </trkpt>
      <trkpt lat="48.03375" lon="6.97774">
        <ele>1051.18</ele>
        <time>2017-09-23T14:54:47Z</time>
      </trkpt>
      <trkpt lat="48.03388" lon="6.97757">
        <ele>1049.76</ele>
        <time>2017-09-23T14:54:55Z</time>
      </trkpt>
      <trkpt lat="48.03391" lon="6.97734">
        <ele>1048.71</ele>
        <time>2017-09-23T14:55:02Z</time>
      </trkpt>
      <trkpt lat="48.03391" lon="6.97725">
        <ele>1047.49</ele>
        <time>2017-09-23T14:55:04Z</time>
      </trkpt>
      <trkpt lat="48.03392" lon="6.97713">
        <ele>1045.95</ele>
        <time>2017-09-23T14:55:07Z</time>
      </trkpt>
      <trkpt lat="48.03391" lon="6.977">
        <ele>1043.62</ele>
        <time>2017-09-23T14:55:11Z</time>
      </trkpt>
      <trkpt lat="48.03392" lon="6.97697">
        <ele>1043.41</ele>
        <time>2017-09-23T14:55:12Z</time>
      </trkpt>
      <trkpt lat="48.03396" lon="6.97697">
        <ele>1042.91</ele>
        <time>2017-09-23T14:55:14Z</time>
      </trkpt>
      <trkpt lat="48.03398" lon="6.977">
        <ele>1041.56</ele>
        <time>2017-09-23T14:55:15Z</time>
      </trkpt>
      <trkpt lat="48.034" lon="6.97704">
        <ele>1041.07</ele>
        <time>2017-09-23T14:55:16Z</time>
      </trkpt>
      <trkpt lat="48.03401" lon="6.97709">
        <ele>1039.37</ele>
        <time>2017-09-23T14:55:17Z</time>
      </trkpt>
      <trkpt lat="48.03402" lon="6.97714">
        <ele>1038.72</ele>
        <time>2017-09-23T14:55:18Z</time>
      </trkpt>
      <trkpt lat="48.03402" lon="6.97719">
        <ele>1037.17</ele>
        <time>2017-09-23T14:55:19Z</time>
      </trkpt>
      <trkpt lat="48.03403" lon="6.97724">
        <ele>1036.42</ele>
        <time>2017-09-23T14:55:20Z</time>
      </trkpt>
      <trkpt lat="48.03418" lon="6.9775">
        <ele>1033.22</ele>
        <time>2017-09-23T14:55:32Z</time>
      </trkpt>
      <trkpt lat="48.0342" lon="6.97749">
        <ele>1033.43</ele>
        <time>2017-09-23T14:55:33Z</time>
      </trkpt>
      <trkpt lat="48.03422" lon="6.97748">
        <ele>1032.92</ele>
        <time>2017-09-23T14:55:34Z</time>
      </trkpt>
      <trkpt lat="48.03423" lon="6.97746">
        <ele>1033.24</ele>
        <time>2017-09-23T14:55:35Z</time>
      </trkpt>
      <trkpt lat="48.03436" lon="6.97722">
        <ele>1030.42</ele>
        <time>2017-09-23T14:55:48Z</time>
      </trkpt>
      <trkpt lat="48.03452" lon="6.97695">
        <ele>1026.55</ele>
        <time>2017-09-23T14:55:55Z</time>
      </trkpt>
      <trkpt lat="48.03463" lon="6.97676">
        <ele>1023.65</ele>
        <time>2017-09-23T14:56:00Z</time>
      </trkpt>
      <trkpt lat="48.03476" lon="6.97647">
        <ele>1020.51</ele>
        <time>2017-09-23T14:56:07Z</time>
      </trkpt>
      <trkpt lat="48.0348" lon="6.97643">
        <ele>1018.82</ele>
        <time>2017-09-23T14:56:09Z</time>
      </trkpt>
      <trkpt lat="48.03494" lon="6.97619">
        <ele>1015.63</ele>
        <time>2017-09-23T14:56:17Z</time>
      </trkpt>
      <trkpt lat="48.03499" lon="6.97613">
        <ele>1014.15</ele>
        <time>2017-09-23T14:56:19Z</time>
      </trkpt>
      <trkpt lat="48.03504" lon="6.97601">
        <ele>1012.67</ele>
        <time>2017-09-23T14:56:22Z</time>
      </trkpt>
      <trkpt lat="48.03512" lon="6.97589">
        <ele>1009.85</ele>
        <time>2017-09-23T14:56:26Z</time>
      </trkpt>
      <trkpt lat="48.03516" lon="6.97581">
        <ele>1008.37</ele>
        <time>2017-09-23T14:56:29Z</time>
      </trkpt>
      <trkpt lat="48.03525" lon="6.97567">
        <ele>1004.99</ele>
        <time>2017-09-23T14:56:35Z</time>
      </trkpt>
      <trkpt lat="48.03527" lon="6.97566">
        <ele>1004.91</ele>
        <time>2017-09-23T14:56:36Z</time>
      </trkpt>
      <trkpt lat="48.03532" lon="6.97565">
        <ele>1004.53</ele>
        <time>2017-09-23T14:56:48Z</time>
      </trkpt>
      <trkpt lat="48.03535" lon="6.97562">
        <ele>1004.49</ele>
        <time>2017-09-23T14:57:00Z</time>
      </trkpt>
      <trkpt lat="48.03537" lon="6.97561">
        <ele>1004.06</ele>
        <time>2017-09-23T14:57:01Z</time>
      </trkpt>
      <trkpt lat="48.03539" lon="6.9756">
        <ele>1003.71</ele>
        <time>2017-09-23T14:57:02Z</time>
      </trkpt>
      <trkpt lat="48.03542" lon="6.97558">
        <ele>1003.25</ele>
        <time>2017-09-23T14:57:03Z</time>
      </trkpt>
      <trkpt lat="48.03544" lon="6.97558">
        <ele>1002.24</ele>
        <time>2017-09-23T14:57:04Z</time>
      </trkpt>
      <trkpt lat="48.03547" lon="6.97558">
        <ele>1002.3</ele>
        <time>2017-09-23T14:57:05Z</time>
      </trkpt>
      <trkpt lat="48.03549" lon="6.97559">
        <ele>1001.92</ele>
        <time>2017-09-23T14:57:06Z</time>
      </trkpt>
      <trkpt lat="48.03552" lon="6.9756">
        <ele>1001.05</ele>
        <time>2017-09-23T14:57:07Z</time>
      </trkpt>
      <trkpt lat="48.03571" lon="6.97558">
        <ele>997.43</ele>
        <time>2017-09-23T14:57:13Z</time>
      </trkpt>
      <trkpt lat="48.0359" lon="6.97564">
        <ele>994.09</ele>
        <time>2017-09-23T14:57:19Z</time>
      </trkpt>
      <trkpt lat="48.03598" lon="6.97565">
        <ele>992.19</ele>
        <time>2017-09-23T14:57:22Z</time>
      </trkpt>
      <trkpt lat="48.03619" lon="6.97571">
        <ele>988.69</ele>
        <time>2017-09-23T14:57:30Z</time>
      </trkpt>
      <trkpt lat="48.03624" lon="6.9757">
        <ele>988.6</ele>
        <time>2017-09-23T14:57:43Z</time>
      </trkpt>
      <trkpt lat="48.03626" lon="6.9757">
        <ele>989</ele>
        <time>2017-09-23T14:57:46Z</time>
      </trkpt>
      <trkpt lat="48.03628" lon="6.9757">
        <ele>987.9</ele>
        <time>2017-09-23T14:57:47Z</time>
      </trkpt>
      <trkpt lat="48.0363" lon="6.97569">
        <ele>988.34</ele>
        <time>2017-09-23T14:57:48Z</time>
      </trkpt>
      <trkpt lat="48.03633" lon="6.97569">
        <ele>987.66</ele>
        <time>2017-09-23T14:57:49Z</time>
      </trkpt>
      <trkpt lat="48.03636" lon="6.97569">
        <ele>987.49</ele>
        <time>2017-09-23T14:57:50Z</time>
      </trkpt>
      <trkpt lat="48.03653" lon="6.97571">
        <ele>983.85</ele>
        <time>2017-09-23T14:57:56Z</time>
      </trkpt>
      <trkpt lat="48.03668" lon="6.9757">
        <ele>980.59</ele>
        <time>2017-09-23T14:58:03Z</time>
      </trkpt>
      <trkpt lat="48.03669" lon="6.97569">
        <ele>980.32</ele>
        <time>2017-09-23T14:58:04Z</time>
      </trkpt>
      <trkpt lat="48.03695" lon="6.97572">
        <ele>977.2</ele>
        <time>2017-09-23T14:58:13Z</time>
      </trkpt>
      <trkpt lat="48.03713" lon="6.97572">
        <ele>973.98</ele>
        <time>2017-09-23T14:58:17Z</time>
      </trkpt>
      <trkpt lat="48.03718" lon="6.97573">
        <ele>972.74</ele>
        <time>2017-09-23T14:58:18Z</time>
      </trkpt>
      <trkpt lat="48.03723" lon="6.97575">
        <ele>972.4</ele>
        <time>2017-09-23T14:58:19Z</time>
      </trkpt>
      <trkpt lat="48.03738" lon="6.97583">
        <ele>970.64</ele>
        <time>2017-09-23T14:58:22Z</time>
      </trkpt>
      <trkpt lat="48.03743" lon="6.97586">
        <ele>969.17</ele>
        <time>2017-09-23T14:58:23Z</time>
      </trkpt>
      <trkpt lat="48.03748" lon="6.97587">
        <ele>969.37</ele>
        <time>2017-09-23T14:58:24Z</time>
      </trkpt>
      <trkpt lat="48.03759" lon="6.97588">
        <ele>967.8</ele>
        <time>2017-09-23T14:58:26Z</time>
      </trkpt>
      <trkpt lat="48.03764" lon="6.97587">
        <ele>967.2</ele>
        <time>2017-09-23T14:58:27Z</time>
      </trkpt>
      <trkpt lat="48.03768" lon="6.97587">
        <ele>967.17</ele>
        <time>2017-09-23T14:58:28Z</time>
      </trkpt>
      <trkpt lat="48.03772" lon="6.97586">
        <ele>966.79</ele>
        <time>2017-09-23T14:58:29Z</time>
      </trkpt>
      <trkpt lat="48.03776" lon="6.97587">
        <ele>965.98</ele>
        <time>2017-09-23T14:58:30Z</time>
      </trkpt>
      <trkpt lat="48.0378" lon="6.97587">
        <ele>966.22</ele>
        <time>2017-09-23T14:58:31Z</time>
      </trkpt>
      <trkpt lat="48.03807" lon="6.97589">
        <ele>962.75</ele>
        <time>2017-09-23T14:58:37Z</time>
      </trkpt>
      <trkpt lat="48.03812" lon="6.9759">
        <ele>961.58</ele>
        <time>2017-09-23T14:58:38Z</time>
      </trkpt>
      <trkpt lat="48.03817" lon="6.97592">
        <ele>960.43</ele>
        <time>2017-09-23T14:58:39Z</time>
      </trkpt>
      <trkpt lat="48.03822" lon="6.97595">
        <ele>960.15</ele>
        <time>2017-09-23T14:58:40Z</time>
      </trkpt>
      <trkpt lat="48.03826" lon="6.97597">
        <ele>959.22</ele>
        <time>2017-09-23T14:58:41Z</time>
      </trkpt>
      <trkpt lat="48.03831" lon="6.97599">
        <ele>958.95</ele>
        <time>2017-09-23T14:58:42Z</time>
      </trkpt>
      <trkpt lat="48.03851" lon="6.97593">
        <ele>955.15</ele>
        <time>2017-09-23T14:58:46Z</time>
      </trkpt>
      <trkpt lat="48.03863" lon="6.97582">
        <ele>953.56</ele>
        <time>2017-09-23T14:58:48Z</time>
      </trkpt>
      <trkpt lat="48.03889" lon="6.97561">
        <ele>949.42</ele>
        <time>2017-09-23T14:58:52Z</time>
      </trkpt>
      <trkpt lat="48.03904" lon="6.9755">
        <ele>945.73</ele>
        <time>2017-09-23T14:58:54Z</time>
      </trkpt>
      <trkpt lat="48.03919" lon="6.97539">
        <ele>941.95</ele>
        <time>2017-09-23T14:58:56Z</time>
      </trkpt>
      <trkpt lat="48.03931" lon="6.97529">
        <ele>938.74</ele>
        <time>2017-09-23T14:58:58Z</time>
      </trkpt>
      <trkpt lat="48.03943" lon="6.97518">
        <ele>935.55</ele>
        <time>2017-09-23T14:59:00Z</time>
      </trkpt>
      <trkpt lat="48.03953" lon="6.97506">
        <ele>933.38</ele>
        <time>2017-09-23T14:59:02Z</time>
      </trkpt>
      <trkpt lat="48.03965" lon="6.97482">
        <ele>929.71</ele>
        <time>2017-09-23T14:59:06Z</time>
      </trkpt>
      <trkpt lat="48.03974" lon="6.97461">
        <ele>927.6</ele>
        <time>2017-09-23T14:59:09Z</time>
      </trkpt>
      <trkpt lat="48.03976" lon="6.97452">
        <ele>928.18</ele>
        <time>2017-09-23T14:59:10Z</time>
      </trkpt>
      <trkpt lat="48.03977" lon="6.97443">
        <ele>927.84</ele>
        <time>2017-09-23T14:59:11Z</time>
      </trkpt>
      <trkpt lat="48.03977" lon="6.97434">
        <ele>926.92</ele>
        <time>2017-09-23T14:59:12Z</time>
      </trkpt>
      <trkpt lat="48.03976" lon="6.97426">
        <ele>927.86</ele>
        <time>2017-09-23T14:59:13Z</time>
      </trkpt>
      <trkpt lat="48.03975" lon="6.97419">
        <ele>926.95</ele>
        <time>2017-09-23T14:59:14Z</time>
      </trkpt>
      <trkpt lat="48.03973" lon="6.97413">
        <ele>927.48</ele>
        <time>2017-09-23T14:59:15Z</time>
      </trkpt>
      <trkpt lat="48.0397" lon="6.97408">
        <ele>926.85</ele>
        <time>2017-09-23T14:59:16Z</time>
      </trkpt>
      <trkpt lat="48.03964" lon="6.97396">
        <ele>926.81</ele>
        <time>2017-09-23T14:59:18Z</time>
      </trkpt>
      <trkpt lat="48.0396" lon="6.97392">
        <ele>927.06</ele>
        <time>2017-09-23T14:59:19Z</time>
      </trkpt>
      <trkpt lat="48.03956" lon="6.97388">
        <ele>926.34</ele>
        <time>2017-09-23T14:59:20Z</time>
      </trkpt>
      <trkpt lat="48.03952" lon="6.97385">
        <ele>926.17</ele>
        <time>2017-09-23T14:59:21Z</time>
      </trkpt>
      <trkpt lat="48.03948" lon="6.9738">
        <ele>926.12</ele>
        <time>2017-09-23T14:59:22Z</time>
      </trkpt>
      <trkpt lat="48.03944" lon="6.97373">
        <ele>925.92</ele>
        <time>2017-09-23T14:59:23Z</time>
      </trkpt>
      <trkpt lat="48.03942" lon="6.97367">
        <ele>926.08</ele>
        <time>2017-09-23T14:59:24Z</time>
      </trkpt>
      <trkpt lat="48.03938" lon="6.9736">
        <ele>925.48</ele>
        <time>2017-09-23T14:59:25Z</time>
      </trkpt>
      <trkpt lat="48.03933" lon="6.97355">
        <ele>925.42</ele>
        <time>2017-09-23T14:59:26Z</time>
      </trkpt>
      <trkpt lat="48.03928" lon="6.9735">
        <ele>925.01</ele>
        <time>2017-09-23T14:59:27Z</time>
      </trkpt>
      <trkpt lat="48.03923" lon="6.97345">
        <ele>925.46</ele>
        <time>2017-09-23T14:59:28Z</time>
      </trkpt>
      <trkpt lat="48.03918" lon="6.9734">
        <ele>924.14</ele>
        <time>2017-09-23T14:59:29Z</time>
      </trkpt>
      <trkpt lat="48.03899" lon="6.97323">
        <ele>923.5</ele>
        <time>2017-09-23T14:59:32Z</time>
      </trkpt>
      <trkpt lat="48.03893" lon="6.97318">
        <ele>922.38</ele>
        <time>2017-09-23T14:59:33Z</time>
      </trkpt>
      <trkpt lat="48.03885" lon="6.97315">
        <ele>922.51</ele>
        <time>2017-09-23T14:59:34Z</time>
      </trkpt>
      <trkpt lat="48.03877" lon="6.97314">
        <ele>922.58</ele>
        <time>2017-09-23T14:59:35Z</time>
      </trkpt>
      <trkpt lat="48.03868" lon="6.97314">
        <ele>922.05</ele>
        <time>2017-09-23T14:59:36Z</time>
      </trkpt>
      <trkpt lat="48.03827" lon="6.97312">
        <ele>920.62</ele>
        <time>2017-09-23T14:59:42Z</time>
      </trkpt>
      <trkpt lat="48.03817" lon="6.97296">
        <ele>920.07</ele>
        <time>2017-09-23T14:59:46Z</time>
      </trkpt>
      <trkpt lat="48.03815" lon="6.97268">
        <ele>918.69</ele>
        <time>2017-09-23T14:59:50Z</time>
      </trkpt>
      <trkpt lat="48.03806" lon="6.97227">
        <ele>916.03</ele>
        <time>2017-09-23T14:59:55Z</time>
      </trkpt>
      <trkpt lat="48.03796" lon="6.97197">
        <ele>912.78</ele>
        <time>2017-09-23T14:59:59Z</time>
      </trkpt>
      <trkpt lat="48.03792" lon="6.97192">
        <ele>913.2</ele>
        <time>2017-09-23T15:00:00Z</time>
      </trkpt>
      <trkpt lat="48.03788" lon="6.97188">
        <ele>913.28</ele>
        <time>2017-09-23T15:00:01Z</time>
      </trkpt>
      <trkpt lat="48.03783" lon="6.97185">
        <ele>912.54</ele>
        <time>2017-09-23T15:00:02Z</time>
      </trkpt>
      <trkpt lat="48.03778" lon="6.97183">
        <ele>912.63</ele>
        <time>2017-09-23T15:00:03Z</time>
      </trkpt>
      <trkpt lat="48.03773" lon="6.97182">
        <ele>912.05</ele>
        <time>2017-09-23T15:00:04Z</time>
      </trkpt>
      <trkpt lat="48.03769" lon="6.97182">
        <ele>912.08</ele>
        <time>2017-09-23T15:00:05Z</time>
      </trkpt>
      <trkpt lat="48.03764" lon="6.97183">
        <ele>912.22</ele>
        <time>2017-09-23T15:00:06Z</time>
      </trkpt>
      <trkpt lat="48.0376" lon="6.97182">
        <ele>912.03</ele>
        <time>2017-09-23T15:00:07Z</time>
      </trkpt>
      <trkpt lat="48.03757" lon="6.97179">
        <ele>912.25</ele>
        <time>2017-09-23T15:00:08Z</time>
      </trkpt>
      <trkpt lat="48.03754" lon="6.97176">
        <ele>912.2</ele>
        <time>2017-09-23T15:00:09Z</time>
      </trkpt>
      <trkpt lat="48.0375" lon="6.97172">
        <ele>912.09</ele>
        <time>2017-09-23T15:00:10Z</time>
      </trkpt>
      <trkpt lat="48.03743" lon="6.97165">
        <ele>912.31</ele>
        <time>2017-09-23T15:00:12Z</time>
      </trkpt>
      <trkpt lat="48.0374" lon="6.97163">
        <ele>912.13</ele>
        <time>2017-09-23T15:00:13Z</time>
      </trkpt>
      <trkpt lat="48.03736" lon="6.97161">
        <ele>912.34</ele>
        <time>2017-09-23T15:00:14Z</time>
      </trkpt>
      <trkpt lat="48.03696" lon="6.97141">
        <ele>911.79</ele>
        <time>2017-09-23T15:00:27Z</time>
      </trkpt>
      <trkpt lat="48.03681" lon="6.97097">
        <ele>911.41</ele>
        <time>2017-09-23T15:00:37Z</time>
      </trkpt>
      <trkpt lat="48.03661" lon="6.97048">
        <ele>912.19</ele>
        <time>2017-09-23T15:00:48Z</time>
      </trkpt>
      <trkpt lat="48.03655" lon="6.97003">
        <ele>911.55</ele>
        <time>2017-09-23T15:01:01Z</time>
      </trkpt>
      <trkpt lat="48.03655" lon="6.97002">
        <ele>911.76</ele>
        <time>2017-09-23T15:01:02Z</time>
      </trkpt>
      <trkpt lat="48.03648" lon="6.96987">
        <ele>910.95</ele>
        <time>2017-09-23T15:01:07Z</time>
      </trkpt>
      <trkpt lat="48.03628" lon="6.96957">
        <ele>908.93</ele>
        <time>2017-09-23T15:01:12Z</time>
      </trkpt>
      <trkpt lat="48.036" lon="6.96918">
        <ele>905.69</ele>
        <time>2017-09-23T15:01:17Z</time>
      </trkpt>
      <trkpt lat="48.03573" lon="6.96864">
        <ele>901.78</ele>
        <time>2017-09-23T15:01:22Z</time>
      </trkpt>
      <trkpt lat="48.03557" lon="6.96826">
        <ele>900.25</ele>
        <time>2017-09-23T15:01:25Z</time>
      </trkpt>
      <trkpt lat="48.03527" lon="6.96749">
        <ele>896.74</ele>
        <time>2017-09-23T15:01:31Z</time>
      </trkpt>
      <trkpt lat="48.03506" lon="6.96698">
        <ele>893.44</ele>
        <time>2017-09-23T15:01:35Z</time>
      </trkpt>
      <trkpt lat="48.03496" lon="6.96676">
        <ele>892.76</ele>
        <time>2017-09-23T15:01:37Z</time>
      </trkpt>
      <trkpt lat="48.03479" lon="6.96636">
        <ele>889.52</ele>
        <time>2017-09-23T15:01:41Z</time>
      </trkpt>
      <trkpt lat="48.03464" lon="6.9659">
        <ele>887.01</ele>
        <time>2017-09-23T15:01:47Z</time>
      </trkpt>
      <trkpt lat="48.03461" lon="6.9658">
        <ele>885.69</ele>
        <time>2017-09-23T15:01:49Z</time>
      </trkpt>
      <trkpt lat="48.0346" lon="6.96575">
        <ele>885.42</ele>
        <time>2017-09-23T15:01:50Z</time>
      </trkpt>
      <trkpt lat="48.0347" lon="6.96562">
        <ele>882.95</ele>
        <time>2017-09-23T15:01:54Z</time>
      </trkpt>
      <trkpt lat="48.03475" lon="6.96561">
        <ele>882.68</ele>
        <time>2017-09-23T15:01:55Z</time>
      </trkpt>
      <trkpt lat="48.0351" lon="6.9655">
        <ele>879.96</ele>
        <time>2017-09-23T15:02:02Z</time>
      </trkpt>
      <trkpt lat="48.03535" lon="6.96534">
        <ele>879.03</ele>
        <time>2017-09-23T15:02:09Z</time>
      </trkpt>
      <trkpt lat="48.03548" lon="6.96522">
        <ele>879.26</ele>
        <time>2017-09-23T15:02:13Z</time>
      </trkpt>
      <trkpt lat="48.03537" lon="6.96498">
        <ele>878.71</ele>
        <time>2017-09-23T15:02:19Z</time>
      </trkpt>
      <trkpt lat="48.03514" lon="6.96489">
        <ele>878.37</ele>
        <time>2017-09-23T15:02:24Z</time>
      </trkpt>
      <trkpt lat="48.03482" lon="6.96473">
        <ele>877.04</ele>
        <time>2017-09-23T15:02:31Z</time>
      </trkpt>
      <trkpt lat="48.03472" lon="6.9647">
        <ele>876.96</ele>
        <time>2017-09-23T15:02:34Z</time>
      </trkpt>
      <trkpt lat="48.03473" lon="6.96459">
        <ele>876.45</ele>
        <time>2017-09-23T15:02:38Z</time>
      </trkpt>
      <trkpt lat="48.03477" lon="6.96457">
        <ele>876.39</ele>
        <time>2017-09-23T15:02:39Z</time>
      </trkpt>
      <trkpt lat="48.03481" lon="6.96454">
        <ele>876.32</ele>
        <time>2017-09-23T15:02:40Z</time>
      </trkpt>
      <trkpt lat="48.03496" lon="6.96446">
        <ele>876.05</ele>
        <time>2017-09-23T15:02:43Z</time>
      </trkpt>
      <trkpt lat="48.03524" lon="6.96424">
        <ele>878.95</ele>
        <time>2017-09-23T15:02:50Z</time>
      </trkpt>
      <trkpt lat="48.03532" lon="6.96412">
        <ele>880.6</ele>
        <time>2017-09-23T15:02:53Z</time>
      </trkpt>
      <trkpt lat="48.03533" lon="6.96407">
        <ele>880.9</ele>
        <time>2017-09-23T15:02:54Z</time>
      </trkpt>
      <trkpt lat="48.03532" lon="6.96401">
        <ele>881.39</ele>
        <time>2017-09-23T15:02:55Z</time>
      </trkpt>
      <trkpt lat="48.03532" lon="6.96395">
        <ele>881.17</ele>
        <time>2017-09-23T15:02:56Z</time>
      </trkpt>
      <trkpt lat="48.0353" lon="6.96389">
        <ele>881.57</ele>
        <time>2017-09-23T15:02:57Z</time>
      </trkpt>
      <trkpt lat="48.03529" lon="6.96383">
        <ele>881.5</ele>
        <time>2017-09-23T15:02:58Z</time>
      </trkpt>
      <trkpt lat="48.03505" lon="6.96274">
        <ele>884.22</ele>
        <time>2017-09-23T15:03:16Z</time>
      </trkpt>
      <trkpt lat="48.03501" lon="6.96228">
        <ele>887.3</ele>
        <time>2017-09-23T15:03:25Z</time>
      </trkpt>
      <trkpt lat="48.03496" lon="6.96196">
        <ele>890.32</ele>
        <time>2017-09-23T15:03:32Z</time>
      </trkpt>
      <trkpt lat="48.03494" lon="6.9618">
        <ele>892.09</ele>
        <time>2017-09-23T15:03:36Z</time>
      </trkpt>
      <trkpt lat="48.03491" lon="6.96167">
        <ele>893.32</ele>
        <time>2017-09-23T15:03:39Z</time>
      </trkpt>
      <trkpt lat="48.03487" lon="6.96137">
        <ele>896.54</ele>
        <time>2017-09-23T15:03:46Z</time>
      </trkpt>
      <trkpt lat="48.03484" lon="6.96118">
        <ele>898.9</ele>
        <time>2017-09-23T15:03:51Z</time>
      </trkpt>
      <trkpt lat="48.03472" lon="6.96075">
        <ele>901.93</ele>
        <time>2017-09-23T15:04:01Z</time>
      </trkpt>
      <trkpt lat="48.03459" lon="6.96043">
        <ele>905.28</ele>
        <time>2017-09-23T15:04:10Z</time>
      </trkpt>
      <trkpt lat="48.03446" lon="6.96016">
        <ele>907.74</ele>
        <time>2017-09-23T15:04:18Z</time>
      </trkpt>
      <trkpt lat="48.03424" lon="6.95974">
        <ele>908.89</ele>
        <time>2017-09-23T15:04:30Z</time>
      </trkpt>
      <trkpt lat="48.03387" lon="6.95913">
        <ele>911.72</ele>
        <time>2017-09-23T15:04:46Z</time>
      </trkpt>
      <trkpt lat="48.03379" lon="6.959">
        <ele>911.61</ele>
        <time>2017-09-23T15:04:49Z</time>
      </trkpt>
      <trkpt lat="48.03334" lon="6.95813">
        <ele>909.38</ele>
        <time>2017-09-23T15:05:02Z</time>
      </trkpt>
      <trkpt lat="48.03331" lon="6.95806">
        <ele>909.68</ele>
        <time>2017-09-23T15:05:03Z</time>
      </trkpt>
      <trkpt lat="48.03295" lon="6.95715">
        <ele>910.9</ele>
        <time>2017-09-23T15:05:18Z</time>
      </trkpt>
      <trkpt lat="48.03272" lon="6.95689">
        <ele>910.05</ele>
        <time>2017-09-23T15:05:29Z</time>
      </trkpt>
      <trkpt lat="48.03269" lon="6.95689">
        <ele>907</ele>
        <time>2017-09-23T15:05:33Z</time>
      </trkpt>
      <trkpt lat="48.03269" lon="6.9569">
        <ele>910.17</ele>
        <time>2017-09-23T15:05:38Z</time>
      </trkpt>
      <trkpt lat="48.03269" lon="6.95691">
        <ele>905.49</ele>
        <time>2017-09-23T15:05:44Z</time>
      </trkpt>
      <trkpt lat="48.03268" lon="6.95691">
        <ele>913.51</ele>
        <time>2017-09-23T15:05:45Z</time>
      </trkpt>
      <trkpt lat="48.03266" lon="6.9569">
        <ele>909.77</ele>
        <time>2017-09-23T15:05:47Z</time>
      </trkpt>
      <trkpt lat="48.03265" lon="6.95688">
        <ele>910.49</ele>
        <time>2017-09-23T15:05:48Z</time>
      </trkpt>
      <trkpt lat="48.03243" lon="6.95639">
        <ele>913.53</ele>
        <time>2017-09-23T15:06:01Z</time>
      </trkpt>
      <trkpt lat="48.03223" lon="6.95572">
        <ele>916.04</ele>
        <time>2017-09-23T15:06:14Z</time>
      </trkpt>
      <trkpt lat="48.03205" lon="6.95512">
        <ele>917.81</ele>
        <time>2017-09-23T15:06:26Z</time>
      </trkpt>
      <trkpt lat="48.03182" lon="6.9547">
        <ele>919.54</ele>
        <time>2017-09-23T15:06:39Z</time>
      </trkpt>
      <trkpt lat="48.03183" lon="6.95461">
        <ele>919.6</ele>
        <time>2017-09-23T15:06:54Z</time>
      </trkpt>
      <trkpt lat="48.03182" lon="6.95462">
        <ele>919.55</ele>
        <time>2017-09-23T15:06:58Z</time>
      </trkpt>
      <trkpt lat="48.03183" lon="6.95469">
        <ele>919.51</ele>
        <time>2017-09-23T15:07:01Z</time>
      </trkpt>
      <trkpt lat="48.03183" lon="6.95472">
        <ele>919.34</ele>
        <time>2017-09-23T15:07:02Z</time>
      </trkpt>
      <trkpt lat="48.03184" lon="6.95475">
        <ele>919.41</ele>
        <time>2017-09-23T15:07:03Z</time>
      </trkpt>
      <trkpt lat="48.03185" lon="6.95479">
        <ele>919.21</ele>
        <time>2017-09-23T15:07:04Z</time>
      </trkpt>
      <trkpt lat="48.03207" lon="6.95531">
        <ele>917.51</ele>
        <time>2017-09-23T15:07:14Z</time>
      </trkpt>
      <trkpt lat="48.03209" lon="6.95539">
        <ele>917.58</ele>
        <time>2017-09-23T15:07:15Z</time>
      </trkpt>
      <trkpt lat="48.0324" lon="6.95641">
        <ele>914</ele>
        <time>2017-09-23T15:07:26Z</time>
      </trkpt>
      <trkpt lat="48.03245" lon="6.9565">
        <ele>913.47</ele>
        <time>2017-09-23T15:07:27Z</time>
      </trkpt>
      <trkpt lat="48.03262" lon="6.9568">
        <ele>911.12</ele>
        <time>2017-09-23T15:07:31Z</time>
      </trkpt>
      <trkpt lat="48.03265" lon="6.95686">
        <ele>910.75</ele>
        <time>2017-09-23T15:07:32Z</time>
      </trkpt>
      <trkpt lat="48.03267" lon="6.95693">
        <ele>909.85</ele>
        <time>2017-09-23T15:07:33Z</time>
      </trkpt>
      <trkpt lat="48.03268" lon="6.957">
        <ele>909.17</ele>
        <time>2017-09-23T15:07:34Z</time>
      </trkpt>
      <trkpt lat="48.03271" lon="6.95717">
        <ele>908.23</ele>
        <time>2017-09-23T15:07:36Z</time>
      </trkpt>
      <trkpt lat="48.03275" lon="6.95748">
        <ele>905.33</ele>
        <time>2017-09-23T15:07:39Z</time>
      </trkpt>
      <trkpt lat="48.03276" lon="6.95759">
        <ele>904.64</ele>
        <time>2017-09-23T15:07:40Z</time>
      </trkpt>
      <trkpt lat="48.03277" lon="6.95781">
        <ele>902.65</ele>
        <time>2017-09-23T15:07:42Z</time>
      </trkpt>
      <trkpt lat="48.03279" lon="6.95815">
        <ele>898.88</ele>
        <time>2017-09-23T15:07:45Z</time>
      </trkpt>
      <trkpt lat="48.03281" lon="6.95826">
        <ele>898.01</ele>
        <time>2017-09-23T15:07:46Z</time>
      </trkpt>
      <trkpt lat="48.03284" lon="6.95838">
        <ele>896.98</ele>
        <time>2017-09-23T15:07:47Z</time>
      </trkpt>
      <trkpt lat="48.03291" lon="6.9586">
        <ele>895.4</ele>
        <time>2017-09-23T15:07:49Z</time>
      </trkpt>
      <trkpt lat="48.03307" lon="6.95894">
        <ele>892.35</ele>
        <time>2017-09-23T15:07:52Z</time>
      </trkpt>
      <trkpt lat="48.03326" lon="6.95926">
        <ele>888.94</ele>
        <time>2017-09-23T15:07:55Z</time>
      </trkpt>
      <trkpt lat="48.0334" lon="6.95955">
        <ele>886.52</ele>
        <time>2017-09-23T15:07:58Z</time>
      </trkpt>
      <trkpt lat="48.03343" lon="6.95962">
        <ele>886.32</ele>
        <time>2017-09-23T15:07:59Z</time>
      </trkpt>
      <trkpt lat="48.03344" lon="6.95969">
        <ele>886.07</ele>
        <time>2017-09-23T15:08:00Z</time>
      </trkpt>
      <trkpt lat="48.03345" lon="6.95984">
        <ele>884.44</ele>
        <time>2017-09-23T15:08:03Z</time>
      </trkpt>
      <trkpt lat="48.03343" lon="6.95987">
        <ele>884.59</ele>
        <time>2017-09-23T15:08:04Z</time>
      </trkpt>
      <trkpt lat="48.0334" lon="6.95989">
        <ele>884.15</ele>
        <time>2017-09-23T15:08:05Z</time>
      </trkpt>
      <trkpt lat="48.03336" lon="6.9599">
        <ele>883.68</ele>
        <time>2017-09-23T15:08:06Z</time>
      </trkpt>
      <trkpt lat="48.03332" lon="6.95986">
        <ele>883.22</ele>
        <time>2017-09-23T15:08:07Z</time>
      </trkpt>
      <trkpt lat="48.03327" lon="6.95981">
        <ele>882.21</ele>
        <time>2017-09-23T15:08:08Z</time>
      </trkpt>
      <trkpt lat="48.03321" lon="6.95974">
        <ele>882.2</ele>
        <time>2017-09-23T15:08:09Z</time>
      </trkpt>
      <trkpt lat="48.03315" lon="6.95967">
        <ele>881.65</ele>
        <time>2017-09-23T15:08:10Z</time>
      </trkpt>
      <trkpt lat="48.03286" lon="6.95939">
        <ele>878.58</ele>
        <time>2017-09-23T15:08:14Z</time>
      </trkpt>
      <trkpt lat="48.03278" lon="6.95933">
        <ele>877.76</ele>
        <time>2017-09-23T15:08:15Z</time>
      </trkpt>
      <trkpt lat="48.03269" lon="6.95928">
        <ele>877.43</ele>
        <time>2017-09-23T15:08:16Z</time>
      </trkpt>
      <trkpt lat="48.0326" lon="6.95926">
        <ele>877.34</ele>
        <time>2017-09-23T15:08:17Z</time>
      </trkpt>
      <trkpt lat="48.03251" lon="6.95926">
        <ele>877.19</ele>
        <time>2017-09-23T15:08:18Z</time>
      </trkpt>
      <trkpt lat="48.03243" lon="6.95927">
        <ele>876.4</ele>
        <time>2017-09-23T15:08:19Z</time>
      </trkpt>
      <trkpt lat="48.03235" lon="6.95929">
        <ele>876.28</ele>
        <time>2017-09-23T15:08:20Z</time>
      </trkpt>
      <trkpt lat="48.03228" lon="6.95931">
        <ele>876.69</ele>
        <time>2017-09-23T15:08:21Z</time>
      </trkpt>
      <trkpt lat="48.03221" lon="6.9593">
        <ele>876.95</ele>
        <time>2017-09-23T15:08:22Z</time>
      </trkpt>
      <trkpt lat="48.03214" lon="6.95928">
        <ele>876.6</ele>
        <time>2017-09-23T15:08:23Z</time>
      </trkpt>
      <trkpt lat="48.03208" lon="6.95925">
        <ele>876.28</ele>
        <time>2017-09-23T15:08:24Z</time>
      </trkpt>
      <trkpt lat="48.03202" lon="6.95921">
        <ele>875.91</ele>
        <time>2017-09-23T15:08:25Z</time>
      </trkpt>
      <trkpt lat="48.0319" lon="6.95914">
        <ele>876.39</ele>
        <time>2017-09-23T15:08:27Z</time>
      </trkpt>
      <trkpt lat="48.03151" lon="6.95899">
        <ele>875.87</ele>
        <time>2017-09-23T15:08:35Z</time>
      </trkpt>
      <trkpt lat="48.03146" lon="6.95895">
        <ele>875.84</ele>
        <time>2017-09-23T15:08:36Z</time>
      </trkpt>
      <trkpt lat="48.0314" lon="6.9589">
        <ele>875.5</ele>
        <time>2017-09-23T15:08:37Z</time>
      </trkpt>
      <trkpt lat="48.03099" lon="6.95869">
        <ele>873.7</ele>
        <time>2017-09-23T15:08:44Z</time>
      </trkpt>
      <trkpt lat="48.03067" lon="6.95853">
        <ele>870.63</ele>
        <time>2017-09-23T15:08:49Z</time>
      </trkpt>
      <trkpt lat="48.03031" lon="6.95835">
        <ele>866.21</ele>
        <time>2017-09-23T15:08:56Z</time>
      </trkpt>
      <trkpt lat="48.03026" lon="6.95832">
        <ele>865.99</ele>
        <time>2017-09-23T15:08:57Z</time>
      </trkpt>
      <trkpt lat="48.02995" lon="6.95815">
        <ele>863.32</ele>
        <time>2017-09-23T15:09:02Z</time>
      </trkpt>
      <trkpt lat="48.02983" lon="6.95807">
        <ele>863.07</ele>
        <time>2017-09-23T15:09:04Z</time>
      </trkpt>
      <trkpt lat="48.02978" lon="6.95803">
        <ele>862.18</ele>
        <time>2017-09-23T15:09:05Z</time>
      </trkpt>
      <trkpt lat="48.02963" lon="6.95791">
        <ele>861.43</ele>
        <time>2017-09-23T15:09:08Z</time>
      </trkpt>
      <trkpt lat="48.02947" lon="6.95789">
        <ele>860.62</ele>
        <time>2017-09-23T15:09:11Z</time>
      </trkpt>
      <trkpt lat="48.02942" lon="6.9579">
        <ele>860.09</ele>
        <time>2017-09-23T15:09:12Z</time>
      </trkpt>
      <trkpt lat="48.02937" lon="6.95792">
        <ele>859.35</ele>
        <time>2017-09-23T15:09:13Z</time>
      </trkpt>
      <trkpt lat="48.02931" lon="6.95792">
        <ele>859.6</ele>
        <time>2017-09-23T15:09:14Z</time>
      </trkpt>
      <trkpt lat="48.02925" lon="6.95792">
        <ele>858.75</ele>
        <time>2017-09-23T15:09:15Z</time>
      </trkpt>
      <trkpt lat="48.0292" lon="6.95791">
        <ele>858.89</ele>
        <time>2017-09-23T15:09:16Z</time>
      </trkpt>
      <trkpt lat="48.02909" lon="6.95789">
        <ele>858.86</ele>
        <time>2017-09-23T15:09:18Z</time>
      </trkpt>
      <trkpt lat="48.02899" lon="6.95784">
        <ele>858.42</ele>
        <time>2017-09-23T15:09:20Z</time>
      </trkpt>
      <trkpt lat="48.02895" lon="6.95781">
        <ele>858.29</ele>
        <time>2017-09-23T15:09:21Z</time>
      </trkpt>
      <trkpt lat="48.02875" lon="6.95763">
        <ele>856.78</ele>
        <time>2017-09-23T15:09:26Z</time>
      </trkpt>
      <trkpt lat="48.02864" lon="6.95757">
        <ele>855.71</ele>
        <time>2017-09-23T15:09:28Z</time>
      </trkpt>
      <trkpt lat="48.02857" lon="6.95756">
        <ele>854.37</ele>
        <time>2017-09-23T15:09:29Z</time>
      </trkpt>
      <trkpt lat="48.0285" lon="6.95756">
        <ele>854.49</ele>
        <time>2017-09-23T15:09:30Z</time>
      </trkpt>
      <trkpt lat="48.02827" lon="6.95747">
        <ele>851.42</ele>
        <time>2017-09-23T15:09:35Z</time>
      </trkpt>
      <trkpt lat="48.02823" lon="6.95745">
        <ele>851.57</ele>
        <time>2017-09-23T15:09:36Z</time>
      </trkpt>
      <trkpt lat="48.02798" lon="6.95733">
        <ele>848.98</ele>
        <time>2017-09-23T15:09:47Z</time>
      </trkpt>
      <trkpt lat="48.02776" lon="6.95725">
        <ele>845.6</ele>
        <time>2017-09-23T15:09:55Z</time>
      </trkpt>
      <trkpt lat="48.02767" lon="6.95724">
        <ele>844.28</ele>
        <time>2017-09-23T15:09:57Z</time>
      </trkpt>
      <trkpt lat="48.02764" lon="6.95723">
        <ele>844.14</ele>
        <time>2017-09-23T15:09:58Z</time>
      </trkpt>
      <trkpt lat="48.0276" lon="6.95724">
        <ele>842.35</ele>
        <time>2017-09-23T15:09:59Z</time>
      </trkpt>
      <trkpt lat="48.02757" lon="6.95723">
        <ele>844.33</ele>
        <time>2017-09-23T15:10:00Z</time>
      </trkpt>
      <trkpt lat="48.02735" lon="6.95718">
        <ele>840.69</ele>
        <time>2017-09-23T15:10:07Z</time>
      </trkpt>
      <trkpt lat="48.02707" lon="6.95718">
        <ele>838.55</ele>
        <time>2017-09-23T15:10:14Z</time>
      </trkpt>
      <trkpt lat="48.02689" lon="6.95714">
        <ele>836.33</ele>
        <time>2017-09-23T15:10:18Z</time>
      </trkpt>
      <trkpt lat="48.02665" lon="6.95703">
        <ele>834.8</ele>
        <time>2017-09-23T15:10:24Z</time>
      </trkpt>
      <trkpt lat="48.02662" lon="6.95699">
        <ele>834.7</ele>
        <time>2017-09-23T15:10:25Z</time>
      </trkpt>
      <trkpt lat="48.0265" lon="6.95683">
        <ele>834.38</ele>
        <time>2017-09-23T15:10:29Z</time>
      </trkpt>
      <trkpt lat="48.02645" lon="6.95676">
        <ele>833.26</ele>
        <time>2017-09-23T15:10:31Z</time>
      </trkpt>
      <trkpt lat="48.02635" lon="6.95655">
        <ele>832.37</ele>
        <time>2017-09-23T15:10:35Z</time>
      </trkpt>
      <trkpt lat="48.02631" lon="6.9565">
        <ele>832.01</ele>
        <time>2017-09-23T15:10:36Z</time>
      </trkpt>
      <trkpt lat="48.02623" lon="6.9564">
        <ele>832.13</ele>
        <time>2017-09-23T15:10:38Z</time>
      </trkpt>
      <trkpt lat="48.02619" lon="6.95636">
        <ele>832.23</ele>
        <time>2017-09-23T15:10:39Z</time>
      </trkpt>
      <trkpt lat="48.02615" lon="6.95633">
        <ele>832.3</ele>
        <time>2017-09-23T15:10:40Z</time>
      </trkpt>
      <trkpt lat="48.02589" lon="6.95607">
        <ele>832.43</ele>
        <time>2017-09-23T15:10:50Z</time>
      </trkpt>
      <trkpt lat="48.02584" lon="6.95578">
        <ele>832.36</ele>
        <time>2017-09-23T15:10:55Z</time>
      </trkpt>
      <trkpt lat="48.02587" lon="6.95526">
        <ele>829.46</ele>
        <time>2017-09-23T15:11:02Z</time>
      </trkpt>
      <trkpt lat="48.02586" lon="6.95518">
        <ele>829.16</ele>
        <time>2017-09-23T15:11:03Z</time>
      </trkpt>
      <trkpt lat="48.02585" lon="6.9551">
        <ele>828.35</ele>
        <time>2017-09-23T15:11:04Z</time>
      </trkpt>
      <trkpt lat="48.02581" lon="6.95495">
        <ele>827.57</ele>
        <time>2017-09-23T15:11:06Z</time>
      </trkpt>
      <trkpt lat="48.02575" lon="6.9548">
        <ele>826.63</ele>
        <time>2017-09-23T15:11:08Z</time>
      </trkpt>
      <trkpt lat="48.02564" lon="6.95467">
        <ele>825.7</ele>
        <time>2017-09-23T15:11:10Z</time>
      </trkpt>
      <trkpt lat="48.02535" lon="6.95435">
        <ele>823.96</ele>
        <time>2017-09-23T15:11:15Z</time>
      </trkpt>
      <trkpt lat="48.02519" lon="6.95418">
        <ele>822.62</ele>
        <time>2017-09-23T15:11:18Z</time>
      </trkpt>
      <trkpt lat="48.02505" lon="6.95403">
        <ele>821.56</ele>
        <time>2017-09-23T15:11:21Z</time>
      </trkpt>
      <trkpt lat="48.025" lon="6.95397">
        <ele>820.41</ele>
        <time>2017-09-23T15:11:22Z</time>
      </trkpt>
      <trkpt lat="48.02481" lon="6.95358">
        <ele>819.88</ele>
        <time>2017-09-23T15:11:27Z</time>
      </trkpt>
      <trkpt lat="48.02471" lon="6.95333">
        <ele>818.48</ele>
        <time>2017-09-23T15:11:30Z</time>
      </trkpt>
      <trkpt lat="48.02468" lon="6.95326">
        <ele>818.85</ele>
        <time>2017-09-23T15:11:31Z</time>
      </trkpt>
      <trkpt lat="48.02464" lon="6.9532">
        <ele>817.61</ele>
        <time>2017-09-23T15:11:32Z</time>
      </trkpt>
      <trkpt lat="48.02454" lon="6.95306">
        <ele>817.57</ele>
        <time>2017-09-23T15:11:35Z</time>
      </trkpt>
      <trkpt lat="48.0245" lon="6.95302">
        <ele>817.56</ele>
        <time>2017-09-23T15:11:36Z</time>
      </trkpt>
      <trkpt lat="48.02446" lon="6.95299">
        <ele>817.46</ele>
        <time>2017-09-23T15:11:37Z</time>
      </trkpt>
      <trkpt lat="48.02442" lon="6.95298">
        <ele>816.36</ele>
        <time>2017-09-23T15:11:38Z</time>
      </trkpt>
      <trkpt lat="48.02437" lon="6.95297">
        <ele>816.26</ele>
        <time>2017-09-23T15:11:39Z</time>
      </trkpt>
      <trkpt lat="48.02432" lon="6.95296">
        <ele>816.59</ele>
        <time>2017-09-23T15:11:40Z</time>
      </trkpt>
      <trkpt lat="48.02426" lon="6.95296">
        <ele>816.08</ele>
        <time>2017-09-23T15:11:41Z</time>
      </trkpt>
      <trkpt lat="48.02421" lon="6.95297">
        <ele>815.21</ele>
        <time>2017-09-23T15:11:42Z</time>
      </trkpt>
      <trkpt lat="48.02415" lon="6.95299">
        <ele>815.16</ele>
        <time>2017-09-23T15:11:43Z</time>
      </trkpt>
      <trkpt lat="48.02398" lon="6.95305">
        <ele>814.4</ele>
        <time>2017-09-23T15:11:46Z</time>
      </trkpt>
      <trkpt lat="48.02392" lon="6.95305">
        <ele>813.97</ele>
        <time>2017-09-23T15:11:47Z</time>
      </trkpt>
      <trkpt lat="48.02386" lon="6.95305">
        <ele>813.8</ele>
        <time>2017-09-23T15:11:48Z</time>
      </trkpt>
      <trkpt lat="48.02347" lon="6.95292">
        <ele>812.36</ele>
        <time>2017-09-23T15:11:54Z</time>
      </trkpt>
      <trkpt lat="48.0234" lon="6.95288">
        <ele>811.86</ele>
        <time>2017-09-23T15:11:55Z</time>
      </trkpt>
      <trkpt lat="48.02314" lon="6.95272">
        <ele>810.18</ele>
        <time>2017-09-23T15:11:59Z</time>
      </trkpt>
      <trkpt lat="48.02271" lon="6.95257">
        <ele>807.74</ele>
        <time>2017-09-23T15:12:05Z</time>
      </trkpt>
      <trkpt lat="48.02264" lon="6.95253">
        <ele>808.3</ele>
        <time>2017-09-23T15:12:06Z</time>
      </trkpt>
      <trkpt lat="48.02257" lon="6.95247">
        <ele>807.14</ele>
        <time>2017-09-23T15:12:07Z</time>
      </trkpt>
      <trkpt lat="48.02212" lon="6.95208">
        <ele>804.97</ele>
        <time>2017-09-23T15:12:14Z</time>
      </trkpt>
      <trkpt lat="48.02206" lon="6.952">
        <ele>804.44</ele>
        <time>2017-09-23T15:12:15Z</time>
      </trkpt>
      <trkpt lat="48.0218" lon="6.95143">
        <ele>802.08</ele>
        <time>2017-09-23T15:12:21Z</time>
      </trkpt>
      <trkpt lat="48.02176" lon="6.95135">
        <ele>801.39</ele>
        <time>2017-09-23T15:12:22Z</time>
      </trkpt>
      <trkpt lat="48.02172" lon="6.9513">
        <ele>800.45</ele>
        <time>2017-09-23T15:12:23Z</time>
      </trkpt>
      <trkpt lat="48.02167" lon="6.95127">
        <ele>800.22</ele>
        <time>2017-09-23T15:12:24Z</time>
      </trkpt>
      <trkpt lat="48.02162" lon="6.95127">
        <ele>800.31</ele>
        <time>2017-09-23T15:12:25Z</time>
      </trkpt>
      <trkpt lat="48.02157" lon="6.95127">
        <ele>800.06</ele>
        <time>2017-09-23T15:12:26Z</time>
      </trkpt>
      <trkpt lat="48.02151" lon="6.95129">
        <ele>799.6</ele>
        <time>2017-09-23T15:12:27Z</time>
      </trkpt>
      <trkpt lat="48.02145" lon="6.95129">
        <ele>799.09</ele>
        <time>2017-09-23T15:12:28Z</time>
      </trkpt>
      <trkpt lat="48.02139" lon="6.95126">
        <ele>799.34</ele>
        <time>2017-09-23T15:12:29Z</time>
      </trkpt>
      <trkpt lat="48.02134" lon="6.9512">
        <ele>798.95</ele>
        <time>2017-09-23T15:12:30Z</time>
      </trkpt>
      <trkpt lat="48.0213" lon="6.95112">
        <ele>798.44</ele>
        <time>2017-09-23T15:12:31Z</time>
      </trkpt>
      <trkpt lat="48.02127" lon="6.95104">
        <ele>798.51</ele>
        <time>2017-09-23T15:12:32Z</time>
      </trkpt>
      <trkpt lat="48.0208" lon="6.95024">
        <ele>795.48</ele>
        <time>2017-09-23T15:12:42Z</time>
      </trkpt>
      <trkpt lat="48.02074" lon="6.95017">
        <ele>795.31</ele>
        <time>2017-09-23T15:12:43Z</time>
      </trkpt>
      <trkpt lat="48.02021" lon="6.94953">
        <ele>792.08</ele>
        <time>2017-09-23T15:12:51Z</time>
      </trkpt>
      <trkpt lat="48.01972" lon="6.9487">
        <ele>789.18</ele>
        <time>2017-09-23T15:12:59Z</time>
      </trkpt>
      <trkpt lat="48.01919" lon="6.94775">
        <ele>786.13</ele>
        <time>2017-09-23T15:13:09Z</time>
      </trkpt>
      <trkpt lat="48.01872" lon="6.94725">
        <ele>783.7</ele>
        <time>2017-09-23T15:13:16Z</time>
      </trkpt>
      <trkpt lat="48.01865" lon="6.94722">
        <ele>783.03</ele>
        <time>2017-09-23T15:13:17Z</time>
      </trkpt>
      <trkpt lat="48.01839" lon="6.94714">
        <ele>780.95</ele>
        <time>2017-09-23T15:13:24Z</time>
      </trkpt>
      <trkpt lat="48.01837" lon="6.94715">
        <ele>780.73</ele>
        <time>2017-09-23T15:13:25Z</time>
      </trkpt>
      <trkpt lat="48.01835" lon="6.94718">
        <ele>781.37</ele>
        <time>2017-09-23T15:13:26Z</time>
      </trkpt>
      <trkpt lat="48.01832" lon="6.94739">
        <ele>780.63</ele>
        <time>2017-09-23T15:13:33Z</time>
      </trkpt>
      <trkpt lat="48.01829" lon="6.9474">
        <ele>780.64</ele>
        <time>2017-09-23T15:13:34Z</time>
      </trkpt>
      <trkpt lat="48.01827" lon="6.94741">
        <ele>780.36</ele>
        <time>2017-09-23T15:13:35Z</time>
      </trkpt>
      <trkpt lat="48.01823" lon="6.94742">
        <ele>780.37</ele>
        <time>2017-09-23T15:13:36Z</time>
      </trkpt>
      <trkpt lat="48.01804" lon="6.94778">
        <ele>779.38</ele>
        <time>2017-09-23T15:13:46Z</time>
      </trkpt>
      <trkpt lat="48.01802" lon="6.94792">
        <ele>781.51</ele>
        <time>2017-09-23T15:13:49Z</time>
      </trkpt>
      <trkpt lat="48.01802" lon="6.94818">
        <ele>782.02</ele>
        <time>2017-09-23T15:13:54Z</time>
      </trkpt>
      <trkpt lat="48.01801" lon="6.94821">
        <ele>782.12</ele>
        <time>2017-09-23T15:13:55Z</time>
      </trkpt>
      <trkpt lat="48.01798" lon="6.94822">
        <ele>782.26</ele>
        <time>2017-09-23T15:13:56Z</time>
      </trkpt>
      <trkpt lat="48.01794" lon="6.94822">
        <ele>782.02</ele>
        <time>2017-09-23T15:13:57Z</time>
      </trkpt>
      <trkpt lat="48.0179" lon="6.94821">
        <ele>781.9</ele>
        <time>2017-09-23T15:13:58Z</time>
      </trkpt>
      <trkpt lat="48.01785" lon="6.94818">
        <ele>782.03</ele>
        <time>2017-09-23T15:13:59Z</time>
      </trkpt>
      <trkpt lat="48.0178" lon="6.94815">
        <ele>782.49</ele>
        <time>2017-09-23T15:14:00Z</time>
      </trkpt>
      <trkpt lat="48.01699" lon="6.94745">
        <ele>780.53</ele>
        <time>2017-09-23T15:14:15Z</time>
      </trkpt>
      <trkpt lat="48.01689" lon="6.94732">
        <ele>779.92</ele>
        <time>2017-09-23T15:14:17Z</time>
      </trkpt>
      <trkpt lat="48.01654" lon="6.947">
        <ele>779.03</ele>
        <time>2017-09-23T15:14:23Z</time>
      </trkpt>
      <trkpt lat="48.01634" lon="6.9468">
        <ele>777.67</ele>
        <time>2017-09-23T15:14:26Z</time>
      </trkpt>
      <trkpt lat="48.01535" lon="6.94588">
        <ele>775.29</ele>
        <time>2017-09-23T15:14:41Z</time>
      </trkpt>
      <trkpt lat="48.01453" lon="6.94529">
        <ele>775.57</ele>
        <time>2017-09-23T15:14:54Z</time>
      </trkpt>
      <trkpt lat="48.01436" lon="6.94516">
        <ele>775.54</ele>
        <time>2017-09-23T15:14:57Z</time>
      </trkpt>
      <trkpt lat="48.01432" lon="6.94511">
        <ele>775.31</ele>
        <time>2017-09-23T15:14:58Z</time>
      </trkpt>
      <trkpt lat="48.01428" lon="6.94507">
        <ele>774.86</ele>
        <time>2017-09-23T15:14:59Z</time>
      </trkpt>
      <trkpt lat="48.01425" lon="6.94502">
        <ele>773.8</ele>
        <time>2017-09-23T15:15:00Z</time>
      </trkpt>
      <trkpt lat="48.01422" lon="6.94497">
        <ele>772.95</ele>
        <time>2017-09-23T15:15:01Z</time>
      </trkpt>
      <trkpt lat="48.0142" lon="6.94494">
        <ele>772.9</ele>
        <time>2017-09-23T15:15:02Z</time>
      </trkpt>
      <trkpt lat="48.01417" lon="6.94492">
        <ele>772.25</ele>
        <time>2017-09-23T15:15:03Z</time>
      </trkpt>
      <trkpt lat="48.01413" lon="6.94492">
        <ele>772.69</ele>
        <time>2017-09-23T15:15:04Z</time>
      </trkpt>
      <trkpt lat="48.0141" lon="6.94494">
        <ele>772.75</ele>
        <time>2017-09-23T15:15:05Z</time>
      </trkpt>
      <trkpt lat="48.01408" lon="6.94498">
        <ele>772.58</ele>
        <time>2017-09-23T15:15:06Z</time>
      </trkpt>
      <trkpt lat="48.01406" lon="6.94501">
        <ele>773.24</ele>
        <time>2017-09-23T15:15:07Z</time>
      </trkpt>
      <trkpt lat="48.01403" lon="6.94504">
        <ele>773.44</ele>
        <time>2017-09-23T15:15:08Z</time>
      </trkpt>
      <trkpt lat="48.01399" lon="6.94505">
        <ele>773.13</ele>
        <time>2017-09-23T15:15:09Z</time>
      </trkpt>
      <trkpt lat="48.01374" lon="6.94504">
        <ele>776.33</ele>
        <time>2017-09-23T15:15:16Z</time>
      </trkpt>
      <trkpt lat="48.01334" lon="6.94508">
        <ele>778.56</ele>
        <time>2017-09-23T15:15:28Z</time>
      </trkpt>
      <trkpt lat="48.01291" lon="6.94478">
        <ele>779.61</ele>
        <time>2017-09-23T15:15:41Z</time>
      </trkpt>
      <trkpt lat="48.0126" lon="6.94444">
        <ele>777.41</ele>
        <time>2017-09-23T15:15:49Z</time>
      </trkpt>
      <trkpt lat="48.0124" lon="6.94409">
        <ele>774.25</ele>
        <time>2017-09-23T15:15:55Z</time>
      </trkpt>
      <trkpt lat="48.01234" lon="6.94398">
        <ele>773.56</ele>
        <time>2017-09-23T15:15:57Z</time>
      </trkpt>
      <trkpt lat="48.01215" lon="6.94364">
        <ele>771.87</ele>
        <time>2017-09-23T15:16:02Z</time>
      </trkpt>
      <trkpt lat="48.01193" lon="6.94336">
        <ele>770.93</ele>
        <time>2017-09-23T15:16:06Z</time>
      </trkpt>
      <trkpt lat="48.01187" lon="6.9433">
        <ele>770.42</ele>
        <time>2017-09-23T15:16:07Z</time>
      </trkpt>
      <trkpt lat="48.0118" lon="6.94326">
        <ele>770.06</ele>
        <time>2017-09-23T15:16:08Z</time>
      </trkpt>
      <trkpt lat="48.01172" lon="6.94324">
        <ele>769.58</ele>
        <time>2017-09-23T15:16:09Z</time>
      </trkpt>
      <trkpt lat="48.01165" lon="6.94322">
        <ele>769.89</ele>
        <time>2017-09-23T15:16:10Z</time>
      </trkpt>
      <trkpt lat="48.01136" lon="6.94313">
        <ele>769.75</ele>
        <time>2017-09-23T15:16:14Z</time>
      </trkpt>
      <trkpt lat="48.0113" lon="6.9431">
        <ele>769.96</ele>
        <time>2017-09-23T15:16:15Z</time>
      </trkpt>
      <trkpt lat="48.01124" lon="6.94305">
        <ele>770.16</ele>
        <time>2017-09-23T15:16:16Z</time>
      </trkpt>
      <trkpt lat="48.01112" lon="6.94292">
        <ele>768.71</ele>
        <time>2017-09-23T15:16:18Z</time>
      </trkpt>
      <trkpt lat="48.01107" lon="6.94284">
        <ele>768.37</ele>
        <time>2017-09-23T15:16:19Z</time>
      </trkpt>
      <trkpt lat="48.01097" lon="6.94266">
        <ele>767.11</ele>
        <time>2017-09-23T15:16:21Z</time>
      </trkpt>
      <trkpt lat="48.01092" lon="6.94256">
        <ele>766.44</ele>
        <time>2017-09-23T15:16:22Z</time>
      </trkpt>
      <trkpt lat="48.01089" lon="6.94245">
        <ele>766.01</ele>
        <time>2017-09-23T15:16:23Z</time>
      </trkpt>
      <trkpt lat="48.01078" lon="6.94201">
        <ele>762.75</ele>
        <time>2017-09-23T15:16:27Z</time>
      </trkpt>
      <trkpt lat="48.01068" lon="6.94162">
        <ele>759.57</ele>
        <time>2017-09-23T15:16:31Z</time>
      </trkpt>
      <trkpt lat="48.01061" lon="6.94134">
        <ele>757.25</ele>
        <time>2017-09-23T15:16:34Z</time>
      </trkpt>
      <trkpt lat="48.01061" lon="6.94125">
        <ele>756.45</ele>
        <time>2017-09-23T15:16:35Z</time>
      </trkpt>
      <trkpt lat="48.0106" lon="6.94117">
        <ele>756.29</ele>
        <time>2017-09-23T15:16:36Z</time>
      </trkpt>
      <trkpt lat="48.01059" lon="6.94109">
        <ele>755.92</ele>
        <time>2017-09-23T15:16:37Z</time>
      </trkpt>
      <trkpt lat="48.01056" lon="6.94102">
        <ele>755.7</ele>
        <time>2017-09-23T15:16:38Z</time>
      </trkpt>
      <trkpt lat="48.01053" lon="6.94094">
        <ele>755.94</ele>
        <time>2017-09-23T15:16:39Z</time>
      </trkpt>
      <trkpt lat="48.01048" lon="6.94088">
        <ele>754.7</ele>
        <time>2017-09-23T15:16:40Z</time>
      </trkpt>
      <trkpt lat="48.01043" lon="6.94082">
        <ele>754.73</ele>
        <time>2017-09-23T15:16:41Z</time>
      </trkpt>
      <trkpt lat="48.01038" lon="6.94076">
        <ele>755.03</ele>
        <time>2017-09-23T15:16:42Z</time>
      </trkpt>
      <trkpt lat="48.01029" lon="6.94062">
        <ele>754.25</ele>
        <time>2017-09-23T15:16:44Z</time>
      </trkpt>
      <trkpt lat="48.01002" lon="6.94025">
        <ele>752.16</ele>
        <time>2017-09-23T15:16:50Z</time>
      </trkpt>
      <trkpt lat="48.00997" lon="6.94023">
        <ele>751.8</ele>
        <time>2017-09-23T15:16:51Z</time>
      </trkpt>
      <trkpt lat="48.00993" lon="6.94022">
        <ele>753.1</ele>
        <time>2017-09-23T15:16:52Z</time>
      </trkpt>
      <trkpt lat="48.00989" lon="6.94021">
        <ele>752.41</ele>
        <time>2017-09-23T15:16:53Z</time>
      </trkpt>
      <trkpt lat="48.00985" lon="6.9402">
        <ele>751.65</ele>
        <time>2017-09-23T15:16:54Z</time>
      </trkpt>
      <trkpt lat="48.00982" lon="6.94018">
        <ele>752.02</ele>
        <time>2017-09-23T15:16:55Z</time>
      </trkpt>
      <trkpt lat="48.00978" lon="6.94016">
        <ele>751.73</ele>
        <time>2017-09-23T15:16:56Z</time>
      </trkpt>
      <trkpt lat="48.00975" lon="6.94013">
        <ele>751.98</ele>
        <time>2017-09-23T15:16:57Z</time>
      </trkpt>
      <trkpt lat="48.00963" lon="6.94003">
        <ele>751.43</ele>
        <time>2017-09-23T15:17:00Z</time>
      </trkpt>
      <trkpt lat="48.00918" lon="6.93961">
        <ele>751.01</ele>
        <time>2017-09-23T15:17:09Z</time>
      </trkpt>
      <trkpt lat="48.00913" lon="6.93954">
        <ele>750.16</ele>
        <time>2017-09-23T15:17:10Z</time>
      </trkpt>
      <trkpt lat="48.00909" lon="6.93947">
        <ele>750.57</ele>
        <time>2017-09-23T15:17:11Z</time>
      </trkpt>
      <trkpt lat="48.00905" lon="6.9394">
        <ele>749.82</ele>
        <time>2017-09-23T15:17:12Z</time>
      </trkpt>
      <trkpt lat="48.00901" lon="6.93932">
        <ele>749.81</ele>
        <time>2017-09-23T15:17:13Z</time>
      </trkpt>
      <trkpt lat="48.00898" lon="6.93924">
        <ele>749.44</ele>
        <time>2017-09-23T15:17:14Z</time>
      </trkpt>
      <trkpt lat="48.00895" lon="6.93916">
        <ele>749.11</ele>
        <time>2017-09-23T15:17:15Z</time>
      </trkpt>
      <trkpt lat="48.00883" lon="6.93872">
        <ele>748.84</ele>
        <time>2017-09-23T15:17:20Z</time>
      </trkpt>
      <trkpt lat="48.00879" lon="6.93864">
        <ele>748.68</ele>
        <time>2017-09-23T15:17:21Z</time>
      </trkpt>
      <trkpt lat="48.00875" lon="6.93858">
        <ele>748.58</ele>
        <time>2017-09-23T15:17:22Z</time>
      </trkpt>
      <trkpt lat="48.00857" lon="6.93836">
        <ele>747.68</ele>
        <time>2017-09-23T15:17:26Z</time>
      </trkpt>
      <trkpt lat="48.00808" lon="6.93791">
        <ele>747.35</ele>
        <time>2017-09-23T15:17:35Z</time>
      </trkpt>
      <trkpt lat="48.00776" lon="6.93768">
        <ele>745.69</ele>
        <time>2017-09-23T15:17:41Z</time>
      </trkpt>
      <trkpt lat="48.00762" lon="6.93751">
        <ele>745.15</ele>
        <time>2017-09-23T15:17:44Z</time>
      </trkpt>
      <trkpt lat="48.00757" lon="6.93748">
        <ele>745.1</ele>
        <time>2017-09-23T15:17:45Z</time>
      </trkpt>
      <trkpt lat="48.00752" lon="6.93746">
        <ele>745.1</ele>
        <time>2017-09-23T15:17:46Z</time>
      </trkpt>
      <trkpt lat="48.00746" lon="6.93745">
        <ele>744.62</ele>
        <time>2017-09-23T15:17:47Z</time>
      </trkpt>
      <trkpt lat="48.00741" lon="6.93747">
        <ele>744.78</ele>
        <time>2017-09-23T15:17:48Z</time>
      </trkpt>
      <trkpt lat="48.00735" lon="6.93751">
        <ele>744.86</ele>
        <time>2017-09-23T15:17:49Z</time>
      </trkpt>
      <trkpt lat="48.0073" lon="6.93756">
        <ele>745.56</ele>
        <time>2017-09-23T15:17:50Z</time>
      </trkpt>
      <trkpt lat="48.00725" lon="6.93761">
        <ele>744.92</ele>
        <time>2017-09-23T15:17:51Z</time>
      </trkpt>
      <trkpt lat="48.00701" lon="6.93791">
        <ele>744.69</ele>
        <time>2017-09-23T15:17:56Z</time>
      </trkpt>
      <trkpt lat="48.00697" lon="6.93799">
        <ele>744.4</ele>
        <time>2017-09-23T15:17:57Z</time>
      </trkpt>
      <trkpt lat="48.00658" lon="6.93897">
        <ele>744.46</ele>
        <time>2017-09-23T15:18:09Z</time>
      </trkpt>
      <trkpt lat="48.00655" lon="6.93904">
        <ele>745.27</ele>
        <time>2017-09-23T15:18:10Z</time>
      </trkpt>
      <trkpt lat="48.00651" lon="6.9391">
        <ele>744.67</ele>
        <time>2017-09-23T15:18:11Z</time>
      </trkpt>
      <trkpt lat="48.00647" lon="6.93913">
        <ele>744.51</ele>
        <time>2017-09-23T15:18:12Z</time>
      </trkpt>
      <trkpt lat="48.00641" lon="6.93914">
        <ele>744.56</ele>
        <time>2017-09-23T15:18:13Z</time>
      </trkpt>
      <trkpt lat="48.00636" lon="6.93914">
        <ele>744.58</ele>
        <time>2017-09-23T15:18:14Z</time>
      </trkpt>
      <trkpt lat="48.0063" lon="6.93913">
        <ele>744.72</ele>
        <time>2017-09-23T15:18:15Z</time>
      </trkpt>
      <trkpt lat="48.00624" lon="6.9391">
        <ele>744.45</ele>
        <time>2017-09-23T15:18:16Z</time>
      </trkpt>
      <trkpt lat="48.00619" lon="6.93905">
        <ele>744.54</ele>
        <time>2017-09-23T15:18:17Z</time>
      </trkpt>
      <trkpt lat="48.00614" lon="6.93901">
        <ele>744.41</ele>
        <time>2017-09-23T15:18:18Z</time>
      </trkpt>
      <trkpt lat="48.00557" lon="6.93837">
        <ele>743.93</ele>
        <time>2017-09-23T15:18:31Z</time>
      </trkpt>
      <trkpt lat="48.0054" lon="6.93821">
        <ele>743.49</ele>
        <time>2017-09-23T15:18:35Z</time>
      </trkpt>
      <trkpt lat="48.00536" lon="6.93817">
        <ele>744.18</ele>
        <time>2017-09-23T15:18:36Z</time>
      </trkpt>
      <trkpt lat="48.00533" lon="6.93812">
        <ele>743.72</ele>
        <time>2017-09-23T15:18:37Z</time>
      </trkpt>
      <trkpt lat="48.0053" lon="6.93808">
        <ele>743.47</ele>
        <time>2017-09-23T15:18:38Z</time>
      </trkpt>
      <trkpt lat="48.00527" lon="6.93804">
        <ele>743.7</ele>
        <time>2017-09-23T15:18:39Z</time>
      </trkpt>
      <trkpt lat="48.00524" lon="6.93799">
        <ele>743.67</ele>
        <time>2017-09-23T15:18:40Z</time>
      </trkpt>
      <trkpt lat="48.00517" lon="6.93791">
        <ele>744.05</ele>
        <time>2017-09-23T15:18:42Z</time>
      </trkpt>
      <trkpt lat="48.00513" lon="6.93788">
        <ele>744.57</ele>
        <time>2017-09-23T15:18:43Z</time>
      </trkpt>
      <trkpt lat="48.00468" lon="6.93764">
        <ele>746.43</ele>
        <time>2017-09-23T15:18:54Z</time>
      </trkpt>
      <trkpt lat="48.00464" lon="6.9376">
        <ele>745.85</ele>
        <time>2017-09-23T15:18:55Z</time>
      </trkpt>
      <trkpt lat="48.0046" lon="6.93756">
        <ele>745.89</ele>
        <time>2017-09-23T15:18:56Z</time>
      </trkpt>
      <trkpt lat="48.00436" lon="6.93733">
        <ele>745.28</ele>
        <time>2017-09-23T15:19:02Z</time>
      </trkpt>
      <trkpt lat="48.00426" lon="6.93717">
        <ele>745.09</ele>
        <time>2017-09-23T15:19:05Z</time>
      </trkpt>
      <trkpt lat="48.00386" lon="6.93606">
        <ele>744.48</ele>
        <time>2017-09-23T15:19:20Z</time>
      </trkpt>
      <trkpt lat="48.00371" lon="6.935">
        <ele>744.37</ele>
        <time>2017-09-23T15:19:34Z</time>
      </trkpt>
      <trkpt lat="48.00368" lon="6.93491">
        <ele>743.9</ele>
        <time>2017-09-23T15:19:35Z</time>
      </trkpt>
      <trkpt lat="48.00364" lon="6.93483">
        <ele>743.84</ele>
        <time>2017-09-23T15:19:36Z</time>
      </trkpt>
      <trkpt lat="48.0036" lon="6.93475">
        <ele>743.71</ele>
        <time>2017-09-23T15:19:37Z</time>
      </trkpt>
      <trkpt lat="48.00356" lon="6.93469">
        <ele>743.58</ele>
        <time>2017-09-23T15:19:38Z</time>
      </trkpt>
      <trkpt lat="48.00351" lon="6.93463">
        <ele>742.96</ele>
        <time>2017-09-23T15:19:39Z</time>
      </trkpt>
      <trkpt lat="48.00314" lon="6.93423">
        <ele>746.14</ele>
        <time>2017-09-23T15:19:48Z</time>
      </trkpt>
      <trkpt lat="48.00303" lon="6.93413">
        <ele>746.92</ele>
        <time>2017-09-23T15:19:51Z</time>
      </trkpt>
      <trkpt lat="48.003" lon="6.93409">
        <ele>747.76</ele>
        <time>2017-09-23T15:19:52Z</time>
      </trkpt>
      <trkpt lat="48.00298" lon="6.93405">
        <ele>747.44</ele>
        <time>2017-09-23T15:19:53Z</time>
      </trkpt>
      <trkpt lat="48.00297" lon="6.93399">
        <ele>747.4</ele>
        <time>2017-09-23T15:19:54Z</time>
      </trkpt>
      <trkpt lat="48.00295" lon="6.93394">
        <ele>746.91</ele>
        <time>2017-09-23T15:19:55Z</time>
      </trkpt>
      <trkpt lat="48.00293" lon="6.93388">
        <ele>747.91</ele>
        <time>2017-09-23T15:19:56Z</time>
      </trkpt>
      <trkpt lat="48.00292" lon="6.93381">
        <ele>747.31</ele>
        <time>2017-09-23T15:19:57Z</time>
      </trkpt>
      <trkpt lat="48.00291" lon="6.93374">
        <ele>747</ele>
        <time>2017-09-23T15:19:58Z</time>
      </trkpt>
      <trkpt lat="48.00286" lon="6.93344">
        <ele>745.91</ele>
        <time>2017-09-23T15:20:02Z</time>
      </trkpt>
      <trkpt lat="48.00284" lon="6.93266">
        <ele>741.98</ele>
        <time>2017-09-23T15:20:10Z</time>
      </trkpt>
      <trkpt lat="48.00281" lon="6.93158">
        <ele>737.98</ele>
        <time>2017-09-23T15:20:19Z</time>
      </trkpt>
      <trkpt lat="48.00282" lon="6.93118">
        <ele>736.57</ele>
        <time>2017-09-23T15:20:24Z</time>
      </trkpt>
      <trkpt lat="48.00284" lon="6.93097">
        <ele>735.33</ele>
        <time>2017-09-23T15:20:27Z</time>
      </trkpt>
      <trkpt lat="48.00283" lon="6.93091">
        <ele>735.59</ele>
        <time>2017-09-23T15:20:28Z</time>
      </trkpt>
      <trkpt lat="48.00281" lon="6.93085">
        <ele>735.48</ele>
        <time>2017-09-23T15:20:29Z</time>
      </trkpt>
      <trkpt lat="48.00278" lon="6.93079">
        <ele>735.68</ele>
        <time>2017-09-23T15:20:30Z</time>
      </trkpt>
      <trkpt lat="48.00274" lon="6.93074">
        <ele>736.08</ele>
        <time>2017-09-23T15:20:31Z</time>
      </trkpt>
      <trkpt lat="48.0027" lon="6.9307">
        <ele>736.14</ele>
        <time>2017-09-23T15:20:32Z</time>
      </trkpt>
      <trkpt lat="48.00265" lon="6.93067">
        <ele>736.16</ele>
        <time>2017-09-23T15:20:33Z</time>
      </trkpt>
      <trkpt lat="48.00256" lon="6.93061">
        <ele>737.51</ele>
        <time>2017-09-23T15:20:35Z</time>
      </trkpt>
      <trkpt lat="48.00249" lon="6.93053">
        <ele>738.22</ele>
        <time>2017-09-23T15:20:37Z</time>
      </trkpt>
      <trkpt lat="48.00221" lon="6.93039">
        <ele>740.96</ele>
        <time>2017-09-23T15:20:44Z</time>
      </trkpt>
      <trkpt lat="48.00201" lon="6.93037">
        <ele>741.54</ele>
        <time>2017-09-23T15:20:49Z</time>
      </trkpt>
      <trkpt lat="48.00197" lon="6.93036">
        <ele>741.9</ele>
        <time>2017-09-23T15:20:50Z</time>
      </trkpt>
      <trkpt lat="48.00188" lon="6.93034">
        <ele>742.27</ele>
        <time>2017-09-23T15:20:52Z</time>
      </trkpt>
      <trkpt lat="48.0018" lon="6.93031">
        <ele>742.34</ele>
        <time>2017-09-23T15:20:54Z</time>
      </trkpt>
      <trkpt lat="48.0016" lon="6.93019">
        <ele>742.71</ele>
        <time>2017-09-23T15:20:59Z</time>
      </trkpt>
      <trkpt lat="48.00157" lon="6.93016">
        <ele>742.73</ele>
        <time>2017-09-23T15:21:00Z</time>
      </trkpt>
      <trkpt lat="48.00128" lon="6.92964">
        <ele>744.52</ele>
        <time>2017-09-23T15:21:14Z</time>
      </trkpt>
      <trkpt lat="48.0009" lon="6.92868">
        <ele>743.61</ele>
        <time>2017-09-23T15:21:31Z</time>
      </trkpt>
      <trkpt lat="48.00084" lon="6.92848">
        <ele>744.26</ele>
        <time>2017-09-23T15:21:34Z</time>
      </trkpt>
      <trkpt lat="48.00068" lon="6.92814">
        <ele>745.85</ele>
        <time>2017-09-23T15:21:40Z</time>
      </trkpt>
      <trkpt lat="48.00039" lon="6.92744">
        <ele>748.66</ele>
        <time>2017-09-23T15:21:53Z</time>
      </trkpt>
      <trkpt lat="48.00038" lon="6.92738">
        <ele>748.92</ele>
        <time>2017-09-23T15:21:54Z</time>
      </trkpt>
      <trkpt lat="48.00011" lon="6.92689">
        <ele>751.13</ele>
        <time>2017-09-23T15:22:05Z</time>
      </trkpt>
      <trkpt lat="48.00008" lon="6.92686">
        <ele>750.97</ele>
        <time>2017-09-23T15:22:06Z</time>
      </trkpt>
      <trkpt lat="48.00005" lon="6.92682">
        <ele>751.48</ele>
        <time>2017-09-23T15:22:07Z</time>
      </trkpt>
      <trkpt lat="47.99962" lon="6.92631">
        <ele>754.51</ele>
        <time>2017-09-23T15:22:23Z</time>
      </trkpt>
      <trkpt lat="47.99933" lon="6.9256">
        <ele>755.72</ele>
        <time>2017-09-23T15:22:37Z</time>
      </trkpt>
      <trkpt lat="47.99931" lon="6.92553">
        <ele>755.28</ele>
        <time>2017-09-23T15:22:38Z</time>
      </trkpt>
      <trkpt lat="47.99905" lon="6.92451">
        <ele>752.46</ele>
        <time>2017-09-23T15:22:51Z</time>
      </trkpt>
      <trkpt lat="47.99876" lon="6.92348">
        <ele>750.77</ele>
        <time>2017-09-23T15:23:01Z</time>
      </trkpt>
      <trkpt lat="47.99862" lon="6.92313">
        <ele>749.85</ele>
        <time>2017-09-23T15:23:05Z</time>
      </trkpt>
      <trkpt lat="47.99857" lon="6.92305">
        <ele>749.12</ele>
        <time>2017-09-23T15:23:06Z</time>
      </trkpt>
      <trkpt lat="47.99852" lon="6.92298">
        <ele>749.06</ele>
        <time>2017-09-23T15:23:07Z</time>
      </trkpt>
      <trkpt lat="47.99841" lon="6.92281">
        <ele>748.45</ele>
        <time>2017-09-23T15:23:09Z</time>
      </trkpt>
      <trkpt lat="47.99838" lon="6.92271">
        <ele>748.66</ele>
        <time>2017-09-23T15:23:10Z</time>
      </trkpt>
      <trkpt lat="47.99832" lon="6.92233">
        <ele>748.06</ele>
        <time>2017-09-23T15:23:14Z</time>
      </trkpt>
      <trkpt lat="47.99832" lon="6.92223">
        <ele>747.3</ele>
        <time>2017-09-23T15:23:15Z</time>
      </trkpt>
      <trkpt lat="47.99834" lon="6.92204">
        <ele>746.7</ele>
        <time>2017-09-23T15:23:17Z</time>
      </trkpt>
      <trkpt lat="47.99835" lon="6.92195">
        <ele>746.51</ele>
        <time>2017-09-23T15:23:18Z</time>
      </trkpt>
      <trkpt lat="47.99837" lon="6.92186">
        <ele>744.44</ele>
        <time>2017-09-23T15:23:19Z</time>
      </trkpt>
      <trkpt lat="47.99839" lon="6.92178">
        <ele>744.18</ele>
        <time>2017-09-23T15:23:20Z</time>
      </trkpt>
      <trkpt lat="47.99843" lon="6.92165">
        <ele>742.77</ele>
        <time>2017-09-23T15:23:22Z</time>
      </trkpt>
      <trkpt lat="47.9985" lon="6.9214">
        <ele>741.36</ele>
        <time>2017-09-23T15:23:25Z</time>
      </trkpt>
      <trkpt lat="47.99851" lon="6.9213">
        <ele>740.68</ele>
        <time>2017-09-23T15:23:26Z</time>
      </trkpt>
      <trkpt lat="47.99855" lon="6.92085">
        <ele>737.15</ele>
        <time>2017-09-23T15:23:30Z</time>
      </trkpt>
      <trkpt lat="47.99855" lon="6.92032">
        <ele>733.31</ele>
        <time>2017-09-23T15:23:35Z</time>
      </trkpt>
      <trkpt lat="47.99855" lon="6.91971">
        <ele>729.96</ele>
        <time>2017-09-23T15:23:41Z</time>
      </trkpt>
      <trkpt lat="47.99856" lon="6.91961">
        <ele>729.72</ele>
        <time>2017-09-23T15:23:42Z</time>
      </trkpt>
      <trkpt lat="47.99857" lon="6.91952">
        <ele>729.25</ele>
        <time>2017-09-23T15:23:43Z</time>
      </trkpt>
      <trkpt lat="47.99863" lon="6.91921">
        <ele>727.36</ele>
        <time>2017-09-23T15:23:46Z</time>
      </trkpt>
      <trkpt lat="47.99876" lon="6.91849">
        <ele>724.14</ele>
        <time>2017-09-23T15:23:52Z</time>
      </trkpt>
      <trkpt lat="47.99882" lon="6.91803">
        <ele>724</ele>
        <time>2017-09-23T15:23:56Z</time>
      </trkpt>
      <trkpt lat="47.99903" lon="6.91723">
        <ele>721.53</ele>
        <time>2017-09-23T15:24:04Z</time>
      </trkpt>
      <trkpt lat="47.99907" lon="6.91716">
        <ele>720.76</ele>
        <time>2017-09-23T15:24:05Z</time>
      </trkpt>
      <trkpt lat="47.99911" lon="6.91711">
        <ele>719.66</ele>
        <time>2017-09-23T15:24:06Z</time>
      </trkpt>
      <trkpt lat="47.99915" lon="6.91707">
        <ele>718.91</ele>
        <time>2017-09-23T15:24:07Z</time>
      </trkpt>
      <trkpt lat="47.99918" lon="6.91704">
        <ele>718.76</ele>
        <time>2017-09-23T15:24:08Z</time>
      </trkpt>
      <trkpt lat="47.99926" lon="6.9167">
        <ele>718.12</ele>
        <time>2017-09-23T15:24:16Z</time>
      </trkpt>
      <trkpt lat="47.99921" lon="6.91641">
        <ele>718.46</ele>
        <time>2017-09-23T15:24:21Z</time>
      </trkpt>
      <trkpt lat="47.99919" lon="6.91635">
        <ele>718.14</ele>
        <time>2017-09-23T15:24:22Z</time>
      </trkpt>
      <trkpt lat="47.99917" lon="6.91629">
        <ele>718.7</ele>
        <time>2017-09-23T15:24:23Z</time>
      </trkpt>
      <trkpt lat="47.99914" lon="6.91624">
        <ele>718.87</ele>
        <time>2017-09-23T15:24:24Z</time>
      </trkpt>
      <trkpt lat="47.99912" lon="6.9162">
        <ele>719.07</ele>
        <time>2017-09-23T15:24:25Z</time>
      </trkpt>
      <trkpt lat="47.99911" lon="6.91572">
        <ele>722.54</ele>
        <time>2017-09-23T15:24:35Z</time>
      </trkpt>
      <trkpt lat="47.99912" lon="6.91568">
        <ele>722.74</ele>
        <time>2017-09-23T15:24:36Z</time>
      </trkpt>
      <trkpt lat="47.99916" lon="6.91541">
        <ele>724.19</ele>
        <time>2017-09-23T15:24:42Z</time>
      </trkpt>
      <trkpt lat="47.99935" lon="6.91509">
        <ele>726.5</ele>
        <time>2017-09-23T15:24:52Z</time>
      </trkpt>
      <trkpt lat="47.99962" lon="6.91466">
        <ele>724.39</ele>
        <time>2017-09-23T15:25:03Z</time>
      </trkpt>
      <trkpt lat="47.99964" lon="6.91461">
        <ele>723.67</ele>
        <time>2017-09-23T15:25:04Z</time>
      </trkpt>
      <trkpt lat="47.99974" lon="6.91444">
        <ele>722.62</ele>
        <time>2017-09-23T15:25:07Z</time>
      </trkpt>
      <trkpt lat="47.99983" lon="6.91425">
        <ele>720.8</ele>
        <time>2017-09-23T15:25:10Z</time>
      </trkpt>
      <trkpt lat="47.99988" lon="6.91412">
        <ele>719.56</ele>
        <time>2017-09-23T15:25:12Z</time>
      </trkpt>
      <trkpt lat="47.99994" lon="6.91392">
        <ele>717.06</ele>
        <time>2017-09-23T15:25:15Z</time>
      </trkpt>
      <trkpt lat="47.99995" lon="6.91386">
        <ele>717.07</ele>
        <time>2017-09-23T15:25:16Z</time>
      </trkpt>
      <trkpt lat="47.99999" lon="6.91374">
        <ele>715.43</ele>
        <time>2017-09-23T15:25:18Z</time>
      </trkpt>
      <trkpt lat="48.00003" lon="6.91368">
        <ele>715.16</ele>
        <time>2017-09-23T15:25:19Z</time>
      </trkpt>
      <trkpt lat="48.00008" lon="6.91362">
        <ele>713.34</ele>
        <time>2017-09-23T15:25:20Z</time>
      </trkpt>
      <trkpt lat="48.00019" lon="6.91348">
        <ele>712.69</ele>
        <time>2017-09-23T15:25:22Z</time>
      </trkpt>
      <trkpt lat="48.00027" lon="6.91335">
        <ele>710.35</ele>
        <time>2017-09-23T15:25:24Z</time>
      </trkpt>
      <trkpt lat="48.0003" lon="6.91328">
        <ele>710.53</ele>
        <time>2017-09-23T15:25:25Z</time>
      </trkpt>
      <trkpt lat="48.00038" lon="6.91311">
        <ele>710.15</ele>
        <time>2017-09-23T15:25:27Z</time>
      </trkpt>
      <trkpt lat="48.0004" lon="6.913">
        <ele>708.67</ele>
        <time>2017-09-23T15:25:28Z</time>
      </trkpt>
      <trkpt lat="48.00042" lon="6.91289">
        <ele>708.65</ele>
        <time>2017-09-23T15:25:29Z</time>
      </trkpt>
      <trkpt lat="48.00047" lon="6.91267">
        <ele>708.47</ele>
        <time>2017-09-23T15:25:31Z</time>
      </trkpt>
      <trkpt lat="48.0005" lon="6.91257">
        <ele>707.79</ele>
        <time>2017-09-23T15:25:32Z</time>
      </trkpt>
      <trkpt lat="48.00095" lon="6.91154">
        <ele>704.73</ele>
        <time>2017-09-23T15:25:43Z</time>
      </trkpt>
      <trkpt lat="48.00103" lon="6.91139">
        <ele>704.72</ele>
        <time>2017-09-23T15:25:45Z</time>
      </trkpt>
      <trkpt lat="48.0011" lon="6.91124">
        <ele>705.04</ele>
        <time>2017-09-23T15:25:47Z</time>
      </trkpt>
      <trkpt lat="48.0012" lon="6.91104">
        <ele>704.07</ele>
        <time>2017-09-23T15:25:50Z</time>
      </trkpt>
      <trkpt lat="48.00126" lon="6.91091">
        <ele>704.71</ele>
        <time>2017-09-23T15:25:52Z</time>
      </trkpt>
      <trkpt lat="48.00128" lon="6.91084">
        <ele>704.38</ele>
        <time>2017-09-23T15:25:53Z</time>
      </trkpt>
      <trkpt lat="48.00131" lon="6.91077">
        <ele>704.75</ele>
        <time>2017-09-23T15:25:54Z</time>
      </trkpt>
      <trkpt lat="48.00137" lon="6.91062">
        <ele>704.81</ele>
        <time>2017-09-23T15:25:56Z</time>
      </trkpt>
      <trkpt lat="48.00141" lon="6.91055">
        <ele>704.78</ele>
        <time>2017-09-23T15:25:57Z</time>
      </trkpt>
      <trkpt lat="48.00155" lon="6.91037">
        <ele>704.31</ele>
        <time>2017-09-23T15:26:00Z</time>
      </trkpt>
      <trkpt lat="48.00159" lon="6.91031">
        <ele>704.43</ele>
        <time>2017-09-23T15:26:01Z</time>
      </trkpt>
      <trkpt lat="48.00162" lon="6.91023">
        <ele>704.53</ele>
        <time>2017-09-23T15:26:02Z</time>
      </trkpt>
      <trkpt lat="48.00164" lon="6.91014">
        <ele>704.82</ele>
        <time>2017-09-23T15:26:03Z</time>
      </trkpt>
      <trkpt lat="48.00165" lon="6.91006">
        <ele>704.76</ele>
        <time>2017-09-23T15:26:04Z</time>
      </trkpt>
      <trkpt lat="48.00164" lon="6.90997">
        <ele>704.95</ele>
        <time>2017-09-23T15:26:05Z</time>
      </trkpt>
      <trkpt lat="48.00164" lon="6.90988">
        <ele>704.82</ele>
        <time>2017-09-23T15:26:06Z</time>
      </trkpt>
      <trkpt lat="48.00159" lon="6.9094">
        <ele>706.01</ele>
        <time>2017-09-23T15:26:12Z</time>
      </trkpt>
      <trkpt lat="48.00159" lon="6.90933">
        <ele>706.25</ele>
        <time>2017-09-23T15:26:13Z</time>
      </trkpt>
      <trkpt lat="48.00161" lon="6.90889">
        <ele>706.19</ele>
        <time>2017-09-23T15:26:19Z</time>
      </trkpt>
      <trkpt lat="48.00163" lon="6.90863">
        <ele>705.66</ele>
        <time>2017-09-23T15:26:23Z</time>
      </trkpt>
      <trkpt lat="48.00163" lon="6.90856">
        <ele>705.87</ele>
        <time>2017-09-23T15:26:24Z</time>
      </trkpt>
      <trkpt lat="48.00163" lon="6.90849">
        <ele>705.67</ele>
        <time>2017-09-23T15:26:25Z</time>
      </trkpt>
      <trkpt lat="48.00164" lon="6.90842">
        <ele>705.5</ele>
        <time>2017-09-23T15:26:26Z</time>
      </trkpt>
      <trkpt lat="48.00165" lon="6.90835">
        <ele>705.51</ele>
        <time>2017-09-23T15:26:27Z</time>
      </trkpt>
      <trkpt lat="48.00167" lon="6.90828">
        <ele>705.61</ele>
        <time>2017-09-23T15:26:28Z</time>
      </trkpt>
      <trkpt lat="48.00169" lon="6.90821">
        <ele>705.27</ele>
        <time>2017-09-23T15:26:29Z</time>
      </trkpt>
      <trkpt lat="48.00171" lon="6.90813">
        <ele>705.42</ele>
        <time>2017-09-23T15:26:30Z</time>
      </trkpt>
      <trkpt lat="48.00174" lon="6.90806">
        <ele>705.28</ele>
        <time>2017-09-23T15:26:31Z</time>
      </trkpt>
      <trkpt lat="48.00184" lon="6.9076">
        <ele>702.87</ele>
        <time>2017-09-23T15:26:38Z</time>
      </trkpt>
      <trkpt lat="48.00184" lon="6.90752">
        <ele>702.32</ele>
        <time>2017-09-23T15:26:39Z</time>
      </trkpt>
      <trkpt lat="48.00182" lon="6.90736">
        <ele>701.06</ele>
        <time>2017-09-23T15:26:41Z</time>
      </trkpt>
      <trkpt lat="48.00182" lon="6.90728">
        <ele>700.52</ele>
        <time>2017-09-23T15:26:42Z</time>
      </trkpt>
      <trkpt lat="48.00181" lon="6.9072">
        <ele>699.4</ele>
        <time>2017-09-23T15:26:43Z</time>
      </trkpt>
      <trkpt lat="48.0018" lon="6.90713">
        <ele>700.2</ele>
        <time>2017-09-23T15:26:44Z</time>
      </trkpt>
      <trkpt lat="48.00171" lon="6.90665">
        <ele>698.47</ele>
        <time>2017-09-23T15:26:53Z</time>
      </trkpt>
      <trkpt lat="48.00173" lon="6.90647">
        <ele>696.6</ele>
        <time>2017-09-23T15:26:56Z</time>
      </trkpt>
      <trkpt lat="48.00176" lon="6.90622">
        <ele>695.12</ele>
        <time>2017-09-23T15:26:59Z</time>
      </trkpt>
      <trkpt lat="48.00183" lon="6.90554">
        <ele>692.95</ele>
        <time>2017-09-23T15:27:05Z</time>
      </trkpt>
      <trkpt lat="48.00183" lon="6.90542">
        <ele>691.99</ele>
        <time>2017-09-23T15:27:06Z</time>
      </trkpt>
      <trkpt lat="48.00188" lon="6.90492">
        <ele>690.81</ele>
        <time>2017-09-23T15:27:10Z</time>
      </trkpt>
      <trkpt lat="48.00199" lon="6.90415">
        <ele>687.22</ele>
        <time>2017-09-23T15:27:16Z</time>
      </trkpt>
      <trkpt lat="48.00202" lon="6.90388">
        <ele>684.75</ele>
        <time>2017-09-23T15:27:20Z</time>
      </trkpt>
      <trkpt lat="48.00204" lon="6.90374">
        <ele>684.62</ele>
        <time>2017-09-23T15:27:31Z</time>
      </trkpt>
      <trkpt lat="48.00203" lon="6.90371">
        <ele>684.28</ele>
        <time>2017-09-23T15:28:12Z</time>
      </trkpt>
      <trkpt lat="48.00203" lon="6.90367">
        <ele>685.3</ele>
        <time>2017-09-23T15:28:34Z</time>
      </trkpt>
      <trkpt lat="48.00203" lon="6.90364">
        <ele>684.49</ele>
        <time>2017-09-23T15:28:35Z</time>
      </trkpt>
      <trkpt lat="48.00201" lon="6.90361">
        <ele>684.69</ele>
        <time>2017-09-23T15:28:36Z</time>
      </trkpt>
      <trkpt lat="48.00198" lon="6.9036">
        <ele>685.29</ele>
        <time>2017-09-23T15:28:37Z</time>
      </trkpt>
      <trkpt lat="48.00195" lon="6.90358">
        <ele>685.26</ele>
        <time>2017-09-23T15:28:38Z</time>
      </trkpt>
      <trkpt lat="48.00183" lon="6.90346">
        <ele>686.41</ele>
        <time>2017-09-23T15:28:42Z</time>
      </trkpt>
      <trkpt lat="48.00174" lon="6.90294">
        <ele>689.52</ele>
        <time>2017-09-23T15:28:52Z</time>
      </trkpt>
      <trkpt lat="48.0019" lon="6.90209">
        <ele>687.52</ele>
        <time>2017-09-23T15:29:04Z</time>
      </trkpt>
      <trkpt lat="48.00192" lon="6.90201">
        <ele>687.27</ele>
        <time>2017-09-23T15:29:05Z</time>
      </trkpt>
      <trkpt lat="48.00185" lon="6.90084">
        <ele>686.74</ele>
        <time>2017-09-23T15:29:18Z</time>
      </trkpt>
      <trkpt lat="48.00173" lon="6.90028">
        <ele>685.78</ele>
        <time>2017-09-23T15:29:25Z</time>
      </trkpt>
      <trkpt lat="48.00173" lon="6.9002">
        <ele>686.08</ele>
        <time>2017-09-23T15:29:26Z</time>
      </trkpt>
      <trkpt lat="48.00171" lon="6.89968">
        <ele>686.34</ele>
        <time>2017-09-23T15:29:32Z</time>
      </trkpt>
      <trkpt lat="48.00172" lon="6.8995">
        <ele>686.61</ele>
        <time>2017-09-23T15:29:34Z</time>
      </trkpt>
      <trkpt lat="48.0017" lon="6.8989">
        <ele>686.73</ele>
        <time>2017-09-23T15:29:41Z</time>
      </trkpt>
      <trkpt lat="48.0017" lon="6.89881">
        <ele>686.19</ele>
        <time>2017-09-23T15:29:42Z</time>
      </trkpt>
      <trkpt lat="48.00175" lon="6.89845">
        <ele>685.74</ele>
        <time>2017-09-23T15:29:46Z</time>
      </trkpt>
      <trkpt lat="48.00191" lon="6.89763">
        <ele>682.7</ele>
        <time>2017-09-23T15:29:54Z</time>
      </trkpt>
      <trkpt lat="48.00202" lon="6.89729">
        <ele>681.25</ele>
        <time>2017-09-23T15:29:57Z</time>
      </trkpt>
      <trkpt lat="48.00218" lon="6.89697">
        <ele>679.98</ele>
        <time>2017-09-23T15:30:00Z</time>
      </trkpt>
      <trkpt lat="48.00273" lon="6.89571">
        <ele>676.89</ele>
        <time>2017-09-23T15:30:12Z</time>
      </trkpt>
      <trkpt lat="48.003" lon="6.89423">
        <ele>673.73</ele>
        <time>2017-09-23T15:30:25Z</time>
      </trkpt>
      <trkpt lat="48.00316" lon="6.89317">
        <ele>670.52</ele>
        <time>2017-09-23T15:30:33Z</time>
      </trkpt>
      <trkpt lat="48.00336" lon="6.89181">
        <ele>667</ele>
        <time>2017-09-23T15:30:44Z</time>
      </trkpt>
      <trkpt lat="48.00338" lon="6.89171">
        <ele>667.18</ele>
        <time>2017-09-23T15:30:45Z</time>
      </trkpt>
      <trkpt lat="48.00357" lon="6.89015">
        <ele>666.03</ele>
        <time>2017-09-23T15:31:00Z</time>
      </trkpt>
      <trkpt lat="48.00386" lon="6.88878">
        <ele>666.78</ele>
        <time>2017-09-23T15:31:15Z</time>
      </trkpt>
      <trkpt lat="48.00433" lon="6.88773">
        <ele>664.66</ele>
        <time>2017-09-23T15:31:27Z</time>
      </trkpt>
      <trkpt lat="48.00453" lon="6.887">
        <ele>666.23</ele>
        <time>2017-09-23T15:31:35Z</time>
      </trkpt>
      <trkpt lat="48.00456" lon="6.88694">
        <ele>666.5</ele>
        <time>2017-09-23T15:31:36Z</time>
      </trkpt>
      <trkpt lat="48.00459" lon="6.88688">
        <ele>666.88</ele>
        <time>2017-09-23T15:31:37Z</time>
      </trkpt>
      <trkpt lat="48.00487" lon="6.8865">
        <ele>669.95</ele>
        <time>2017-09-23T15:31:46Z</time>
      </trkpt>
      <trkpt lat="48.00504" lon="6.88622">
        <ele>670.99</ele>
        <time>2017-09-23T15:31:52Z</time>
      </trkpt>
      <trkpt lat="48.00517" lon="6.88587">
        <ele>670.49</ele>
        <time>2017-09-23T15:31:59Z</time>
      </trkpt>
      <trkpt lat="48.00521" lon="6.88582">
        <ele>670.12</ele>
        <time>2017-09-23T15:32:00Z</time>
      </trkpt>
      <trkpt lat="48.0053" lon="6.88569">
        <ele>668.06</ele>
        <time>2017-09-23T15:32:02Z</time>
      </trkpt>
      <trkpt lat="48.00533" lon="6.88562">
        <ele>668.06</ele>
        <time>2017-09-23T15:32:03Z</time>
      </trkpt>
      <trkpt lat="48.00537" lon="6.88555">
        <ele>666.8</ele>
        <time>2017-09-23T15:32:04Z</time>
      </trkpt>
      <trkpt lat="48.0054" lon="6.88547">
        <ele>665.74</ele>
        <time>2017-09-23T15:32:05Z</time>
      </trkpt>
      <trkpt lat="48.00544" lon="6.8854">
        <ele>664.83</ele>
        <time>2017-09-23T15:32:06Z</time>
      </trkpt>
      <trkpt lat="48.00556" lon="6.88518">
        <ele>661</ele>
        <time>2017-09-23T15:32:09Z</time>
      </trkpt>
      <trkpt lat="48.00565" lon="6.88502">
        <ele>658.36</ele>
        <time>2017-09-23T15:32:12Z</time>
      </trkpt>
      <trkpt lat="48.00568" lon="6.88498">
        <ele>657.69</ele>
        <time>2017-09-23T15:32:13Z</time>
      </trkpt>
      <trkpt lat="48.00573" lon="6.88497">
        <ele>657.49</ele>
        <time>2017-09-23T15:32:14Z</time>
      </trkpt>
      <trkpt lat="48.00578" lon="6.88498">
        <ele>657.44</ele>
        <time>2017-09-23T15:32:15Z</time>
      </trkpt>
      <trkpt lat="48.00607" lon="6.88503">
        <ele>656.65</ele>
        <time>2017-09-23T15:32:21Z</time>
      </trkpt>
      <trkpt lat="48.0062" lon="6.88493">
        <ele>657.51</ele>
        <time>2017-09-23T15:32:26Z</time>
      </trkpt>
      <trkpt lat="48.00627" lon="6.88395">
        <ele>658.01</ele>
        <time>2017-09-23T15:32:39Z</time>
      </trkpt>
      <trkpt lat="48.00628" lon="6.88375">
        <ele>657.95</ele>
        <time>2017-09-23T15:32:42Z</time>
      </trkpt>
      <trkpt lat="48.0063" lon="6.88354">
        <ele>658.05</ele>
        <time>2017-09-23T15:32:45Z</time>
      </trkpt>
      <trkpt lat="48.0063" lon="6.8834">
        <ele>658.49</ele>
        <time>2017-09-23T15:32:47Z</time>
      </trkpt>
      <trkpt lat="48.0063" lon="6.88334">
        <ele>657.45</ele>
        <time>2017-09-23T15:32:48Z</time>
      </trkpt>
      <trkpt lat="48.00631" lon="6.88326">
        <ele>656.98</ele>
        <time>2017-09-23T15:32:49Z</time>
      </trkpt>
      <trkpt lat="48.00634" lon="6.88319">
        <ele>656.29</ele>
        <time>2017-09-23T15:32:50Z</time>
      </trkpt>
      <trkpt lat="48.00637" lon="6.88312">
        <ele>656.35</ele>
        <time>2017-09-23T15:32:51Z</time>
      </trkpt>
      <trkpt lat="48.0064" lon="6.88304">
        <ele>655.61</ele>
        <time>2017-09-23T15:32:52Z</time>
      </trkpt>
      <trkpt lat="48.00661" lon="6.88247">
        <ele>653.44</ele>
        <time>2017-09-23T15:32:58Z</time>
      </trkpt>
      <trkpt lat="48.0069" lon="6.88194">
        <ele>650.96</ele>
        <time>2017-09-23T15:33:07Z</time>
      </trkpt>
      <trkpt lat="48.00693" lon="6.88195">
        <ele>650.91</ele>
        <time>2017-09-23T15:33:08Z</time>
      </trkpt>
      <trkpt lat="48.00697" lon="6.88198">
        <ele>650.92</ele>
        <time>2017-09-23T15:33:09Z</time>
      </trkpt>
      <trkpt lat="48.007" lon="6.88202">
        <ele>650.87</ele>
        <time>2017-09-23T15:33:10Z</time>
      </trkpt>
      <trkpt lat="48.00704" lon="6.88207">
        <ele>651.01</ele>
        <time>2017-09-23T15:33:11Z</time>
      </trkpt>
      <trkpt lat="48.00714" lon="6.88223">
        <ele>652.06</ele>
        <time>2017-09-23T15:33:14Z</time>
      </trkpt>
      <trkpt lat="48.0074" lon="6.88259">
        <ele>652.54</ele>
        <time>2017-09-23T15:33:23Z</time>
      </trkpt>
      <trkpt lat="48.00741" lon="6.88262">
        <ele>652.18</ele>
        <time>2017-09-23T15:33:24Z</time>
      </trkpt>
      <trkpt lat="48.00741" lon="6.88265">
        <ele>652.2</ele>
        <time>2017-09-23T15:33:25Z</time>
      </trkpt>
      <trkpt lat="48.00741" lon="6.88267">
        <ele>652.69</ele>
        <time>2017-09-23T15:33:26Z</time>
      </trkpt>
      <trkpt lat="48.00741" lon="6.88269">
        <ele>652.46</ele>
        <time>2017-09-23T15:33:27Z</time>
      </trkpt>
      <trkpt lat="48.00747" lon="6.88283">
        <ele>653.31</ele>
        <time>2017-09-23T15:33:31Z</time>
      </trkpt>
      <trkpt lat="48.00752" lon="6.88283">
        <ele>653.08</ele>
        <time>2017-09-23T15:33:32Z</time>
      </trkpt>
      <trkpt lat="48.00756" lon="6.88284">
        <ele>653.43</ele>
        <time>2017-09-23T15:33:33Z</time>
      </trkpt>
      <trkpt lat="48.0076" lon="6.88283">
        <ele>653.4</ele>
        <time>2017-09-23T15:33:34Z</time>
      </trkpt>
      <trkpt lat="48.00763" lon="6.88283">
        <ele>653.36</ele>
        <time>2017-09-23T15:33:35Z</time>
      </trkpt>
      <trkpt lat="48.00766" lon="6.88284">
        <ele>653.52</ele>
        <time>2017-09-23T15:33:36Z</time>
      </trkpt>
      <trkpt lat="48.00771" lon="6.8828">
        <ele>652.83</ele>
        <time>2017-09-23T15:33:47Z</time>
      </trkpt>
      <trkpt lat="48.00774" lon="6.88278">
        <ele>653.06</ele>
        <time>2017-09-23T15:34:06Z</time>
      </trkpt>
      <trkpt lat="48.0077" lon="6.8828">
        <ele>652.69</ele>
        <time>2017-09-23T15:34:21Z</time>
      </trkpt>
      <trkpt lat="48.00771" lon="6.88288">
        <ele>653.13</ele>
        <time>2017-09-23T15:34:40Z</time>
      </trkpt>
      <trkpt lat="48.00772" lon="6.88287">
        <ele>653.05</ele>
        <time>2017-09-23T15:34:41Z</time>
      </trkpt>
      <trkpt lat="48.00772" lon="6.88287">
        <ele>653.46</ele>
        <time>2017-09-23T15:34:42Z</time>
      </trkpt>
      <trkpt lat="48.00774" lon="6.88289">
        <ele>653.3</ele>
        <time>2017-09-23T15:34:57Z</time>
      </trkpt>
      <trkpt lat="48.00773" lon="6.88287">
        <ele>653.31</ele>
        <time>2017-09-23T15:35:19Z</time>
      </trkpt>
      <trkpt lat="48.00773" lon="6.88288">
        <ele>653.11</ele>
        <time>2017-09-23T15:35:42Z</time>
      </trkpt>
      <trkpt lat="48.00772" lon="6.8829">
        <ele>653.36</ele>
        <time>2017-09-23T15:36:08Z</time>
      </trkpt>
      <trkpt lat="48.00773" lon="6.8829">
        <ele>652.77</ele>
        <time>2017-09-23T15:36:31Z</time>
      </trkpt>
    </trkseg>
  </trk>
</gpx>